# Wetter Temperatur Luftdruck Luftfeuchtigkeit Sichtweite Windgeschwindigkeit Windrichtung Zeit
1 Clouds 24 1014 73 10000 4.6 70 22:29 24.01.2020
2 Clouds 23 1014 69 10000 4.1 80 21:59 24.01.2020
3 Clouds 23 1014 73 10000 3.6 80 21:41 24.01.2020
4 Clouds 23 1014 73 10000 3.6 80 21:19 24.01.2020
5 Clouds 23 1013 73 10000 4.1 90 20:44 24.01.2020
6 Clouds 23 1013 94 10000 2.6 220 20:23 24.01.2020
7 Clouds 23 1013 94 10000 2.6 230 19:59 24.01.2020
8 Clouds 23 1013 100 10000 2.6 230 19:41 24.01.2020
9 Clouds 23 1013 100 10000 2.6 230 19:22 24.01.2020
10 Clouds 23 1012 94 10000 2.1 220 18:58 24.01.2020
11 Clouds 23 1013 78 10000 5.1 90 18:40 24.01.2020
12 Clouds 23 1013 78 10000 5.1 90 18:22 24.01.2020
13 Clouds 23 1013 78 10000 4.6 90 17:45 24.01.2020
14 Clouds 23 1013 78 10000 4.6 90 17:22 24.01.2020
15 Clouds 23 1013 78 10000 4.1 90 16:57 24.01.2020
16 Clouds 23 1013 78 10000 4.6 90 16:38 24.01.2020
17 Clouds 23 1013 78 10000 4.6 90 16:19 24.01.2020
18 Rain 23 1013 78 10000 5.7 100 15:42 24.01.2020
19 Rain 23 1013 78 10000 5.7 100 15:21 24.01.2020
20 Clouds 23 1013 83 10000 4.6 110 14:55 24.01.2020
21 Clouds 23 1013 83 10000 4.6 90 14:37 24.01.2020
22 Clouds 23 1013 88 10000 4.6 90 14:19 24.01.2020
23 Rain 23 1013 88 10000 4.1 90 13:41 24.01.2020
24 Rain 23 1013 88 10000 4.1 90 13:22 24.01.2020
25 Rain 23 1013 88 10000 4.1 90 13:22 24.01.2020
26 Drizzle 23 1014 88 6000 4.1 90 12:43 24.01.2020
27 Drizzle 24 1014 88 6000 4.1 90 12:21 24.01.2020
28 Clouds 24 1012 73 10000 4.6 110 11:45 24.01.2020
29 Clouds 24 1012 73 10000 4.6 110 11:19 24.01.2020
30 Clouds 24 1012 73 10000 4.6 110 11:19 24.01.2020
31 Clouds 24 1012 73 10000 4.6 100 10:59 24.01.2020
32 Clouds 24 1011 73 10000 4.6 90 10:40 24.01.2020
33 Clouds 24 1011 73 10000 4.6 90 10:19 24.01.2020
34 Clouds 25 1010 73 10000 5.7 110 09:42 24.01.2020
35 Clouds 25 1010 73 10000 5.7 110 09:42 24.01.2020
36 Clouds 25 1010 73 10000 5.7 110 09:24 24.01.2020
37 Clouds 25 1009 78 10000 6.7 90 08:59 24.01.2020
38 Clouds 25 1009 73 10000 7.2 90 08:36 24.01.2020
39 Clouds 26 1009 73 10000 6.2 100 08:18 24.01.2020
40 Clouds 26 1009 69 10000 6.2 90 07:42 24.01.2020
41 Clouds 27 1009 69 10000 4.6 90 07:21 24.01.2020
42 Clouds 27 1009 69 10000 4.1 150 06:43 24.01.2020
43 Clouds 27 1009 69 10000 4.1 150 06:43 24.01.2020
44 Clouds 27 1009 69 10000 4.1 150 06:23 24.01.2020
45 Clouds 26 1009 57 10000 3.1 40 05:21 24.01.2020
46 Rain 25 1010 78 10000 3.6 170 03:34 24.01.2020
47 Rain 24 1011 78 10000 5.7 200 02:39 24.01.2020
48 Rain 25 1011 78 10000 5.7 200 02:20 24.01.2020
49 Rain 24 1011 78 7000 5.1 200 01:38 24.01.2020
50 Thunderstorm 23 1010 83 9000 7.2 210 00:42 24.01.2020
51 Rain 23 1010 83 10000 6.7 190 00:19 24.01.2020
52 Rain 22 1009 83 8000 6.7 190 23:41 23.01.2020
53 Rain 22 1009 83 8000 6.7 190 23:21 23.01.2020
54 Thunderstorm 22 1009 78 9000 5.1 170 22:58 23.01.2020
55 Smoke 24 1009 73 10000 5.1 170 22:37 23.01.2020
56 Smoke 24 1009 73 10000 5.1 170 22:37 23.01.2020
57 Smoke 24 1009 73 10000 5.1 170 22:18 23.01.2020
58 Smoke 24 1008 69 10000 5.1 170 21:55 23.01.2020
59 Rain 24 1008 73 9000 6.2 170 21:37 23.01.2020
60 Rain 24 1008 73 9000 6.2 170 21:19 23.01.2020
61 Rain 24 1007 78 8000 6.2 170 20:54 23.01.2020
62 Rain 24 1006 78 7000 6.2 170 20:36 23.01.2020
63 Rain 25 1006 78 8000 5.1 180 20:18 23.01.2020
64 Rain 25 1005 78 10000 6.2 170 19:42 23.01.2020
65 Rain 25 1005 78 10000 6.2 170 19:23 23.01.2020
66 Rain 26 1004 73 10000 5.1 170 18:57 23.01.2020
67 Rain 26 1004 69 10000 5.1 170 18:38 23.01.2020
68 Rain 27 1004 61 10000 5.7 180 18:19 23.01.2020
69 Rain 27 1004 61 10000 5.7 180 17:55 23.01.2020
70 Rain 28 1003 57 10000 8.7 190 17:37 23.01.2020
71 Rain 28 1003 57 10000 8.7 190 17:18 23.01.2020
72 Rain 29 1002 55 10000 5.1 330 16:39 23.01.2020
73 Rain 29 1002 55 10000 5.1 330 16:20 23.01.2020
74 Rain 29 1002 61 10000 3.1 350 15:58 23.01.2020
75 Rain 29 1002 51 10000 4.1 340 15:39 23.01.2020
76 Rain 29 1002 48 10000 8.7 340 15:19 23.01.2020
77 Rain 30 1002 48 10000 8.7 340 14:59 23.01.2020
78 Rain 30 1002 48 10000 7.7 330 14:41 23.01.2020
79 Clouds 30 1002 48 10000 7.7 330 14:22 23.01.2020
80 Clouds 30 1002 48 10000 7.7 360 13:56 23.01.2020
81 Clouds 30 1002 46 10000 10.3 10 13:37 23.01.2020
82 Clouds 30 1002 46 10000 10.3 10 13:18 23.01.2020
83 Drizzle 30 1001 55 8000 5.7 20 12:43 23.01.2020
84 Drizzle 30 1001 55 8000 5.7 20 12:24 23.01.2020
85 Clouds 30 1000 62 9000 2.32 318 11:56 23.01.2020
86 Drizzle 29 1000 58 10000 4.1 50 11:37 23.01.2020
87 Drizzle 29 1000 58 10000 4.1 50 11:37 23.01.2020
88 Drizzle 32 1000 58 10000 4.1 50 11:18 23.01.2020
89 Drizzle 32 1000 58 10000 4.1 50 11:18 23.01.2020
90 Dust 33 999 55 9000 5.1 30 10:43 23.01.2020
91 Dust 32 999 55 9000 5.1 30 10:19 23.01.2020
92 Dust 31 998 52 10000 5.1 30 09:43 23.01.2020
93 Clouds 34 997 55 10000 9.3 30 09:25 23.01.2020
94 Clouds 33 997 55 10000 9.3 30 08:58 23.01.2020
95 Clouds 32 997 52 10000 9.3 40 08:40 23.01.2020
96 Clouds 38 997 52 10000 9.3 40 08:21 23.01.2020
97 Clouds 40 997 41 10000 9.8 50 07:44 23.01.2020
98 Clouds 40 997 41 10000 9.8 50 07:24 23.01.2020
99 Clouds 40 997 18 10000 9.8 320 06:51 23.01.2020
100 Clouds 41 997 12 8000 11.3 340 06:22 23.01.2020
101 Clouds 41 998 13 10000 12.9 350 05:44 23.01.2020
102 Clouds 41 999 12 10000 13.4 340 04:24 23.01.2020
103 Clouds 40 1000 15 10000 11.8 330 02:33 23.01.2020
104 Clouds 37 1001 25 10000 11.8 330 01:19 23.01.2020
105 Clouds 35 1002 32 10000 8.2 360 00:27 23.01.2020
106 Clouds 33 1002 33 10000 11.8 330 23:48 22.01.2020
107 Clouds 32 1003 35 10000 9.3 340 23:29 22.01.2020
108 Clouds 30 1003 40 10000 7.7 330 22:59 22.01.2020
109 Clouds 28 1002 45 10000 4.1 320 22:40 22.01.2020
110 Clouds 27 1002 45 10000 4.1 320 22:22 22.01.2020
111 Clouds 26 1003 50 10000 9.3 330 21:40 22.01.2020
112 Clouds 24 1003 50 10000 9.3 330 21:22 22.01.2020
113 Clouds 24 1003 57 10000 9.3 330 20:57 22.01.2020
114 Clouds 23 1003 64 10000 2.6 350 20:38 22.01.2020
115 Clouds 23 1003 64 10000 2.6 350 20:38 22.01.2020
116 Clear 22 1003 64 10000 2.6 350 20:20 22.01.2020
117 Clear 21 1003 60 10000 3.6 330 19:56 22.01.2020
118 Clear 20 1003 64 10000 2.6 330 19:38 22.01.2020
119 Clear 20 1003 64 10000 2.6 330 19:18 22.01.2020
120 Clear 20 1003 73 10000 1.5 10 18:56 22.01.2020
121 Clear 20 1003 73 10000 1.5 20 18:38 22.01.2020
122 Clear 21 1003 73 10000 2.6 30 18:19 22.01.2020
123 Clear 21 1003 73 10000 2.6 30 18:19 22.01.2020
124 Clear 20 1003 73 10000 2.6 30 17:54 22.01.2020
125 Clear 21 1003 69 10000 1.89 311 17:36 22.01.2020
126 Clear 21 1004 64 10000 2.02 325 17:18 22.01.2020
127 Clear 22 1004 73 10000 2.02 325 16:42 22.01.2020
128 Clear 22 1004 73 10000 2.02 325 16:22 22.01.2020
129 Clear 23 1005 57 10000 2.02 325 15:58 22.01.2020
130 Clear 23 1005 65 10000 2.02 325 15:38 22.01.2020
131 Clear 23 1005 65 10000 2.02 325 15:20 22.01.2020
132 Clear 24 1006 57 10000 2.02 325 14:40 22.01.2020
133 Clear 24 1006 57 10000 2.63 16 14:21 22.01.2020
134 Clear 25 1006 61 10000 2.63 16 13:59 22.01.2020
135 Clear 25 1006 65 10000 1.5 40 13:38 22.01.2020
136 Clear 25 1006 65 10000 1.5 40 13:20 22.01.2020
137 Clear 26 1006 74 10000 4.6 10 12:58 22.01.2020
138 Clear 26 1006 74 10000 6.2 20 12:40 22.01.2020
139 Clear 26 1006 74 10000 6.2 20 12:20 22.01.2020
140 Clear 26 1005 78 10000 7.2 30 11:58 22.01.2020
141 Clouds 27 1005 78 10000 8.7 30 11:40 22.01.2020
142 Clouds 27 1005 78 10000 8.7 30 11:19 22.01.2020
143 Clouds 27 1005 78 10000 8.7 30 11:19 22.01.2020
144 Clouds 27 1005 78 10000 8.7 30 10:59 22.01.2020
145 Clouds 27 1005 74 10000 8.7 30 10:41 22.01.2020
146 Clouds 27 1005 74 10000 8.7 30 10:18 22.01.2020
147 Clear 28 1005 62 10000 7.7 40 09:42 22.01.2020
148 Clear 29 1005 62 10000 7.7 40 09:24 22.01.2020
149 Clouds 29 1004 58 10000 8.2 50 08:57 22.01.2020
150 Clouds 30 1004 58 10000 10.3 40 08:39 22.01.2020
151 Clouds 30 1004 58 10000 10.3 40 08:20 22.01.2020
152 Clear 30 1005 62 10000 9.8 50 07:46 22.01.2020
153 Clear 30 1005 58 10000 10.3 50 07:28 22.01.2020
154 Clear 30 1006 58 10000 10.8 60 06:46 22.01.2020
155 Clear 31 1006 58 10000 10.8 60 06:26 22.01.2020
156 Clouds 32 1007 52 10000 10.3 50 05:26 22.01.2020
157 Clouds 31 1009 58 10000 7.2 50 03:30 22.01.2020
158 Clouds 31 1009 55 10000 7.7 60 02:57 22.01.2020
159 Clear 30 1010 54 10000 3.6 20 01:42 22.01.2020
160 Clouds 28 1011 58 10000 3.6 10 00:44 22.01.2020
161 Clouds 27 1011 58 10000 3.6 10 00:26 22.01.2020
162 Clouds 26 1011 61 10000 2.1 300 23:38 21.01.2020
163 Clouds 25 1011 61 10000 2.1 300 23:20 21.01.2020
164 Clear 24 1011 69 10000 2.1 290 22:56 21.01.2020
165 Clear 23 1011 65 10000 2.1 310 22:37 21.01.2020
166 Clear 22 1011 73 10000 0.5 310 22:19 21.01.2020
167 Clear 21 1011 94 10000 1.9 302 21:55 21.01.2020
168 Clear 20 1011 100 10000 1.9 302 21:37 21.01.2020
169 Clear 20 1011 100 10000 1.9 302 21:18 21.01.2020
170 Clear 19 1010 93 10000 1.9 302 20:55 21.01.2020
171 Clear 19 1010 93 10000 1.9 302 20:37 21.01.2020
172 Clear 18 1010 93 10000 1.42 257 20:18 21.01.2020
173 Clear 18 1010 93 10000 1.42 257 19:55 21.01.2020
174 Clouds 19 1010 88 10000 1.42 257 19:36 21.01.2020
175 Clouds 19 1010 88 10000 1.42 257 19:18 21.01.2020
176 Clouds 19 1010 88 10000 1.42 257 18:54 21.01.2020
177 Clouds 19 1010 83 10000 1.42 257 18:36 21.01.2020
178 Clouds 19 1010 88 10000 1.42 257 18:18 21.01.2020
179 Clear 19 1010 88 10000 1.42 257 17:42 21.01.2020
180 Clear 19 1010 88 10000 0.41 292 17:19 21.01.2020
181 Clear 20 1010 82 10000 1.5 250 16:57 21.01.2020
182 Clouds 20 1010 78 10000 0.41 292 16:36 21.01.2020
183 Clouds 20 1010 78 10000 0.41 292 16:18 21.01.2020
184 Clear 20 1011 83 10000 0.41 292 15:40 21.01.2020
185 Clear 20 1011 82 10000 0.41 292 15:20 21.01.2020
186 Clear 20 1011 82 10000 0.41 292 14:57 21.01.2020
187 Clear 21 1011 82 10000 1.5 230 14:37 21.01.2020
188 Clouds 21 1011 77 10000 0.5 270 14:18 21.01.2020
189 Clear 21 1011 73 10000 0.5 70 13:39 21.01.2020
190 Clear 22 1011 69 10000 2.1 80 13:18 21.01.2020
191 Clear 22 1010 69 10000 1.27 92 12:43 21.01.2020
192 Clear 23 1010 69 10000 1.27 92 12:25 21.01.2020
193 Clear 23 1010 69 10000 2.6 140 11:57 21.01.2020
194 Clear 23 1009 69 10000 2.6 110 11:38 21.01.2020
195 Clear 23 1009 69 10000 2.6 110 11:19 21.01.2020
196 Clear 24 1009 65 10000 5.1 100 10:44 21.01.2020
197 Clear 24 1009 65 10000 5.1 100 10:23 21.01.2020
198 Clear 25 1008 61 10000 5.1 80 09:58 21.01.2020
199 Clear 25 1007 54 10000 7.2 100 09:40 21.01.2020
200 Clear 25 1007 54 10000 7.7 100 09:21 21.01.2020
201 Clear 26 1007 54 10000 7.7 100 08:47 21.01.2020
202 Clear 26 1007 47 10000 7.7 100 08:27 21.01.2020
203 Clouds 27 1006 47 10000 7.2 110 07:57 21.01.2020
204 Clouds 27 1006 42 10000 7.2 100 07:38 21.01.2020
205 Clouds 28 1006 42 10000 7.2 100 07:19 21.01.2020
206 Clouds 28 1006 42 10000 7.2 80 06:45 21.01.2020
207 Clouds 29 1006 37 10000 7.2 80 06:23 21.01.2020
208 Clouds 29 1006 39 10000 7.2 80 05:41 21.01.2020
209 Clear 31 1006 37 10000 7.2 80 04:39 21.01.2020
210 Clear 30 1006 29 10000 3.6 210 02:54 21.01.2020
211 Clouds 29 1007 39 10000 6.7 220 01:47 21.01.2020
212 Clear 28 1007 39 10000 5.1 260 00:54 21.01.2020
213 Clear 27 1007 42 10000 3.6 240 00:32 21.01.2020
214 Clear 26 1007 50 10000 3.6 230 23:57 20.01.2020
215 Clear 26 1007 47 10000 4.1 270 23:37 20.01.2020
216 Clear 25 1006 47 10000 4.6 300 23:18 20.01.2020
217 Clear 24 1006 47 10000 4.6 300 22:56 20.01.2020
218 Clear 24 1006 57 10000 4.6 320 22:37 20.01.2020
219 Clear 23 1006 57 10000 4.6 320 22:18 20.01.2020
220 Clear 21 1005 64 10000 3.6 330 21:57 20.01.2020
221 Clear 21 1005 77 10000 2.1 320 21:36 20.01.2020
222 Clear 20 1005 83 10000 2.1 310 21:18 20.01.2020
223 Clear 19 1005 83 10000 2.1 310 20:55 20.01.2020
224 Clear 18 1004 82 10000 2.59 299 20:36 20.01.2020
225 Clear 18 1004 82 10000 1.97 287 20:18 20.01.2020
226 Clear 18 1004 82 10000 1.97 287 19:56 20.01.2020
227 Clear 18 1004 88 10000 1.97 287 19:37 20.01.2020
228 Clear 18 1004 88 10000 1.97 287 19:18 20.01.2020
229 Clear 19 1003 83 10000 1.97 287 18:42 20.01.2020
230 Clear 19 1003 83 10000 1.97 287 18:21 20.01.2020
231 Clear 19 1003 88 10000 1.97 287 17:40 20.01.2020
232 Clear 19 1003 83 10000 2.05 278 17:19 20.01.2020
233 Clear 19 1003 83 10000 2.05 278 16:58 20.01.2020
234 Clear 19 1003 88 10000 2.05 278 16:37 20.01.2020
235 Clear 19 1003 88 10000 2.05 278 16:18 20.01.2020
236 Clear 19 1003 88 10000 2.05 278 16:18 20.01.2020
237 Clear 19 1003 88 10000 2.05 278 16:18 20.01.2020
238 Clear 19 1003 88 10000 2.05 278 15:54 20.01.2020
239 Clear 19 1004 100 10000 2.1 20 15:36 20.01.2020
240 Clear 19 1004 88 10000 2.05 278 15:18 20.01.2020
241 Clear 19 1004 88 10000 0.5 230 14:41 20.01.2020
242 Rain 20 1004 88 10000 1.06 230 14:22 20.01.2020
243 Rain 20 1004 88 10000 0.5 290 13:58 20.01.2020
244 Rain 21 1004 88 10000 0.5 300 13:40 20.01.2020
245 Rain 21 1004 88 10000 0.5 300 13:21 20.01.2020
246 Clouds 21 1003 88 9000 0.5 300 12:46 20.01.2020
247 Clouds 22 1003 88 9000 4.18 250 12:27 20.01.2020
248 Clouds 22 1003 88 9000 4.18 250 11:57 20.01.2020
249 Clouds 22 1002 94 10000 2.1 140 11:38 20.01.2020
250 Clouds 23 1001 88 10000 2.6 140 11:19 20.01.2020
251 Clouds 23 1001 88 10000 2.6 140 10:48 20.01.2020
252 Clouds 24 1001 83 10000 4.1 160 10:22 20.01.2020
253 Clouds 24 1001 83 10000 4.1 160 10:22 20.01.2020
254 Thunderstorm 24 1000 83 10000 5.1 200 09:57 20.01.2020
255 Thunderstorm 24 1001 78 10000 4.6 160 09:38 20.01.2020
256 Thunderstorm 24 1000 83 10000 6.7 180 09:19 20.01.2020
257 Thunderstorm 25 1000 73 10000 8.7 210 08:43 20.01.2020
258 Thunderstorm 25 1000 73 10000 8.7 210 08:25 20.01.2020
259 Thunderstorm 26 1000 73 10000 9.3 190 07:43 20.01.2020
260 Thunderstorm 26 1000 73 10000 9.3 190 07:24 20.01.2020
261 Thunderstorm 28 999 74 10000 7.7 50 06:46 20.01.2020
262 Thunderstorm 28 999 74 10000 7.7 50 06:26 20.01.2020
263 Thunderstorm 28 998 69 10000 9.3 50 05:42 20.01.2020
264 Thunderstorm 28 999 69 10000 8.7 60 05:21 20.01.2020
265 Clouds 28 1000 61 10000 8.7 70 04:42 20.01.2020
266 Clouds 29 1001 61 10000 6.7 80 02:57 20.01.2020
267 Clouds 29 1001 61 10000 6.7 80 02:57 20.01.2020
268 Rain 28 1003 61 10000 5.1 60 01:54 20.01.2020
269 Rain 27 1003 61 10000 5.1 60 01:35 20.01.2020
270 Rain 26 1004 69 10000 5.1 60 00:44 20.01.2020
271 Rain 26 1004 69 10000 5.1 60 00:23 20.01.2020
272 Rain 25 1004 83 10000 4.1 50 23:39 19.01.2020
273 Rain 24 1004 83 10000 4.1 50 23:20 19.01.2020
274 Rain 24 1004 83 10000 4.1 50 23:20 19.01.2020
275 Clouds 23 1004 78 10000 4.1 50 22:56 19.01.2020
276 Clouds 23 1004 88 10000 4.1 50 22:38 19.01.2020
277 Clouds 22 1004 88 10000 4.1 50 22:20 19.01.2020
278 Clouds 21 1003 88 10000 4.1 50 21:56 19.01.2020
279 Clouds 21 1003 94 10000 4.1 50 21:38 19.01.2020
280 Clouds 20 1003 94 10000 0.76 279 21:20 19.01.2020
281 Clouds 20 1003 94 10000 0.76 279 20:57 19.01.2020
282 Clouds 20 1003 94 10000 3.6 190 20:39 19.01.2020
283 Clouds 20 1003 94 10000 3.6 190 20:20 19.01.2020
284 Clouds 20 1002 94 10000 0.94 249 19:57 19.01.2020
285 Clouds 20 1002 88 10000 0.5 70 19:39 19.01.2020
286 Clouds 20 1002 88 10000 0.5 70 19:20 19.01.2020
287 Clouds 20 1002 100 0 2.6 10 18:57 19.01.2020
288 Clouds 20 1002 94 0 2.1 40 18:38 19.01.2020
289 Clouds 20 1002 94 0 2.1 40 18:20 19.01.2020
290 Clouds 20 1003 94 0 0.5 50 17:58 19.01.2020
291 Clouds 20 1003 94 0 0.5 50 17:58 19.01.2020
292 Clouds 20 1003 94 0 2.1 230 17:40 19.01.2020
293 Clouds 20 1003 94 0 2.1 230 17:21 19.01.2020
294 Clouds 21 1003 88 10000 1.04 271 16:59 19.01.2020
295 Clouds 21 1003 88 10000 1.04 271 16:40 19.01.2020
296 Clouds 21 1003 88 10000 1.04 271 16:21 19.01.2020
297 Clouds 21 1004 100 0 3.1 50 15:59 19.01.2020
298 Clouds 21 1004 88 10000 1.04 271 15:39 19.01.2020
299 Clouds 21 1004 88 10000 1.04 271 15:20 19.01.2020
300 Clouds 21 1005 88 10000 1.04 271 14:59 19.01.2020
301 Clouds 21 1005 88 10000 2.6 280 14:39 19.01.2020
302 Clouds 21 1005 88 10000 2.6 270 14:18 19.01.2020
303 Clouds 21 1005 88 10000 2.6 270 13:58 19.01.2020
304 Clouds 21 1005 88 10000 2.1 250 13:38 19.01.2020
305 Clouds 21 1005 88 10000 2.6 260 13:20 19.01.2020
306 Clouds 21 1005 88 10000 2.6 260 12:56 19.01.2020
307 Clouds 21 1004 88 10000 0.5 230 12:37 19.01.2020
308 Clouds 22 1004 88 10000 0.5 230 12:19 19.01.2020
309 Clouds 22 1004 88 10000 0.68 44 11:43 19.01.2020
310 Clouds 22 1004 88 10000 1.95 87 11:21 19.01.2020
311 Clouds 22 1004 88 10000 2.1 170 10:57 19.01.2020
312 Clouds 22 1004 88 10000 3.1 170 10:39 19.01.2020
313 Clouds 23 1004 88 10000 3.1 170 10:19 19.01.2020
314 Clouds 23 1004 83 10000 3.6 150 09:56 19.01.2020
315 Clouds 23 1004 83 10000 3.6 150 09:56 19.01.2020
316 Clouds 23 1004 83 10000 3.6 150 09:56 19.01.2020
317 Clouds 23 1004 83 10000 4.1 180 09:37 19.01.2020
318 Clouds 23 1004 83 10000 4.1 180 09:19 19.01.2020
319 Rain 24 1004 83 10000 4.1 170 08:54 19.01.2020
320 Rain 24 1004 83 10000 4.6 170 08:30 19.01.2020
321 Rain 24 1004 83 10000 6.2 160 07:49 19.01.2020
322 Clouds 24 1005 78 10000 5.7 180 07:28 19.01.2020
323 Rain 24 1005 78 10000 6.2 160 06:54 19.01.2020
324 Rain 23 1005 78 10000 6.2 160 06:21 19.01.2020
325 Clouds 23 1007 78 10000 8.2 180 03:52 19.01.2020
326 Clouds 23 1008 78 10000 6.7 180 02:32 19.01.2020
327 Clouds 23 1008 83 10000 6.7 180 01:39 19.01.2020
328 Clouds 22 1008 83 10000 6.7 180 01:18 19.01.2020
329 Rain 22 1008 88 10000 5.1 150 00:44 19.01.2020
330 Rain 22 1008 88 10000 5.1 150 00:20 19.01.2020
331 Rain 20 1008 88 10000 5.1 150 23:47 18.01.2020
332 Rain 20 1008 88 10000 5.1 150 23:25 18.01.2020
333 Rain 20 1009 94 10000 5.1 150 22:59 18.01.2020
334 Clouds 19 1008 88 10000 2.1 270 22:41 18.01.2020
335 Clouds 19 1008 88 10000 2.1 270 22:21 18.01.2020
336 Clouds 19 1008 88 10000 1.78 169 21:58 18.01.2020
337 Clouds 19 1008 94 10000 0.5 310 21:39 18.01.2020
338 Clouds 19 1008 94 10000 0.5 310 21:20 18.01.2020
339 Rain 18 1008 93 10000 1.5 250 20:57 18.01.2020
340 Rain 18 1008 88 10000 3.6 250 20:39 18.01.2020
341 Rain 18 1008 88 10000 3.6 250 20:19 18.01.2020
342 Rain 18 1008 93 10000 0.65 222 19:43 18.01.2020
343 Rain 18 1008 93 10000 0.65 222 19:24 18.01.2020
344 Drizzle 19 1008 93 10000 0.65 222 18:43 18.01.2020
345 Drizzle 19 1008 93 10000 0.65 222 18:25 18.01.2020
346 Drizzle 19 1008 93 10000 0.65 222 17:59 18.01.2020
347 Drizzle 19 1008 93 10000 0.65 222 17:40 18.01.2020
348 Drizzle 19 1008 88 10000 2.6 270 17:21 18.01.2020
349 Drizzle 19 1008 88 10000 2.6 270 16:57 18.01.2020
350 Rain 19 1009 91 0 1.34 257 16:38 18.01.2020
351 Rain 19 1009 91 0 0.89 267 16:19 18.01.2020
352 Drizzle 19 1008 88 10000 0.85 225 16:19 18.01.2020
353 Drizzle 19 1009 88 10000 0.85 225 15:47 18.01.2020
354 Drizzle 19 1009 88 10000 0.85 225 15:26 18.01.2020
355 Drizzle 19 1009 88 10000 0.85 225 15:26 18.01.2020
356 Rain 19 1009 88 10000 0.85 225 15:00 18.01.2020
357 Rain 19 1009 82 10000 0.85 225 14:41 18.01.2020
358 Drizzle 19 1009 82 10000 0.73 324 14:19 18.01.2020
359 Drizzle 19 1009 82 10000 0.73 324 13:57 18.01.2020
360 Rain 19 1010 82 10000 3.02 200 13:36 18.01.2020
361 Rain 19 1010 82 10000 3.02 200 13:18 18.01.2020
362 Drizzle 20 1010 77 9000 1.5 220 12:43 18.01.2020
363 Drizzle 20 1010 77 9000 1.5 220 12:22 18.01.2020
364 Rain 20 1010 77 10000 1.5 220 11:58 18.01.2020
365 Rain 20 1009 77 10000 1.5 230 11:40 18.01.2020
366 Rain 20 1009 83 10000 4.6 220 11:20 18.01.2020
367 Rain 20 1008 77 10000 4.6 230 10:43 18.01.2020
368 Rain 21 1008 77 10000 4.6 230 10:21 18.01.2020
369 Rain 21 1008 77 10000 7.2 210 09:56 18.01.2020
370 Rain 21 1008 83 10000 8.2 210 09:38 18.01.2020
371 Rain 21 1008 83 10000 8.2 210 09:19 18.01.2020
372 Rain 22 1008 78 10000 7.2 200 08:42 18.01.2020
373 Rain 22 1008 78 10000 7.2 200 08:20 18.01.2020
374 Rain 22 1008 78 10000 7.2 200 08:20 18.01.2020
375 Rain 22 1008 78 10000 8.2 200 07:58 18.01.2020
376 Rain 22 1008 78 10000 7.7 210 07:37 18.01.2020
377 Rain 22 1008 78 10000 8.2 210 06:52 18.01.2020
378 Rain 22 1008 83 10000 9.8 200 06:33 18.01.2020
379 Rain 22 1009 83 10000 8.7 210 05:52 18.01.2020
380 Rain 21 1009 88 10000 8.2 210 04:25 18.01.2020
381 Rain 21 1009 94 9000 11.3 210 02:38 18.01.2020
382 Drizzle 21 1009 88 10000 12.9 210 01:40 18.01.2020
383 Rain 21 1009 88 10000 11.8 210 00:39 18.01.2020
384 Rain 21 1009 88 10000 11.8 210 00:20 18.01.2020
385 Rain 21 1009 88 9000 12.3 200 23:58 17.01.2020
386 Rain 21 1009 83 10000 11.8 200 23:39 17.01.2020
387 Rain 21 1009 83 10000 10.3 210 23:18 17.01.2020
388 Rain 21 1008 88 10000 9.3 210 22:42 17.01.2020
389 Rain 21 1008 88 10000 9.3 210 22:20 17.01.2020
390 Rain 21 1008 88 10000 9.3 210 22:20 17.01.2020
391 Clouds 20 1009 83 10000 4.1 210 21:56 17.01.2020
392 Rain 20 1008 88 9000 10.3 200 21:38 17.01.2020
393 Rain 20 1008 88 9000 9.8 200 21:20 17.01.2020
394 Rain 20 1008 88 9000 9.8 200 20:55 17.01.2020
395 Rain 20 1007 88 9000 9.8 200 20:36 17.01.2020
396 Rain 20 1007 88 9000 9.8 200 20:18 17.01.2020
397 Rain 20 1007 88 9000 9.8 200 19:54 17.01.2020
398 Rain 20 1007 88 9000 9.8 210 19:36 17.01.2020
399 Rain 20 1007 88 9000 9.3 200 19:18 17.01.2020
400 Rain 20 1008 94 9000 8.2 200 18:41 17.01.2020
401 Rain 20 1008 94 9000 8.2 200 18:23 17.01.2020
402 Clouds 20 1008 94 10000 3.6 220 17:56 17.01.2020
403 Clouds 20 1008 88 10000 3.1 210 17:38 17.01.2020
404 Clouds 20 1009 88 10000 3.6 210 17:19 17.01.2020
405 Clouds 20 1009 88 10000 2.6 210 16:41 17.01.2020
406 Clouds 20 1009 88 10000 2.6 210 16:20 17.01.2020
407 Clouds 20 1010 88 10000 3.1 220 15:48 17.01.2020
408 Clouds 20 1010 88 10000 3.1 220 15:27 17.01.2020
409 Rain 20 1009 94 10000 4.6 200 14:56 17.01.2020
410 Clouds 20 1010 88 10000 5.7 200 14:37 17.01.2020
411 Clouds 20 1010 88 10000 5.7 200 14:19 17.01.2020
412 Clouds 20 1010 88 10000 7.7 200 13:39 17.01.2020
413 Rain 20 1010 88 10000 8.2 190 13:21 17.01.2020
414 Rain 20 1010 88 10000 8.2 190 13:21 17.01.2020
415 Rain 20 1010 83 10000 7.7 190 12:45 17.01.2020
416 Rain 20 1010 83 10000 7.7 190 12:23 17.01.2020
417 Rain 20 1010 88 10000 8.2 190 11:41 17.01.2020
418 Rain 20 1010 88 10000 8.2 190 11:20 17.01.2020
419 Rain 20 1010 88 10000 7.7 190 10:55 17.01.2020
420 Rain 20 1010 88 10000 7.7 190 10:36 17.01.2020
421 Rain 20 1010 94 8000 7.2 190 10:18 17.01.2020
422 Rain 21 1009 88 10000 8.7 190 09:42 17.01.2020
423 Rain 21 1008 88 10000 9.8 190 09:21 17.01.2020
424 Rain 21 1008 88 10000 9.8 190 08:56 17.01.2020
425 Rain 21 1008 88 10000 11.8 200 08:38 17.01.2020
426 Rain 21 1008 83 9000 10.3 190 08:19 17.01.2020
427 Rain 21 1008 83 9000 11.3 190 07:43 17.01.2020
428 Rain 21 1008 83 9000 11.3 190 07:25 17.01.2020
429 Rain 21 1008 83 8000 10.8 190 06:51 17.01.2020
430 Rain 21 1008 83 8000 10.8 190 06:30 17.01.2020
431 Rain 20 1001 92 0 0.89 221 04:32 17.01.2020
432 Rain 19 1002 91 0 2.24 223 03:19 17.01.2020
433 Rain 19 1002 90 0 0.45 206 02:39 17.01.2020
434 Rain 19 1002 92 0 0.89 205 01:44 17.01.2020
435 Rain 19 1002 92 0 0.89 206 01:25 17.01.2020
436 Rain 19 1002 92 0 0.89 240 00:40 17.01.2020
437 Rain 18 1008 100 8000 10.3 200 00:19 17.01.2020
438 Rain 18 1008 100 8000 10.3 200 23:41 16.01.2020
439 Rain 19 1008 100 8000 10.3 200 23:22 16.01.2020
440 Rain 19 1008 93 7000 8.7 200 22:42 16.01.2020
441 Rain 19 1008 93 1500 11.8 210 22:22 16.01.2020
442 Rain 19 1008 93 7000 8.7 200 22:22 16.01.2020
443 Rain 19 1008 93 1500 11.8 210 21:57 16.01.2020
444 Rain 20 1008 94 3000 10.8 200 21:38 16.01.2020
445 Rain 20 1008 94 3000 10.8 200 21:38 16.01.2020
446 Rain 20 1008 94 3000 10.8 200 21:19 16.01.2020
447 Rain 20 1007 94 7000 7.7 200 20:58 16.01.2020
448 Rain 20 1007 94 5000 9.8 200 20:39 16.01.2020
449 Rain 20 1007 94 5000 9.8 200 20:19 16.01.2020
450 Rain 21 1006 94 5000 10.8 200 19:56 16.01.2020
451 Clouds 21 1006 88 10000 11.3 190 19:38 16.01.2020
452 Clouds 21 1006 88 10000 11.3 190 19:38 16.01.2020
453 Clouds 21 1006 88 10000 11.3 190 19:19 16.01.2020
454 Rain 21 1006 94 7000 9.8 180 18:55 16.01.2020
455 Rain 21 1006 94 7000 9.8 180 18:37 16.01.2020
456 Rain 21 1006 94 7000 9.8 180 18:18 16.01.2020
457 Clouds 21 1006 88 8000 9.8 180 17:55 16.01.2020
458 Clouds 21 1006 88 10000 8.7 190 17:37 16.01.2020
459 Clouds 21 1007 100 10000 2.6 260 17:18 16.01.2020
460 Mist 21 1007 94 4600 7.2 200 16:40 16.01.2020
461 Mist 20 1007 94 4600 7.2 200 16:21 16.01.2020
462 Clouds 20 1007 100 10000 1.5 100 15:55 16.01.2020
463 Clouds 20 1006 100 10000 1.5 70 15:37 16.01.2020
464 Clouds 20 1007 88 10000 4.47 169 15:18 16.01.2020
465 Clouds 20 1007 88 10000 1.5 280 14:41 16.01.2020
466 Clouds 20 1007 88 10000 1.5 280 14:23 16.01.2020
467 Rain 20 1008 88 10000 4.1 280 13:46 16.01.2020
468 Rain 20 1008 88 10000 4.1 280 13:28 16.01.2020
469 Rain 20 1008 88 10000 4.1 310 12:57 16.01.2020
470 Rain 20 1008 88 10000 1 340 12:39 16.01.2020
471 Rain 21 1008 88 10000 1 340 12:20 16.01.2020
472 Rain 20 1008 94 10000 7.2 180 11:42 16.01.2020
473 Rain 20 1008 94 10000 7.2 180 11:42 16.01.2020
474 Rain 21 1008 94 10000 7.2 180 11:24 16.01.2020
475 Rain 21 1008 94 6000 2.6 180 10:56 16.01.2020
476 Rain 21 1008 88 6000 4.6 200 10:37 16.01.2020
477 Rain 22 1007 83 10000 7.7 180 10:19 16.01.2020
478 Thunderstorm 22 1006 83 10000 7.7 180 09:43 16.01.2020
479 Thunderstorm 22 1006 83 10000 7.7 180 09:24 16.01.2020
480 Rain 23 1006 83 10000 5.1 70 08:59 16.01.2020
481 Clouds 25 1005 78 10000 7.7 190 08:41 16.01.2020
482 Clouds 27 1005 78 10000 7.7 190 08:20 16.01.2020
483 Rain 28 1004 61 10000 10.3 200 07:43 16.01.2020
484 Rain 28 1004 61 10000 10.3 200 07:24 16.01.2020
485 Rain 28 1004 61 10000 10.3 200 06:55 16.01.2020
486 Rain 28 1004 61 10000 4.6 40 06:35 16.01.2020
487 Rain 28 1005 61 10000 4.6 40 05:56 16.01.2020
488 Rain 27 1005 69 10000 4.1 30 05:25 16.01.2020
489 Clouds 25 1005 78 10000 3.6 10 04:23 16.01.2020
490 Rain 24 1006 78 10000 2.6 320 03:27 16.01.2020
491 Rain 23 1007 83 10000 3.6 330 02:23 16.01.2020
492 Rain 23 1007 83 9000 3.6 320 00:44 16.01.2020
493 Rain 22 1007 88 8000 2.91 331 00:23 16.01.2020
494 Rain 22 1007 88 8000 2.91 331 23:46 15.01.2020
495 Rain 22 1007 88 9000 2.91 331 23:46 15.01.2020
496 Rain 22 1007 88 9000 1.13 245 23:22 15.01.2020
497 Thunderstorm 22 1008 88 8000 1.13 245 22:57 15.01.2020
498 Thunderstorm 21 1008 88 6000 3.1 270 22:39 15.01.2020
499 Thunderstorm 21 1008 88 6000 3.1 270 22:19 15.01.2020
500 Thunderstorm 21 1008 83 10000 7.2 240 21:57 15.01.2020
501 Thunderstorm 22 1008 83 10000 5.1 240 21:37 15.01.2020
502 Clouds 22 1007 88 10000 4.1 260 21:19 15.01.2020
503 Clouds 22 1007 88 10000 4.1 260 20:56 15.01.2020
504 Clouds 22 1007 88 10000 1.13 245 20:38 15.01.2020
505 Clouds 22 1006 88 10000 1.31 75 20:19 15.01.2020
506 Clouds 22 1006 88 10000 1.31 75 19:54 15.01.2020
507 Clouds 22 1006 88 10000 1.31 75 19:36 15.01.2020
508 Clouds 22 1006 88 10000 1.31 75 19:18 15.01.2020
509 Clouds 21 1006 88 10000 1.31 75 18:56 15.01.2020
510 Clouds 22 1006 88 10000 1.31 75 18:37 15.01.2020
511 Clouds 21 1006 88 10000 1.31 75 18:19 15.01.2020
512 Clouds 21 1006 88 10000 1.31 75 18:19 15.01.2020
513 Clouds 21 1006 88 10000 1.31 75 18:19 15.01.2020
514 Clouds 22 1006 88 10000 1.31 75 17:56 15.01.2020
515 Clouds 21 1006 88 10000 1 60 17:37 15.01.2020
516 Clouds 22 1006 88 10000 1 60 17:18 15.01.2020
517 Clouds 22 1007 88 10000 2.1 50 16:40 15.01.2020
518 Clouds 22 1007 88 10000 2.1 50 16:22 15.01.2020
519 Clouds 22 1007 88 10000 2.6 30 15:57 15.01.2020
520 Clouds 22 1007 88 10000 0.98 46 15:39 15.01.2020
521 Clouds 22 1007 88 10000 0.98 46 15:19 15.01.2020
522 Clouds 22 1008 83 10000 4.6 20 14:43 15.01.2020
523 Clouds 23 1008 83 10000 4.6 20 14:20 15.01.2020
524 Clouds 23 1008 83 10000 1.5 210 13:46 15.01.2020
525 Clouds 23 1008 83 10000 1.5 210 13:27 15.01.2020
526 Clouds 23 1008 78 10000 0.5 140 12:59 15.01.2020
527 Clouds 23 1008 78 10000 3.6 20 12:40 15.01.2020
528 Clouds 24 1008 78 10000 3.6 20 12:20 15.01.2020
529 Clouds 24 1008 78 10000 3.6 20 11:58 15.01.2020
530 Clouds 24 1008 78 10000 3.6 20 11:38 15.01.2020
531 Clouds 24 1008 78 10000 3.6 20 11:19 15.01.2020
532 Clouds 25 1008 74 10000 7.7 30 10:46 15.01.2020
533 Clouds 25 1008 74 10000 7.7 30 10:28 15.01.2020
534 Clouds 25 1008 74 10000 7.2 30 09:54 15.01.2020
535 Clouds 25 1008 74 10000 7.2 30 09:36 15.01.2020
536 Clouds 25 1008 69 10000 8.2 50 09:18 15.01.2020
537 Clouds 26 1008 65 10000 8.2 60 08:41 15.01.2020
538 Clouds 26 1009 65 10000 8.2 60 08:23 15.01.2020
539 Clouds 26 1009 65 10000 8.2 60 07:54 15.01.2020
540 Clouds 26 1009 61 10000 8.7 70 07:32 15.01.2020
541 Clouds 27 1010 61 10000 8.2 60 06:48 15.01.2020
542 Clouds 27 1010 57 10000 8.2 60 06:23 15.01.2020
543 Clouds 28 1011 51 10000 7.7 70 04:46 15.01.2020
544 Clouds 27 1012 51 10000 5.7 110 02:40 15.01.2020
545 Clouds 26 1013 54 10000 3.6 120 01:43 15.01.2020
546 Clouds 26 1013 54 10000 3.6 120 01:20 15.01.2020
547 Clouds 25 1014 50 10000 0.5 180 00:37 15.01.2020
548 Clouds 24 1014 57 10000 1.97 24 00:19 15.01.2020
549 Clouds 24 1014 64 10000 0.5 270 23:46 14.01.2020
550 Clouds 23 1014 64 10000 0.5 270 23:24 14.01.2020
551 Clouds 21 1015 88 10000 1.5 10 22:56 14.01.2020
552 Clouds 21 1014 78 10000 1.08 263 22:38 14.01.2020
553 Clouds 20 1014 77 10000 1.08 263 22:18 14.01.2020
554 Clouds 19 1014 77 10000 1.08 263 21:55 14.01.2020
555 Clouds 18 1014 88 10000 1.08 263 21:37 14.01.2020
556 Clouds 18 1014 100 10000 1.08 263 21:19 14.01.2020
557 Clouds 17 1014 100 10000 1.08 263 20:42 14.01.2020
558 Clouds 17 1014 100 10000 1.08 263 20:42 14.01.2020
559 Clouds 17 1014 100 10000 0.95 209 20:22 14.01.2020
560 Clouds 17 1014 100 10000 0.95 209 19:57 14.01.2020
561 Clouds 17 1014 100 10000 0.95 209 19:38 14.01.2020
562 Clouds 17 1014 100 10000 0.95 209 19:20 14.01.2020
563 Clouds 17 1014 93 10000 0.95 209 18:59 14.01.2020
564 Clouds 17 1014 93 10000 0.95 209 18:40 14.01.2020
565 Clouds 17 1014 93 10000 0.95 209 18:19 14.01.2020
566 Clouds 17 1014 93 10000 0.95 209 18:19 14.01.2020
567 Clouds 18 1014 93 10000 0.95 209 17:39 14.01.2020
568 Clouds 18 1014 88 10000 1.16 220 17:20 14.01.2020
569 Clouds 18 1014 88 10000 1.16 220 16:59 14.01.2020
570 Clouds 18 1015 83 10000 1.16 220 16:41 14.01.2020
571 Clouds 18 1015 83 10000 1.16 220 16:21 14.01.2020
572 Clouds 18 1015 88 10000 1.16 220 15:56 14.01.2020
573 Clouds 19 1015 83 10000 1.16 220 15:38 14.01.2020
574 Clouds 19 1015 83 10000 1.16 220 15:18 14.01.2020
575 Clouds 20 1016 78 10000 1.16 220 14:43 14.01.2020
576 Clouds 19 1016 78 10000 1.46 126 14:20 14.01.2020
577 Clouds 20 1016 78 10000 1.46 126 13:54 14.01.2020
578 Clouds 20 1016 73 10000 1.46 126 13:36 14.01.2020
579 Clouds 21 1017 73 10000 1.37 141 13:18 14.01.2020
580 Clouds 21 1017 78 10000 2.6 90 12:40 14.01.2020
581 Clouds 22 1016 73 10000 3.1 90 12:20 14.01.2020
582 Clouds 21 1017 78 10000 2.6 90 12:20 14.01.2020
583 Clouds 21 1017 78 10000 2.6 90 12:20 14.01.2020
584 Clouds 22 1016 73 10000 3.1 90 11:43 14.01.2020
585 Clouds 22 1016 73 10000 3.6 90 11:23 14.01.2020
586 Clouds 22 1016 73 10000 3.6 90 10:59 14.01.2020
587 Clouds 22 1016 73 10000 4.6 70 10:40 14.01.2020
588 Clouds 23 1016 73 10000 4.6 70 10:20 14.01.2020
589 Clouds 23 1016 69 10000 5.7 80 09:58 14.01.2020
590 Clouds 23 1015 64 10000 7.2 80 09:40 14.01.2020
591 Clouds 24 1015 64 10000 7.2 80 09:20 14.01.2020
592 Clouds 24 1015 61 10000 7.2 80 08:48 14.01.2020
593 Clouds 25 1015 61 10000 7.2 80 08:25 14.01.2020
594 Clouds 25 1015 61 10000 6.7 70 07:53 14.01.2020
595 Clouds 26 1015 57 10000 7.7 80 07:33 14.01.2020
596 Clouds 26 1015 61 10000 7.7 80 06:55 14.01.2020
597 Clouds 27 1015 57 10000 7.7 70 06:33 14.01.2020
598 Clouds 27 1016 57 10000 7.2 70 05:27 14.01.2020
599 Clouds 27 1016 54 10000 6.7 50 03:52 14.01.2020
600 Clouds 27 1017 57 10000 6.2 70 02:43 14.01.2020
601 Clouds 26 1017 57 10000 6.7 80 01:55 14.01.2020
602 Clouds 25 1017 69 10000 3.6 160 00:51 14.01.2020
603 Clouds 25 1017 73 10000 2.6 160 00:33 14.01.2020
604 Clouds 25 1017 73 10000 2.6 160 00:33 14.01.2020
605 Clouds 24 1018 78 10000 2.6 150 23:55 13.01.2020
606 Clouds 24 1018 78 10000 2.17 88 23:37 13.01.2020
607 Clouds 23 1018 78 10000 1.1 273 23:18 13.01.2020
608 Clouds 22 1018 77 10000 1.1 273 22:42 13.01.2020
609 Clouds 21 1018 77 10000 1.1 273 22:21 13.01.2020
610 Clouds 20 1018 83 10000 1.1 273 21:57 13.01.2020
611 Clouds 19 1017 93 10000 1.5 250 21:38 13.01.2020
612 Clouds 18 1017 100 10000 1.1 273 21:19 13.01.2020
613 Clouds 18 1017 82 10000 1.1 273 20:59 13.01.2020
614 Clouds 17 1017 100 10000 1.1 273 20:59 13.01.2020
615 Clouds 18 1017 82 10000 1.1 273 20:59 13.01.2020
616 Clouds 17 1017 93 10000 1 120 20:41 13.01.2020
617 -273 0 0 0 0 0 20:22 13.01.2020
618 -273 0 0 0 0 0 20:22 13.01.2020
619 Clouds 17 1017 93 10000 0.9 321 19:59 13.01.2020
620 Rain 17 1016 93 10000 0.9 321 19:40 13.01.2020
621 Clouds 17 1016 93 10000 0.9 321 19:20 13.01.2020
622 Clouds 17 1016 93 10000 0.9 321 18:57 13.01.2020
623 Clouds 18 1016 88 10000 0.5 170 18:37 13.01.2020
624 Clouds 18 1016 88 10000 0.5 170 18:19 13.01.2020
625 Clouds 18 1016 88 10000 0.9 321 17:54 13.01.2020
626 Clouds 18 1017 82 10000 0.9 321 17:36 13.01.2020
627 Clouds 18 1017 82 10000 1.38 355 17:18 13.01.2020
628 Rain 18 1018 86 0 1.34 336 16:39 13.01.2020
629 Rain 18 1018 86 0 1.34 336 16:39 13.01.2020
630 Rain 18 1018 86 0 0.89 355 16:21 13.01.2020
631 Rain 18 1018 85 0 0.45 333 15:54 13.01.2020
632 Rain 18 1018 85 0 0.45 355 15:36 13.01.2020
633 Rain 18 1018 85 0 0.89 360 15:18 13.01.2020
634 Rain 19 1018 82 0 0.45 44 14:40 13.01.2020
635 Clouds 19 1010 79 0 0.45 3 14:22 13.01.2020
636 Clouds 19 1010 79 0 0.89 281 13:56 13.01.2020
637 Rain 20 1016 87 0 1.96 38 13:38 13.01.2020
638 Rain 20 1018 72 0 2.24 70 13:20 13.01.2020
639 Rain 20 1010 79 0 0.45 350 13:20 13.01.2020
640 Clouds 21 1018 73 10000 4.6 50 12:43 13.01.2020
641 Clouds 21 1018 73 10000 4.6 50 12:23 13.01.2020
642 Clouds 21 1018 73 10000 4.6 50 11:59 13.01.2020
643 Clouds 21 1018 73 10000 5.7 50 11:39 13.01.2020
644 Clouds 21 1018 73 10000 5.7 50 11:19 13.01.2020
645 Clouds 22 1018 69 10000 6.7 50 10:57 13.01.2020
646 Clouds 22 1018 64 10000 6.7 50 10:38 13.01.2020
647 Clouds 22 1018 64 10000 6.7 50 10:20 13.01.2020
648 Clouds 22 1018 64 10000 6.7 50 10:20 13.01.2020
649 Clouds 22 1017 64 10000 7.7 50 09:56 13.01.2020
650 Clouds 23 1017 69 10000 6.2 50 09:38 13.01.2020
651 Clouds 23 1017 69 10000 6.2 50 09:19 13.01.2020
652 Clouds 24 1016 60 10000 5.7 90 08:39 13.01.2020
653 Clouds 24 1016 60 10000 5.7 70 08:20 13.01.2020
654 Clouds 25 1016 53 10000 6.7 80 07:46 13.01.2020
655 Clouds 25 1016 53 10000 6.7 80 07:27 13.01.2020
656 Clouds 25 1017 41 10000 5.7 80 06:42 13.01.2020
657 Clouds 25 1017 41 10000 5.7 80 06:19 13.01.2020
658 Clouds 25 1017 41 10000 6.7 80 05:22 13.01.2020
659 Clouds 25 1018 47 10000 6.2 80 03:54 13.01.2020
660 Clouds 24 1018 50 5000 3.1 120 03:22 13.01.2020
661 Clouds 24 1019 53 10000 5.7 80 02:44 13.01.2020
662 Clouds 24 1019 53 10000 5.7 80 02:24 13.01.2020
663 Clouds 24 1019 47 10000 4.1 110 01:18 13.01.2020
664 Clouds 23 1019 64 10000 2.6 180 00:41 13.01.2020
665 Clouds 22 1019 64 10000 2.6 180 00:22 13.01.2020
666 Clouds 21 1020 73 10000 2.1 260 23:42 12.01.2020
667 Clouds 20 1020 73 10000 2.1 260 23:24 12.01.2020
668 Rain 19 1020 72 9000 1.5 0 22:58 12.01.2020
669 Clouds 18 1019 77 9000 2.6 270 22:39 12.01.2020
670 Clouds 18 1019 77 9000 2.6 270 22:21 12.01.2020
671 Rain 17 1019 77 9000 1.5 280 21:56 12.01.2020
672 Rain 17 1019 82 10000 1 230 21:38 12.01.2020
673 Rain 17 1019 82 10000 1 230 21:38 12.01.2020
674 Clouds 17 1019 88 9000 2.29 91 21:19 12.01.2020
675 Rain 17 1019 88 9000 2.29 91 20:56 12.01.2020
676 Rain 17 1019 88 9000 2.29 91 20:56 12.01.2020
677 Rain 17 1019 88 9000 2.29 91 20:38 12.01.2020
678 Rain 16 1019 88 9000 2.43 161 20:20 12.01.2020
679 Rain 16 1019 93 10000 2.6 220 19:56 12.01.2020
680 Clouds 16 1019 93 10000 2.6 210 19:37 12.01.2020
681 Clouds 16 1018 88 10000 2.43 161 19:18 12.01.2020
682 Clouds 16 1019 93 10000 2.1 210 18:57 12.01.2020
683 Clouds 16 1019 93 10000 2.6 210 18:39 12.01.2020
684 Clouds 16 1019 93 10000 2.6 210 18:21 12.01.2020
685 Clouds 17 1018 93 10000 2.43 161 17:54 12.01.2020
686 Clouds 17 1018 88 10000 2.43 161 17:36 12.01.2020
687 Clouds 17 1019 88 10000 2.65 152 17:18 12.01.2020
688 Clouds 17 1019 88 10000 2.65 152 16:54 12.01.2020
689 Clouds 17 1019 93 10000 2.6 210 16:36 12.01.2020
690 Clouds 17 1019 93 10000 2.6 210 16:18 12.01.2020
691 Clouds 17 1019 72 10000 3.1 110 15:40 12.01.2020
692 Clouds 17 1019 72 10000 3.1 110 15:21 12.01.2020
693 Clouds 17 1020 93 9000 2.65 152 14:55 12.01.2020
694 Clouds 17 1020 93 8000 2.1 230 14:36 12.01.2020
695 Rain 18 1020 72 10000 4.6 100 14:18 12.01.2020
696 Rain 18 1020 72 10000 4.6 100 13:42 12.01.2020
697 Rain 18 1020 72 10000 4.6 100 13:23 12.01.2020
698 Clouds 18 1020 100 5000 1.5 230 12:58 12.01.2020
699 Rain 18 1020 77 10000 4.6 100 12:38 12.01.2020
700 Rain 18 1020 77 10000 4.6 100 12:19 12.01.2020
701 Clouds 18 1020 100 5000 2.1 250 11:55 12.01.2020
702 Clouds 18 1020 100 5000 2.1 240 11:36 12.01.2020
703 Clouds 18 1020 100 5000 2.1 240 11:18 12.01.2020
704 Clouds 18 1020 93 5000 2.6 210 10:41 12.01.2020
705 Clouds 18 1020 93 5000 2.6 210 10:21 12.01.2020
706 Rain 18 1019 88 10000 5.1 170 09:55 12.01.2020
707 Rain 18 1019 82 10000 5.1 170 09:37 12.01.2020
708 Rain 18 1019 82 10000 5.1 170 09:18 12.01.2020
709 Rain 18 1018 82 10000 7.2 170 08:42 12.01.2020
710 Rain 18 1018 82 10000 7.2 170 08:19 12.01.2020
711 Rain 19 1018 88 10000 7.2 170 07:39 12.01.2020
712 Rain 19 1018 88 10000 7.2 170 07:21 12.01.2020
713 Rain 19 1018 82 10000 7.2 170 06:43 12.01.2020
714 Rain 18 1018 82 10000 7.2 170 06:19 12.01.2020
715 Rain 18 1018 88 7000 8.2 190 05:23 12.01.2020
716 Rain 19 1018 82 5000 6.7 190 03:47 12.01.2020
717 Rain 19 1019 88 5000 5.1 200 03:22 12.01.2020
718 Rain 20 1019 88 5000 6.2 190 02:30 12.01.2020
719 Rain 21 1018 77 5000 7.7 170 01:42 12.01.2020
720 Rain 21 1018 77 5000 7.7 170 01:22 12.01.2020
721 Rain 21 1018 60 8000 6.2 130 00:40 12.01.2020
722 Rain 21 1018 60 8000 6.2 130 00:20 12.01.2020
723 Smoke 21 1018 56 8000 7.2 140 23:42 11.01.2020
724 Smoke 21 1018 56 8000 7.2 140 23:19 11.01.2020
725 Clouds 20 1017 56 9000 5.7 130 22:57 11.01.2020
726 Clouds 20 1017 56 10000 5.7 120 22:39 11.01.2020
727 Clouds 20 1017 60 10000 6.7 130 22:20 11.01.2020
728 Clouds 20 1017 60 10000 6.7 130 21:58 11.01.2020
729 Clouds 19 1017 60 10000 7.7 130 21:39 11.01.2020
730 Clouds 19 1017 60 10000 6.2 120 21:18 11.01.2020
731 Clouds 19 1017 60 10000 7.7 130 21:18 11.01.2020
732 Clouds 19 1017 64 10000 5.1 110 20:40 11.01.2020
733 Clouds 19 1017 64 10000 5.1 110 20:22 11.01.2020
734 Clouds 19 1016 64 10000 7.7 130 19:58 11.01.2020
735 Rain 19 1016 56 10000 7.2 130 19:39 11.01.2020
736 Clouds 19 1016 56 8000 7.2 140 19:21 11.01.2020
737 Clouds 19 1016 56 8000 7.2 140 18:58 11.01.2020
738 Clouds 19 1016 56 9000 7.2 130 18:39 11.01.2020
739 Clouds 19 1016 60 8000 7.7 130 18:20 11.01.2020
740 Clouds 19 1016 88 10000 4.6 140 17:57 11.01.2020
741 Clouds 19 1016 56 8000 7.7 140 17:39 11.01.2020
742 Clouds 19 1016 56 8000 7.7 140 17:19 11.01.2020
743 Clouds 19 1016 60 9000 7.7 140 16:45 11.01.2020
744 Clouds 19 1016 56 10000 8.2 130 16:27 11.01.2020
745 Rain 19 1016 56 10000 8.7 140 15:59 11.01.2020
746 Rain 19 1016 64 10000 7.7 130 15:41 11.01.2020
747 Rain 20 1016 64 10000 7.7 130 15:22 11.01.2020
748 Clouds 20 1016 64 10000 6.2 120 14:57 11.01.2020
749 Clouds 20 1017 64 10000 6.2 130 14:38 11.01.2020
750 Rain 20 1016 64 10000 6.2 120 14:20 11.01.2020
751 Rain 20 1016 64 10000 7.7 120 13:41 11.01.2020
752 Rain 20 1016 64 10000 7.7 120 13:20 11.01.2020
753 Rain 21 1016 64 10000 7.7 120 12:59 11.01.2020
754 Clouds 21 1016 64 10000 6.2 140 12:41 11.01.2020
755 Clouds 21 1016 64 10000 6.2 140 12:23 11.01.2020
756 Rain 21 1016 68 10000 6.2 140 11:48 11.01.2020
757 Rain 21 1016 68 10000 6.2 140 11:26 11.01.2020
758 Rain 21 1015 68 10000 6.7 170 10:55 11.01.2020
759 Clouds 21 1015 64 10000 5.1 170 10:36 11.01.2020
760 Clouds 21 1015 64 10000 5.1 170 10:36 11.01.2020
761 Clouds 21 1015 64 10000 5.1 170 10:18 11.01.2020
762 Clouds 21 1014 68 10000 5.1 180 09:39 11.01.2020
763 Clouds 21 1013 68 10000 5.7 170 09:20 11.01.2020
764 Clouds 21 1014 68 10000 5.1 180 09:20 11.01.2020
765 Clouds 21 1013 64 10000 5.7 170 08:42 11.01.2020
766 Clouds 21 1012 60 10000 5.1 170 08:22 11.01.2020
767 Clouds 22 1012 60 10000 6.7 170 07:44 11.01.2020
768 Clouds 22 1012 60 10000 6.7 170 07:26 11.01.2020
769 Clouds 22 1012 64 10000 7.2 170 06:52 11.01.2020
770 Clouds 22 1013 60 10000 7.7 180 05:50 11.01.2020
771 Clouds 22 1013 64 10000 8.7 190 04:47 11.01.2020
772 Clouds 22 1013 64 10000 8.7 190 04:29 11.01.2020
773 Clouds 21 1013 64 10000 9.8 180 02:58 11.01.2020
774 Clouds 20 1013 68 10000 9.8 180 02:38 11.01.2020
775 Clouds 20 1013 68 10000 10.3 180 01:43 11.01.2020
776 Clouds 20 1013 73 10000 10.8 180 01:20 11.01.2020
777 Clouds 19 1014 82 10000 4.1 180 00:43 11.01.2020
778 Clouds 19 1013 77 10000 11.3 180 00:18 11.01.2020
779 Clouds 19 1013 93 8000 6.7 160 23:40 10.01.2020
780 Clouds 18 1013 93 8000 6.7 160 23:22 10.01.2020
781 Rain 19 1012 82 10000 12.9 190 22:59 10.01.2020
782 Rain 19 1012 82 10000 11.8 180 22:40 10.01.2020
783 Rain 19 1012 82 10000 11.8 180 22:21 10.01.2020
784 Rain 19 1010 82 10000 12.3 170 21:57 10.01.2020
785 Rain 19 1011 88 9000 12.9 170 21:38 10.01.2020
786 Rain 20 1011 88 9000 12.9 170 21:19 10.01.2020
787 Drizzle 20 1010 88 6000 13.9 180 20:43 10.01.2020
788 Drizzle 20 1010 88 6000 13.9 180 20:25 10.01.2020
789 Rain 20 1009 83 6000 13.9 190 19:59 10.01.2020
790 Smoke 21 1007 88 5000 13.4 190 19:38 10.01.2020
791 Smoke 21 1007 88 5000 13.4 190 19:20 10.01.2020
792 Smoke 21 1006 83 5000 16.5 190 18:44 10.01.2020
793 Smoke 21 1006 83 5000 16.5 190 18:20 10.01.2020
794 Smoke 21 1006 83 5000 18.5 190 17:58 10.01.2020
795 Clouds 21 1005 83 6000 19 190 17:39 10.01.2020
796 Clouds 22 1005 83 6000 19 190 17:21 10.01.2020
797 Rain 22 1005 83 6000 17.5 190 16:59 10.01.2020
798 Rain 23 1004 83 5000 19.5 180 16:41 10.01.2020
799 Rain 24 1004 78 5000 18 190 16:21 10.01.2020
800 Smoke 26 1004 78 5000 18 190 15:56 10.01.2020
801 Smoke 26 1001 74 10000 15.4 190 15:37 10.01.2020
802 Smoke 26 1001 74 10000 15.4 190 15:19 10.01.2020
803 Smoke 26 1001 74 10000 15.4 190 15:19 10.01.2020
804 Smoke 26 1001 74 10000 15.4 190 14:57 10.01.2020
805 Smoke 26 1002 74 10000 15.4 190 14:38 10.01.2020
806 Smoke 26 1002 69 10000 15.4 190 14:19 10.01.2020
807 Smoke 27 1002 69 10000 15.4 190 13:54 10.01.2020
808 Smoke 27 1002 65 10000 15.4 190 13:36 10.01.2020
809 Clouds 27 1002 69 10000 2.1 20 13:18 10.01.2020
810 Clouds 27 1002 69 10000 2.1 20 12:54 10.01.2020
811 Clouds 27 1003 65 10000 4.1 10 12:36 10.01.2020
812 Clouds 27 1003 65 10000 5.1 10 12:18 10.01.2020
813 Clouds 28 1003 58 10000 4.1 10 11:42 10.01.2020
814 Clouds 28 1003 58 10000 4.1 10 11:42 10.01.2020
815 Clouds 28 1003 58 10000 4.1 10 11:42 10.01.2020
816 Clouds 29 1003 58 10000 4.1 10 11:21 10.01.2020
817 Clouds 30 1002 54 10000 9.8 30 10:59 10.01.2020
818 Clouds 29 1002 51 10000 10.8 30 10:38 10.01.2020
819 Clouds 29 1002 58 10000 11.8 30 10:19 10.01.2020
820 Clouds 29 1002 61 10000 13.4 30 09:46 10.01.2020
821 Clouds 30 1002 61 10000 13.4 30 09:26 10.01.2020
822 Clouds 30 1002 58 10000 12.3 30 08:59 10.01.2020
823 Clouds 31 1003 58 10000 11.3 30 08:38 10.01.2020
824 Clouds 31 1003 58 10000 9.8 30 08:20 10.01.2020
825 Clouds 31 1004 58 10000 12.9 30 07:44 10.01.2020
826 Clouds 31 1004 58 10000 12.9 30 07:22 10.01.2020
827 Clouds 31 1005 58 10000 12.3 30 06:43 10.01.2020
828 Clouds 32 1005 58 10000 12.3 30 06:24 10.01.2020
829 Clouds 32 1006 55 10000 9.8 50 05:44 10.01.2020
830 Clouds 33 1009 55 10000 10.3 30 03:34 10.01.2020
831 Clouds 32 1009 55 10000 9.8 40 02:57 10.01.2020
832 Clouds 30 1010 58 10000 9.8 30 02:37 10.01.2020
833 Clouds 29 1011 65 10000 7.7 50 01:38 10.01.2020
834 Clouds 27 1012 69 10000 7.7 50 00:58 10.01.2020
835 Clouds 26 1012 65 10000 7.7 50 00:38 10.01.2020
836 Clouds 26 1013 69 10000 6.7 20 23:57 09.01.2020
837 Clouds 25 1013 69 10000 4.1 10 23:38 09.01.2020
838 Clouds 24 1013 69 10000 4.1 10 23:20 09.01.2020
839 Rain 24 1013 73 10000 3.6 360 22:57 09.01.2020
840 Rain 23 1014 94 10000 2.63 354 22:37 09.01.2020
841 Rain 22 1014 94 10000 2.63 354 22:19 09.01.2020
842 Clouds 22 1014 94 10000 2.63 354 21:57 09.01.2020
843 Clouds 22 1014 100 10000 2.63 354 21:37 09.01.2020
844 Clouds 22 1014 100 10000 2.63 354 21:37 09.01.2020
845 Clouds 22 1014 100 10000 2.63 354 21:37 09.01.2020
846 Clouds 22 1014 100 10000 2.63 354 21:37 09.01.2020
847 Clouds 22 1014 100 10000 2.63 354 21:37 09.01.2020
848 Clouds 22 1014 100 10000 2.63 354 21:19 09.01.2020
849 Clouds 21 1013 100 6000 2.63 354 20:56 09.01.2020
850 Clouds 21 1013 94 10000 1.5 20 20:38 09.01.2020
851 Clouds 21 1013 94 10000 1.5 20 20:19 09.01.2020
852 Clouds 21 1013 94 10000 1.5 30 19:56 09.01.2020
853 Clouds 21 1013 94 10000 2.1 20 19:37 09.01.2020
854 Clouds 21 1013 94 10000 2.1 20 19:19 09.01.2020
855 Clouds 21 1013 88 10000 0.47 103 18:55 09.01.2020
856 Clouds 21 1013 88 10000 0.47 103 18:36 09.01.2020
857 Clouds 21 1013 88 10000 0.47 103 18:18 09.01.2020
858 Clouds 21 1014 88 10000 0.5 200 17:41 09.01.2020
859 Clouds 21 1014 88 10000 2.1 210 17:18 09.01.2020
860 Clouds 21 1014 88 10000 2.1 210 16:49 09.01.2020
861 Clouds 21 1014 88 10000 2.1 220 16:24 09.01.2020
862 Clouds 21 1015 88 10000 0.5 200 15:59 09.01.2020
863 Clouds 22 1015 88 10000 2.6 190 15:40 09.01.2020
864 Clouds 22 1015 88 10000 2.6 190 15:19 09.01.2020
865 Drizzle 22 1016 88 10000 3.1 190 14:43 09.01.2020
866 Drizzle 22 1016 88 10000 3.1 190 14:22 09.01.2020
867 Clouds 22 1016 88 10000 1 200 13:57 09.01.2020
868 Clouds 22 1016 88 10000 3.6 200 13:39 09.01.2020
869 Clouds 22 1016 88 10000 3.6 200 13:20 09.01.2020
870 Rain 22 1016 88 10000 3.6 190 12:59 09.01.2020
871 Clouds 22 1016 88 10000 4.1 190 12:40 09.01.2020
872 Clouds 22 1016 88 10000 4.1 190 12:40 09.01.2020
873 Clouds 22 1016 88 10000 4.1 190 12:20 09.01.2020
874 Clouds 22 1016 88 10000 4.1 190 11:57 09.01.2020
875 Clouds 22 1016 88 10000 4.1 190 11:38 09.01.2020
876 Clouds 22 1016 88 10000 4.1 190 11:20 09.01.2020
877 Clouds 23 1016 88 10000 5.1 180 10:44 09.01.2020
878 Clouds 23 1016 88 10000 5.1 180 10:22 09.01.2020
879 Clouds 23 1015 88 10000 6.7 190 09:59 09.01.2020
880 Clouds 23 1016 88 10000 6.7 180 09:39 09.01.2020
881 Clouds 23 1016 88 10000 6.7 180 09:21 09.01.2020
882 Clouds 24 1015 88 10000 5.1 180 08:55 09.01.2020
883 Clouds 24 1015 83 10000 6.7 170 08:37 09.01.2020
884 Clouds 24 1015 83 10000 6.7 170 08:19 09.01.2020
885 Clouds 24 1015 83 10000 7.7 180 07:42 09.01.2020
886 Clouds 24 1015 83 10000 7.7 180 07:23 09.01.2020
887 Clouds 25 1016 83 10000 7.7 180 06:39 09.01.2020
888 Clouds 25 1016 73 10000 7.7 170 06:20 09.01.2020
889 Clouds 25 1016 73 10000 7.7 170 05:49 09.01.2020
890 Clouds 25 1017 73 10000 7.7 180 04:44 09.01.2020
891 Clouds 25 1017 73 10000 8.2 180 03:38 09.01.2020
892 Clouds 24 1018 78 10000 8.2 190 02:54 09.01.2020
893 Clouds 24 1018 78 10000 8.2 190 02:28 09.01.2020
894 Clouds 23 1018 83 10000 7.7 190 01:39 09.01.2020
895 Clouds 22 1018 83 10000 6.2 200 00:43 09.01.2020
896 Clouds 22 1018 83 10000 6.2 200 00:21 09.01.2020
897 Clouds 22 1018 88 10000 6.7 200 23:55 08.01.2020
898 Clouds 21 1018 88 10000 6.7 200 23:37 08.01.2020
899 Clouds 21 1018 88 10000 6.7 200 23:18 08.01.2020
900 Rain 21 1017 83 10000 7.2 190 22:39 08.01.2020
901 Rain 21 1017 83 10000 7.2 190 22:21 08.01.2020
902 Smoke 21 1017 88 10000 5.1 190 21:57 08.01.2020
903 Smoke 21 1017 88 10000 5.1 190 21:38 08.01.2020
904 Smoke 21 1017 88 10000 5.1 190 21:20 08.01.2020
905 Smoke 21 1017 88 10000 5.1 190 21:20 08.01.2020
906 Drizzle 21 1017 83 10000 5.1 190 20:58 08.01.2020
907 Clouds 21 1016 88 10000 8.2 180 20:39 08.01.2020
908 Clouds 21 1016 88 10000 8.2 180 20:20 08.01.2020
909 Smoke 21 1016 88 10000 5.1 190 19:56 08.01.2020
910 Clouds 21 1015 83 10000 8.2 190 19:37 08.01.2020
911 Smoke 21 1015 83 10000 5.1 190 19:19 08.01.2020
912 Smoke 21 1015 83 10000 5.1 190 18:56 08.01.2020
913 Clouds 21 1015 83 10000 7.2 190 18:37 08.01.2020
914 Clouds 21 1015 83 10000 7.2 190 18:18 08.01.2020
915 Smoke 21 1015 83 10000 5.1 190 17:55 08.01.2020
916 Rain 21 1016 83 8000 5.1 200 17:36 08.01.2020
917 Clouds 21 1016 83 8000 5.1 200 17:18 08.01.2020
918 Smoke 21 1016 78 8000 5.1 190 16:54 08.01.2020
919 Clouds 21 1016 78 7000 5.1 200 16:36 08.01.2020
920 Clouds 21 1016 78 7000 5.1 200 16:18 08.01.2020
921 Clouds 21 1016 78 6000 4.6 190 15:41 08.01.2020
922 Clouds 21 1016 78 6000 4.6 190 15:21 08.01.2020
923 Clouds 21 1017 78 6000 4.6 210 14:57 08.01.2020
924 Smoke 22 1017 78 5000 4.1 200 14:39 08.01.2020
925 Smoke 22 1017 78 5000 4.1 200 14:20 08.01.2020
926 Smoke 22 1017 83 5000 7.7 190 13:40 08.01.2020
927 Smoke 22 1017 83 5000 7.7 190 13:40 08.01.2020
928 Smoke 22 1017 83 5000 7.7 190 13:19 08.01.2020
929 Smoke 22 1017 83 4000 8.7 180 12:42 08.01.2020
930 Smoke 22 1017 83 4000 8.7 180 12:20 08.01.2020
931 Smoke 22 1017 83 3500 9.3 180 11:59 08.01.2020
932 Smoke 22 1016 83 3500 8.7 190 11:40 08.01.2020
933 Smoke 22 1016 83 3500 8.7 190 11:19 08.01.2020
934 Smoke 22 1016 88 3500 9.8 190 10:55 08.01.2020
935 Smoke 22 1016 88 3500 8.7 190 10:37 08.01.2020
936 Smoke 22 1016 88 3500 8.7 190 10:37 08.01.2020
937 Smoke 23 1016 88 3500 8.7 190 10:19 08.01.2020
938 Smoke 23 1014 83 3000 9.8 190 09:42 08.01.2020
939 Smoke 23 1014 83 2000 9.8 180 09:20 08.01.2020
940 Smoke 23 1014 83 2000 9.8 180 08:57 08.01.2020
941 Smoke 24 1014 83 2500 8.7 180 08:37 08.01.2020
942 Smoke 24 1014 83 2500 8.7 180 08:19 08.01.2020
943 Smoke 24 1014 78 2000 8.7 180 07:50 08.01.2020
944 Smoke 25 1013 78 1500 9.8 180 07:32 08.01.2020
945 Smoke 25 1013 78 1500 10.8 170 06:49 08.01.2020
946 Smoke 25 1014 78 2000 11.3 170 06:25 08.01.2020
947 Clouds 26 1013 54 8000 5.7 130 05:54 08.01.2020
948 Clouds 26 1013 54 9000 5.1 140 05:18 08.01.2020
949 Smoke 26 1014 73 3000 9.8 180 04:27 08.01.2020
950 Clouds 26 1014 61 6000 2.6 130 02:45 08.01.2020
951 Smoke 26 1015 78 3000 10.3 170 02:27 08.01.2020
952 Smoke 25 1015 78 2500 9.3 180 01:50 08.01.2020
953 Smoke 24 1015 78 2500 9.3 190 01:26 08.01.2020
954 Smoke 24 1015 78 2000 9.8 190 00:42 08.01.2020
955 Smoke 24 1015 78 2000 9.8 190 00:21 08.01.2020
956 Smoke 23 1015 83 2000 8.7 190 23:44 07.01.2020
957 Smoke 22 1015 83 2000 8.2 190 23:20 07.01.2020
958 Smoke 22 1015 83 2000 8.2 190 22:41 07.01.2020
959 Smoke 22 1015 83 2000 8.2 190 22:21 07.01.2020
960 Rain 22 1015 83 1000 8.7 190 21:58 07.01.2020
961 Rain 21 1014 88 3000 8.7 190 21:40 07.01.2020
962 Rain 21 1014 88 2000 7.7 190 21:21 07.01.2020
963 Mist 21 1014 88 2000 7.7 190 20:57 07.01.2020
964 Mist 21 1014 88 2000 7.7 190 20:39 07.01.2020
965 Mist 21 1014 88 2000 7.7 190 20:21 07.01.2020
966 Mist 21 1013 88 3000 8.2 180 19:56 07.01.2020
967 Mist 21 1013 94 3000 8.7 180 19:37 07.01.2020
968 Mist 21 1013 94 3000 8.7 180 19:18 07.01.2020
969 Mist 21 1013 94 3000 8.7 180 19:18 07.01.2020
970 Mist 21 1013 88 3000 8.2 190 18:55 07.01.2020
971 Mist 21 1012 94 3000 7.7 200 18:37 07.01.2020
972 Mist 21 1012 94 3000 7.7 200 18:18 07.01.2020
973 Mist 21 1012 94 3000 7.7 200 18:18 07.01.2020
974 Mist 22 1012 94 4000 7.7 190 17:41 07.01.2020
975 Mist 22 1013 94 5000 7.2 200 17:23 07.01.2020
976 Mist 22 1013 94 5000 7.2 200 16:58 07.01.2020
977 Rain 22 1013 88 6000 7.2 190 16:38 07.01.2020
978 Rain 22 1013 88 6000 7.2 190 16:19 07.01.2020
979 Rain 22 1012 94 8000 6.2 160 15:59 07.01.2020
980 Thunderstorm 23 1012 94 6000 4.6 150 15:41 07.01.2020
981 Thunderstorm 23 1012 94 6000 4.6 150 15:23 07.01.2020
982 Thunderstorm 23 1013 88 8000 5.1 240 14:57 07.01.2020
983 Rain 23 1013 94 10000 4.6 160 14:37 07.01.2020
984 Rain 23 1013 94 10000 4.6 160 14:19 07.01.2020
985 Drizzle 24 1013 83 10000 5.7 170 13:40 07.01.2020
986 Drizzle 24 1013 83 10000 5.7 170 13:20 07.01.2020
987 Clouds 24 1012 83 10000 4.6 120 12:54 07.01.2020
988 Smoke 24 1012 83 10000 2.6 0 12:36 07.01.2020
989 Smoke 24 1012 83 10000 2.6 0 12:18 07.01.2020
990 Rain 25 1011 83 10000 6.7 50 11:41 07.01.2020
991 Rain 25 1011 83 10000 6.7 50 11:41 07.01.2020
992 Rain 25 1011 83 10000 6.7 50 11:21 07.01.2020
993 Rain 25 1011 78 10000 4.6 30 10:55 07.01.2020
994 Rain 25 1010 78 10000 7.2 20 10:37 07.01.2020
995 Rain 25 1010 78 10000 9.8 30 10:19 07.01.2020
996 Rain 25 1010 74 9000 9.3 30 09:38 07.01.2020
997 Rain 26 1010 74 9000 9.3 30 09:20 07.01.2020
998 Rain 26 1010 74 9000 9.3 30 09:20 07.01.2020
999 Rain 26 1010 65 10000 7.7 50 08:57 07.01.2020
1000 Rain 26 1009 65 10000 7.2 60 08:37 07.01.2020
1001 Clouds 27 1009 61 10000 6.2 40 08:18 07.01.2020
1002 Clouds 29 1009 61 10000 6.2 40 07:42 07.01.2020
1003 Clouds 29 1010 61 10000 7.2 30 06:57 07.01.2020
1004 Clouds 29 1010 69 10000 8.7 30 06:35 07.01.2020
1005 Clouds 29 1010 69 10000 7.7 50 05:59 07.01.2020
1006 Clouds 29 1011 65 10000 7.7 50 05:40 07.01.2020
1007 Clouds 28 1013 58 10000 5.1 30 03:45 07.01.2020
1008 Clouds 28 1013 58 10000 6.7 30 02:47 07.01.2020
1009 Rain 26 1013 65 10000 4.1 40 02:18 07.01.2020
1010 Rain 25 1014 65 10000 3.6 40 01:36 07.01.2020
1011 Clouds 25 1014 69 10000 2.6 20 00:57 07.01.2020
1012 Clouds 24 1014 78 10000 5.7 50 00:21 07.01.2020
1013 Clouds 23 1015 78 10000 5.1 30 23:57 06.01.2020
1014 Rain 22 1015 78 10000 3.1 330 23:37 06.01.2020
1015 Clouds 22 1015 94 10000 4.1 40 23:19 06.01.2020
1016 Clouds 21 1016 94 10000 4.1 40 22:44 06.01.2020
1017 Clouds 21 1016 94 10000 4.1 40 22:44 06.01.2020
1018 Clouds 21 1016 94 10000 4.1 40 22:25 06.01.2020
1019 Rain 21 1016 83 10000 2.6 350 21:59 06.01.2020
1020 Clouds 20 1016 88 10000 5.1 310 21:40 06.01.2020
1021 Clouds 20 1016 88 10000 5.1 310 21:20 06.01.2020
1022 Clouds 20 1015 88 10000 4.6 340 20:57 06.01.2020
1023 Clouds 20 1015 94 10000 3.6 360 20:39 06.01.2020
1024 Rain 20 1008 87 0 1.34 301 20:20 06.01.2020
1025 Clouds 20 1015 100 10000 2.21 314 19:57 06.01.2020
1026 Rain 20 1016 94 10000 3.6 240 19:39 06.01.2020
1027 Rain 20 1016 94 10000 3.6 240 19:20 06.01.2020
1028 Rain 20 1015 100 10000 0.5 50 18:48 06.01.2020
1029 Rain 20 1015 100 10000 0.5 50 18:25 06.01.2020
1030 Rain 20 1015 100 10000 2.1 60 17:59 06.01.2020
1031 Rain 20 1016 100 10000 2.1 310 17:39 06.01.2020
1032 Rain 20 1016 100 10000 2.1 310 17:39 06.01.2020
1033 Drizzle 20 1015 94 10000 2.52 50 17:19 06.01.2020
1034 Rain 20 1016 94 10000 2.52 50 16:55 06.01.2020
1035 Drizzle 20 1017 94 7000 2.1 280 16:36 06.01.2020
1036 Drizzle 20 1017 94 7000 2.1 280 16:18 06.01.2020
1037 Rain 21 1018 94 10000 2.1 260 15:42 06.01.2020
1038 Rain 21 1018 94 10000 2.1 260 15:20 06.01.2020
1039 Rain 20 1018 94 10000 2.52 50 14:59 06.01.2020
1040 Rain 21 1018 94 10000 4.6 80 14:41 06.01.2020
1041 Rain 21 1018 94 10000 4.6 80 14:41 06.01.2020
1042 Rain 21 1018 94 10000 4.6 80 14:21 06.01.2020
1043 Rain 20 1018 94 10000 4.1 80 13:58 06.01.2020
1044 Rain 21 1019 94 10000 2.6 110 13:38 06.01.2020
1045 Rain 21 1019 94 10000 2.6 110 13:20 06.01.2020
1046 Rain 21 1019 94 10000 3.6 120 12:44 06.01.2020
1047 Rain 21 1020 94 10000 3.1 140 12:21 06.01.2020
1048 Rain 21 1020 94 10000 3.1 130 11:59 06.01.2020
1049 Rain 21 1019 88 10000 2.6 70 11:41 06.01.2020
1050 Rain 21 1019 88 10000 2.6 70 11:23 06.01.2020
1051 Rain 21 1019 88 10000 5.7 110 10:57 06.01.2020
1052 Rain 21 1019 83 10000 4.6 110 10:39 06.01.2020
1053 Rain 21 1019 83 10000 4.6 110 10:20 06.01.2020
1054 Rain 21 1018 78 10000 4.6 90 09:39 06.01.2020
1055 Thunderstorm 21 1018 78 10000 4.1 80 09:20 06.01.2020
1056 Thunderstorm 21 1018 78 10000 4.1 80 08:48 06.01.2020
1057 Thunderstorm 21 1018 78 10000 4.1 80 08:48 06.01.2020
1058 Clouds 22 1017 69 10000 6.2 80 08:30 06.01.2020
1059 Clouds 22 1017 73 10000 7.2 80 07:56 06.01.2020
1060 Clouds 22 1017 69 10000 6.7 80 07:33 06.01.2020
1061 Rain 22 1017 69 10000 5.7 70 06:46 06.01.2020
1062 Rain 23 1017 69 10000 5.7 70 06:23 06.01.2020
1063 Clouds 23 1018 60 10000 6.7 70 05:45 06.01.2020
1064 Clouds 23 1018 61 10000 5.7 100 04:52 06.01.2020
1065 Clouds 23 1018 60 10000 5.7 70 04:19 06.01.2020
1066 Clouds 22 1020 68 10000 4.1 110 02:58 06.01.2020
1067 Clouds 22 1020 60 10000 5.1 110 02:24 06.01.2020
1068 Clouds 22 1020 60 10000 5.1 80 01:45 06.01.2020
1069 Clouds 22 1020 68 10000 4.6 100 01:27 06.01.2020
1070 Clouds 22 1020 64 10000 0.5 20 00:44 06.01.2020
1071 Clouds 22 1020 64 10000 5.7 100 00:24 06.01.2020
1072 Clouds 21 1021 64 10000 4.6 110 23:43 05.01.2020
1073 Clouds 21 1020 64 10000 5.7 100 23:43 05.01.2020
1074 Clouds 21 1021 64 10000 4.6 110 23:23 05.01.2020
1075 Clouds 21 1021 64 10000 4.6 110 23:23 05.01.2020
1076 Clouds 21 1020 64 10000 5.7 100 22:58 05.01.2020
1077 Clouds 21 1020 64 10000 6.7 100 22:39 05.01.2020
1078 Clouds 20 1020 64 10000 6.7 100 22:20 05.01.2020
1079 Clouds 20 1020 82 10000 2.6 210 21:56 05.01.2020
1080 Clouds 19 1020 82 10000 2.27 83 21:38 05.01.2020
1081 Clouds 19 1020 82 10000 2.27 83 21:20 05.01.2020
1082 Clouds 19 1020 82 10000 2.27 83 20:56 05.01.2020
1083 Clouds 18 1020 82 10000 2.27 83 20:38 05.01.2020
1084 Clouds 18 1020 82 10000 2.16 103 20:19 05.01.2020
1085 Clouds 18 1020 77 10000 2.16 103 19:57 05.01.2020
1086 Rain 18 1019 72 10000 3.6 130 19:38 05.01.2020
1087 Rain 18 1019 72 10000 3.6 130 19:19 05.01.2020
1088 Clouds 19 1020 72 10000 2.1 230 18:55 05.01.2020
1089 Clouds 19 1019 68 10000 3.1 210 18:37 05.01.2020
1090 Clouds 19 1019 68 10000 3.1 210 18:18 05.01.2020
1091 Rain 19 1020 68 10000 2.16 103 17:57 05.01.2020
1092 Rain 18 1021 68 10000 2.16 103 17:38 05.01.2020
1093 Clouds 18 1021 68 10000 2.2 141 17:19 05.01.2020
1094 Clouds 19 1021 68 10000 1 120 16:55 05.01.2020
1095 Clouds 19 1021 64 10000 3.1 120 16:37 05.01.2020
1096 Clouds 19 1021 64 10000 3.1 120 16:19 05.01.2020
1097 Clouds 19 1021 64 10000 3.1 120 16:19 05.01.2020
1098 Clouds 19 1022 60 10000 5.1 130 15:37 05.01.2020
1099 Clouds 20 1022 60 10000 6.2 130 15:18 05.01.2020
1100 Clouds 20 1022 60 10000 6.2 130 14:55 05.01.2020
1101 Clouds 20 1022 60 10000 6.7 130 14:37 05.01.2020
1102 Clouds 20 1022 60 10000 6.7 130 14:18 05.01.2020
1103 Clouds 20 1023 60 10000 6.7 140 13:54 05.01.2020
1104 Clouds 20 1023 64 10000 5.7 140 13:36 05.01.2020
1105 Clouds 21 1023 60 10000 7.2 130 13:18 05.01.2020
1106 Clouds 21 1023 64 10000 5.7 140 13:18 05.01.2020
1107 Clouds 21 1023 60 10000 7.2 130 13:18 05.01.2020
1108 Clouds 21 1023 60 10000 7.2 130 12:55 05.01.2020
1109 Clouds 21 1023 56 10000 8.7 130 12:36 05.01.2020
1110 Clouds 21 1023 56 10000 8.7 130 12:36 05.01.2020
1111 Clouds 21 1023 56 10000 8.7 130 12:18 05.01.2020
1112 Rain 21 1022 60 10000 8.7 150 11:43 05.01.2020
1113 Rain 21 1022 60 10000 8.7 150 11:43 05.01.2020
1114 Rain 21 1022 60 10000 8.7 150 11:43 05.01.2020
1115 Rain 21 1022 60 10000 8.7 150 11:43 05.01.2020
1116 Rain 21 1022 60 10000 8.7 150 11:43 05.01.2020
1117 Rain 21 1022 60 10000 8.7 150 11:19 05.01.2020
1118 Rain 21 1022 60 10000 8.7 150 10:58 05.01.2020
1119 Rain 21 1021 56 10000 9.3 160 10:39 05.01.2020
1120 Rain 21 1021 56 10000 9.3 160 10:39 05.01.2020
1121 Rain 21 1021 56 10000 9.3 160 10:39 05.01.2020
1122 Rain 21 1021 56 10000 9.3 160 10:39 05.01.2020
1123 Rain 21 1021 56 10000 9.3 160 10:39 05.01.2020
1124 Rain 21 1021 56 10000 9.3 160 10:18 05.01.2020
1125 Clouds 21 1020 56 10000 9.3 160 09:42 05.01.2020
1126 Clouds 21 1020 56 10000 9.3 160 09:22 05.01.2020
1127 Smoke 21 1020 73 9000 9.3 160 08:50 05.01.2020
1128 Clouds 22 1019 64 9000 10.8 170 08:30 05.01.2020
1129 Smoke 22 1019 60 9000 9.3 160 07:56 05.01.2020
1130 Clouds 22 1019 64 8000 10.8 160 07:38 05.01.2020
1131 Clouds 22 1019 64 8000 10.8 160 07:20 05.01.2020
1132 Clouds 23 1018 68 8000 10.8 170 06:20 05.01.2020
1133 Clouds 24 1018 69 6000 10.3 180 05:33 05.01.2020
1134 Clouds 24 1018 69 6000 10.3 180 05:33 05.01.2020
1135 Clouds 24 1018 69 6000 10.3 180 05:33 05.01.2020
1136 Clouds 25 1018 73 7000 10.3 180 04:44 05.01.2020
1137 Clouds 26 1018 73 7000 9.8 180 04:18 05.01.2020
1138 Smoke 26 1018 69 5000 9.8 180 02:46 05.01.2020
1139 Clouds 25 1018 69 8000 9.3 180 02:24 05.01.2020
1140 Clouds 25 1018 64 8000 9.3 180 01:49 05.01.2020
1141 Clouds 25 1018 64 7000 9.3 180 01:19 05.01.2020
1142 Smoke 25 1018 73 7000 10.3 170 00:55 05.01.2020
1143 Smoke 25 1018 69 7000 10.3 170 00:36 05.01.2020
1144 Smoke 24 1018 69 7000 10.3 170 00:18 05.01.2020
1145 Clouds 23 1018 73 8000 8.2 190 23:40 04.01.2020
1146 Clouds 23 1018 73 8000 8.2 190 23:20 04.01.2020
1147 Clouds 22 1018 73 8000 8.7 180 22:40 04.01.2020
1148 Clouds 22 1018 73 8000 8.7 180 22:22 04.01.2020
1149 Clouds 22 1018 73 8000 8.7 180 21:58 04.01.2020
1150 Clouds 22 1017 73 9000 9.8 170 21:40 04.01.2020
1151 Clouds 22 1017 73 9000 9.8 170 21:22 04.01.2020
1152 Clouds 22 1016 68 9000 8.7 170 20:59 04.01.2020
1153 Clear 22 1016 64 10000 8.2 190 20:40 04.01.2020
1154 Clouds 22 1016 64 10000 8.2 190 20:22 04.01.2020
1155 Clouds 22 1016 64 10000 8.2 190 20:22 04.01.2020
1156 Clouds 22 1015 60 10000 8.2 190 19:57 04.01.2020
1157 Clouds 22 1015 56 10000 7.7 190 19:39 04.01.2020
1158 Clouds 22 1015 56 10000 7.7 190 19:20 04.01.2020
1159 Clouds 22 1014 56 10000 8.2 200 18:56 04.01.2020
1160 Clouds 22 1014 56 10000 8.7 200 18:38 04.01.2020
1161 Clouds 22 1013 60 10000 8.7 200 18:19 04.01.2020
1162 Clouds 22 1013 64 10000 8.7 190 17:42 04.01.2020
1163 Clouds 22 1013 64 10000 8.7 190 17:42 04.01.2020
1164 Clouds 23 1013 64 10000 8.7 190 17:24 04.01.2020
1165 Clouds 23 1013 68 9000 9.8 190 16:59 04.01.2020
1166 Clouds 23 1013 73 7000 10.3 190 16:40 04.01.2020
1167 Clouds 23 1013 73 7000 10.3 190 16:22 04.01.2020
1168 Clouds 23 1012 78 6000 12.9 180 15:57 04.01.2020
1169 Smoke 23 1012 78 5000 13.9 180 15:38 04.01.2020
1170 Smoke 23 1012 78 5000 13.9 180 15:19 04.01.2020
1171 Smoke 23 1012 78 5000 14.9 190 14:56 04.01.2020
1172 Smoke 23 1011 73 5000 17.5 190 14:37 04.01.2020
1173 Smoke 24 1010 73 5000 18 190 14:19 04.01.2020
1174 Smoke 24 1010 73 5000 18 190 13:55 04.01.2020
1175 Smoke 25 1009 78 5000 19 190 13:36 04.01.2020
1176 Smoke 25 1009 78 5000 19 190 13:18 04.01.2020
1177 Smoke 26 1008 73 5000 17.5 190 12:41 04.01.2020
1178 Smoke 29 1008 73 5000 17.5 190 12:19 04.01.2020
1179 Clouds 31 1008 65 6000 14.9 190 11:58 04.01.2020
1180 Clouds 34 1004 28 10000 8.2 30 11:38 04.01.2020
1181 Clouds 35 1004 28 10000 8.2 30 11:19 04.01.2020
1182 Clouds 36 1004 28 10000 10.8 30 10:42 04.01.2020
1183 Clouds 36 1004 28 10000 10.8 30 10:42 04.01.2020
1184 Clouds 36 1004 28 10000 10.8 30 10:23 04.01.2020
1185 Smoke 36 1003 28 10000 15.4 180 10:23 04.01.2020
1186 Smoke 37 1003 28 10000 15.4 180 09:59 04.01.2020
1187 Smoke 37 1003 28 10000 15.4 180 09:41 04.01.2020
1188 Smoke 38 1003 28 10000 15.4 180 09:21 04.01.2020
1189 Clouds 40 1003 30 10000 12.9 30 08:41 04.01.2020
1190 Clouds 40 1003 30 10000 12.9 30 08:21 04.01.2020
1191 Clouds 42 1003 32 10000 12.3 30 07:44 04.01.2020
1192 Clouds 43 1003 32 10000 12.3 30 07:20 04.01.2020
1193 Clouds 43 1004 27 10000 9.8 50 06:33 04.01.2020
1194 Clear 45 1004 26 10000 10.3 40 05:22 04.01.2020
1195 Clear 45 1005 24 9000 5.1 50 04:44 04.01.2020
1196 Clear 45 1005 11 10000 6.7 280 04:25 04.01.2020
1197 Smoke 45 1006 22 9000 10.3 40 03:18 04.01.2020
1198 Clear 43 1006 19 10000 3.1 290 02:23 04.01.2020
1199 Smoke 41 1007 31 9000 7.7 60 01:56 04.01.2020
1200 Clear 39 1008 34 9000 2.1 350 01:32 04.01.2020
1201 Smoke 37 1009 46 10000 7.7 60 00:46 04.01.2020
1202 Smoke 35 1009 46 10000 7.7 60 00:27 04.01.2020
1203 Clear 30 1010 58 10000 4.1 340 23:48 03.01.2020
1204 Clear 29 1010 58 10000 4.1 340 23:26 03.01.2020
1205 Clear 27 1010 65 10000 4.1 350 22:55 03.01.2020
1206 Clear 26 1010 69 10000 3.6 330 22:36 03.01.2020
1207 Clear 24 1010 78 10000 3.1 330 22:18 03.01.2020
1208 Clear 24 1010 78 10000 3.1 330 21:55 03.01.2020
1209 Clear 23 1010 78 9000 2.6 330 21:37 03.01.2020
1210 Clear 22 1010 78 9000 2.6 330 21:18 03.01.2020
1211 Clear 21 1010 88 10000 2.34 322 20:43 03.01.2020
1212 Clear 20 1010 83 10000 1.36 253 20:19 03.01.2020
1213 Clear 20 1010 88 10000 1.36 253 19:59 03.01.2020
1214 Clear 20 1010 83 10000 1.5 300 19:41 03.01.2020
1215 Clear 20 1010 83 10000 1.5 300 19:22 03.01.2020
1216 Clear 21 1010 88 10000 1.36 253 18:46 03.01.2020
1217 Clear 21 1010 88 10000 1.36 253 18:26 03.01.2020
1218 Clear 21 1010 83 10000 1 200 17:58 03.01.2020
1219 Clear 21 1010 78 10000 1.36 253 17:40 03.01.2020
1220 Clear 21 1010 83 10000 3.1 50 17:21 03.01.2020
1221 Clear 22 1010 83 10000 4.6 50 16:44 03.01.2020
1222 Clear 22 1010 83 10000 4.6 50 16:25 03.01.2020
1223 Clear 22 1011 83 10000 4.1 50 15:59 03.01.2020
1224 Clear 22 1011 83 10000 3.6 50 15:41 03.01.2020
1225 Clear 22 1011 83 10000 3.6 50 15:19 03.01.2020
1226 Clouds 23 1011 78 10000 4.6 30 14:40 03.01.2020
1227 Clouds 23 1011 78 10000 4.6 30 14:20 03.01.2020
1228 Clouds 23 1011 78 10000 5.1 30 13:57 03.01.2020
1229 Clouds 23 1012 78 10000 5.1 30 13:39 03.01.2020
1230 Clouds 23 1012 78 10000 5.1 30 13:39 03.01.2020
1231 Clouds 23 1012 78 10000 5.1 30 13:20 03.01.2020
1232 Clouds 24 1012 73 10000 5.1 30 12:41 03.01.2020
1233 Clouds 24 1012 73 10000 5.1 30 12:22 03.01.2020
1234 Clear 24 1012 73 10000 4.1 20 11:54 03.01.2020
1235 Clear 24 1011 73 10000 6.2 20 11:35 03.01.2020
1236 Clear 25 1011 78 10000 8.2 30 10:58 03.01.2020
1237 Clouds 25 1011 78 10000 9.8 30 10:39 03.01.2020
1238 Clouds 25 1011 78 10000 9.8 30 10:21 03.01.2020
1239 Clouds 25 1011 74 10000 7.7 30 09:55 03.01.2020
1240 Clouds 26 1011 74 10000 7.7 30 09:37 03.01.2020
1241 Clouds 26 1011 74 10000 7.7 30 09:19 03.01.2020
1242 Clear 27 1010 58 10000 9.8 40 08:45 03.01.2020
1243 Clouds 27 1010 58 10000 9.8 40 08:23 03.01.2020
1244 Clouds 28 1011 58 10000 10.3 40 07:57 03.01.2020
1245 Clouds 28 1011 58 10000 9.3 50 07:38 03.01.2020
1246 Clouds 28 1011 61 10000 9.8 60 07:18 03.01.2020
1247 Clouds 29 1012 61 10000 9.8 70 06:42 03.01.2020
1248 Clouds 29 1012 61 10000 9.8 70 06:22 03.01.2020
1249 Clouds 31 1013 58 10000 8.7 70 05:20 03.01.2020
1250 Clouds 31 1014 54 10000 6.2 80 03:45 03.01.2020
1251 Clouds 30 1014 61 10000 6.7 50 02:54 03.01.2020
1252 Clouds 28 1015 65 10000 6.7 50 01:54 03.01.2020
1253 Clouds 28 1016 65 10000 6.7 50 01:36 03.01.2020
1254 Clouds 28 1016 65 10000 6.7 50 01:36 03.01.2020
1255 Clouds 27 1016 73 10000 6.7 50 00:46 03.01.2020
1256 Clouds 26 1017 73 10000 1 180 00:26 03.01.2020
1257 Clouds 25 1017 73 10000 3.6 130 23:55 02.01.2020
1258 Clouds 25 1017 73 10000 3.6 130 23:37 02.01.2020
1259 Clouds 24 1017 73 10000 3.6 130 23:18 02.01.2020
1260 Clouds 23 1017 88 10000 1 220 22:42 02.01.2020
1261 Clouds 22 1017 88 10000 0.5 200 22:20 02.01.2020
1262 Clouds 22 1017 88 10000 0.5 200 21:57 02.01.2020
1263 Clouds 22 1017 88 10000 0.5 200 21:57 02.01.2020
1264 Clouds 22 1017 83 10000 2.1 200 21:38 02.01.2020
1265 Clouds 22 1017 83 10000 2.1 200 21:20 02.01.2020
1266 Clouds 21 1017 83 10000 2.6 170 20:57 02.01.2020
1267 Clouds 21 1016 83 10000 2.6 170 20:38 02.01.2020
1268 Rain 21 1016 83 8000 3.6 180 20:20 02.01.2020
1269 Rain 21 1016 83 8000 3.6 180 20:20 02.01.2020
1270 Rain 21 1016 83 8000 3.6 180 19:55 02.01.2020
1271 Rain 21 1016 83 9000 2.6 190 19:36 02.01.2020
1272 Rain 21 1016 83 9000 2.6 190 19:18 02.01.2020
1273 Drizzle 21 1016 83 9000 3.1 180 18:56 02.01.2020
1274 Rain 21 1016 83 10000 3.6 180 18:37 02.01.2020
1275 Rain 21 1016 83 10000 3.6 180 18:19 02.01.2020
1276 Rain 21 1016 83 10000 3.1 170 17:55 02.01.2020
1277 Drizzle 21 1016 83 9000 2.6 170 17:36 02.01.2020
1278 Drizzle 22 1016 83 9000 2.6 170 17:18 02.01.2020
1279 Drizzle 22 1016 83 9000 2.6 170 17:18 02.01.2020
1280 Clouds 22 1017 83 10000 2.6 150 16:54 02.01.2020
1281 Clouds 22 1017 83 10000 3.1 180 16:36 02.01.2020
1282 Clouds 22 1017 83 10000 3.1 180 16:18 02.01.2020
1283 Clouds 22 1018 83 10000 2.1 180 15:42 02.01.2020
1284 Rain 22 1018 83 10000 2.6 170 15:24 02.01.2020
1285 Rain 22 1018 83 10000 2.6 170 14:58 02.01.2020
1286 Rain 22 1019 88 10000 3.1 170 14:37 02.01.2020
1287 Drizzle 22 1019 83 10000 3.6 160 14:19 02.01.2020
1288 Drizzle 22 1019 83 10000 3.6 160 13:58 02.01.2020
1289 Drizzle 22 1019 78 9000 3.1 150 13:38 02.01.2020
1290 Clouds 22 1019 78 10000 3.6 150 13:18 02.01.2020
1291 Clouds 22 1018 73 10000 4.1 140 12:42 02.01.2020
1292 Clouds 22 1018 73 10000 4.1 140 12:21 02.01.2020
1293 Clouds 22 1018 73 10000 5.1 130 11:42 02.01.2020
1294 Clouds 22 1018 73 10000 5.1 130 11:21 02.01.2020
1295 Clouds 23 1017 69 10000 4.6 130 10:46 02.01.2020
1296 Clouds 23 1017 69 10000 4.6 130 10:28 02.01.2020
1297 Clouds 23 1017 69 10000 5.1 120 09:58 02.01.2020
1298 Clouds 23 1017 69 10000 5.1 120 09:35 02.01.2020
1299 Clouds 23 1016 69 10000 6.2 130 08:59 02.01.2020
1300 Clouds 23 1016 69 10000 5.7 130 08:40 02.01.2020
1301 Clouds 24 1016 69 10000 5.7 130 08:21 02.01.2020
1302 Clouds 24 1016 57 10000 6.7 140 07:47 02.01.2020
1303 Clouds 24 1016 57 10000 6.7 140 07:27 02.01.2020
1304 Clouds 25 1017 57 10000 6.7 140 06:43 02.01.2020
1305 Clouds 26 1017 57 10000 6.7 140 05:42 02.01.2020
1306 Clouds 26 1017 50 10000 5.7 140 04:36 02.01.2020
1307 Clouds 26 1018 50 10000 5.1 140 03:54 02.01.2020
1308 Clouds 25 1019 50 10000 4.6 130 02:21 02.01.2020
1309 Clouds 24 1019 53 10000 4.1 130 01:57 02.01.2020
1310 Clouds 24 1019 56 10000 4.1 130 01:30 02.01.2020
1311 Clouds 23 1019 60 10000 4.1 130 00:52 02.01.2020
1312 Clouds 22 1019 73 9000 4.1 170 00:28 02.01.2020
1313 Clouds 22 1019 73 9000 4.1 160 23:47 01.01.2020
1314 Clouds 21 1019 73 9000 4.1 160 23:24 01.01.2020
1315 Clouds 21 1019 77 9000 5.1 170 22:54 01.01.2020
1316 Clouds 21 1019 64 10000 5.1 150 22:36 01.01.2020
1317 Clouds 20 1019 64 10000 5.1 150 22:18 01.01.2020
1318 Clouds 20 1019 77 10000 2.1 250 21:42 01.01.2020
1319 Clouds 20 1019 68 10000 5.1 150 21:21 01.01.2020
1320 Clouds 20 1018 77 6000 6.2 180 20:58 01.01.2020
1321 Clouds 19 1018 82 6000 6.7 180 20:39 01.01.2020
1322 Clouds 19 1018 82 6000 6.7 180 20:20 01.01.2020
1323 Clouds 19 1018 82 10000 1.5 230 19:58 01.01.2020
1324 Clouds 19 1018 82 10000 2.6 220 19:39 01.01.2020
1325 Clouds 19 1018 82 10000 2.6 220 19:20 01.01.2020
1326 Clouds 19 1017 82 9000 6.7 180 18:57 01.01.2020
1327 Clouds 19 1018 82 10000 2.6 220 18:39 01.01.2020
1328 Clouds 19 1017 82 10000 7.7 190 18:20 01.01.2020
1329 Clouds 19 1017 82 10000 7.7 190 17:59 01.01.2020
1330 Clouds 19 1018 82 10000 3.6 180 17:40 01.01.2020
1331 Rain 19 1018 82 10000 3.6 180 17:20 01.01.2020
1332 Rain 19 1018 77 10000 6.7 190 16:59 01.01.2020
1333 Rain 19 1018 77 10000 4.1 170 16:38 01.01.2020
1334 Rain 19 1018 77 10000 4.1 170 16:20 01.01.2020
1335 Clouds 19 1018 88 10000 7.7 190 15:57 01.01.2020
1336 Clouds 19 1018 88 10000 8.7 190 15:38 01.01.2020
1337 Clouds 19 1018 88 10000 8.7 190 15:20 01.01.2020
1338 Clouds 20 1018 88 8000 8.2 190 14:56 01.01.2020
1339 Clouds 20 1018 88 10000 8.7 200 14:38 01.01.2020
1340 Clouds 20 1018 88 10000 8.7 200 14:19 01.01.2020
1341 Clouds 20 1018 83 10000 8.7 190 14:19 01.01.2020
1342 Clouds 20 1018 88 10000 8.7 200 14:19 01.01.2020
1343 Clouds 21 1018 83 10000 8.7 190 13:55 01.01.2020
1344 Clouds 21 1018 83 10000 8.7 200 13:37 01.01.2020
1345 Clouds 21 1018 83 10000 7.7 200 13:18 01.01.2020
1346 Clouds 21 1018 83 10000 7.7 200 12:55 01.01.2020
1347 Clouds 21 1018 83 10000 7.7 190 12:36 01.01.2020
1348 Clouds 21 1017 88 10000 6.7 180 12:18 01.01.2020
1349 Clouds 21 1017 83 10000 6.2 170 11:42 01.01.2020
1350 Clouds 22 1017 78 10000 5.7 160 11:21 01.01.2020
1351 Clouds 22 1017 78 10000 5.7 160 10:57 01.01.2020
1352 Clouds 22 1016 78 10000 5.1 150 10:38 01.01.2020
1353 Clouds 22 1016 78 10000 5.1 150 10:19 01.01.2020
1354 Clouds 22 1015 78 10000 6.2 150 09:55 01.01.2020
1355 Clouds 22 1015 78 10000 5.7 150 09:36 01.01.2020
1356 Clouds 22 1014 73 10000 6.7 150 09:18 01.01.2020
1357 Clouds 23 1014 73 10000 6.7 150 08:54 01.01.2020
1358 Clouds 23 1014 73 10000 6.2 150 08:36 01.01.2020
1359 Clouds 23 1014 73 10000 6.2 150 08:18 01.01.2020
1360 Clouds 23 1013 69 10000 7.7 140 07:42 01.01.2020
1361 Clouds 24 1013 69 10000 7.7 140 07:24 01.01.2020
1362 Clouds 24 1013 65 10000 7.2 150 06:44 01.01.2020
1363 Clouds 25 1013 64 10000 8.2 130 06:19 01.01.2020
1364 Clouds 27 1013 61 6000 6.7 140 04:38 01.01.2020
1365 Clouds 27 1013 57 6000 6.7 130 03:41 01.01.2020
1366 Clouds 27 1013 57 6000 6.7 130 03:22 01.01.2020
1367 Clouds 27 1013 64 6000 5.1 160 02:55 01.01.2020
1368 Clouds 27 1012 45 10000 2.6 80 02:32 01.01.2020
1369 Clouds 26 1013 50 10000 2.6 340 01:45 01.01.2020
1370 Clouds 25 1013 50 10000 2.6 340 01:24 01.01.2020
1371 Clouds 24 1014 50 10000 3.6 60 00:57 01.01.2020
1372 Clouds 23 1014 68 10000 5.1 190 00:38 01.01.2020
1373 Clouds 23 1014 68 10000 5.1 190 00:20 01.01.2020
1374 Clouds 22 1015 72 10000 4.6 210 23:40 31.12.2019
1375 Clouds 21 1015 72 10000 4.6 210 23:21 31.12.2019
1376 Clouds 21 1014 68 10000 5.1 220 22:57 31.12.2019
1377 Clouds 20 1014 68 10000 6.2 210 22:38 31.12.2019
1378 Clouds 20 1014 68 10000 5.7 210 22:18 31.12.2019
1379 Clouds 20 1014 68 10000 5.7 210 21:56 31.12.2019
1380 Clouds 20 1014 68 10000 6.7 210 21:37 31.12.2019
1381 Clouds 19 1014 68 10000 6.7 210 21:19 31.12.2019
1382 Clouds 19 1014 68 10000 6.7 210 21:19 31.12.2019
1383 Clouds 19 1013 68 10000 7.2 210 20:54 31.12.2019
1384 Clouds 19 1013 72 10000 7.7 210 20:36 31.12.2019
1385 Clouds 19 1013 72 10000 7.7 210 20:18 31.12.2019
1386 Clouds 19 1012 68 10000 7.2 210 19:41 31.12.2019
1387 Clouds 19 1012 68 10000 7.2 210 19:22 31.12.2019
1388 Clouds 19 1012 72 10000 7.7 210 18:58 31.12.2019
1389 Clouds 19 1012 72 10000 7.7 210 18:40 31.12.2019
1390 Clouds 19 1012 72 10000 7.7 210 18:20 31.12.2019
1391 Clouds 19 1012 72 10000 7.7 210 17:56 31.12.2019
1392 Clouds 19 1012 77 10000 7.7 200 17:38 31.12.2019
1393 Clouds 19 1012 77 10000 7.7 200 17:19 31.12.2019
1394 Clouds 19 1012 77 10000 8.2 200 16:57 31.12.2019
1395 Clouds 19 1013 77 10000 7.7 210 16:38 31.12.2019
1396 Clouds 19 1013 77 10000 7.7 200 16:19 31.12.2019
1397 Clouds 19 1013 77 10000 7.7 200 15:57 31.12.2019
1398 Clouds 19 1013 77 10000 7.2 200 15:38 31.12.2019
1399 Clouds 19 1013 77 10000 7.2 200 15:20 31.12.2019
1400 Clouds 20 1013 72 10000 8.2 200 14:58 31.12.2019
1401 Clouds 20 1014 72 10000 9.8 200 14:38 31.12.2019
1402 Clouds 20 1014 72 10000 9.8 200 14:19 31.12.2019
1403 Clouds 20 1014 72 10000 10.3 200 13:58 31.12.2019
1404 Clouds 20 1013 72 10000 9.8 190 13:40 31.12.2019
1405 Clouds 20 1013 72 10000 9.8 190 13:21 31.12.2019
1406 Clouds 20 1013 77 10000 10.3 200 12:58 31.12.2019
1407 Clouds 20 1013 77 10000 9.8 190 12:40 31.12.2019
1408 Clouds 20 1013 77 10000 9.8 190 12:20 31.12.2019
1409 Clouds 20 1012 77 10000 10.3 190 11:56 31.12.2019
1410 Clouds 20 1011 73 9000 13.9 190 11:38 31.12.2019
1411 Clouds 20 1011 73 9000 13.9 190 11:38 31.12.2019
1412 Clouds 21 1011 73 9000 13.9 190 11:20 31.12.2019
1413 Clouds 21 1010 77 10000 14.9 190 10:58 31.12.2019
1414 Clouds 21 1009 82 7000 15.4 180 10:38 31.12.2019
1415 Clouds 21 1009 82 7000 15.4 180 10:20 31.12.2019
1416 Clouds 22 1009 82 7000 15.4 180 09:59 31.12.2019
1417 Clouds 22 1008 82 7000 15.9 180 09:39 31.12.2019
1418 Clouds 23 1008 82 7000 15.9 180 09:21 31.12.2019
1419 Clouds 27 1007 82 7000 14.9 180 08:57 31.12.2019
1420 Clouds 28 1006 64 10000 15.9 190 08:39 31.12.2019
1421 Clear 36 1002 9 10000 4.6 260 08:20 31.12.2019
1422 Smoke 38 1003 29 10000 15.4 180 07:43 31.12.2019
1423 Clear 41 1002 8 10000 4.6 240 07:22 31.12.2019
1424 Clear 40 1002 26 10000 11.8 40 06:50 31.12.2019
1425 Smoke 40 1003 26 10000 15.4 180 05:59 31.12.2019
1426 Clear 43 1003 5 10000 6.2 270 04:30 31.12.2019
1427 Clear 43 1004 7 10000 5.7 340 03:59 31.12.2019
1428 Clear 43 1004 7 10000 5.7 340 03:59 31.12.2019
1429 Clear 42 1004 7 10000 7.2 350 02:56 31.12.2019
1430 Smoke 41 1005 12 8000 7.7 60 02:19 31.12.2019
1431 Smoke 40 1005 12 8000 7.7 60 01:48 31.12.2019
1432 Clear 39 1006 16 8000 1 100 01:29 31.12.2019
1433 Smoke 38 1006 26 7000 7.7 60 00:48 31.12.2019
1434 Clear 36 1006 28 10000 2.1 20 00:23 31.12.2019
1435 Smoke 34 1007 40 7000 5.1 130 23:58 30.12.2019
1436 Clear 31 1007 51 8000 3.1 330 23:38 30.12.2019
1437 Clear 29 1007 51 8000 3.1 330 23:20 30.12.2019
1438 Smoke 27 1007 57 9000 5.1 130 22:59 30.12.2019
1439 Clear 25 1007 61 10000 2.1 330 22:41 30.12.2019
1440 Clear 24 1007 61 10000 2.1 330 22:20 30.12.2019
1441 Smoke 23 1007 64 10000 4.1 330 21:57 30.12.2019
1442 Clear 22 1007 73 10000 2.7 313 21:39 30.12.2019
1443 Clear 21 1007 73 10000 2.7 313 21:20 30.12.2019
1444 Smoke 20 1007 78 10000 4.1 330 20:58 30.12.2019
1445 Smoke 20 1007 78 10000 4.1 330 20:40 30.12.2019
1446 Smoke 19 1007 78 10000 4.1 330 20:20 30.12.2019
1447 Smoke 19 1007 83 10000 4.1 330 19:58 30.12.2019
1448 Clear 19 1007 83 10000 2.6 40 19:39 30.12.2019
1449 Clear 19 1007 83 10000 2.6 40 19:39 30.12.2019
1450 Clear 19 1007 83 10000 2.6 40 19:19 30.12.2019
1451 Smoke 19 1006 77 10000 4.1 330 18:59 30.12.2019
1452 Clear 19 1006 77 10000 1.29 310 18:40 30.12.2019
1453 Clear 19 1006 77 10000 1.29 310 18:20 30.12.2019
1454 Clear 20 1006 77 10000 1.29 310 17:57 30.12.2019
1455 Clear 20 1007 73 10000 4.1 20 17:39 30.12.2019
1456 Clear 20 1007 73 10000 4.1 20 17:19 30.12.2019
1457 Clear 21 1007 78 10000 4.1 30 16:58 30.12.2019
1458 Clear 21 1007 78 10000 6.7 30 16:37 30.12.2019
1459 Clear 21 1007 78 10000 6.7 30 16:19 30.12.2019
1460 Clear 21 1008 69 10000 7.2 40 15:56 30.12.2019
1461 Clear 22 1008 73 10000 4.6 40 15:37 30.12.2019
1462 Clear 22 1008 73 10000 4.6 40 15:19 30.12.2019
1463 Clear 22 1008 73 10000 5.7 50 14:43 30.12.2019
1464 Clouds 23 1008 73 10000 5.7 50 14:20 30.12.2019
1465 Clouds 23 1009 69 10000 6.7 40 13:58 30.12.2019
1466 Clouds 24 1009 69 10000 6.7 10 13:40 30.12.2019
1467 Clouds 24 1009 69 10000 6.7 10 13:22 30.12.2019
1468 Clouds 24 1009 69 10000 6.7 10 13:22 30.12.2019
1469 Clouds 24 1008 69 10000 5.7 10 12:57 30.12.2019
1470 Clouds 24 1008 64 10000 8.2 20 12:37 30.12.2019
1471 Clouds 24 1008 64 10000 8.2 20 12:18 30.12.2019
1472 Clouds 25 1008 64 10000 7.7 20 11:45 30.12.2019
1473 Clouds 26 1008 61 10000 8.7 30 11:22 30.12.2019
1474 Smoke 26 1008 61 10000 7.2 20 10:59 30.12.2019
1475 Clouds 27 1008 61 10000 9.8 40 10:40 30.12.2019
1476 Clouds 27 1008 61 10000 9.8 40 10:19 30.12.2019
1477 Clouds 27 1008 61 10000 10.3 40 09:43 30.12.2019
1478 Smoke 28 1008 57 10000 7.2 20 09:21 30.12.2019
1479 Smoke 29 1007 57 10000 7.2 20 08:57 30.12.2019
1480 Clouds 30 1007 51 10000 11.3 30 08:38 30.12.2019
1481 Clouds 30 1007 51 10000 11.3 30 08:20 30.12.2019
1482 Smoke 31 1007 51 10000 7.2 20 07:48 30.12.2019
1483 Clouds 33 1008 42 10000 11.3 30 07:23 30.12.2019
1484 Clouds 33 1009 45 10000 9.8 40 06:39 30.12.2019
1485 Clouds 35 1010 54 10000 10.3 30 04:31 30.12.2019
1486 Clouds 34 1011 51 10000 10.3 30 03:50 30.12.2019
1487 Smoke 33 1012 51 10000 10.3 30 02:47 30.12.2019
1488 Smoke 30 1012 54 10000 7.2 50 02:27 30.12.2019
1489 Clouds 29 1013 57 10000 2.6 150 01:39 30.12.2019
1490 Clouds 28 1013 57 10000 2.6 150 01:18 30.12.2019
1491 Clouds 25 1013 61 10000 2.6 290 00:42 30.12.2019
1492 Clouds 24 1014 65 10000 7.2 50 23:58 29.12.2019
1493 Clouds 23 1014 73 10000 2.6 40 23:37 29.12.2019
1494 Clouds 22 1014 78 10000 2.6 30 23:19 29.12.2019
1495 Clouds 21 1014 78 10000 3.6 30 22:41 29.12.2019
1496 Clouds 21 1014 78 10000 3.6 30 22:22 29.12.2019
1497 Clouds 21 1014 83 10000 3.6 30 21:56 29.12.2019
1498 Clouds 20 1014 88 10000 3.1 50 21:38 29.12.2019
1499 Clouds 19 1014 93 10000 0.71 276 21:20 29.12.2019
1500 Clouds 18 1014 93 10000 0.71 276 20:57 29.12.2019
1501 Clouds 18 1014 93 10000 1 200 20:38 29.12.2019
1502 Clouds 18 1014 93 10000 1 200 20:20 29.12.2019
1503 Clouds 18 1014 93 10000 1.5 200 19:58 29.12.2019
1504 Clouds 18 1013 93 10000 2.1 200 19:39 29.12.2019
1505 Clouds 18 1013 93 10000 2.1 200 19:20 29.12.2019
1506 Clouds 19 1013 88 10000 2.1 200 18:56 29.12.2019
1507 Clouds 19 1013 88 10000 2.1 220 18:38 29.12.2019
1508 Clouds 19 1013 88 10000 2.1 220 18:19 29.12.2019
1509 Clouds 19 1013 88 10000 2.1 220 18:19 29.12.2019
1510 Clouds 19 1013 88 10000 2.1 220 17:57 29.12.2019
1511 Clouds 19 1014 83 10000 2.6 40 17:38 29.12.2019
1512 Clouds 19 1014 88 10000 2.1 230 17:20 29.12.2019
1513 Clouds 20 1014 83 10000 2.1 210 16:56 29.12.2019
1514 Clouds 20 1014 83 10000 1.5 220 16:37 29.12.2019
1515 Clouds 20 1014 83 10000 1.5 210 16:19 29.12.2019
1516 Clouds 20 1014 83 10000 1.5 210 15:56 29.12.2019
1517 Clouds 21 1014 78 10000 4.6 30 15:38 29.12.2019
1518 Clouds 21 1014 73 10000 2.1 170 15:19 29.12.2019
1519 Clouds 21 1014 73 10000 2.1 170 14:56 29.12.2019
1520 Clouds 21 1014 83 10000 4.6 60 14:38 29.12.2019
1521 Clouds 21 1015 83 10000 3.6 60 14:18 29.12.2019
1522 Clouds 22 1015 83 10000 3.6 60 13:57 29.12.2019
1523 Clouds 22 1015 83 10000 4.1 10 13:37 29.12.2019
1524 Clouds 22 1015 83 10000 4.1 10 13:37 29.12.2019
1525 Clouds 22 1015 83 10000 4.1 10 13:19 29.12.2019
1526 Clouds 22 1015 83 10000 4.1 10 12:45 29.12.2019
1527 Clouds 23 1015 83 10000 2.6 120 12:26 29.12.2019
1528 Clouds 23 1015 78 10000 2.6 120 11:57 29.12.2019
1529 Clouds 24 1015 78 10000 4.1 150 11:38 29.12.2019
1530 Clouds 24 1015 78 10000 4.1 150 11:20 29.12.2019
1531 Clouds 25 1014 61 10000 2.6 120 10:43 29.12.2019
1532 Clouds 26 1014 61 10000 2.6 120 10:25 29.12.2019
1533 Clouds 26 1014 57 10000 3.6 80 09:58 29.12.2019
1534 Clouds 27 1014 61 10000 5.7 50 09:39 29.12.2019
1535 Clouds 27 1014 61 10000 5.7 50 09:21 29.12.2019
1536 Clouds 29 1013 57 10000 8.2 30 08:48 29.12.2019
1537 Clouds 28 1013 51 10000 2.6 300 08:28 29.12.2019
1538 Clouds 30 1012 48 10000 5.7 50 07:57 29.12.2019
1539 Clouds 32 1012 48 10000 6.7 40 07:29 29.12.2019
1540 Clouds 32 1012 48 10000 6.7 40 07:29 29.12.2019
1541 Clouds 31 1012 48 10000 5.7 30 06:57 29.12.2019
1542 Clouds 32 1013 48 10000 7.2 30 06:26 29.12.2019
1543 Clouds 32 1013 48 10000 6.2 40 05:54 29.12.2019
1544 Clear 33 1014 51 10000 3.6 30 04:37 29.12.2019
1545 Clear 32 1014 54 10000 3.6 40 03:59 29.12.2019
1546 Clear 30 1015 57 10000 3.1 30 03:21 29.12.2019
1547 Clouds 28 1015 61 10000 3.1 30 02:21 29.12.2019
1548 Clouds 27 1015 57 10000 0.5 150 01:42 29.12.2019
1549 Clouds 27 1015 57 10000 0.5 150 01:22 29.12.2019
1550 Clouds 25 1016 57 10000 0.5 160 00:42 29.12.2019
1551 Clouds 24 1016 69 10000 1.5 270 00:24 29.12.2019
1552 Clouds 23 1016 69 10000 1.99 12 23:45 28.12.2019
1553 Clear 22 1016 73 10000 0.55 199 23:18 28.12.2019
1554 Clear 22 1016 73 10000 0.55 199 22:54 28.12.2019
1555 Clear 21 1016 73 10000 0.55 199 22:36 28.12.2019
1556 Clear 21 1016 73 10000 0.55 199 22:18 28.12.2019
1557 Clouds 20 1016 88 10000 0.55 199 21:55 28.12.2019
1558 Clouds 20 1016 88 10000 0.55 199 21:36 28.12.2019
1559 Clouds 19 1016 82 10000 2.1 210 21:18 28.12.2019
1560 Clear 18 1015 82 10000 1.5 230 20:38 28.12.2019
1561 Clouds 18 1015 82 10000 1.5 220 20:20 28.12.2019
1562 Clouds 18 1015 82 10000 1.5 220 19:59 28.12.2019
1563 Clouds 19 1015 77 10000 1.5 200 19:40 28.12.2019
1564 Clouds 19 1015 77 10000 1.5 200 19:22 28.12.2019
1565 Clouds 19 1015 77 10000 1.5 210 18:59 28.12.2019
1566 Clouds 19 1014 73 10000 2.1 200 18:40 28.12.2019
1567 Clouds 19 1014 73 10000 2.1 200 18:20 28.12.2019
1568 Clouds 20 1014 72 10000 2.6 220 17:57 28.12.2019
1569 Clouds 20 1014 68 10000 2.1 230 17:38 28.12.2019
1570 Clouds 20 1014 68 10000 2.1 230 17:19 28.12.2019
1571 Clouds 20 1015 78 10000 3.6 60 16:47 28.12.2019
1572 Clouds 21 1015 77 10000 2.6 60 16:26 28.12.2019
1573 Clouds 21 1015 78 10000 1.5 80 15:57 28.12.2019
1574 Clouds 21 1015 78 10000 2.03 157 15:39 28.12.2019
1575 Clouds 21 1015 78 10000 2.03 157 15:19 28.12.2019
1576 Clouds 21 1015 73 10000 3.6 30 14:44 28.12.2019
1577 Clouds 22 1015 73 10000 3.6 30 14:24 28.12.2019
1578 Clear 22 1015 73 10000 3.6 30 14:24 28.12.2019
1579 Clear 22 1015 73 10000 4.6 40 13:57 28.12.2019
1580 Clear 22 1015 73 10000 4.1 40 13:38 28.12.2019
1581 Clouds 22 1015 73 10000 4.1 40 13:19 28.12.2019
1582 Clouds 23 1015 69 10000 7.2 10 12:44 28.12.2019
1583 Clouds 23 1015 69 10000 7.2 10 12:44 28.12.2019
1584 Clouds 23 1015 69 10000 7.2 10 12:25 28.12.2019
1585 Clouds 23 1015 69 10000 8.7 20 11:58 28.12.2019
1586 Clouds 24 1014 69 10000 10.3 30 11:39 28.12.2019
1587 Clear 25 1014 69 10000 10.3 30 11:20 28.12.2019
1588 Clear 25 1014 61 10000 12.9 30 10:46 28.12.2019
1589 Clear 26 1014 61 10000 12.9 30 10:23 28.12.2019
1590 Clear 26 1014 57 10000 10.8 30 09:58 28.12.2019
1591 Clear 27 1013 54 10000 12.3 30 09:40 28.12.2019
1592 Clear 28 1013 51 10000 12.3 30 09:21 28.12.2019
1593 Clear 29 1013 51 10000 12.3 30 08:45 28.12.2019
1594 Clear 30 1013 50 10000 13.4 30 08:27 28.12.2019
1595 Clear 30 1013 48 10000 11.8 30 07:59 28.12.2019
1596 Clear 31 1013 48 10000 12.3 40 07:39 28.12.2019
1597 Clear 32 1013 45 10000 11.3 30 06:50 28.12.2019
1598 Clear 33 1015 40 10000 9.8 40 05:40 28.12.2019
1599 Clear 35 1016 45 10000 8.7 40 03:48 28.12.2019
1600 Clear 33 1017 48 10000 6.2 60 02:50 28.12.2019
1601 Clear 31 1017 45 10000 7.2 50 02:19 28.12.2019
1602 Clear 30 1017 48 10000 6.7 60 01:50 28.12.2019
1603 Clear 29 1018 48 10000 7.2 30 01:21 28.12.2019
1604 Clear 27 1018 53 10000 6.7 30 00:42 28.12.2019
1605 Clear 27 1018 53 10000 6.7 30 00:23 28.12.2019
1606 Clear 25 1018 53 10000 6.2 10 23:45 27.12.2019
1607 Clear 24 1018 57 10000 5.7 30 23:21 27.12.2019
1608 Clear 24 1018 60 10000 4.6 30 22:58 27.12.2019
1609 Clear 22 1018 60 10000 4.6 30 22:39 27.12.2019
1610 Clear 22 1018 60 10000 4.6 30 22:21 27.12.2019
1611 Clear 21 1018 64 10000 3.6 30 21:59 27.12.2019
1612 Clear 20 1018 68 10000 3.1 10 21:40 27.12.2019
1613 Clear 19 1018 100 10000 1.88 347 21:22 27.12.2019
1614 Clear 17 1018 100 10000 1.88 347 20:42 27.12.2019
1615 Clear 17 1018 100 10000 1.97 345 20:24 27.12.2019
1616 Clear 17 1017 100 10000 1.9 16 19:57 27.12.2019
1617 Clear 17 1017 100 10000 1.9 16 19:57 27.12.2019
1618 Clear 17 1017 93 10000 1.9 16 19:38 27.12.2019
1619 Clear 17 1017 93 10000 1.9 16 19:38 27.12.2019
1620 Clear 17 1017 93 10000 1.9 16 19:19 27.12.2019
1621 Clear 18 1017 93 10000 1.9 16 18:55 27.12.2019
1622 Clear 18 1017 100 10000 1.9 16 18:36 27.12.2019
1623 Clear 18 1017 93 10000 1.9 16 18:18 27.12.2019
1624 Clear 18 1017 93 10000 1.9 16 17:42 27.12.2019
1625 Clear 18 1017 93 10000 2.08 0 17:20 27.12.2019
1626 Clear 18 1017 88 10000 2.08 0 16:59 27.12.2019
1627 Clear 19 1018 88 10000 2.08 0 16:41 27.12.2019
1628 Clear 19 1018 88 10000 2.08 0 16:22 27.12.2019
1629 Clear 19 1018 73 10000 5.7 20 15:57 27.12.2019
1630 Clear 20 1018 73 10000 7.7 20 15:37 27.12.2019
1631 Clear 20 1018 82 10000 2.08 0 15:19 27.12.2019
1632 Clear 20 1018 82 10000 2.08 0 14:55 27.12.2019
1633 Clear 20 1019 77 10000 1 180 14:37 27.12.2019
1634 Clear 21 1019 77 10000 1 180 14:19 27.12.2019
1635 Clear 21 1019 69 10000 8.7 30 13:46 27.12.2019
1636 Clear 21 1019 69 10000 8.7 30 13:23 27.12.2019
1637 Clear 22 1018 68 10000 3.1 80 12:49 27.12.2019
1638 Clear 22 1018 68 10000 3.1 80 12:29 27.12.2019
1639 Clear 22 1018 69 10000 8.7 30 11:59 27.12.2019
1640 Clear 22 1018 64 10000 3.1 80 11:41 27.12.2019
1641 Clear 23 1018 64 10000 9.3 30 11:20 27.12.2019
1642 Clear 23 1018 64 10000 8.7 30 10:47 27.12.2019
1643 Clear 23 1018 64 10000 8.7 30 10:24 27.12.2019
1644 Clear 24 1018 64 10000 9.8 30 09:58 27.12.2019
1645 Clear 24 1017 61 10000 11.3 30 09:39 27.12.2019
1646 Clear 25 1017 61 10000 7.2 30 09:21 27.12.2019
1647 Clear 25 1017 61 10000 7.2 30 08:49 27.12.2019
1648 Clear 26 1016 57 10000 11.8 40 08:30 27.12.2019
1649 Clear 26 1016 54 10000 10.8 40 07:48 27.12.2019
1650 Clear 27 1017 51 10000 11.8 50 07:26 27.12.2019
1651 Clear 28 1017 44 10000 11.3 50 06:33 27.12.2019
1652 Clear 29 1018 42 10000 10.3 60 04:51 27.12.2019
1653 Clear 30 1019 37 10000 10.3 40 02:49 27.12.2019
1654 Clear 29 1020 37 10000 10.3 40 01:56 27.12.2019
1655 Clear 28 1020 39 10000 7.7 30 01:23 27.12.2019
1656 Clear 27 1020 42 10000 6.7 30 00:53 27.12.2019
1657 Clear 26 1020 44 10000 6.7 30 00:34 27.12.2019
1658 Clear 25 1020 47 10000 7.7 40 23:59 26.12.2019
1659 Clouds 25 1020 50 10000 6.2 30 23:41 26.12.2019
1660 Clouds 24 1020 50 10000 6.2 30 23:21 26.12.2019
1661 Clear 22 1020 73 10000 2.1 220 22:45 26.12.2019
1662 Clear 22 1020 73 10000 2.1 220 22:22 26.12.2019
1663 Clear 21 1020 69 10000 4.1 20 21:59 26.12.2019
1664 Clear 21 1019 69 10000 3.1 20 21:38 26.12.2019
1665 Clear 19 1020 82 10000 2 346 21:20 26.12.2019
1666 Clear 18 1019 87 10000 2 346 20:46 26.12.2019
1667 Clear 17 1019 87 10000 1.09 341 20:23 26.12.2019
1668 Clear 17 1018 87 10000 1.09 341 19:59 26.12.2019
1669 Clear 18 1018 87 10000 1.09 341 19:40 26.12.2019
1670 Clear 18 1018 87 10000 1.09 341 19:21 26.12.2019
1671 Clear 18 1018 77 10000 1.09 341 18:58 26.12.2019
1672 Clear 18 1018 82 10000 1.09 341 18:39 26.12.2019
1673 Clear 18 1018 82 10000 1.09 341 18:19 26.12.2019
1674 Clear 19 1018 78 10000 3.1 40 17:55 26.12.2019
1675 Clear 19 1018 78 10000 4.1 30 17:37 26.12.2019
1676 Clear 19 1018 78 10000 4.1 30 17:18 26.12.2019
1677 Clear 20 1018 72 10000 2.1 190 16:41 26.12.2019
1678 Clear 20 1018 72 10000 2.1 190 16:22 26.12.2019
1679 Clear 20 1019 73 10000 5.1 40 15:56 26.12.2019
1680 Clear 20 1019 68 10000 2.6 220 15:37 26.12.2019
1681 Clear 20 1019 68 10000 2.6 220 15:18 26.12.2019
1682 Clear 21 1019 69 10000 4.6 40 14:40 26.12.2019
1683 Clear 21 1019 69 10000 4.6 40 14:21 26.12.2019
1684 Clear 21 1019 73 10000 5.7 40 13:43 26.12.2019
1685 Clear 21 1019 73 10000 5.7 40 13:21 26.12.2019
1686 Clear 21 1019 73 10000 5.7 40 13:21 26.12.2019
1687 Clouds 22 1019 73 10000 5.7 30 12:58 26.12.2019
1688 Clear 22 1019 77 0 1.79 13 12:39 26.12.2019
1689 Clear 22 1011 77 0 1.34 11 12:20 26.12.2019
1690 Clear 22 1018 69 10000 7.2 30 11:57 26.12.2019
1691 Clear 23 1018 69 10000 9.3 30 11:39 26.12.2019
1692 Clear 23 1018 69 10000 9.3 30 11:20 26.12.2019
1693 Clear 23 1017 69 10000 9.8 30 10:47 26.12.2019
1694 Clouds 24 1017 69 10000 6.2 10 10:19 26.12.2019
1695 Clouds 24 1017 69 10000 6.2 10 10:19 26.12.2019
1696 Clouds 24 1017 65 10000 6.2 10 09:50 26.12.2019
1697 Clouds 24 1017 61 10000 6.2 10 09:32 26.12.2019
1698 Clear 25 1016 61 10000 11.3 40 08:55 26.12.2019
1699 Clear 25 1016 57 10000 10.3 40 08:36 26.12.2019
1700 Clear 26 1016 57 10000 10.3 40 08:18 26.12.2019
1701 Clear 27 1016 54 10000 12.9 40 07:30 26.12.2019
1702 Clear 27 1016 54 10000 12.9 40 07:30 26.12.2019
1703 Clear 28 1016 48 10000 11.3 40 06:54 26.12.2019
1704 Clear 28 1016 45 10000 11.8 40 06:32 26.12.2019
1705 Clear 29 1016 42 10000 11.8 40 05:46 26.12.2019
1706 Clear 30 1017 42 10000 12.3 50 04:59 26.12.2019
1707 Clear 30 1017 37 10000 11.3 50 04:30 26.12.2019
1708 Clear 30 1017 42 10000 10.8 50 03:19 26.12.2019
1709 Clear 29 1018 44 10000 8.7 50 02:40 26.12.2019
1710 Clear 29 1018 44 10000 8.7 50 02:19 26.12.2019
1711 Clouds 28 1018 51 10000 8.7 30 01:41 26.12.2019
1712 Clouds 28 1018 51 10000 8.7 30 01:22 26.12.2019
1713 Clouds 27 1019 54 10000 7.7 30 00:41 26.12.2019
1714 Clouds 26 1019 54 10000 7.7 30 00:22 26.12.2019
1715 Clouds 25 1019 54 10000 6.7 10 23:42 25.12.2019
1716 Clouds 24 1019 61 10000 4.6 360 23:21 25.12.2019
1717 Clouds 24 1019 65 10000 6.7 10 22:59 25.12.2019
1718 Clouds 23 1019 64 10000 6.2 10 22:40 25.12.2019
1719 Clouds 23 1019 64 10000 6.2 10 22:22 25.12.2019
1720 Clouds 22 1019 64 10000 6.2 10 22:22 25.12.2019
1721 Clouds 21 1019 69 10000 4.6 10 21:59 25.12.2019
1722 Clouds 21 1019 73 10000 3.1 10 21:40 25.12.2019
1723 Clouds 20 1019 88 10000 2.23 346 21:22 25.12.2019
1724 Clouds 19 1018 78 10000 2.1 20 20:58 25.12.2019
1725 Clouds 18 1018 93 10000 2.23 346 20:40 25.12.2019
1726 Clouds 18 1017 93 10000 1.17 315 20:18 25.12.2019
1727 Clouds 18 1017 93 10000 1.17 315 19:57 25.12.2019
1728 Clouds 19 1017 78 10000 2.6 40 19:39 25.12.2019
1729 Clouds 19 1017 78 10000 2.6 40 19:21 25.12.2019
1730 Clouds 18 1017 88 10000 1.5 250 18:39 25.12.2019
1731 Clouds 19 1017 78 10000 3.1 30 18:20 25.12.2019
1732 Clouds 19 1017 78 10000 3.6 30 17:43 25.12.2019
1733 Clouds 19 1017 78 10000 3.6 30 17:21 25.12.2019
1734 Clouds 19 1017 78 10000 3.6 40 16:59 25.12.2019
1735 Clouds 19 1017 78 10000 3.6 40 16:39 25.12.2019
1736 Clouds 19 1017 78 10000 3.6 40 16:19 25.12.2019
1737 Clouds 20 1017 78 10000 4.1 30 15:58 25.12.2019
1738 Clouds 20 1017 82 10000 1.83 356 15:40 25.12.2019
1739 Clouds 20 1017 82 10000 1.83 356 15:21 25.12.2019
1740 Clouds 20 1017 77 10000 1.83 356 14:59 25.12.2019
1741 Clouds 20 1017 77 10000 3.1 80 14:40 25.12.2019
1742 Clouds 20 1017 77 10000 3.1 80 14:21 25.12.2019
1743 Clouds 21 1017 73 10000 3.6 80 13:57 25.12.2019
1744 Clouds 21 1017 73 10000 2.6 80 13:39 25.12.2019
1745 Clouds 21 1017 73 10000 2.6 80 13:19 25.12.2019
1746 Clouds 21 1017 68 10000 3.6 60 12:43 25.12.2019
1747 Clouds 22 1017 73 10000 5.1 30 12:21 25.12.2019
1748 Clouds 22 1017 73 10000 3.6 80 11:57 25.12.2019
1749 Clouds 22 1016 69 10000 7.7 30 11:39 25.12.2019
1750 Clouds 22 1016 60 10000 4.6 70 11:19 25.12.2019
1751 Clouds 23 1016 69 10000 7.7 30 10:39 25.12.2019
1752 Clouds 23 1016 69 10000 7.7 30 10:21 25.12.2019
1753 Clouds 23 1016 69 10000 8.2 40 09:51 25.12.2019
1754 Clouds 24 1016 64 10000 8.2 40 09:33 25.12.2019
1755 Clouds 24 1015 64 10000 8.2 50 08:51 25.12.2019
1756 Clouds 24 1015 61 10000 8.7 60 08:32 25.12.2019
1757 Clouds 25 1014 57 10000 9.8 50 07:59 25.12.2019
1758 Clouds 25 1014 57 10000 9.8 50 07:59 25.12.2019
1759 Clouds 26 1015 57 10000 9.3 60 07:37 25.12.2019
1760 Clouds 26 1015 57 10000 10.3 60 07:19 25.12.2019
1761 Clouds 27 1015 54 10000 9.8 70 06:23 25.12.2019
1762 Clouds 27 1016 51 10000 8.7 60 05:44 25.12.2019
1763 Clouds 27 1016 47 10000 8.7 70 04:40 25.12.2019
1764 Clouds 27 1016 47 10000 8.7 70 04:20 25.12.2019
1765 Clouds 27 1016 51 10000 8.2 60 03:43 25.12.2019
1766 Clouds 27 1017 47 10000 7.7 60 02:57 25.12.2019
1767 Clouds 27 1017 54 10000 7.7 60 02:28 25.12.2019
1768 Clouds 26 1017 57 10000 7.7 80 01:42 25.12.2019
1769 Clouds 26 1017 57 10000 7.7 80 01:18 25.12.2019
1770 Rain 25 1017 69 10000 3.6 130 00:41 25.12.2019
1771 Rain 24 1017 69 10000 3.6 130 00:22 25.12.2019
1772 Rain 24 1017 83 10000 5.7 170 23:39 24.12.2019
1773 Rain 23 1017 83 10000 5.7 170 23:20 24.12.2019
1774 Rain 22 1017 88 9000 4.1 80 22:42 24.12.2019
1775 Rain 22 1017 88 9000 4.1 80 22:24 24.12.2019
1776 Clouds 22 1017 88 9000 4.1 80 21:59 24.12.2019
1777 Clouds 21 1016 94 9000 6.2 170 21:40 24.12.2019
1778 Clouds 21 1016 94 9000 6.2 170 21:20 24.12.2019
1779 Rain 20 1016 94 9000 6.2 170 20:42 24.12.2019
1780 Rain 20 1016 94 9000 6.2 170 20:23 24.12.2019
1781 Rain 20 1016 94 9000 7.2 170 19:55 24.12.2019
1782 Rain 20 1015 94 9000 6.2 170 19:37 24.12.2019
1783 Rain 20 1015 88 8000 3.6 180 19:18 24.12.2019
1784 Rain 20 1015 94 10000 4.1 170 18:42 24.12.2019
1785 Rain 20 1015 88 8000 4.6 170 18:18 24.12.2019
1786 Rain 20 1015 88 8000 3.1 160 17:44 24.12.2019
1787 Rain 21 1015 88 8000 3.1 160 17:22 24.12.2019
1788 Rain 21 1015 88 8000 3.1 160 17:22 24.12.2019
1789 Rain 21 1015 88 9000 3.6 160 16:58 24.12.2019
1790 Clouds 21 1016 88 9000 3.6 160 16:40 24.12.2019
1791 Clouds 21 1016 88 9000 3.6 160 16:21 24.12.2019
1792 Rain 21 1016 88 10000 2.6 130 15:58 24.12.2019
1793 Rain 21 1016 88 10000 2.6 130 15:58 24.12.2019
1794 Clouds 21 1016 88 10000 1.5 100 15:37 24.12.2019
1795 Clouds 21 1016 88 10000 1.5 100 15:19 24.12.2019
1796 Rain 21 1016 88 10000 2.1 70 14:58 24.12.2019
1797 Clouds 21 1016 88 10000 3.6 80 14:40 24.12.2019
1798 Clouds 21 1016 88 10000 3.6 80 14:22 24.12.2019
1799 Rain 21 1016 88 10000 3.6 80 13:56 24.12.2019
1800 Rain 21 1016 88 10000 4.1 70 13:38 24.12.2019
1801 Rain 21 1016 88 10000 4.1 70 13:20 24.12.2019
1802 Clouds 21 1016 88 10000 2.6 150 12:57 24.12.2019
1803 Rain 21 1016 83 10000 3.6 80 12:38 24.12.2019
1804 Rain 22 1016 83 10000 3.6 80 12:19 24.12.2019
1805 Rain 22 1016 83 10000 3.6 90 11:57 24.12.2019
1806 Rain 22 1016 83 10000 4.6 90 11:38 24.12.2019
1807 Rain 22 1016 83 10000 4.6 90 11:20 24.12.2019
1808 Rain 22 1015 83 10000 3.6 120 10:57 24.12.2019
1809 Rain 22 1015 83 10000 4.1 100 10:38 24.12.2019
1810 Rain 22 1015 83 10000 4.1 100 10:20 24.12.2019
1811 Rain 22 1015 88 10000 5.1 90 09:57 24.12.2019
1812 Rain 23 1014 88 10000 4.6 110 09:39 24.12.2019
1813 Rain 23 1014 88 10000 4.6 110 09:39 24.12.2019
1814 Rain 23 1014 88 10000 4.6 110 09:21 24.12.2019
1815 Rain 24 1014 88 10000 6.7 190 08:47 24.12.2019
1816 Rain 24 1013 88 10000 6.7 170 08:24 24.12.2019
1817 Rain 24 1013 83 10000 7.7 160 07:59 24.12.2019
1818 Rain 24 1013 88 9000 6.2 170 07:39 24.12.2019
1819 Rain 24 1013 88 9000 6.2 170 07:21 24.12.2019
1820 Rain 25 1013 83 10000 7.7 180 06:40 24.12.2019
1821 Rain 25 1013 83 10000 7.7 180 06:19 24.12.2019
1822 Clouds 26 1013 83 10000 8.2 150 05:51 24.12.2019
1823 Clouds 26 1014 73 10000 6.7 170 05:19 24.12.2019
1824 Clouds 26 1014 73 10000 6.7 170 05:19 24.12.2019
1825 Clouds 27 1013 73 10000 6.7 150 04:21 24.12.2019
1826 Clouds 27 1013 61 10000 5.7 110 03:48 24.12.2019
1827 Rain 26 1014 61 10000 7.7 110 02:29 24.12.2019
1828 Rain 25 1014 65 10000 7.7 110 01:55 24.12.2019
1829 Rain 24 1014 65 10000 7.7 110 01:26 24.12.2019
1830 Clouds 24 1014 65 10000 7.7 50 00:58 24.12.2019
1831 Clouds 23 1014 69 10000 7.7 70 00:39 24.12.2019
1832 Clouds 23 1014 83 10000 2.6 190 00:20 24.12.2019
1833 Clouds 23 1014 78 10000 7.2 50 23:43 23.12.2019
1834 Clouds 23 1014 78 10000 7.2 50 23:24 23.12.2019
1835 Clouds 22 1014 78 10000 2.6 100 22:57 23.12.2019
1836 Clouds 22 1014 78 10000 2.1 240 22:38 23.12.2019
1837 Clouds 22 1014 78 10000 2.1 240 22:20 23.12.2019
1838 Clouds 21 1014 83 10000 0.5 170 21:57 23.12.2019
1839 Clouds 21 1014 83 10000 0.5 170 21:57 23.12.2019
1840 Clouds 21 1013 88 10000 1.21 42 21:37 23.12.2019
1841 Clouds 20 1013 88 10000 1.21 42 21:19 23.12.2019
1842 Clouds 20 1013 88 10000 1.21 42 20:59 23.12.2019
1843 Clouds 20 1013 88 10000 1.21 42 20:41 23.12.2019
1844 Clouds 20 1013 83 10000 1.16 57 20:19 23.12.2019
1845 Clouds 20 1013 88 10000 1.16 57 20:19 23.12.2019
1846 Rain 20 1013 83 10000 1.16 57 19:59 23.12.2019
1847 Rain 20 1013 88 10000 1.16 57 19:40 23.12.2019
1848 Rain 20 1013 88 10000 1.16 57 19:40 23.12.2019
1849 Rain 20 1013 88 10000 1.16 57 19:21 23.12.2019
1850 Rain 20 1013 88 10000 1.16 57 18:58 23.12.2019
1851 Rain 20 1013 83 10000 1.16 57 18:39 23.12.2019
1852 Rain 20 1014 82 10000 1.16 57 18:21 23.12.2019
1853 Rain 20 1014 82 10000 1.16 57 17:59 23.12.2019
1854 Clouds 20 1014 83 10000 1.16 57 17:40 23.12.2019
1855 Clouds 20 1014 83 10000 1.54 28 17:19 23.12.2019
1856 Clouds 20 1014 83 10000 1.5 130 17:19 23.12.2019
1857 Clouds 20 1014 83 10000 1.5 130 16:58 23.12.2019
1858 Clouds 20 1015 83 10000 1.54 28 16:40 23.12.2019
1859 Clouds 20 1015 83 10000 1.54 28 16:19 23.12.2019
1860 Clouds 20 1015 83 10000 1 290 15:58 23.12.2019
1861 Clouds 20 1015 83 10000 1.54 28 15:37 23.12.2019
1862 Clouds 20 1015 83 10000 1.54 28 15:19 23.12.2019
1863 Clouds 20 1015 83 10000 2.1 10 14:57 23.12.2019
1864 Clouds 20 1016 77 10000 3.1 10 14:39 23.12.2019
1865 Clouds 20 1016 77 10000 3.1 10 14:19 23.12.2019
1866 Clouds 20 1016 77 10000 3.1 10 14:19 23.12.2019
1867 Clouds 20 1016 77 10000 3.1 70 13:57 23.12.2019
1868 Clouds 20 1016 77 10000 3.6 80 13:39 23.12.2019
1869 Clouds 20 1016 77 10000 3.6 80 13:39 23.12.2019
1870 Clouds 20 1016 77 10000 3.6 80 13:20 23.12.2019
1871 Clouds 20 1016 77 10000 3.6 80 13:20 23.12.2019
1872 Clouds 20 1009 82 0 1.34 311 12:55 23.12.2019
1873 Clouds 20 1016 77 10000 3.6 60 12:37 23.12.2019
1874 Clouds 20 1016 77 10000 3.6 60 12:37 23.12.2019
1875 Clouds 21 1016 77 10000 3.6 60 12:18 23.12.2019
1876 Clouds 21 1016 77 10000 3.1 80 11:43 23.12.2019
1877 Clouds 21 1016 78 10000 3.1 30 11:25 23.12.2019
1878 Clouds 21 1016 78 10000 5.1 40 10:56 23.12.2019
1879 Clouds 21 1016 73 10000 5.7 50 10:38 23.12.2019
1880 Clouds 21 1016 73 10000 5.7 50 10:20 23.12.2019
1881 Clouds 21 1016 69 10000 6.7 50 09:58 23.12.2019
1882 Clouds 22 1016 68 10000 6.7 50 09:39 23.12.2019
1883 Clouds 22 1016 68 10000 6.7 50 09:20 23.12.2019
1884 Clouds 23 1015 60 10000 7.7 50 08:55 23.12.2019
1885 Clouds 23 1015 60 10000 7.2 40 08:37 23.12.2019
1886 Clouds 23 1015 56 10000 7.7 40 08:18 23.12.2019
1887 Clouds 24 1015 53 10000 7.7 50 07:43 23.12.2019
1888 Clouds 24 1015 53 10000 7.7 50 07:20 23.12.2019
1889 Clouds 24 1016 53 10000 7.7 60 06:51 23.12.2019
1890 Clouds 24 1016 56 10000 7.7 50 06:24 23.12.2019
1891 Clouds 24 1016 50 10000 6.7 60 05:49 23.12.2019
1892 Clouds 24 1017 47 10000 6.7 10 05:22 23.12.2019
1893 Clouds 23 1018 50 10000 6.7 50 04:20 23.12.2019
1894 Clouds 22 1019 68 10000 5.1 50 02:55 23.12.2019
1895 Clouds 22 1019 60 10000 3.6 170 02:28 23.12.2019
1896 Clouds 22 1020 68 10000 5.1 50 01:55 23.12.2019
1897 Clouds 22 1020 68 10000 5.1 50 01:36 23.12.2019
1898 Clouds 21 1020 68 10000 5.1 50 01:18 23.12.2019
1899 Clouds 21 1021 68 10000 2.6 210 00:35 23.12.2019
1900 Clouds 20 1021 68 10000 2.1 190 23:58 22.12.2019
1901 Clouds 19 1021 68 10000 2.1 210 23:39 22.12.2019
1902 Clouds 19 1021 72 10000 3.6 210 23:20 22.12.2019
1903 Clouds 18 1021 72 10000 3.6 210 22:58 22.12.2019
1904 Clouds 18 1020 68 10000 2.1 260 22:38 22.12.2019
1905 Clouds 18 1020 68 10000 2.1 280 22:19 22.12.2019
1906 Clouds 18 1020 68 10000 2.1 280 21:57 22.12.2019
1907 Clouds 17 1020 68 10000 0.5 290 21:39 22.12.2019
1908 Clouds 17 1020 68 10000 0.5 290 21:20 22.12.2019
1909 Clouds 17 1020 72 10000 2.6 260 20:56 22.12.2019
1910 Clouds 16 1020 72 10000 1.5 240 20:38 22.12.2019
1911 Clouds 16 1020 72 10000 1.5 240 20:18 22.12.2019
1912 Clouds 16 1020 77 10000 3.6 250 19:55 22.12.2019
1913 Clouds 16 1020 77 10000 3.6 210 19:37 22.12.2019
1914 Clouds 16 1020 77 10000 3.6 210 19:18 22.12.2019
1915 Clouds 16 1020 77 10000 3.6 220 18:40 22.12.2019
1916 Clouds 16 1020 77 10000 3.6 220 18:22 22.12.2019
1917 Clouds 16 1020 77 10000 5.1 210 17:55 22.12.2019
1918 Clouds 17 1020 82 10000 4.6 210 17:37 22.12.2019
1919 Clouds 17 1021 82 10000 4.6 210 17:18 22.12.2019
1920 Clouds 17 1021 82 10000 4.6 210 16:56 22.12.2019
1921 Clouds 17 1021 82 10000 5.7 200 16:37 22.12.2019
1922 Clouds 17 1021 82 10000 5.7 200 16:19 22.12.2019
1923 Clouds 17 1021 72 10000 2.6 220 15:56 22.12.2019
1924 Clouds 17 1022 72 10000 2.6 190 15:36 22.12.2019
1925 Clouds 17 1022 72 10000 2.6 190 15:36 22.12.2019
1926 Clouds 17 1022 72 10000 2.6 190 15:18 22.12.2019
1927 Rain 17 1022 72 10000 2.1 230 14:54 22.12.2019
1928 Rain 17 1023 72 10000 2.1 230 14:36 22.12.2019
1929 Rain 17 1023 72 10000 2.1 230 14:36 22.12.2019
1930 Rain 18 1022 72 10000 6.2 190 14:18 22.12.2019
1931 Clouds 18 1022 72 10000 6.7 190 13:55 22.12.2019
1932 Clouds 18 1023 77 10000 6.7 190 13:36 22.12.2019
1933 Clouds 18 1023 77 10000 6.7 190 13:18 22.12.2019
1934 Clouds 18 1023 77 10000 6.7 190 13:18 22.12.2019
1935 Clouds 18 1023 72 10000 3.1 190 12:54 22.12.2019
1936 Clouds 18 1023 72 10000 3.1 190 12:54 22.12.2019
1937 Clouds 18 1023 72 10000 3.1 190 12:54 22.12.2019
1938 Clouds 18 1023 72 10000 7.7 190 12:36 22.12.2019
1939 Clouds 18 1023 72 10000 7.7 190 12:18 22.12.2019
1940 Clouds 18 1022 72 10000 7.2 190 11:39 22.12.2019
1941 Clouds 18 1022 72 10000 7.2 190 11:20 22.12.2019
1942 Clouds 18 1022 72 10000 7.7 180 10:58 22.12.2019
1943 Clouds 18 1022 72 10000 7.7 180 10:40 22.12.2019
1944 Clouds 18 1022 72 10000 7.7 180 10:21 22.12.2019
1945 Clouds 19 1022 72 10000 7.7 180 09:59 22.12.2019
1946 Clouds 19 1022 72 10000 7.7 190 09:40 22.12.2019
1947 Clouds 19 1022 72 10000 7.7 190 09:21 22.12.2019
1948 Clouds 19 1022 68 10000 7.7 180 08:59 22.12.2019
1949 Clouds 20 1022 68 10000 7.7 190 08:38 22.12.2019
1950 Clouds 19 1022 68 10000 7.7 190 08:18 22.12.2019
1951 Clouds 20 1022 68 10000 7.7 190 08:18 22.12.2019
1952 Clouds 19 1021 72 10000 8.2 180 07:38 22.12.2019
1953 Clouds 20 1021 72 10000 8.2 180 07:20 22.12.2019
1954 Clouds 20 1021 68 10000 8.7 190 06:40 22.12.2019
1955 Clouds 21 1021 64 10000 8.7 180 05:54 22.12.2019
1956 Clouds 21 1020 46 10000 6.2 140 05:21 22.12.2019
1957 Clouds 22 1021 64 10000 9.3 170 04:29 22.12.2019
1958 Clouds 22 1021 64 10000 9.8 180 03:53 22.12.2019
1959 Rain 21 1021 64 10000 3.6 200 02:40 22.12.2019
1960 Rain 21 1021 64 10000 3.6 200 02:40 22.12.2019
1961 Clouds 20 1021 68 10000 9.3 180 01:47 22.12.2019
1962 Clouds 20 1021 68 10000 9.3 180 01:28 22.12.2019
1963 Clouds 20 1021 68 10000 9.3 180 00:47 22.12.2019
1964 Clouds 19 1021 68 10000 8.7 180 00:23 22.12.2019
1965 Clouds 19 1021 77 10000 9.3 170 23:57 21.12.2019
1966 Clouds 19 1021 72 10000 8.7 180 23:38 21.12.2019
1967 Clouds 19 1021 77 10000 8.7 170 23:19 21.12.2019
1968 Clouds 19 1020 77 10000 8.7 170 22:41 21.12.2019
1969 Clouds 19 1020 77 10000 8.7 170 22:20 21.12.2019
1970 Clouds 19 1020 77 10000 8.7 180 21:57 21.12.2019
1971 Clouds 18 1020 77 10000 8.7 170 21:38 21.12.2019
1972 Clouds 18 1020 77 10000 8.7 170 21:20 21.12.2019
1973 Clouds 18 1019 72 10000 8.7 180 20:59 21.12.2019
1974 Clouds 18 1019 68 10000 8.7 170 20:40 21.12.2019
1975 Clouds 18 1019 72 10000 9.8 180 20:22 21.12.2019
1976 Clouds 18 1019 72 10000 9.8 180 19:58 21.12.2019
1977 Clouds 18 1018 72 10000 9.8 180 19:40 21.12.2019
1978 Clouds 18 1018 72 10000 9.8 180 19:19 21.12.2019
1979 Clouds 19 1018 72 10000 10.3 170 18:56 21.12.2019
1980 Clouds 19 1018 68 10000 3.1 180 18:37 21.12.2019
1981 Clouds 19 1018 68 10000 3.1 180 18:19 21.12.2019
1982 Clouds 19 1018 72 10000 10.3 180 17:55 21.12.2019
1983 Clouds 19 1018 72 10000 10.3 180 17:55 21.12.2019
1984 Clouds 19 1018 72 10000 10.3 180 17:37 21.12.2019
1985 Clouds 19 1018 77 10000 10.3 180 17:18 21.12.2019
1986 Clouds 19 1018 72 10000 10.3 180 16:41 21.12.2019
1987 Clouds 19 1018 72 10000 10.8 180 16:19 21.12.2019
1988 Clouds 19 1018 72 10000 10.8 180 15:58 21.12.2019
1989 Clouds 20 1018 72 10000 10.3 180 15:39 21.12.2019
1990 Clouds 19 1010 68 0 2.24 117 15:20 21.12.2019
1991 Clouds 20 1018 73 10000 9.8 190 14:59 21.12.2019
1992 Clouds 20 1018 73 10000 11.3 180 14:40 21.12.2019
1993 Clouds 20 1018 73 10000 11.3 180 14:22 21.12.2019
1994 Clouds 20 1018 73 10000 9.8 190 13:57 21.12.2019
1995 Clouds 20 1018 77 10000 11.8 170 13:38 21.12.2019
1996 Clouds 21 1017 77 10000 11.8 180 13:18 21.12.2019
1997 Clouds 21 1017 77 10000 11.8 180 12:56 21.12.2019
1998 -273 0 0 0 0 0 12:37 21.12.2019
1999 Rain 21 1016 73 10000 11.8 170 12:19 21.12.2019
2000 Rain 21 1016 73 10000 12.9 180 11:45 21.12.2019
2001 Rain 21 1016 73 10000 12.9 180 11:26 21.12.2019
2002 Rain 21 1014 77 8000 13.9 180 10:57 21.12.2019
2003 Rain 21 1014 77 8000 14.9 180 10:39 21.12.2019
2004 Rain 22 1012 83 7000 15.4 180 10:21 21.12.2019
2005 Rain 22 1012 83 7000 15.4 180 09:56 21.12.2019
2006 Rain 22 1012 83 5000 15.4 180 09:38 21.12.2019
2007 Rain 23 1010 88 4000 17.5 190 09:19 21.12.2019
2008 Rain 24 1009 88 5000 16.5 190 08:46 21.12.2019
2009 Rain 26 1009 88 5000 16.5 190 08:26 21.12.2019
2010 Clouds 30 1007 54 6000 10.3 180 07:47 21.12.2019
2011 Clouds 33 1007 54 6000 10.3 180 07:23 21.12.2019
2012 Clouds 33 1007 54 6000 10.3 180 07:23 21.12.2019
2013 Clouds 35 1006 48 7000 9.3 20 06:46 21.12.2019
2014 Clouds 37 1006 48 7000 9.3 20 06:28 21.12.2019
2015 Smoke 38 1007 45 7000 15.4 180 05:55 21.12.2019
2016 Smoke 36 1008 46 8000 6.2 10 04:58 21.12.2019
2017 Clouds 37 1008 48 8000 7.7 50 04:19 21.12.2019
2018 Smoke 36 1009 48 8000 6.2 10 03:56 21.12.2019
2019 Clouds 33 1010 48 7000 4.6 40 02:19 21.12.2019
2020 Clouds 31 1011 54 8000 4.1 30 01:41 21.12.2019
2021 Clouds 31 1011 54 8000 4.1 30 01:23 21.12.2019
2022 Clouds 28 1013 57 8000 3.6 10 00:39 21.12.2019
2023 Smoke 26 1013 57 8000 6.2 10 00:19 21.12.2019
2024 Clouds 25 1013 61 7000 4.6 360 23:38 20.12.2019
2025 Clouds 24 1014 69 6000 5.1 10 23:19 20.12.2019
2026 Clouds 23 1014 69 6000 5.1 10 22:57 20.12.2019
2027 Clouds 22 1014 73 6000 4.6 360 22:36 20.12.2019
2028 Clouds 22 1014 73 6000 4.6 360 22:18 20.12.2019
2029 Clouds 21 1014 73 9000 5.7 360 21:41 20.12.2019
2030 Clouds 20 1014 73 9000 5.7 360 21:21 20.12.2019
2031 Clouds 19 1014 73 8000 7.7 20 20:57 20.12.2019
2032 Clouds 19 1015 78 9000 4.6 10 20:38 20.12.2019
2033 Clouds 19 1014 78 9000 5.7 10 20:18 20.12.2019
2034 Clouds 19 1014 78 10000 6.7 20 19:42 20.12.2019
2035 Clouds 19 1014 78 10000 6.7 20 19:21 20.12.2019
2036 Clouds 19 1014 78 10000 4.6 20 18:58 20.12.2019
2037 Clouds 19 1014 73 10000 5.1 30 18:39 20.12.2019
2038 Clouds 19 1015 78 10000 5.1 20 18:21 20.12.2019
2039 Clouds 19 1015 78 10000 5.1 20 17:56 20.12.2019
2040 Clouds 19 1015 78 10000 5.1 20 17:56 20.12.2019
2041 Clouds 19 1015 78 10000 5.1 20 17:38 20.12.2019
2042 Clouds 20 1015 78 10000 5.1 20 17:20 20.12.2019
2043 Clear 20 1015 78 10000 4.6 10 16:56 20.12.2019
2044 Clouds 20 1016 78 10000 3.6 10 16:37 20.12.2019
2045 Clouds 20 1016 78 10000 4.6 360 16:19 20.12.2019
2046 Clouds 20 1016 78 10000 4.6 360 15:54 20.12.2019
2047 Clouds 20 1016 73 10000 5.1 10 15:36 20.12.2019
2048 Clouds 20 1017 78 10000 5.1 10 15:18 20.12.2019
2049 Clouds 20 1017 88 10000 1.5 20 14:41 20.12.2019
2050 Clouds 20 1017 88 10000 1.5 20 14:41 20.12.2019
2051 Clouds 20 1017 88 10000 1.5 20 14:23 20.12.2019
2052 Clouds 20 1017 82 10000 2.1 10 13:56 20.12.2019
2053 Clouds 20 1017 82 10000 1.5 10 13:37 20.12.2019
2054 Clouds 20 1018 77 10000 2.6 50 13:18 20.12.2019
2055 Clouds 20 1018 77 10000 3.1 70 12:55 20.12.2019
2056 Clouds 21 1018 77 10000 3.1 70 12:36 20.12.2019
2057 Clouds 21 1017 77 10000 3.1 70 12:18 20.12.2019
2058 Clouds 21 1017 77 10000 3.1 70 11:57 20.12.2019
2059 Clouds 21 1018 69 10000 5.1 30 11:38 20.12.2019
2060 Clouds 21 1017 69 10000 6.2 40 11:18 20.12.2019
2061 Clouds 22 1017 69 10000 6.2 40 10:55 20.12.2019
2062 Clouds 22 1017 69 10000 5.7 40 10:37 20.12.2019
2063 Clouds 22 1017 69 10000 5.7 40 10:18 20.12.2019
2064 Clouds 23 1017 64 10000 8.2 60 09:42 20.12.2019
2065 Clouds 23 1017 64 10000 8.7 60 09:21 20.12.2019
2066 Clouds 23 1017 64 10000 8.7 60 08:54 20.12.2019
2067 Clouds 24 1017 64 10000 8.2 50 08:36 20.12.2019
2068 Clouds 24 1017 64 10000 7.7 60 08:18 20.12.2019
2069 Clouds 25 1017 61 10000 7.7 60 07:41 20.12.2019
2070 Clouds 25 1017 57 10000 7.7 60 07:23 20.12.2019
2071 Clouds 25 1017 57 10000 8.7 60 06:55 20.12.2019
2072 Clouds 26 1017 57 10000 8.7 60 06:36 20.12.2019
2073 Clear 26 1017 57 10000 7.2 60 06:18 20.12.2019
2074 Clear 26 1017 54 10000 6.7 70 05:45 20.12.2019
2075 Clouds 27 1018 54 10000 6.7 80 04:46 20.12.2019
2076 Clouds 27 1018 50 10000 4.6 80 03:48 20.12.2019
2077 Clouds 27 1019 57 10000 5.7 130 02:46 20.12.2019
2078 Clouds 26 1020 69 10000 4.6 170 01:59 20.12.2019
2079 Clear 26 1020 50 10000 3.1 70 01:35 20.12.2019
2080 Clouds 25 1020 69 10000 4.6 190 00:54 20.12.2019
2081 Clouds 25 1020 60 10000 2.6 40 00:35 20.12.2019
2082 Clouds 24 1020 68 10000 4.1 180 23:58 19.12.2019
2083 Clouds 23 1020 68 10000 4.1 170 23:39 19.12.2019
2084 Clouds 22 1020 73 10000 4.1 180 23:19 19.12.2019
2085 Clouds 22 1020 73 10000 4.1 180 23:19 19.12.2019
2086 Clouds 21 1020 82 10000 4.1 200 22:40 19.12.2019
2087 Clouds 20 1020 82 10000 4.1 200 22:22 19.12.2019
2088 Clouds 20 1020 82 10000 5.1 190 21:57 19.12.2019
2089 Clouds 20 1020 77 10000 5.1 180 21:38 19.12.2019
2090 Clouds 18 1019 82 10000 5.1 180 21:19 19.12.2019
2091 Clouds 18 1019 82 10000 5.1 180 20:57 19.12.2019
2092 Clouds 18 1019 77 10000 5.1 180 20:38 19.12.2019
2093 Clouds 18 1019 77 10000 5.1 180 20:20 19.12.2019
2094 Clouds 18 1019 82 10000 5.1 180 19:58 19.12.2019
2095 Clouds 18 1019 77 10000 5.7 170 19:39 19.12.2019
2096 Clouds 18 1019 77 10000 5.7 170 19:19 19.12.2019
2097 Clouds 18 1019 77 10000 5.7 170 19:19 19.12.2019
2098 Clouds 18 1019 82 10000 6.2 180 18:58 19.12.2019
2099 Clouds 18 1019 82 10000 5.1 200 18:40 19.12.2019
2100 Clouds 18 1019 82 10000 5.1 200 18:19 19.12.2019
2101 Clouds 18 1019 82 10000 7.7 180 17:56 19.12.2019
2102 Clouds 18 1019 82 10000 7.7 180 17:37 19.12.2019
2103 Clouds 18 1019 82 10000 7.7 180 17:18 19.12.2019
2104 Clouds 18 1019 82 10000 7.7 180 17:18 19.12.2019
2105 Clouds 18 1019 82 10000 8.2 190 16:56 19.12.2019
2106 Clouds 19 1019 88 10000 7.7 190 16:37 19.12.2019
2107 Clouds 19 1019 82 10000 5.1 210 16:19 19.12.2019
2108 Clouds 19 1019 82 10000 5.1 210 15:57 19.12.2019
2109 Clouds 19 1019 82 10000 5.1 210 15:57 19.12.2019
2110 Clear 19 1019 82 10000 6.2 190 15:37 19.12.2019
2111 Clear 19 1019 82 10000 6.2 190 15:37 19.12.2019
2112 Clear 19 1019 82 10000 6.2 190 15:19 19.12.2019
2113 Clear 19 1019 82 10000 6.2 190 15:19 19.12.2019
2114 Clouds 19 1019 77 10000 5.1 210 14:54 19.12.2019
2115 Clouds 20 1019 73 10000 5.1 210 14:36 19.12.2019
2116 Clouds 20 1019 77 10000 5.1 210 14:18 19.12.2019
2117 Clear 20 1019 77 10000 7.7 190 13:38 19.12.2019
2118 Clear 21 1019 77 10000 7.7 190 13:20 19.12.2019
2119 Clouds 21 1019 73 10000 4.1 210 12:58 19.12.2019
2120 Clear 21 1019 73 10000 6.2 190 12:40 19.12.2019
2121 Clear 21 1018 64 10000 5.1 200 12:19 19.12.2019
2122 Clear 21 1019 73 10000 6.2 190 12:19 19.12.2019
2123 Clear 21 1018 64 10000 5.1 200 12:19 19.12.2019
2124 Clear 21 1018 64 10000 5.1 200 11:59 19.12.2019
2125 Clear 22 1018 68 10000 5.7 200 11:40 19.12.2019
2126 Clouds 22 1017 73 10000 7.7 200 11:18 19.12.2019
2127 Clouds 22 1017 73 10000 7.7 200 10:58 19.12.2019
2128 Clear 23 1017 68 10000 9.3 190 10:38 19.12.2019
2129 Clouds 23 1016 68 10000 7.7 190 10:20 19.12.2019
2130 Clouds 24 1016 68 10000 7.7 190 09:56 19.12.2019
2131 Clouds 24 1015 64 10000 7.7 180 09:37 19.12.2019
2132 Clear 25 1015 60 10000 12.3 180 09:19 19.12.2019
2133 Clear 25 1015 60 10000 12.3 180 08:55 19.12.2019
2134 Clear 26 1015 60 10000 12.3 180 08:55 19.12.2019
2135 Clear 26 1014 57 10000 13.4 190 08:37 19.12.2019
2136 Clouds 26 1014 57 10000 11.8 190 08:18 19.12.2019
2137 Rain 26 1013 53 10000 12.9 190 07:43 19.12.2019
2138 Rain 27 1013 53 10000 12.9 190 07:24 19.12.2019
2139 Clouds 27 1013 53 10000 12.9 190 06:59 19.12.2019
2140 Clouds 28 1012 57 6000 13.4 180 06:41 19.12.2019
2141 Clouds 29 1012 57 6000 13.4 180 06:21 19.12.2019
2142 Clouds 38 1009 11 10000 3.6 30 05:42 19.12.2019
2143 Smoke 40 1010 14 3500 0.5 190 05:20 19.12.2019
2144 Smoke 40 1010 14 3500 2.08 135 03:54 19.12.2019
2145 Smoke 40 1011 19 4000 3.1 320 02:29 19.12.2019
2146 Smoke 35 1012 31 5000 3.6 320 01:26 19.12.2019
2147 Smoke 35 1012 31 5000 3.6 320 00:59 19.12.2019
2148 Smoke 32 1012 35 4000 3.6 310 00:39 19.12.2019
2149 Smoke 31 1012 35 4000 3.6 310 00:19 19.12.2019
2150 Smoke 28 1012 45 5000 4.1 310 23:45 18.12.2019
2151 Smoke 27 1012 45 5000 4.1 310 23:45 18.12.2019
2152 Smoke 25 1013 57 10000 6.2 280 23:19 18.12.2019
2153 Clear 23 1013 60 10000 4.1 310 22:58 18.12.2019
2154 Clear 23 1013 60 10000 4.1 310 22:40 18.12.2019
2155 Clear 23 1013 60 10000 4.1 310 22:22 18.12.2019
2156 Smoke 21 1013 68 10000 5.1 290 21:59 18.12.2019
2157 Clear 20 1013 73 10000 4.1 320 21:40 18.12.2019
2158 Clear 20 1013 73 10000 4.1 320 21:20 18.12.2019
2159 Smoke 19 1013 77 10000 5.1 320 20:57 18.12.2019
2160 Smoke 19 1013 77 10000 5.1 320 20:57 18.12.2019
2161 Clear 19 1013 73 10000 3.1 340 20:39 18.12.2019
2162 Clouds 17 1013 93 10000 1.56 292 20:20 18.12.2019
2163 Clouds 17 1013 93 10000 1.82 289 20:20 18.12.2019
2164 Clouds 18 1013 88 10000 1.56 292 19:57 18.12.2019
2165 Clouds 18 1013 88 10000 1.56 292 19:39 18.12.2019
2166 Clouds 18 1013 88 10000 1.56 292 19:19 18.12.2019
2167 Clouds 18 1013 88 10000 1.56 292 18:56 18.12.2019
2168 Clouds 18 1013 88 10000 1.56 292 18:38 18.12.2019
2169 Clouds 18 1013 82 10000 1.56 292 18:20 18.12.2019
2170 Clouds 18 1013 82 10000 1.56 292 17:55 18.12.2019
2171 Clouds 18 1013 82 10000 1.56 292 17:55 18.12.2019
2172 Clouds 18 1013 82 10000 1.56 292 17:37 18.12.2019
2173 Clear 19 1013 77 10000 0.9 293 17:19 18.12.2019
2174 Clouds 19 1014 77 10000 0.9 293 16:42 18.12.2019
2175 Clouds 19 1014 77 10000 0.9 293 16:24 18.12.2019
2176 Clear 20 1014 77 10000 0.9 293 15:59 18.12.2019
2177 Clear 20 1015 77 10000 2.6 50 15:39 18.12.2019
2178 Clear 20 1015 77 10000 2.6 50 15:21 18.12.2019
2179 Clear 20 1015 77 10000 1 50 14:58 18.12.2019
2180 Clear 20 1015 73 10000 0.9 293 14:40 18.12.2019
2181 Clear 20 1015 73 10000 1.79 25 14:19 18.12.2019
2182 Clouds 21 1015 64 10000 1.5 40 13:56 18.12.2019
2183 Clouds 20 1015 64 10000 1.5 40 13:56 18.12.2019
2184 Clouds 20 1015 64 10000 2.1 70 13:37 18.12.2019
2185 Clear 21 1016 64 10000 4.6 360 13:19 18.12.2019
2186 Clear 21 1016 64 10000 4.6 360 12:57 18.12.2019
2187 Clear 21 1016 64 10000 7.2 10 12:37 18.12.2019
2188 Clear 22 1016 64 10000 7.2 10 12:19 18.12.2019
2189 Clear 22 1016 64 10000 9.3 20 11:54 18.12.2019
2190 Clear 22 1016 64 10000 9.3 20 11:36 18.12.2019
2191 Clear 22 1015 64 10000 6.2 10 11:18 18.12.2019
2192 Clear 23 1015 60 10000 10.3 40 10:55 18.12.2019
2193 Clear 23 1015 60 10000 10.3 40 10:36 18.12.2019
2194 Clear 23 1015 60 10000 10.3 40 10:18 18.12.2019
2195 Clear 24 1015 60 10000 11.3 30 09:21 18.12.2019
2196 Clear 24 1015 60 10000 11.3 30 08:57 18.12.2019
2197 Clear 25 1015 61 10000 10.8 20 08:39 18.12.2019
2198 Clear 25 1015 61 10000 10.8 20 08:21 18.12.2019
2199 Clear 26 1015 50 10000 10.3 30 07:43 18.12.2019
2200 Clear 26 1015 50 10000 10.3 30 07:22 18.12.2019
2201 Clear 27 1015 47 10000 12.3 40 06:53 18.12.2019
2202 Clear 28 1016 44 10000 10.8 40 06:26 18.12.2019
2203 Clear 28 1016 47 10000 9.8 50 05:43 18.12.2019
2204 Clear 30 1017 44 10000 9.8 50 04:46 18.12.2019
2205 Clear 29 1018 44 10000 6.2 40 02:51 18.12.2019
2206 Clear 28 1019 47 10000 6.2 50 02:31 18.12.2019
2207 Smoke 28 1019 42 10000 7.7 50 01:57 18.12.2019
2208 Smoke 27 1019 36 10000 7.7 50 01:37 18.12.2019
2209 Smoke 27 1019 36 10000 7.7 50 01:19 18.12.2019
2210 Smoke 25 1020 44 10000 7.7 50 00:40 18.12.2019
2211 Smoke 24 1020 47 10000 7.7 50 00:21 18.12.2019
2212 Smoke 23 1020 47 10000 7.7 50 23:56 17.12.2019
2213 Clear 23 1020 53 10000 4.6 360 23:37 17.12.2019
2214 Clear 22 1020 56 10000 4.6 350 23:18 17.12.2019
2215 Clear 22 1020 56 10000 4.6 350 23:18 17.12.2019
2216 Clear 21 1020 56 10000 4.6 350 22:55 17.12.2019
2217 Clear 20 1020 64 10000 4.1 340 22:37 17.12.2019
2218 Clear 19 1020 64 10000 4.1 340 22:18 17.12.2019
2219 Clear 19 1020 64 10000 3.6 350 21:55 17.12.2019
2220 Clear 19 1020 64 10000 3.6 350 21:55 17.12.2019
2221 Clear 18 1020 68 10000 1.5 330 21:37 17.12.2019
2222 Clear 16 1020 93 10000 2.74 319 21:18 17.12.2019
2223 Clear 15 1020 93 10000 2.74 319 20:56 17.12.2019
2224 Clear 15 1020 93 10000 2.74 319 20:37 17.12.2019
2225 Clear 14 1020 100 10000 1.37 283 20:18 17.12.2019
2226 Clear 14 1020 100 10000 1.37 283 19:54 17.12.2019
2227 Clear 14 1020 100 10000 1.37 283 19:36 17.12.2019
2228 Clear 14 1020 100 10000 1.37 283 19:18 17.12.2019
2229 Clear 14 1019 93 10000 1.37 283 18:41 17.12.2019
2230 Clear 14 1019 93 10000 1.37 283 18:21 17.12.2019
2231 Clear 15 1019 93 10000 1.37 283 17:59 17.12.2019
2232 Clear 15 1020 93 10000 1.37 283 17:41 17.12.2019
2233 Clear 15 1020 93 10000 1.61 293 17:19 17.12.2019
2234 Clear 15 1020 93 10000 1.61 293 16:56 17.12.2019
2235 Clear 15 1020 87 10000 1.61 293 16:37 17.12.2019
2236 Clear 15 1020 87 10000 1.61 293 16:37 17.12.2019
2237 Clear 15 1020 87 10000 1.61 293 16:19 17.12.2019
2238 Clear 15 1021 87 10000 1.61 293 15:56 17.12.2019
2239 Clear 15 1021 82 10000 1.61 293 15:37 17.12.2019
2240 Clear 16 1021 82 10000 1.61 293 15:19 17.12.2019
2241 Clear 16 1021 82 10000 1.61 293 14:55 17.12.2019
2242 Clear 16 1021 82 10000 1.61 293 14:37 17.12.2019
2243 Clear 16 1021 82 10000 1.07 22 14:18 17.12.2019
2244 Clear 16 1021 82 10000 1.07 22 14:18 17.12.2019
2245 Clear 17 1021 72 10000 1.07 22 13:55 17.12.2019
2246 Clear 17 1021 72 10000 1.07 22 13:37 17.12.2019
2247 Clear 18 1021 68 10000 1.5 120 13:18 17.12.2019
2248 Clear 18 1021 68 10000 1.5 120 12:55 17.12.2019
2249 Clear 18 1021 68 10000 2.6 120 12:37 17.12.2019
2250 Clear 19 1021 64 10000 3.1 50 12:18 17.12.2019
2251 Clear 19 1021 60 10000 3.6 50 11:54 17.12.2019
2252 Clear 19 1021 60 10000 3.6 50 11:36 17.12.2019
2253 Clear 20 1021 60 10000 4.1 50 11:18 17.12.2019
2254 Clear 20 1021 60 10000 4.1 50 10:54 17.12.2019
2255 Clear 20 1020 60 10000 4.6 70 10:36 17.12.2019
2256 Clear 20 1020 60 10000 5.1 60 10:18 17.12.2019
2257 Clear 21 1020 56 10000 6.2 70 09:42 17.12.2019
2258 Clear 21 1020 56 10000 6.2 70 09:21 17.12.2019
2259 Clear 21 1020 56 10000 6.2 70 09:21 17.12.2019
2260 Clear 22 1019 53 10000 6.2 80 08:57 17.12.2019
2261 Clear 22 1019 53 10000 5.7 90 08:38 17.12.2019
2262 Clear 22 1019 53 10000 5.7 90 08:38 17.12.2019
2263 Clear 22 1019 53 10000 5.7 90 08:38 17.12.2019
2264 Clouds 22 1019 53 10000 6.2 80 08:20 17.12.2019
2265 Clouds 23 1019 53 10000 6.2 80 07:56 17.12.2019
2266 Clouds 23 1019 49 10000 6.2 90 07:38 17.12.2019
2267 Clouds 24 1019 49 10000 5.7 90 07:18 17.12.2019
2268 Clouds 24 1019 46 10000 5.7 90 06:35 17.12.2019
2269 Clouds 25 1019 43 10000 5.7 90 05:57 17.12.2019
2270 Clouds 25 1019 41 10000 5.7 110 05:38 17.12.2019
2271 Clouds 25 1019 43 10000 5.1 90 04:46 17.12.2019
2272 Clouds 25 1020 49 10000 5.1 130 02:47 17.12.2019
2273 Clear 24 1020 53 10000 5.1 130 01:56 17.12.2019
2274 Clouds 24 1020 53 10000 4.1 130 01:20 17.12.2019
2275 Clouds 23 1020 53 10000 3.6 130 00:38 17.12.2019
2276 Clouds 23 1020 53 10000 3.6 130 00:20 17.12.2019
2277 Clouds 22 1020 64 10000 4.1 170 23:43 16.12.2019
2278 Clouds 21 1020 64 10000 4.1 170 23:19 16.12.2019
2279 Clouds 20 1020 64 10000 3.6 190 22:58 16.12.2019
2280 Clouds 20 1020 64 10000 3.1 190 22:38 16.12.2019
2281 Clouds 19 1019 68 10000 2.6 220 22:20 16.12.2019
2282 Clouds 19 1019 68 10000 2.6 220 21:57 16.12.2019
2283 Clouds 18 1019 77 10000 3.1 230 21:38 16.12.2019
2284 Clouds 17 1019 77 10000 3.1 230 21:20 16.12.2019
2285 Clear 15 1019 87 10000 1.18 182 20:58 16.12.2019
2286 Clouds 15 1019 77 10000 3.6 230 20:39 16.12.2019
2287 Clouds 15 1019 77 10000 3.6 230 20:39 16.12.2019
2288 Clouds 14 1019 93 10000 1.84 219 20:19 16.12.2019
2289 Clouds 14 1018 77 10000 3.6 210 19:56 16.12.2019
2290 Clouds 14 1018 77 10000 4.1 200 19:37 16.12.2019
2291 Clouds 14 1018 77 10000 4.1 200 19:19 16.12.2019
2292 Clouds 14 1018 77 10000 4.1 200 19:19 16.12.2019
2293 Clouds 15 1018 72 10000 4.1 200 18:59 16.12.2019
2294 Clouds 15 1018 72 10000 4.1 210 18:40 16.12.2019
2295 Clouds 15 1017 72 10000 4.1 230 18:20 16.12.2019
2296 Clouds 15 1017 72 10000 4.1 230 17:58 16.12.2019
2297 Clouds 15 1018 72 10000 3.6 210 17:39 16.12.2019
2298 Clouds 16 1018 72 10000 4.1 210 17:21 16.12.2019
2299 Clouds 16 1018 72 10000 4.1 210 16:57 16.12.2019
2300 Clouds 16 1018 72 10000 4.1 200 16:39 16.12.2019
2301 Clouds 16 1018 72 10000 4.1 200 16:39 16.12.2019
2302 Clouds 16 1018 72 10000 2.1 170 16:20 16.12.2019
2303 Clouds 17 1018 72 10000 4.6 200 15:59 16.12.2019
2304 Clouds 17 1018 72 10000 4.6 200 15:59 16.12.2019
2305 Clouds 17 1018 68 10000 4.6 200 15:39 16.12.2019
2306 Clouds 17 1018 68 10000 4.6 200 15:20 16.12.2019
2307 Clouds 18 1019 68 10000 4.1 170 14:57 16.12.2019
2308 Clouds 18 1019 68 10000 5.1 170 14:37 16.12.2019
2309 Clouds 18 1019 68 10000 5.1 170 14:19 16.12.2019
2310 Clouds 18 1019 68 10000 4.6 170 13:56 16.12.2019
2311 Clouds 19 1019 68 10000 5.1 170 13:38 16.12.2019
2312 Clouds 19 1019 68 10000 4.6 170 13:19 16.12.2019
2313 Clouds 19 1019 68 10000 4.6 170 13:19 16.12.2019
2314 Clouds 19 1019 68 10000 4.6 170 12:58 16.12.2019
2315 Rain 19 1018 72 10000 5.7 160 12:39 16.12.2019
2316 Rain 19 1018 72 10000 5.1 160 12:19 16.12.2019
2317 Rain 19 1018 72 10000 5.1 160 11:58 16.12.2019
2318 Clouds 19 1018 68 10000 5.7 160 11:40 16.12.2019
2319 Clouds 19 1018 68 10000 5.7 160 11:20 16.12.2019
2320 Clouds 19 1018 68 10000 6.2 150 10:57 16.12.2019
2321 Clouds 19 1017 72 10000 5.7 170 10:39 16.12.2019
2322 Clouds 20 1017 72 10000 5.7 170 10:19 16.12.2019
2323 Clouds 20 1016 68 10000 7.7 170 09:45 16.12.2019
2324 Clouds 20 1016 68 10000 7.7 170 09:27 16.12.2019
2325 Clouds 20 1016 68 10000 7.7 170 09:27 16.12.2019
2326 Clouds 20 1016 72 10000 7.7 160 08:56 16.12.2019
2327 Clouds 20 1015 64 10000 8.2 160 08:37 16.12.2019
2328 Clouds 21 1015 64 10000 8.2 160 08:18 16.12.2019
2329 Clouds 21 1014 60 10000 8.7 160 07:44 16.12.2019
2330 Clouds 21 1014 60 10000 8.7 160 07:22 16.12.2019
2331 Clouds 22 1014 56 10000 9.3 160 06:45 16.12.2019
2332 Clouds 22 1014 56 10000 9.3 160 06:25 16.12.2019
2333 Clouds 22 1014 56 10000 9.3 160 05:52 16.12.2019
2334 Clouds 22 1014 64 10000 9.3 170 05:33 16.12.2019
2335 Clouds 22 1013 64 10000 10.3 170 04:22 16.12.2019
2336 Clouds 23 1013 64 10000 9.3 170 02:31 16.12.2019
2337 Clouds 23 1013 68 10000 9.8 170 01:45 16.12.2019
2338 Clouds 23 1013 68 10000 9.8 170 01:45 16.12.2019
2339 Clouds 23 1012 68 10000 9.3 170 00:43 16.12.2019
2340 Clouds 22 1012 68 10000 9.8 170 00:25 16.12.2019
2341 Clouds 22 1012 68 10000 9.8 170 23:59 15.12.2019
2342 Clouds 22 1011 72 10000 9.8 170 23:59 15.12.2019
2343 Clouds 22 1011 72 10000 9.8 170 23:39 15.12.2019
2344 Clouds 21 1011 72 10000 9.8 170 23:20 15.12.2019
2345 Clouds 21 1011 72 10000 9.8 170 22:56 15.12.2019
2346 Clouds 21 1011 72 10000 9.8 170 22:56 15.12.2019
2347 Clouds 21 1011 72 10000 9.8 170 22:56 15.12.2019
2348 Clouds 21 1010 77 10000 10.8 170 22:37 15.12.2019
2349 Clouds 21 1010 77 10000 10.8 170 22:37 15.12.2019
2350 Clouds 20 1010 77 10000 10.8 170 22:18 15.12.2019
2351 Clouds 20 1010 77 10000 10.8 170 21:56 15.12.2019
2352 Clouds 20 1009 82 10000 9.3 180 21:38 15.12.2019
2353 Clouds 19 1009 82 10000 9.3 180 21:19 15.12.2019
2354 Clouds 19 1009 82 10000 9.3 180 20:56 15.12.2019
2355 Clouds 19 1009 82 10000 9.3 180 20:56 15.12.2019
2356 Clouds 19 1008 82 10000 9.3 180 20:37 15.12.2019
2357 Clouds 19 1008 82 9000 11.8 180 20:19 15.12.2019
2358 Clouds 19 1008 82 9000 11.8 180 19:57 15.12.2019
2359 Clouds 19 1007 88 9000 11.8 180 19:39 15.12.2019
2360 Clouds 19 1007 88 9000 11.8 180 19:18 15.12.2019
2361 Clouds 20 1007 88 7000 12.9 190 18:56 15.12.2019
2362 Clouds 20 1006 88 7000 12.9 190 18:38 15.12.2019
2363 Smoke 20 1006 88 5000 13.9 190 18:18 15.12.2019
2364 Clouds 21 1006 88 8000 9.3 180 17:56 15.12.2019
2365 Clouds 21 1006 88 8000 9.3 180 17:37 15.12.2019
2366 Haze 21 1006 83 10000 10.3 180 17:18 15.12.2019
2367 Haze 22 1006 83 10000 10.3 180 16:56 15.12.2019
2368 Haze 22 1005 83 10000 10.3 180 16:38 15.12.2019
2369 Haze 22 1005 83 10000 10.3 180 16:20 15.12.2019
2370 Haze 22 1005 83 10000 10.3 180 15:55 15.12.2019
2371 Haze 22 1005 83 10000 10.3 180 15:55 15.12.2019
2372 Haze 22 1006 83 10000 10.3 180 15:36 15.12.2019
2373 Haze 22 1006 83 10000 10.3 180 15:18 15.12.2019
2374 Haze 22 1006 83 10000 10.3 180 14:55 15.12.2019
2375 Haze 22 1006 83 10000 10.3 180 14:36 15.12.2019
2376 Haze 22 1006 83 10000 10.3 180 14:18 15.12.2019
2377 Haze 22 1006 83 10000 10.3 180 14:18 15.12.2019
2378 Haze 22 1006 78 10000 10.3 180 13:55 15.12.2019
2379 Haze 22 1006 78 10000 10.3 180 13:36 15.12.2019
2380 Clouds 23 1006 69 10000 0.5 30 13:18 15.12.2019
2381 Clouds 23 1006 69 10000 0.5 30 12:55 15.12.2019
2382 Clouds 23 1006 73 10000 0.5 300 12:37 15.12.2019
2383 Clouds 23 1006 73 10000 0.5 300 12:37 15.12.2019
2384 Clouds 23 1006 73 10000 0.5 300 12:19 15.12.2019
2385 Clouds 23 1005 78 10000 5.7 20 11:38 15.12.2019
2386 Smoke 24 1005 73 10000 5.1 10 11:20 15.12.2019
2387 Smoke 24 1005 73 10000 5.1 10 10:58 15.12.2019
2388 Smoke 24 1004 73 10000 5.1 10 10:40 15.12.2019
2389 Smoke 24 1004 73 10000 5.1 10 10:20 15.12.2019
2390 Smoke 24 1004 73 10000 5.1 10 09:59 15.12.2019
2391 Clouds 24 1004 73 10000 9.3 30 09:38 15.12.2019
2392 Clouds 24 1004 73 10000 9.3 30 09:20 15.12.2019
2393 Smoke 24 1005 69 10000 5.1 10 08:55 15.12.2019
2394 Clouds 26 1004 69 10000 7.7 30 08:37 15.12.2019
2395 Smoke 26 1004 65 10000 5.1 10 08:19 15.12.2019
2396 Smoke 26 1004 65 10000 5.1 10 07:53 15.12.2019
2397 Clouds 27 1004 65 10000 8.7 30 07:31 15.12.2019
2398 Clouds 27 1005 65 10000 9.3 50 06:30 15.12.2019
2399 Clouds 28 1005 57 10000 8.7 30 05:50 15.12.2019
2400 Clouds 29 1005 57 10000 8.7 40 05:23 15.12.2019
2401 Clouds 30 1006 57 10000 8.7 50 04:24 15.12.2019
2402 Clouds 30 1007 57 10000 7.2 50 03:22 15.12.2019
2403 Clouds 29 1008 54 10000 7.7 40 02:32 15.12.2019
2404 Clouds 28 1009 51 10000 3.6 360 01:43 15.12.2019
2405 Clouds 27 1009 51 10000 3.6 360 01:20 15.12.2019
2406 Clouds 26 1010 61 10000 3.6 360 00:53 15.12.2019
2407 Clouds 25 1010 61 10000 3.6 360 00:34 15.12.2019
2408 Clouds 24 1010 69 10000 3.6 330 23:58 14.12.2019
2409 Clouds 23 1010 69 10000 3.6 330 23:38 14.12.2019
2410 Clouds 23 1011 73 10000 2.6 340 23:18 14.12.2019
2411 Clouds 22 1011 73 10000 2.6 340 22:56 14.12.2019
2412 Clouds 22 1011 78 10000 2.6 320 22:37 14.12.2019
2413 Clouds 21 1011 78 10000 1.05 51 22:19 14.12.2019
2414 Clouds 21 1011 83 10000 0.5 360 21:55 14.12.2019
2415 Clouds 20 1011 83 10000 0.5 360 21:37 14.12.2019
2416 Clouds 20 1011 93 10000 1.05 51 21:18 14.12.2019
2417 Clouds 19 1011 93 10000 1.05 51 20:54 14.12.2019
2418 Clouds 19 1011 88 10000 1 180 20:36 14.12.2019
2419 Clouds 19 1011 93 10000 1.5 240 20:18 14.12.2019
2420 Rain 19 1011 88 10000 2.1 250 19:40 14.12.2019
2421 Rain 19 1011 88 10000 2.1 250 19:21 14.12.2019
2422 Rain 19 1010 82 10000 4.1 90 18:57 14.12.2019
2423 Rain 20 1011 77 10000 4.1 100 18:39 14.12.2019
2424 Rain 20 1011 77 10000 4.1 110 18:21 14.12.2019
2425 Rain 20 1011 77 10000 4.1 110 17:59 14.12.2019
2426 Clouds 20 1011 77 10000 4.6 110 17:41 14.12.2019
2427 Clouds 20 1011 77 10000 4.6 110 17:22 14.12.2019
2428 Clouds 20 1012 77 10000 4.6 120 16:41 14.12.2019
2429 Clouds 20 1012 77 10000 4.6 120 16:19 14.12.2019
2430 Clouds 20 1012 77 10000 4.6 110 15:57 14.12.2019
2431 Clouds 20 1012 77 10000 4.6 120 15:38 14.12.2019
2432 Clouds 20 1012 77 10000 4.6 120 15:38 14.12.2019
2433 Clouds 20 1012 77 10000 4.6 120 15:19 14.12.2019
2434 Clouds 20 1012 77 10000 6.2 130 14:57 14.12.2019
2435 Clouds 20 1013 77 10000 5.7 140 14:38 14.12.2019
2436 Clouds 20 1013 77 10000 7.2 140 14:19 14.12.2019
2437 Clouds 20 1013 77 10000 7.7 140 13:44 14.12.2019
2438 Clouds 20 1013 77 10000 7.7 140 13:20 14.12.2019
2439 Clouds 21 1013 83 10000 7.2 140 12:58 14.12.2019
2440 Clouds 21 1013 83 10000 7.2 140 12:58 14.12.2019
2441 Drizzle 21 1012 83 10000 7.2 140 12:40 14.12.2019
2442 Drizzle 21 1012 83 10000 8.2 150 12:21 14.12.2019
2443 Drizzle 21 1012 83 10000 8.2 150 11:58 14.12.2019
2444 Clouds 21 1012 83 10000 6.7 150 11:39 14.12.2019
2445 Clouds 21 1011 83 10000 6.7 150 11:19 14.12.2019
2446 Clouds 21 1011 83 10000 6.7 150 10:57 14.12.2019
2447 Clouds 22 1011 78 10000 5.7 140 10:39 14.12.2019
2448 Clouds 22 1011 78 10000 5.7 140 10:20 14.12.2019
2449 Clouds 22 1010 78 10000 6.2 140 09:57 14.12.2019
2450 Clouds 22 1010 78 10000 7.2 140 09:38 14.12.2019
2451 Clouds 22 1010 78 10000 7.2 140 09:18 14.12.2019
2452 Clouds 23 1009 73 10000 5.1 100 08:43 14.12.2019
2453 Clouds 23 1008 73 10000 5.1 100 08:19 14.12.2019
2454 Clouds 24 1008 69 10000 6.7 90 07:44 14.12.2019
2455 Clouds 24 1008 69 10000 5.1 100 07:23 14.12.2019
2456 Clouds 24 1008 69 10000 5.1 100 06:57 14.12.2019
2457 Clouds 25 1008 60 10000 7.2 90 06:37 14.12.2019
2458 Clouds 25 1008 64 10000 8.2 80 06:18 14.12.2019
2459 Clear 28 1008 61 10000 8.7 80 04:48 14.12.2019
2460 Clouds 28 1010 54 10000 5.1 120 02:41 14.12.2019
2461 Clouds 27 1010 60 10000 5.1 120 02:19 14.12.2019
2462 Clouds 26 1010 61 10000 5.1 140 01:37 14.12.2019
2463 Clouds 25 1011 57 6000 1.5 10 00:50 14.12.2019
2464 Clouds 25 1011 57 6000 1.5 10 00:29 14.12.2019
2465 Clouds 24 1011 73 10000 2.1 180 00:29 14.12.2019
2466 Clouds 24 1011 73 10000 1.5 110 23:57 13.12.2019
2467 Clouds 23 1011 77 10000 2.1 170 23:38 13.12.2019
2468 Clouds 22 1011 68 10000 1.5 322 23:19 13.12.2019
2469 Clouds 22 1012 77 10000 2.1 180 22:55 13.12.2019
2470 Clouds 21 1012 77 10000 2.6 200 22:36 13.12.2019
2471 Clouds 21 1012 77 10000 2.6 200 22:18 13.12.2019
2472 Clouds 19 1011 88 10000 2.6 210 21:39 13.12.2019
2473 Clouds 19 1011 88 10000 2.6 210 21:21 13.12.2019
2474 Clouds 18 1011 82 10000 3.6 200 20:54 13.12.2019
2475 Clouds 18 1011 88 10000 2.1 200 20:36 13.12.2019
2476 Clouds 17 1011 88 10000 2.1 200 20:18 13.12.2019
2477 Clouds 17 1011 88 10000 2.1 200 19:56 13.12.2019
2478 Clouds 17 1011 72 10000 2.1 240 19:36 13.12.2019
2479 Clouds 17 1011 72 10000 2.1 240 19:18 13.12.2019
2480 Clouds 17 1011 77 10000 1.11 294 18:41 13.12.2019
2481 Clouds 18 1011 77 10000 1.11 294 18:19 13.12.2019
2482 Clouds 18 1011 72 10000 1.11 294 17:58 13.12.2019
2483 Clouds 18 1009 84 0 1.11 294 17:39 13.12.2019
2484 Clouds 18 1012 72 10000 1.69 329 17:18 13.12.2019
2485 Clouds 18 1012 72 10000 1.69 329 17:18 13.12.2019
2486 Clouds 19 1012 72 10000 1.69 329 16:55 13.12.2019
2487 Clouds 19 1012 72 10000 1.69 329 16:36 13.12.2019
2488 Clouds 19 1012 72 10000 1.69 329 16:18 13.12.2019
2489 Clouds 19 1013 72 10000 1.69 329 15:41 13.12.2019
2490 Clouds 19 1013 72 10000 1.69 329 15:21 13.12.2019
2491 Clouds 19 1013 68 10000 1.5 140 14:56 13.12.2019
2492 Clouds 19 1013 72 10000 1.69 329 14:36 13.12.2019
2493 Clouds 20 1013 68 10000 1.74 23 14:18 13.12.2019
2494 Clouds 20 1013 68 10000 1.74 23 13:43 13.12.2019
2495 Clouds 20 1013 68 10000 0.5 20 13:24 13.12.2019
2496 Clouds 20 1013 68 10000 0.5 20 12:55 13.12.2019
2497 Clouds 20 1013 68 10000 2.1 30 12:37 13.12.2019
2498 Clouds 20 1013 73 10000 3.6 90 12:18 13.12.2019
2499 Clouds 20 1013 73 10000 4.1 90 11:43 13.12.2019
2500 Clouds 20 1013 73 10000 4.1 90 11:25 13.12.2019
2501 Clouds 20 1012 68 10000 4.6 80 10:56 13.12.2019
2502 Clouds 20 1012 68 10000 5.1 80 10:38 13.12.2019
2503 Clouds 20 1012 68 10000 5.7 90 10:20 13.12.2019
2504 Clouds 20 1012 68 10000 5.7 90 09:42 13.12.2019
2505 Clouds 20 1012 68 10000 5.7 90 09:21 13.12.2019
2506 Clouds 21 1012 64 10000 6.7 100 08:45 13.12.2019
2507 Clouds 21 1012 64 10000 6.7 100 08:27 13.12.2019
2508 Clouds 22 1012 60 10000 6.2 100 07:50 13.12.2019
2509 Clouds 22 1012 60 10000 6.7 100 07:26 13.12.2019
2510 Clouds 22 1012 60 10000 6.7 100 06:57 13.12.2019
2511 Clouds 22 1012 60 10000 6.7 100 06:32 13.12.2019
2512 Clouds 22 1013 60 10000 7.7 100 05:52 13.12.2019
2513 Clouds 23 1013 56 10000 7.7 120 05:33 13.12.2019
2514 Clouds 23 1013 56 10000 7.7 110 04:54 13.12.2019
2515 Clouds 23 1014 56 10000 6.7 120 03:55 13.12.2019
2516 Clouds 23 1014 60 10000 5.1 140 02:35 13.12.2019
2517 Clouds 22 1015 60 10000 4.1 150 01:54 13.12.2019
2518 Clouds 22 1015 60 10000 3.6 120 01:34 13.12.2019
2519 Clouds 21 1015 64 10000 3.6 160 00:50 13.12.2019
2520 Rain 20 1015 72 10000 4.1 160 00:28 13.12.2019
2521 Clouds 20 1016 64 10000 3.6 150 23:43 12.12.2019
2522 Clouds 20 1016 64 10000 3.6 150 23:25 12.12.2019
2523 Rain 19 1015 68 10000 3.1 90 22:57 12.12.2019
2524 Rain 19 1015 68 10000 3.1 90 22:39 12.12.2019
2525 Rain 19 1015 68 10000 3.1 90 22:39 12.12.2019
2526 Rain 18 1015 68 10000 3.1 90 22:21 12.12.2019
2527 Rain 18 1015 68 10000 3.1 100 22:21 12.12.2019
2528 Rain 18 1015 68 10000 3.1 100 21:56 12.12.2019
2529 Drizzle 17 1015 68 10000 3.6 120 21:37 12.12.2019
2530 Drizzle 17 1015 68 10000 3.6 120 21:19 12.12.2019
2531 Clouds 17 1014 68 10000 4.1 100 20:59 12.12.2019
2532 Rain 17 1015 88 10000 1.69 120 20:40 12.12.2019
2533 Rain 16 1014 87 10000 1.72 159 20:22 12.12.2019
2534 Rain 16 1014 87 10000 1.72 159 19:56 12.12.2019
2535 Rain 17 1014 93 10000 1.72 159 19:37 12.12.2019
2536 Rain 17 1014 93 10000 2.1 240 19:18 12.12.2019
2537 Rain 17 1015 93 10000 2.1 250 18:56 12.12.2019
2538 Rain 17 1015 93 10000 2.1 250 18:38 12.12.2019
2539 Rain 17 1015 93 10000 2.1 250 18:19 12.12.2019
2540 Rain 17 1015 93 10000 2.6 260 17:57 12.12.2019
2541 Rain 17 1015 93 10000 2.6 270 17:38 12.12.2019
2542 Clouds 17 1015 59 10000 3.1 130 17:19 12.12.2019
2543 Clouds 17 1015 59 10000 3.1 130 16:55 12.12.2019
2544 Clouds 17 1016 63 10000 3.1 130 16:37 12.12.2019
2545 Clouds 17 1016 63 10000 3.1 130 16:18 12.12.2019
2546 Clouds 17 1016 100 10000 2.1 210 15:54 12.12.2019
2547 Clouds 17 1016 100 10000 2.1 210 15:36 12.12.2019
2548 Clouds 17 1016 100 10000 2.1 210 15:18 12.12.2019
2549 Clouds 17 1016 63 10000 4.1 120 14:38 12.12.2019
2550 Rain 17 1017 63 10000 3.6 150 14:19 12.12.2019
2551 Rain 17 1017 63 10000 3.6 150 13:57 12.12.2019
2552 Drizzle 18 1017 72 10000 6.7 190 13:38 12.12.2019
2553 Clouds 18 1017 72 10000 3.1 130 13:20 12.12.2019
2554 Clouds 18 1017 64 10000 5.1 150 12:57 12.12.2019
2555 Clouds 19 1016 72 10000 6.7 150 12:38 12.12.2019
2556 Clouds 19 1016 72 10000 6.7 150 12:38 12.12.2019
2557 Clouds 19 1016 64 10000 4.1 140 12:19 12.12.2019
2558 Clouds 19 1016 64 10000 4.1 140 11:55 12.12.2019
2559 Clouds 19 1016 64 10000 4.1 140 11:55 12.12.2019
2560 Clouds 19 1016 64 10000 5.7 140 11:37 12.12.2019
2561 Clouds 19 1015 64 10000 5.1 130 11:19 12.12.2019
2562 Clouds 19 1015 64 10000 5.1 130 10:54 12.12.2019
2563 Clouds 19 1015 64 10000 5.1 140 10:36 12.12.2019
2564 Clouds 19 1015 64 10000 4.6 130 10:18 12.12.2019
2565 Clouds 19 1015 64 10000 4.6 130 10:18 12.12.2019
2566 Clouds 19 1014 64 10000 5.1 140 09:41 12.12.2019
2567 Clouds 19 1014 64 10000 5.1 140 09:23 12.12.2019
2568 Clouds 20 1013 64 10000 6.2 130 08:56 12.12.2019
2569 Clouds 20 1013 64 10000 6.2 130 08:38 12.12.2019
2570 Clouds 20 1013 64 10000 6.2 130 08:20 12.12.2019
2571 Clouds 20 1012 60 10000 7.2 130 07:43 12.12.2019
2572 Clouds 20 1012 60 10000 7.2 130 07:24 12.12.2019
2573 Clouds 21 1012 64 10000 7.2 140 06:50 12.12.2019
2574 Clouds 21 1012 64 10000 7.2 140 06:32 12.12.2019
2575 Clouds 21 1013 64 10000 6.7 130 05:39 12.12.2019
2576 Clouds 22 1013 60 10000 7.2 130 04:52 12.12.2019
2577 Clouds 22 1013 60 10000 7.2 130 04:52 12.12.2019
2578 Clouds 23 1013 60 10000 7.7 120 03:31 12.12.2019
2579 Clouds 22 1014 68 10000 6.7 170 02:38 12.12.2019
2580 Clouds 22 1014 68 10000 6.7 170 02:20 12.12.2019
2581 Smoke 22 1014 68 10000 7.2 160 01:40 12.12.2019
2582 Smoke 22 1014 68 10000 7.2 160 01:22 12.12.2019
2583 Clouds 21 1014 68 10000 5.1 180 00:46 12.12.2019
2584 Clouds 21 1014 68 10000 5.1 180 00:20 12.12.2019
2585 Clouds 20 1014 77 10000 5.7 190 23:44 11.12.2019
2586 Clouds 20 1014 77 10000 5.7 190 23:21 11.12.2019
2587 Clouds 19 1014 77 10000 5.7 190 22:57 11.12.2019
2588 Clouds 19 1014 77 10000 5.1 190 22:39 11.12.2019
2589 Clouds 19 1014 77 10000 5.7 200 22:20 11.12.2019
2590 Clouds 19 1014 77 10000 5.7 200 21:57 11.12.2019
2591 Clouds 18 1014 82 10000 5.1 190 21:39 11.12.2019
2592 Clouds 18 1014 82 10000 6.2 190 21:20 11.12.2019
2593 Clouds 18 1014 82 10000 6.2 190 20:56 11.12.2019
2594 Clouds 18 1014 77 10000 7.2 190 20:38 11.12.2019
2595 Clouds 18 1014 77 10000 7.2 190 20:19 11.12.2019
2596 Clouds 18 1013 72 10000 7.7 170 19:58 11.12.2019
2597 Clouds 18 1013 72 10000 7.7 170 19:39 11.12.2019
2598 Clouds 18 1013 72 10000 7.7 180 19:19 11.12.2019
2599 Clouds 18 1013 72 10000 7.7 180 18:55 11.12.2019
2600 Clouds 18 1013 82 10000 3.1 220 18:36 11.12.2019
2601 Clouds 18 1013 82 10000 3.1 220 18:18 11.12.2019
2602 Clouds 18 1013 82 10000 2.1 230 17:54 11.12.2019
2603 Clouds 18 1013 82 10000 2.6 230 17:36 11.12.2019
2604 Clouds 18 1013 72 10000 5.1 200 17:18 11.12.2019
2605 Clouds 18 1013 72 10000 5.1 200 16:55 11.12.2019
2606 Clouds 18 1014 82 10000 3.1 240 16:36 11.12.2019
2607 Clouds 18 1014 72 10000 7.7 190 16:18 11.12.2019
2608 Clouds 18 1014 72 10000 6.7 190 15:41 11.12.2019
2609 Clouds 18 1014 72 10000 6.7 190 15:23 11.12.2019
2610 Clouds 18 1014 72 10000 6.2 190 14:57 11.12.2019
2611 Clouds 18 1014 72 10000 7.2 190 14:39 11.12.2019
2612 Clouds 18 1014 72 10000 7.2 190 14:20 11.12.2019
2613 Clouds 18 1015 72 10000 6.7 190 13:58 11.12.2019
2614 Clouds 19 1015 72 10000 3.6 180 13:39 11.12.2019
2615 Clouds 19 1015 72 10000 3.6 180 13:20 11.12.2019
2616 Clouds 19 1015 68 10000 4.6 170 12:57 11.12.2019
2617 Clouds 19 1015 72 10000 6.2 170 12:38 11.12.2019
2618 Clouds 19 1015 68 10000 5.1 160 12:20 11.12.2019
2619 Clouds 19 1015 68 10000 5.1 160 11:57 11.12.2019
2620 Clouds 19 1015 68 10000 5.1 160 11:38 11.12.2019
2621 Clouds 19 1015 68 10000 5.1 160 11:38 11.12.2019
2622 Clouds 19 1015 72 10000 4.6 150 11:18 11.12.2019
2623 Clouds 19 1015 72 10000 4.6 150 11:18 11.12.2019
2624 Clouds 19 1015 72 10000 4.6 150 11:18 11.12.2019
2625 Clouds 19 1015 72 10000 4.6 150 11:18 11.12.2019
2626 Clouds 19 1015 72 10000 4.6 150 10:55 11.12.2019
2627 Clouds 19 1014 68 10000 5.1 150 10:37 11.12.2019
2628 Clouds 19 1014 68 10000 6.2 150 10:19 11.12.2019
2629 Clouds 20 1013 68 10000 7.2 150 09:40 11.12.2019
2630 Clouds 20 1013 68 10000 7.2 150 09:21 11.12.2019
2631 Clouds 20 1012 72 10000 7.7 160 08:58 11.12.2019
2632 Clouds 20 1012 68 10000 7.7 150 08:38 11.12.2019
2633 Clouds 20 1012 68 10000 7.7 150 08:19 11.12.2019
2634 Clouds 20 1012 72 10000 7.7 150 07:56 11.12.2019
2635 Clouds 21 1012 64 10000 7.2 150 07:38 11.12.2019
2636 Clouds 21 1012 64 10000 7.7 150 07:19 11.12.2019
2637 Rain 22 1012 64 10000 7.7 150 06:44 11.12.2019
2638 Rain 22 1012 64 10000 7.7 150 06:22 11.12.2019
2639 Rain 23 1013 68 10000 8.2 170 05:45 11.12.2019
2640 Rain 23 1013 68 10000 8.2 170 05:21 11.12.2019
2641 Rain 24 1013 68 10000 8.2 170 04:38 11.12.2019
2642 Clouds 22 1014 72 10000 8.7 180 02:49 11.12.2019
2643 Clouds 21 1015 72 10000 7.7 190 01:26 11.12.2019
2644 Clouds 20 1015 77 10000 7.2 190 00:49 11.12.2019
2645 Clouds 20 1016 77 10000 7.7 190 00:25 11.12.2019
2646 Clouds 19 1016 77 10000 6.7 190 23:59 10.12.2019
2647 Clouds 19 1016 77 10000 7.2 190 23:40 10.12.2019
2648 Clouds 19 1016 77 10000 7.2 180 23:21 10.12.2019
2649 Clouds 18 1016 77 10000 7.2 210 22:41 10.12.2019
2650 Clouds 18 1016 77 10000 6.7 210 22:22 10.12.2019
2651 Clouds 18 1016 77 10000 6.7 210 21:58 10.12.2019
2652 Clouds 18 1016 77 10000 6.2 210 21:39 10.12.2019
2653 Clouds 18 1016 77 10000 6.2 210 21:21 10.12.2019
2654 Clouds 18 1016 77 10000 7.2 220 20:58 10.12.2019
2655 Clouds 18 1015 77 10000 7.2 210 20:38 10.12.2019
2656 Clouds 18 1015 77 10000 8.2 210 20:19 10.12.2019
2657 Clouds 18 1015 77 10000 7.2 210 20:19 10.12.2019
2658 Clouds 18 1015 77 10000 8.2 210 20:19 10.12.2019
2659 Clouds 18 1015 77 10000 8.2 210 19:58 10.12.2019
2660 Clouds 18 1015 77 10000 7.7 210 19:40 10.12.2019
2661 Clouds 18 1015 77 10000 7.7 210 19:22 10.12.2019
2662 Clouds 18 1015 77 10000 8.2 210 18:56 10.12.2019
2663 Clouds 18 1015 77 10000 8.7 210 18:38 10.12.2019
2664 Clouds 18 1015 72 10000 8.2 210 18:18 10.12.2019
2665 Clouds 18 1015 72 10000 8.2 210 17:54 10.12.2019
2666 Clouds 18 1015 77 10000 7.7 210 17:36 10.12.2019
2667 Clouds 18 1015 77 10000 8.7 210 17:18 10.12.2019
2668 Clouds 18 1016 72 10000 8.7 210 16:41 10.12.2019
2669 Clouds 18 1016 72 10000 8.7 210 16:20 10.12.2019
2670 Clouds 18 1016 77 10000 9.8 200 15:40 10.12.2019
2671 Clouds 18 1016 77 10000 9.8 200 15:19 10.12.2019
2672 Clouds 18 1017 77 10000 10.8 200 14:59 10.12.2019
2673 Clouds 18 1017 77 10000 9.8 190 14:41 10.12.2019
2674 Clouds 18 1017 77 10000 10.8 190 14:23 10.12.2019
2675 Rain 18 1017 77 10000 10.8 190 13:59 10.12.2019
2676 Rain 18 1017 82 10000 10.3 190 13:40 10.12.2019
2677 Clouds 19 1017 77 10000 10.8 180 13:20 10.12.2019
2678 Clouds 19 1017 77 10000 10.8 180 12:57 10.12.2019
2679 Rain 19 1017 77 10000 11.8 190 12:38 10.12.2019
2680 Rain 19 1017 77 10000 11.8 190 12:20 10.12.2019
2681 Rain 19 1015 82 10000 13.4 180 11:41 10.12.2019
2682 Rain 19 1015 82 10000 13.4 180 11:23 10.12.2019
2683 Clouds 20 1015 82 9000 11.8 180 10:55 10.12.2019
2684 Clouds 20 1014 88 8000 11.8 180 10:37 10.12.2019
2685 Clouds 20 1013 88 8000 11.8 170 10:19 10.12.2019
2686 Clouds 20 1013 88 8000 11.8 170 09:54 10.12.2019
2687 Clouds 20 1013 88 8000 11.8 170 09:36 10.12.2019
2688 Clouds 21 1012 88 8000 12.9 170 09:18 10.12.2019
2689 Clouds 21 1012 88 7000 11.8 180 08:42 10.12.2019
2690 Clouds 22 1012 88 7000 11.8 180 08:23 10.12.2019
2691 Clouds 22 1011 88 7000 12.3 170 07:58 10.12.2019
2692 Haze 22 1011 88 5000 11.3 170 07:40 10.12.2019
2693 Haze 23 1011 88 5000 11.3 170 07:22 10.12.2019
2694 Clouds 23 1011 88 6000 10.8 170 06:46 10.12.2019
2695 Smoke 25 1010 88 5000 9.8 170 06:19 10.12.2019
2696 Smoke 27 1010 88 5000 9.8 170 05:53 10.12.2019
2697 Smoke 30 1011 88 5000 10.8 170 04:52 10.12.2019
2698 Smoke 35 1010 57 500 8.7 170 03:37 10.12.2019
2699 Smoke 37 1010 36 500 1.5 140 02:45 10.12.2019
2700 Smoke 32 1010 43 500 1.5 350 01:44 10.12.2019
2701 Smoke 31 1011 48 500 0.5 10 01:20 10.12.2019
2702 Smoke 28 1012 57 3000 3.1 360 00:41 10.12.2019
2703 Smoke 26 1012 65 5000 3.1 350 00:21 10.12.2019
2704 Clear 24 1012 69 9000 2.1 290 23:41 09.12.2019
2705 Clear 23 1012 73 8000 2.6 300 23:23 09.12.2019
2706 Clear 22 1012 73 8000 2.6 300 22:58 09.12.2019
2707 Clear 22 1012 78 8000 2.6 300 22:40 09.12.2019
2708 Clear 21 1013 78 8000 3.1 310 22:20 09.12.2019
2709 Clear 20 1013 78 8000 3.1 310 21:57 09.12.2019
2710 Smoke 19 1012 78 8000 4.1 340 21:38 09.12.2019
2711 Clouds 19 1013 100 9000 1.62 308 21:19 09.12.2019
2712 Clear 18 1013 91 0 1.62 308 20:57 09.12.2019
2713 Clear 18 1005 84 0 0.45 302 20:39 09.12.2019
2714 Clear 17 1013 93 3700 1.58 294 20:20 09.12.2019
2715 Clear 17 1013 93 10000 1.39 292 19:56 09.12.2019
2716 Clear 17 1013 100 250 1.39 292 19:37 09.12.2019
2717 Clear 17 1013 100 250 1.39 292 19:19 09.12.2019
2718 Clear 18 1013 88 10000 1.39 292 18:56 09.12.2019
2719 Clear 18 1013 88 10000 1.39 292 18:38 09.12.2019
2720 Clear 18 1013 93 10000 1.39 292 18:19 09.12.2019
2721 Clear 18 1013 93 10000 1.39 292 17:58 09.12.2019
2722 Clouds 18 1013 100 10000 1.39 292 17:39 09.12.2019
2723 Clear 18 1014 93 9000 0.82 271 17:20 09.12.2019
2724 Clear 18 1014 93 9000 0.82 271 16:56 09.12.2019
2725 Clouds 18 1014 93 3900 0.82 271 16:38 09.12.2019
2726 Clouds 19 1014 93 3900 0.82 271 16:20 09.12.2019
2727 Clouds 19 1014 93 10000 0.82 271 15:55 09.12.2019
2728 Clouds 19 1015 93 10000 0.82 271 15:37 09.12.2019
2729 Clouds 19 1015 93 10000 0.82 271 15:19 09.12.2019
2730 Clouds 19 1015 93 10000 0.82 271 14:57 09.12.2019
2731 Clouds 19 1015 88 10000 0.82 271 14:39 09.12.2019
2732 Clouds 20 1015 83 10000 6.2 20 14:18 09.12.2019
2733 Clouds 20 1015 83 10000 6.2 20 13:55 09.12.2019
2734 Clouds 20 1016 83 10000 7.2 20 13:36 09.12.2019
2735 Clouds 21 1016 83 10000 7.2 20 13:18 09.12.2019
2736 Clouds 21 1016 83 10000 7.7 30 12:54 09.12.2019
2737 Clouds 21 1016 78 10000 2.1 140 12:36 09.12.2019
2738 Clouds 21 1016 78 10000 2.1 140 12:18 09.12.2019
2739 Clouds 21 1016 73 10000 9.3 30 11:40 09.12.2019
2740 Clouds 22 1016 73 10000 9.3 30 11:21 09.12.2019
2741 Clouds 22 1016 78 10000 9.3 30 10:59 09.12.2019
2742 Smoke 22 1016 73 10000 7.7 30 10:39 09.12.2019
2743 Smoke 22 1016 73 10000 7.7 30 10:19 09.12.2019
2744 Clouds 22 1015 73 10000 9.8 30 09:45 09.12.2019
2745 Clouds 23 1015 73 10000 9.8 30 09:25 09.12.2019
2746 Clouds 23 1015 73 10000 12.3 30 08:57 09.12.2019
2747 Clouds 23 1015 69 10000 11.8 30 08:39 09.12.2019
2748 Clouds 23 1015 69 10000 11.8 30 08:21 09.12.2019
2749 Clouds 24 1015 73 10000 11.8 30 07:52 09.12.2019
2750 Clouds 24 1015 64 10000 9.8 30 07:33 09.12.2019
2751 Clouds 24 1015 64 10000 9.8 30 07:33 09.12.2019
2752 Clouds 25 1016 69 10000 10.8 50 06:58 09.12.2019
2753 Clouds 25 1016 65 10000 10.3 50 06:31 09.12.2019
2754 Clouds 26 1017 61 10000 10.8 40 05:48 09.12.2019
2755 Clouds 26 1017 61 10000 10.8 40 05:24 09.12.2019
2756 Clouds 27 1018 57 10000 11.3 50 04:28 09.12.2019
2757 Clouds 26 1020 61 10000 9.8 30 02:35 09.12.2019
2758 Smoke 25 1020 61 10000 10.3 40 01:47 09.12.2019
2759 Clouds 25 1020 61 10000 9.3 30 01:23 09.12.2019
2760 Clouds 24 1021 69 10000 9.8 30 00:34 09.12.2019
2761 Clouds 23 1021 64 10000 9.3 30 23:58 08.12.2019
2762 Clouds 23 1021 69 10000 8.2 30 23:37 08.12.2019
2763 Clouds 22 1021 69 10000 8.7 30 23:19 08.12.2019
2764 Clouds 22 1021 73 10000 2.78 3 22:56 08.12.2019
2765 Clouds 22 1021 73 10000 7.2 30 22:38 08.12.2019
2766 Clouds 22 1021 73 10000 7.2 30 22:18 08.12.2019
2767 Clouds 21 1021 77 10000 1.5 220 21:57 08.12.2019
2768 Clouds 21 1021 78 10000 5.7 30 21:38 08.12.2019
2769 Clouds 21 1021 78 10000 5.7 30 21:19 08.12.2019
2770 Clouds 21 1021 78 10000 4.1 40 20:56 08.12.2019
2771 Clouds 20 1021 73 10000 4.6 40 20:38 08.12.2019
2772 Clouds 20 1021 82 10000 1.72 9 20:19 08.12.2019
2773 Clouds 20 1021 82 10000 1.72 9 19:56 08.12.2019
2774 Clouds 20 1020 82 10000 1.72 9 19:38 08.12.2019
2775 Clouds 20 1020 82 10000 1.72 9 19:20 08.12.2019
2776 Clouds 20 1020 77 10000 3.6 40 18:55 08.12.2019
2777 Clouds 20 1020 77 10000 3.1 40 18:36 08.12.2019
2778 Clouds 20 1020 77 10000 3.1 40 18:18 08.12.2019
2779 Clouds 20 1020 77 10000 2.6 40 17:56 08.12.2019
2780 Clouds 20 1021 77 10000 2.6 40 17:37 08.12.2019
2781 Clouds 20 1021 77 10000 2.6 40 17:19 08.12.2019
2782 Clouds 20 1021 77 10000 2.1 30 16:55 08.12.2019
2783 Clouds 20 1021 77 10000 3.1 40 16:37 08.12.2019
2784 Clouds 20 1021 77 10000 3.6 50 16:18 08.12.2019
2785 Clouds 20 1021 73 10000 2.6 130 15:38 08.12.2019
2786 Clouds 20 1022 73 10000 4.6 50 15:19 08.12.2019
2787 Clouds 20 1022 73 10000 4.6 50 14:59 08.12.2019
2788 Clouds 20 1022 68 10000 4.6 50 14:39 08.12.2019
2789 Clouds 20 1022 68 10000 4.6 50 14:21 08.12.2019
2790 Clouds 20 1022 68 10000 4.6 40 13:57 08.12.2019
2791 Clouds 20 1022 68 10000 4.6 40 13:38 08.12.2019
2792 Clouds 20 1022 68 10000 4.6 40 13:20 08.12.2019
2793 Clouds 20 1022 68 10000 4.6 50 12:54 08.12.2019
2794 Clouds 20 1022 68 10000 5.1 50 12:36 08.12.2019
2795 Clouds 20 1022 68 10000 5.1 50 12:18 08.12.2019
2796 Clouds 20 1021 64 10000 5.1 40 11:39 08.12.2019
2797 Clouds 21 1021 64 10000 5.7 50 11:21 08.12.2019
2798 Clouds 21 1021 64 10000 5.7 50 10:59 08.12.2019
2799 Clouds 21 1020 68 10000 6.2 50 10:39 08.12.2019
2800 Clouds 21 1020 68 10000 6.2 50 10:20 08.12.2019
2801 Clouds 21 1020 68 10000 4.1 80 09:57 08.12.2019
2802 Clouds 21 1020 68 10000 7.7 50 09:39 08.12.2019
2803 Clouds 21 1020 68 10000 7.7 50 09:20 08.12.2019
2804 Clouds 21 1019 64 10000 8.2 50 09:20 08.12.2019
2805 Clouds 22 1019 64 10000 8.2 50 08:58 08.12.2019
2806 Clouds 22 1019 60 10000 8.2 60 08:39 08.12.2019
2807 Clouds 22 1019 60 10000 8.2 60 08:21 08.12.2019
2808 Clouds 22 1019 60 10000 8.2 70 07:44 08.12.2019
2809 Clouds 23 1019 56 10000 8.7 70 07:20 08.12.2019
2810 Clouds 23 1019 60 10000 8.7 90 06:51 08.12.2019
2811 Clouds 24 1019 60 10000 8.7 90 06:23 08.12.2019
2812 Clouds 24 1019 53 10000 7.7 80 05:51 08.12.2019
2813 Clouds 25 1019 53 10000 8.7 90 05:18 08.12.2019
2814 Clouds 25 1019 50 10000 9.3 60 03:54 08.12.2019
2815 Clouds 25 1019 50 10000 9.3 60 03:36 08.12.2019
2816 Clouds 25 1019 56 10000 7.7 60 02:40 08.12.2019
2817 Clouds 24 1019 53 10000 8.7 70 01:56 08.12.2019
2818 Clouds 23 1019 53 10000 7.2 70 01:33 08.12.2019
2819 Clouds 23 1019 53 10000 6.7 60 00:43 08.12.2019
2820 Clouds 23 1019 53 10000 6.7 60 00:21 08.12.2019
2821 Clouds 22 1019 60 10000 7.7 70 23:55 07.12.2019
2822 Clouds 22 1019 56 10000 5.7 50 23:36 07.12.2019
2823 Clouds 22 1019 56 10000 5.1 70 23:18 07.12.2019
2824 Clouds 21 1019 56 10000 5.1 70 22:54 07.12.2019
2825 Clouds 21 1019 56 10000 5.1 50 22:36 07.12.2019
2826 Clouds 21 1019 56 10000 5.1 50 22:36 07.12.2019
2827 Clouds 20 1019 56 10000 4.1 90 22:18 07.12.2019
2828 Clouds 20 1019 56 10000 4.1 90 21:54 07.12.2019
2829 Clouds 20 1018 56 10000 4.1 60 21:36 07.12.2019
2830 Clouds 19 1018 60 10000 3.1 80 21:18 07.12.2019
2831 Clouds 18 1017 60 10000 3.6 90 20:37 07.12.2019
2832 Clouds 18 1017 60 10000 3.6 90 20:19 07.12.2019
2833 Clouds 18 1017 59 10000 3.6 80 19:57 07.12.2019
2834 Clouds 18 1017 60 10000 3.6 80 19:39 07.12.2019
2835 Clouds 18 1017 60 10000 3.6 80 19:21 07.12.2019
2836 Clouds 19 1017 60 10000 3.6 90 18:57 07.12.2019
2837 Clouds 19 1017 68 10000 3.6 100 18:38 07.12.2019
2838 Clouds 19 1017 68 10000 3.6 100 18:18 07.12.2019
2839 Clouds 19 1016 68 10000 3.1 100 17:55 07.12.2019
2840 Clouds 19 1016 68 10000 4.1 90 17:37 07.12.2019
2841 Clouds 19 1016 68 10000 4.1 90 17:18 07.12.2019
2842 Clouds 19 1017 72 10000 4.6 100 16:55 07.12.2019
2843 Clouds 19 1017 72 10000 4.6 100 16:36 07.12.2019
2844 Clouds 19 1017 72 10000 5.7 100 16:18 07.12.2019
2845 Clouds 19 1017 77 10000 6.2 110 15:40 07.12.2019
2846 Clouds 19 1017 77 10000 6.2 110 15:22 07.12.2019
2847 Clouds 19 1017 77 10000 7.2 100 14:43 07.12.2019
2848 Clouds 20 1017 77 10000 8.2 120 14:20 07.12.2019
2849 Clouds 20 1017 77 10000 8.2 120 13:59 07.12.2019
2850 Clouds 20 1017 77 10000 7.7 120 13:39 07.12.2019
2851 Clouds 20 1016 77 10000 7.7 130 13:19 07.12.2019
2852 Clouds 20 1016 77 10000 7.7 130 12:55 07.12.2019
2853 Clouds 20 1016 77 10000 7.7 130 12:36 07.12.2019
2854 Clouds 20 1016 77 10000 7.7 130 12:18 07.12.2019
2855 Clouds 21 1015 77 10000 6.2 150 11:41 07.12.2019
2856 Clouds 21 1015 77 10000 6.2 150 11:23 07.12.2019
2857 Clouds 21 1014 83 10000 5.1 140 10:58 07.12.2019
2858 Clouds 21 1013 73 10000 3.6 140 10:36 07.12.2019
2859 Clouds 21 1013 68 10000 4.1 130 10:18 07.12.2019
2860 Clouds 22 1012 64 10000 4.6 100 09:40 07.12.2019
2861 Clouds 22 1012 64 10000 4.6 100 09:21 07.12.2019
2862 Clouds 23 1011 60 10000 6.2 80 08:46 07.12.2019
2863 Clouds 23 1011 60 10000 6.2 80 08:25 07.12.2019
2864 Smoke 24 1010 53 10000 7.2 80 07:53 07.12.2019
2865 Smoke 24 1010 53 10000 7.2 80 07:30 07.12.2019
2866 Smoke 24 1010 53 10000 7.2 80 06:53 07.12.2019
2867 Smoke 25 1010 53 10000 7.2 80 06:28 07.12.2019
2868 Smoke 25 1010 53 10000 7.2 80 05:50 07.12.2019
2869 Clouds 26 1010 50 10000 7.7 80 04:49 07.12.2019
2870 Smoke 27 1011 47 10000 7.2 60 03:53 07.12.2019
2871 Smoke 26 1011 47 9000 6.7 60 02:50 07.12.2019
2872 Clouds 27 1011 47 9000 6.7 90 02:19 07.12.2019
2873 Smoke 26 1012 53 9000 6.7 40 01:31 07.12.2019
2874 Smoke 25 1012 60 8000 4.1 60 00:43 07.12.2019
2875 Smoke 24 1012 60 8000 4.1 60 00:19 07.12.2019
2876 Clouds 23 1013 60 8000 2.1 290 23:47 06.12.2019
2877 Clouds 23 1012 60 8000 2.1 140 23:47 06.12.2019
2878 Clouds 22 1013 60 8000 2.1 290 23:24 06.12.2019
2879 Clouds 22 1013 64 9000 2.6 310 22:58 06.12.2019
2880 Clouds 20 1013 73 10000 2.41 305 22:37 06.12.2019
2881 Clouds 20 1012 73 10000 2.41 305 22:19 06.12.2019
2882 Clouds 19 1012 73 10000 2.41 305 21:56 06.12.2019
2883 Clouds 19 1012 73 10000 2.41 305 21:56 06.12.2019
2884 Clouds 19 1012 77 10000 2.41 305 21:38 06.12.2019
2885 Clouds 18 1012 77 10000 2.41 305 21:19 06.12.2019
2886 Clouds 18 1012 77 10000 2.41 305 21:19 06.12.2019
2887 Clouds 17 1012 82 10000 2.41 305 20:42 06.12.2019
2888 Clouds 17 1012 82 10000 2.41 305 20:42 06.12.2019
2889 Clouds 16 1012 82 10000 1.5 266 20:22 06.12.2019
2890 Clouds 16 1011 82 10000 1.5 266 19:58 06.12.2019
2891 Clouds 16 1011 82 10000 1.5 266 19:58 06.12.2019
2892 Clouds 16 1011 88 10000 1.5 266 19:39 06.12.2019
2893 Clouds 16 1011 88 10000 1.5 266 19:21 06.12.2019
2894 Clouds 17 1011 82 10000 1.5 60 18:55 06.12.2019
2895 Clouds 17 1011 88 10000 2.6 80 18:36 06.12.2019
2896 Clouds 17 1011 82 10000 3.6 90 18:18 06.12.2019
2897 Clouds 18 1011 82 10000 3.6 90 17:55 06.12.2019
2898 Clouds 18 1011 82 10000 3.1 110 17:37 06.12.2019
2899 Clouds 18 1011 82 10000 3.6 110 17:19 06.12.2019
2900 Clouds 18 1011 82 10000 3.6 120 16:42 06.12.2019
2901 Clouds 18 1011 82 10000 3.6 120 16:23 06.12.2019
2902 Clouds 19 1011 82 10000 4.6 120 15:56 06.12.2019
2903 Clouds 19 1011 88 10000 4.6 120 15:38 06.12.2019
2904 Clouds 19 1012 82 10000 4.1 150 15:18 06.12.2019
2905 Clouds 19 1012 82 10000 4.1 150 14:55 06.12.2019
2906 Clouds 19 1011 82 10000 4.1 150 14:37 06.12.2019
2907 Clouds 19 1011 82 10000 5.1 140 14:18 06.12.2019
2908 Clouds 19 1011 82 10000 6.2 140 13:42 06.12.2019
2909 Clouds 19 1011 82 10000 6.2 140 13:23 06.12.2019
2910 Clouds 19 1010 82 10000 7.7 140 12:42 06.12.2019
2911 Clouds 20 1010 82 10000 7.7 140 12:22 06.12.2019
2912 Smoke 20 1010 82 10000 7.7 160 11:57 06.12.2019
2913 Smoke 20 1009 88 10000 7.7 160 11:39 06.12.2019
2914 Smoke 20 1009 83 10000 7.7 160 11:19 06.12.2019
2915 Smoke 21 1008 83 9000 7.7 160 10:43 06.12.2019
2916 Clouds 21 1007 88 8000 9.3 170 10:21 06.12.2019
2917 Clouds 25 1007 88 8000 9.3 170 09:57 06.12.2019
2918 Clouds 27 1006 88 8000 8.7 170 09:37 06.12.2019
2919 Clouds 27 1006 88 8000 8.7 170 09:37 06.12.2019
2920 Clouds 27 1006 88 8000 8.7 170 09:19 06.12.2019
2921 Smoke 29 1003 73 8000 7.7 160 08:45 06.12.2019
2922 Smoke 25 1003 73 8000 7.7 160 08:26 06.12.2019
2923 Smoke 27 1003 57 7000 7.7 160 07:56 06.12.2019
2924 Smoke 27 1003 45 8000 5.1 160 07:36 06.12.2019
2925 Smoke 28 1003 45 8000 5.1 160 07:18 06.12.2019
2926 Smoke 31 1003 44 8000 5.1 120 06:29 06.12.2019
2927 Smoke 32 1003 54 9000 5.1 160 05:53 06.12.2019
2928 Smoke 32 1003 54 9000 5.1 160 05:33 06.12.2019
2929 Clouds 29 1005 18 10000 6.7 290 02:19 06.12.2019
2930 Clouds 29 1005 16 10000 8.7 280 01:30 06.12.2019
2931 Smoke 27 1006 53 10000 4.1 40 00:41 06.12.2019
2932 Smoke 27 1006 53 10000 4.1 40 00:20 06.12.2019
2933 Smoke 24 1006 57 10000 1.5 0 23:47 05.12.2019
2934 Smoke 22 1007 64 10000 1.5 0 23:19 05.12.2019
2935 Smoke 22 1007 64 10000 1.5 0 22:57 05.12.2019
2936 Smoke 21 1007 68 10000 1.5 0 22:38 05.12.2019
2937 Smoke 21 1007 68 10000 1.5 0 22:18 05.12.2019
2938 Smoke 21 1007 73 10000 2.6 0 21:55 05.12.2019
2939 Smoke 19 1007 82 10000 2.6 0 21:36 05.12.2019
2940 Smoke 17 1007 82 10000 2.6 0 21:18 05.12.2019
2941 Clouds 16 1007 88 10000 1.03 4 20:40 05.12.2019
2942 Clouds 16 1007 88 10000 1.03 4 20:40 05.12.2019
2943 Clouds 17 1007 88 10000 1.24 181 20:21 05.12.2019
2944 Clouds 17 1006 88 10000 2.6 160 19:58 05.12.2019
2945 Clouds 17 1006 88 10000 3.6 160 19:40 05.12.2019
2946 Clouds 17 1006 88 10000 3.6 160 19:21 05.12.2019
2947 Clouds 17 1006 88 10000 3.6 160 18:57 05.12.2019
2948 Clouds 17 1006 88 10000 4.1 160 18:38 05.12.2019
2949 Clouds 18 1006 88 10000 4.1 160 18:20 05.12.2019
2950 Clouds 18 1006 82 10000 6.2 160 17:40 05.12.2019
2951 Clouds 18 1006 82 10000 7.7 170 17:20 05.12.2019
2952 Clouds 18 1006 82 10000 7.7 170 16:58 05.12.2019
2953 Clouds 18 1006 82 10000 6.7 170 16:39 05.12.2019
2954 Clouds 18 1006 82 10000 6.7 170 16:21 05.12.2019
2955 Clouds 19 1007 88 9000 7.2 170 15:58 05.12.2019
2956 Clouds 19 1007 88 9000 8.2 170 15:38 05.12.2019
2957 Clouds 19 1007 88 9000 8.2 170 15:20 05.12.2019
2958 Clouds 19 1007 88 8000 7.7 170 14:56 05.12.2019
2959 Clouds 19 1007 88 9000 8.7 180 14:37 05.12.2019
2960 Clouds 20 1007 88 9000 8.7 180 14:19 05.12.2019
2961 Clouds 20 1007 88 8000 9.3 180 14:19 05.12.2019
2962 Clouds 20 1007 88 8000 9.3 180 13:56 05.12.2019
2963 Clouds 20 1007 88 8000 9.3 180 13:38 05.12.2019
2964 Clouds 23 1006 83 9000 9.8 170 13:19 05.12.2019
2965 Clouds 23 1006 83 9000 9.8 170 12:57 05.12.2019
2966 Clouds 27 1006 26 10000 8.7 180 12:38 05.12.2019
2967 Clouds 27 1006 26 10000 8.7 180 12:20 05.12.2019
2968 Smoke 29 1005 15 10000 7.7 180 12:20 05.12.2019
2969 Smoke 28 1005 14 10000 7.7 180 11:39 05.12.2019
2970 Smoke 28 1005 14 10000 7.7 180 11:21 05.12.2019
2971 Smoke 30 1004 14 10000 7.7 180 10:58 05.12.2019
2972 Smoke 31 1004 14 10000 7.7 180 10:40 05.12.2019
2973 Smoke 31 1004 14 10000 7.7 180 10:19 05.12.2019
2974 Clear 32 1004 12 10000 2.6 310 09:55 05.12.2019
2975 Clear 31 1003 26 6000 3.71 271 09:37 05.12.2019
2976 Clear 31 1003 26 6000 3.71 271 09:18 05.12.2019
2977 Smoke 30 1003 41 4000 0.5 70 08:54 05.12.2019
2978 Smoke 32 1003 25 5000 3.44 270 08:36 05.12.2019
2979 Smoke 32 1003 25 5000 6.41 267 08:18 05.12.2019
2980 Smoke 33 1002 19 5000 2.6 100 07:40 05.12.2019
2981 Smoke 32 1002 19 5000 2.6 100 07:21 05.12.2019
2982 Smoke 32 1003 22 3500 3.1 110 06:47 05.12.2019
2983 Smoke 32 1003 13 3000 1 110 06:23 05.12.2019
2984 Smoke 32 1003 18 3000 2.6 110 05:53 05.12.2019
2985 Smoke 33 1003 11 3000 6.2 250 05:24 05.12.2019
2986 Smoke 34 1004 9 5000 7.2 270 04:37 05.12.2019
2987 Smoke 33 1005 11 8000 7.7 300 03:33 05.12.2019
2988 Clear 32 1006 14 8000 6.2 290 02:41 05.12.2019
2989 Clear 31 1006 14 8000 6.2 290 02:21 05.12.2019
2990 Smoke 31 1007 20 5000 4.6 310 01:50 05.12.2019
2991 Smoke 29 1007 20 5000 4.6 310 01:23 05.12.2019
2992 Clear 29 1008 21 6000 4.6 320 00:43 05.12.2019
2993 Clear 28 1008 21 6000 5.1 320 00:20 05.12.2019
2994 Smoke 27 1009 22 8000 6.7 300 23:46 04.12.2019
2995 Smoke 24 1009 26 10000 6.7 300 23:22 04.12.2019
2996 Clear 22 1009 33 10000 3.6 320 22:59 04.12.2019
2997 Clear 21 1009 43 10000 3.6 320 22:38 04.12.2019
2998 Clear 21 1009 43 10000 3.6 320 22:20 04.12.2019
2999 Clear 21 1009 56 10000 2.6 330 21:57 04.12.2019
3000 Clear 20 1009 72 10000 2.6 340 21:38 04.12.2019
3001 Smoke 17 1009 72 10000 4.1 290 21:19 04.12.2019
3002 Smoke 15 1009 72 10000 4.1 290 20:57 04.12.2019
3003 Clear 14 1009 88 10000 1.5 340 20:39 04.12.2019
3004 Clear 14 1009 88 10000 1.5 340 20:20 04.12.2019
3005 Clear 14 1009 88 10000 2.31 278 19:55 04.12.2019
3006 Clear 14 1009 88 10000 2.31 278 19:37 04.12.2019
3007 Clear 14 1009 88 10000 2.31 278 19:19 04.12.2019
3008 Smoke 15 1009 82 10000 4.1 290 18:42 04.12.2019
3009 Clear 15 1009 82 10000 2.31 278 18:24 04.12.2019
3010 Smoke 15 1009 82 10000 4.1 290 17:59 04.12.2019
3011 Clear 15 1009 82 10000 0.5 340 17:39 04.12.2019
3012 Clear 15 1009 82 10000 0.5 340 17:39 04.12.2019
3013 Clear 15 1009 82 10000 0.5 340 17:39 04.12.2019
3014 Clear 15 1009 82 10000 0.5 340 17:20 04.12.2019
3015 Smoke 15 1009 82 10000 4.1 290 16:56 04.12.2019
3016 Clear 15 1010 87 10000 1.87 254 16:38 04.12.2019
3017 Clear 16 1010 82 10000 1.87 254 16:19 04.12.2019
3018 Clear 16 1010 82 10000 1.87 254 16:19 04.12.2019
3019 Smoke 16 1010 82 10000 4.1 290 15:55 04.12.2019
3020 Clear 16 1010 88 10000 2.6 230 15:36 04.12.2019
3021 Clear 16 1010 88 10000 2.6 230 15:18 04.12.2019
3022 Clear 17 1010 77 10000 1.5 200 14:43 04.12.2019
3023 Smoke 17 1010 82 10000 2.6 0 14:23 04.12.2019
3024 Clouds 18 1010 82 10000 3.1 190 13:57 04.12.2019
3025 Clouds 18 1010 72 10000 2.6 220 13:38 04.12.2019
3026 Clouds 18 1010 82 10000 3.1 190 13:19 04.12.2019
3027 Clouds 19 1010 82 10000 2.6 170 12:44 04.12.2019
3028 Clouds 19 1010 82 10000 2.6 170 12:24 04.12.2019
3029 Clouds 20 1010 77 10000 3.1 120 11:55 04.12.2019
3030 Clouds 20 1009 77 10000 2.6 110 11:37 04.12.2019
3031 Clear 20 1009 77 10000 2.6 110 11:19 04.12.2019
3032 Clear 21 1009 68 10000 2.6 70 10:43 04.12.2019
3033 Clear 21 1008 68 10000 5.1 50 10:23 04.12.2019
3034 Clear 21 1008 68 10000 5.1 50 10:23 04.12.2019
3035 Clear 21 1008 68 10000 5.1 50 09:56 04.12.2019
3036 Clear 21 1008 68 10000 3.1 90 09:37 04.12.2019
3037 Smoke 23 1007 68 10000 4.1 100 09:19 04.12.2019
3038 Clear 26 1006 56 10000 5.1 120 08:40 04.12.2019
3039 Clear 27 1006 56 10000 5.1 120 08:21 04.12.2019
3040 Clear 28 1006 56 10000 6.2 120 07:48 04.12.2019
3041 Smoke 28 1006 56 10000 4.1 80 07:30 04.12.2019
3042 Smoke 29 1006 33 10000 4.1 80 06:43 04.12.2019
3043 Smoke 30 1006 33 10000 4.1 80 06:24 04.12.2019
3044 Clear 30 1005 34 9000 8.2 90 05:42 04.12.2019
3045 Smoke 31 1005 10 5000 6.2 120 04:30 04.12.2019
3046 Smoke 31 1006 13 5000 6.2 310 02:59 04.12.2019
3047 Smoke 28 1008 21 8000 5.7 290 00:53 04.12.2019
3048 Clear 27 1008 22 7000 5.1 280 00:28 04.12.2019
3049 Clear 26 1009 27 10000 3.1 260 23:59 03.12.2019
3050 Clear 25 1009 27 10000 1.5 290 23:41 03.12.2019
3051 Clear 25 1009 27 10000 1.5 290 23:19 03.12.2019
3052 Clear 23 1009 31 10000 2.6 320 22:54 03.12.2019
3053 Clear 22 1008 31 10000 3.1 320 22:36 03.12.2019
3054 Clear 21 1008 33 10000 3.6 330 22:18 03.12.2019
3055 Clear 21 1008 35 10000 3.1 320 21:39 03.12.2019
3056 Clear 21 1008 35 10000 3.1 320 21:39 03.12.2019
3057 Clear 21 1008 35 10000 3.1 320 21:19 03.12.2019
3058 Clear 19 1008 37 10000 3.6 320 20:58 03.12.2019
3059 Clear 17 1008 37 10000 4.1 320 20:40 03.12.2019
3060 Clear 15 1007 39 10000 4.1 330 20:19 03.12.2019
3061 Clear 15 1007 39 10000 4.1 330 19:56 03.12.2019
3062 Clear 16 1007 37 10000 4.6 350 19:37 03.12.2019
3063 Clear 16 1007 37 10000 4.6 350 19:19 03.12.2019
3064 Smoke 17 1007 37 10000 5.1 330 18:57 03.12.2019
3065 Smoke 17 1007 37 10000 5.1 330 18:57 03.12.2019
3066 Clear 18 1007 39 10000 4.1 330 18:39 03.12.2019
3067 Clear 18 1007 39 10000 4.1 330 18:21 03.12.2019
3068 Clear 18 1007 39 10000 4.1 330 18:21 03.12.2019
3069 Clear 18 1007 37 10000 7.7 280 17:57 03.12.2019
3070 Clear 18 1007 37 10000 3.1 250 17:38 03.12.2019
3071 Clear 17 1007 37 10000 4.1 280 17:18 03.12.2019
3072 Clear 17 1007 37 10000 4.1 280 16:57 03.12.2019
3073 Clear 18 1007 34 10000 6.7 270 16:38 03.12.2019
3074 Clear 19 1007 34 10000 6.7 270 16:20 03.12.2019
3075 Clear 19 1007 32 10000 8.2 270 15:56 03.12.2019
3076 Clear 19 1007 32 10000 8.2 270 15:56 03.12.2019
3077 Clear 19 1007 32 10000 8.2 270 15:38 03.12.2019
3078 Clear 19 1007 32 10000 8.2 270 15:18 03.12.2019
3079 Clear 21 1007 32 10000 5.7 260 14:42 03.12.2019
3080 Clear 20 1007 32 10000 5.7 260 14:20 03.12.2019
3081 Clear 21 1007 28 10000 5.1 270 13:56 03.12.2019
3082 Smoke 21 1007 28 10000 5.1 270 13:37 03.12.2019
3083 Smoke 22 1007 25 10000 5.1 270 13:19 03.12.2019
3084 Clear 23 1007 23 9000 5.7 250 12:41 03.12.2019
3085 Clear 23 1007 23 9000 5.7 250 12:19 03.12.2019
3086 Smoke 23 1006 45 9000 3.1 280 11:59 03.12.2019
3087 Smoke 23 1005 22 9000 5.1 270 11:39 03.12.2019
3088 Smoke 23 1005 22 9000 5.1 270 11:21 03.12.2019
3089 Clear 24 1005 28 7000 6.2 260 10:59 03.12.2019
3090 Smoke 24 1004 28 5000 5.7 240 10:41 03.12.2019
3091 Smoke 25 1004 28 5000 5.7 240 10:20 03.12.2019
3092 Clear 25 1003 23 6000 0.5 70 09:56 03.12.2019
3093 Smoke 26 1003 31 8000 2.6 40 09:38 03.12.2019
3094 Smoke 26 1003 31 8000 2.6 40 09:19 03.12.2019
3095 Clear 26 1002 36 9000 5.7 40 08:41 03.12.2019
3096 Clear 25 1002 36 9000 5.7 40 08:22 03.12.2019
3097 Smoke 26 1002 31 10000 6.2 30 07:57 03.12.2019
3098 Smoke 25 1001 27 10000 6.2 50 07:39 03.12.2019
3099 Smoke 25 1001 27 10000 6.2 50 07:20 03.12.2019
3100 Smoke 25 1002 26 10000 7.7 50 06:23 03.12.2019
3101 Smoke 25 1002 27 10000 7.7 50 05:58 03.12.2019
3102 Clear 29 1003 19 6000 3.6 270 04:49 03.12.2019
3103 Clear 29 1003 19 6000 5.1 270 03:39 03.12.2019
3104 Clear 28 1003 19 6000 5.1 270 03:19 03.12.2019
3105 Clear 28 1003 19 6000 5.1 270 03:19 03.12.2019
3106 Clear 27 1004 19 6000 5.1 250 02:47 03.12.2019
3107 Clear 25 1004 22 6000 5.7 280 02:26 03.12.2019
3108 Clear 24 1005 22 6000 6.7 290 01:42 03.12.2019
3109 Clear 24 1005 22 6000 6.7 290 01:24 03.12.2019
3110 Clear 22 1005 24 6000 6.7 300 00:56 03.12.2019
3111 Clear 22 1005 26 8000 8.2 270 00:37 03.12.2019
3112 Clear 22 1005 26 8000 8.2 270 00:19 03.12.2019
3113 Clear 21 1005 30 10000 4.6 290 23:43 02.12.2019
3114 Clear 19 1005 32 10000 5.1 290 23:20 02.12.2019
3115 Clear 19 1005 30 10000 4.6 290 23:20 02.12.2019
3116 Clear 18 1005 32 10000 3.1 310 22:42 02.12.2019
3117 Clear 18 1005 32 10000 3.1 310 22:23 02.12.2019
3118 Clear 18 1005 34 10000 3.6 320 21:59 02.12.2019
3119 Clear 16 1004 39 10000 3.6 320 21:37 02.12.2019
3120 Clear 16 1004 39 10000 3.6 320 21:19 02.12.2019
3121 Clear 14 1004 41 10000 2.6 320 20:56 02.12.2019
3122 Clear 14 1004 41 10000 2.6 350 20:38 02.12.2019
3123 Clear 13 1004 50 10000 2.1 360 20:20 02.12.2019
3124 Clear 12 1004 50 10000 2.1 360 19:56 02.12.2019
3125 Clear 12 1004 50 10000 2.1 350 19:38 02.12.2019
3126 Clear 13 1004 50 10000 2.1 350 19:19 02.12.2019
3127 Clouds 13 1003 38 10000 3.1 360 18:46 02.12.2019
3128 Clouds 13 1003 38 10000 3.1 360 18:21 02.12.2019
3129 Clear 13 1003 41 10000 2.6 340 17:59 02.12.2019
3130 Clouds 14 1003 36 10000 4.1 350 17:40 02.12.2019
3131 Clouds 14 1003 40 10000 3.1 350 17:20 02.12.2019
3132 Clouds 14 1003 40 10000 3.1 350 16:57 02.12.2019
3133 Clouds 14 1003 40 10000 4.1 310 16:38 02.12.2019
3134 Clouds 14 1003 40 10000 4.1 310 16:18 02.12.2019
3135 -273 0 0 0 0 0 15:56 02.12.2019
3136 Clear 14 1003 40 10000 4.1 340 15:38 02.12.2019
3137 Clear 15 1003 40 10000 4.1 340 15:19 02.12.2019
3138 Clear 15 1003 40 10000 3.1 310 14:40 02.12.2019
3139 Clouds 15 1003 41 10000 3.1 310 14:20 02.12.2019
3140 Clouds 15 1003 41 10000 4.6 280 13:59 02.12.2019
3141 Clouds 16 1003 41 10000 7.2 270 13:41 02.12.2019
3142 Clouds 16 1003 41 10000 7.2 270 13:20 02.12.2019
3143 Clear 16 1003 40 10000 8.2 270 12:59 02.12.2019
3144 Clear 16 1003 40 10000 8.2 270 12:40 02.12.2019
3145 Clear 16 1003 40 10000 8.2 270 12:20 02.12.2019
3146 Clouds 17 1003 33 10000 5.1 270 11:56 02.12.2019
3147 Smoke 17 1002 40 10000 9.3 280 11:37 02.12.2019
3148 Clear 17 1001 34 10000 10.3 260 11:19 02.12.2019
3149 Clear 17 1001 34 10000 10.3 260 10:56 02.12.2019
3150 Smoke 18 1000 31 10000 9.3 280 10:38 02.12.2019
3151 Smoke 18 1000 31 10000 9.3 280 10:19 02.12.2019
3152 Clouds 18 999 29 8000 12.3 270 09:42 02.12.2019
3153 Clouds 18 999 29 8000 12.3 270 09:42 02.12.2019
3154 Clouds 18 999 29 8000 12.3 270 09:19 02.12.2019
3155 Clouds 18 998 29 10000 11.8 270 08:58 02.12.2019
3156 Clouds 19 997 32 8000 14.4 270 08:40 02.12.2019
3157 Clouds 19 997 32 8000 14.4 270 08:21 02.12.2019
3158 Clouds 20 996 30 9000 11.3 260 07:44 02.12.2019
3159 Clouds 20 996 32 8000 11.3 250 07:24 02.12.2019
3160 Clouds 20 995 30 9000 13.9 250 06:58 02.12.2019
3161 Smoke 21 994 28 5000 10.8 260 06:39 02.12.2019
3162 Clouds 21 993 24 6000 11.8 270 05:36 02.12.2019
3163 Clouds 22 993 26 10000 9.8 280 04:51 02.12.2019
3164 Clouds 20 994 28 10000 10.8 310 02:56 02.12.2019
3165 Clouds 20 993 24 10000 9.3 270 02:38 02.12.2019
3166 Clouds 21 994 30 10000 9.3 270 01:30 02.12.2019
3167 Clouds 20 994 30 10000 8.2 280 00:59 02.12.2019
3168 Clouds 20 994 32 10000 8.7 290 00:30 02.12.2019
3169 Clouds 19 994 32 10000 10.3 290 23:57 01.12.2019
3170 Clouds 18 994 32 10000 10.3 290 23:39 01.12.2019
3171 Clouds 18 994 32 10000 10.3 290 23:20 01.12.2019
3172 Clouds 18 994 39 10000 5.7 320 22:56 01.12.2019
3173 Clouds 18 994 45 10000 10.3 290 22:38 01.12.2019
3174 Clouds 18 994 45 10000 10.3 290 22:18 01.12.2019
3175 Clouds 17 994 48 10000 4.1 270 21:56 01.12.2019
3176 Clouds 17 994 51 10000 4.1 250 21:38 01.12.2019
3177 Clouds 16 994 51 10000 4.1 250 21:19 01.12.2019
3178 Clouds 16 994 48 10000 4.1 260 20:57 01.12.2019
3179 Clouds 16 994 51 10000 5.1 280 20:39 01.12.2019
3180 Clouds 16 994 51 10000 5.1 280 20:20 01.12.2019
3181 Clouds 16 994 51 10000 4.1 300 19:55 01.12.2019
3182 Clouds 16 994 51 10000 4.1 320 19:37 01.12.2019
3183 Clouds 16 994 51 10000 5.1 290 19:19 01.12.2019
3184 Clouds 16 994 51 10000 5.1 290 18:55 01.12.2019
3185 Clouds 17 994 39 10000 9.3 300 18:37 01.12.2019
3186 Clouds 17 994 39 10000 9.3 300 18:18 01.12.2019
3187 Smoke 17 993 39 10000 7.7 300 17:56 01.12.2019
3188 Clouds 17 995 42 10000 9.8 270 17:38 01.12.2019
3189 Clouds 18 995 42 10000 9.8 270 17:19 01.12.2019
3190 Clouds 18 995 39 10000 6.7 260 16:44 01.12.2019
3191 Smoke 18 995 34 10000 7.7 270 16:25 01.12.2019
3192 Smoke 18 995 34 10000 7.7 270 15:58 01.12.2019
3193 Smoke 18 995 34 10000 7.7 270 15:58 01.12.2019
3194 Smoke 18 995 39 10000 7.7 270 15:40 01.12.2019
3195 Smoke 18 995 39 10000 7.7 270 15:40 01.12.2019
3196 Smoke 18 995 39 10000 7.7 270 15:20 01.12.2019
3197 Smoke 18 996 34 10000 7.7 270 14:38 01.12.2019
3198 Smoke 18 996 34 10000 7.7 270 14:19 01.12.2019
3199 Smoke 19 997 34 10000 7.7 250 13:40 01.12.2019
3200 Smoke 19 997 34 10000 7.7 250 13:22 01.12.2019
3201 Smoke 20 997 32 10000 7.7 250 12:58 01.12.2019
3202 Clouds 20 998 60 10000 7.7 250 12:40 01.12.2019
3203 Clouds 20 998 60 10000 7.7 250 12:40 01.12.2019
3204 Clouds 20 998 60 10000 7.7 250 12:40 01.12.2019
3205 Clouds 20 998 60 10000 7.7 250 12:40 01.12.2019
3206 Clouds 20 997 73 10000 6.7 250 11:46 01.12.2019
3207 Rain 20 997 73 10000 6.7 250 11:25 01.12.2019
3208 Rain 20 997 73 10000 1.5 10 10:57 01.12.2019
3209 Rain 20 997 73 10000 4.1 20 10:39 01.12.2019
3210 Rain 20 997 73 10000 4.1 20 10:19 01.12.2019
3211 Clouds 21 996 73 10000 6.7 20 09:41 01.12.2019
3212 Clouds 21 996 68 10000 5.7 20 09:23 01.12.2019
3213 Clouds 21 996 68 10000 5.7 20 08:57 01.12.2019
3214 Clouds 21 996 68 10000 5.7 60 08:37 01.12.2019
3215 Clouds 22 996 68 10000 5.7 60 08:18 01.12.2019
3216 Clouds 22 996 68 10000 7.7 60 07:47 01.12.2019
3217 Clouds 22 996 60 10000 7.2 70 07:28 01.12.2019
3218 Clouds 23 997 64 10000 7.2 60 06:52 01.12.2019
3219 Clouds 23 998 56 10000 8.7 70 05:58 01.12.2019
3220 Clouds 23 999 53 10000 10.3 40 04:55 01.12.2019
3221 Clouds 23 1000 49 10000 10.3 40 04:29 01.12.2019
3222 Clouds 21 1003 49 10000 5.7 70 02:46 01.12.2019
3223 Clouds 22 1003 49 10000 5.7 70 02:27 01.12.2019
3224 Clouds 21 1004 52 10000 3.6 70 01:54 01.12.2019
3225 Clouds 20 1005 52 10000 7.7 40 01:32 01.12.2019
3226 Clouds 20 1006 55 10000 1.5 50 00:50 01.12.2019
3227 Clouds 19 1006 55 10000 1.5 50 00:27 01.12.2019
3228 Clouds 19 1006 59 10000 2.1 20 23:57 30.11.2019
3229 Clouds 18 1006 63 10000 0.5 70 23:39 30.11.2019
3230 Clouds 18 1007 63 10000 1 100 23:20 30.11.2019
3231 Clouds 18 1007 63 10000 1 100 22:47 30.11.2019
3232 Clouds 17 1007 63 10000 2.1 110 22:28 30.11.2019
3233 Clouds 17 1007 63 10000 1 130 21:55 30.11.2019
3234 Clouds 17 1007 59 10000 2.6 120 21:37 30.11.2019
3235 Clouds 17 1007 59 10000 2.6 120 21:19 30.11.2019
3236 Clouds 17 1007 63 10000 4.6 110 20:55 30.11.2019
3237 Clouds 17 1007 63 10000 4.6 140 20:36 30.11.2019
3238 Clouds 17 1007 63 10000 4.6 140 20:18 30.11.2019
3239 Clouds 17 1007 63 10000 4.6 140 19:54 30.11.2019
3240 Clouds 17 1007 68 10000 4.6 150 19:36 30.11.2019
3241 Clouds 17 1007 63 10000 5.7 140 19:18 30.11.2019
3242 Clouds 17 1007 63 10000 5.7 140 18:54 30.11.2019
3243 Clouds 17 1007 63 10000 6.7 150 18:36 30.11.2019
3244 Clouds 17 1007 63 10000 6.7 150 18:18 30.11.2019
3245 Clouds 17 1007 77 10000 2.6 210 17:55 30.11.2019
3246 Clouds 17 1007 68 10000 6.7 150 17:36 30.11.2019
3247 Clouds 17 1007 68 10000 6.7 150 17:18 30.11.2019
3248 Rain 17 1008 72 10000 7.2 150 16:41 30.11.2019
3249 Rain 17 1008 72 10000 7.2 150 16:41 30.11.2019
3250 Rain 17 1008 72 10000 7.2 150 16:22 30.11.2019
3251 Rain 17 1009 77 10000 8.7 160 15:55 30.11.2019
3252 Clouds 17 1009 82 10000 8.2 160 15:37 30.11.2019
3253 Clouds 18 1009 82 10000 8.2 160 15:18 30.11.2019
3254 Clouds 18 1009 77 10000 8.2 160 14:55 30.11.2019
3255 Rain 18 1009 77 10000 8.2 160 14:37 30.11.2019
3256 Rain 18 1009 77 10000 8.2 160 14:18 30.11.2019
3257 Rain 19 1010 82 10000 8.7 160 13:45 30.11.2019
3258 Rain 19 1010 82 10000 8.7 160 13:26 30.11.2019
3259 Rain 19 1009 77 10000 9.3 160 12:59 30.11.2019
3260 Rain 19 1009 82 10000 8.7 170 12:41 30.11.2019
3261 Clouds 19 1008 77 10000 3.1 180 12:22 30.11.2019
3262 Clouds 19 1008 77 10000 1 40 11:43 30.11.2019
3263 Rain 19 1007 77 10000 3.6 100 11:20 30.11.2019
3264 Drizzle 20 1007 73 10000 10.3 170 10:56 30.11.2019
3265 Clouds 20 1007 73 10000 4.1 30 10:38 30.11.2019
3266 Drizzle 20 1007 73 10000 10.3 170 10:19 30.11.2019
3267 Clouds 20 1006 73 10000 5.1 60 09:46 30.11.2019
3268 Clouds 20 1006 73 10000 5.1 60 09:27 30.11.2019
3269 Clouds 21 1005 68 10000 5.7 60 08:44 30.11.2019
3270 Clouds 21 1005 68 10000 5.7 60 08:44 30.11.2019
3271 Clouds 21 1005 68 10000 5.7 60 08:23 30.11.2019
3272 Clouds 22 1006 68 10000 5.7 180 07:59 30.11.2019
3273 Drizzle 22 1006 77 10000 8.2 180 07:40 30.11.2019
3274 Drizzle 22 1006 77 10000 8.2 180 07:21 30.11.2019
3275 Rain 23 1005 68 10000 5.1 120 06:30 30.11.2019
3276 Rain 22 1006 68 10000 4.6 150 05:55 30.11.2019
3277 Clouds 21 1007 77 10000 8.2 170 03:54 30.11.2019
3278 Clouds 21 1007 77 10000 8.2 170 03:54 30.11.2019
3279 Rain 22 1007 82 10000 11.3 170 02:53 30.11.2019
3280 Clouds 21 1008 77 10000 11.8 180 02:22 30.11.2019
3281 Clouds 22 1008 77 10000 12.9 180 01:47 30.11.2019
3282 Clouds 22 1008 77 10000 13.9 180 01:24 30.11.2019
3283 Clouds 22 1008 88 10000 11.3 170 00:38 30.11.2019
3284 Clouds 21 1008 88 10000 11.3 170 00:20 30.11.2019
3285 Clouds 21 1008 82 9000 12.3 180 23:44 29.11.2019
3286 Clouds 21 1008 82 9000 12.3 180 23:23 29.11.2019
3287 Clouds 21 1008 82 9000 12.3 180 23:23 29.11.2019
3288 Clouds 21 1008 88 8000 10.8 180 22:47 29.11.2019
3289 Clouds 21 1008 88 8000 10.8 180 22:26 29.11.2019
3290 Clouds 20 1007 88 8000 10.8 170 21:55 29.11.2019
3291 Smoke 20 1007 88 7000 7.2 180 21:36 29.11.2019
3292 Smoke 20 1007 88 7000 7.2 180 21:18 29.11.2019
3293 Smoke 20 1007 88 5000 8.2 170 20:54 29.11.2019
3294 Smoke 19 1007 94 5000 8.2 170 20:36 29.11.2019
3295 Smoke 19 1007 94 5000 8.2 170 20:18 29.11.2019
3296 Clouds 19 1006 83 8000 6.7 200 19:41 29.11.2019
3297 Clouds 19 1006 83 8000 6.7 200 19:21 29.11.2019
3298 Clear 19 1006 83 9000 3.6 320 18:59 29.11.2019
3299 Smoke 19 1006 83 10000 7.2 180 18:41 29.11.2019
3300 Smoke 19 1006 83 10000 7.2 180 18:22 29.11.2019
3301 Smoke 19 1006 83 10000 7.2 180 17:54 29.11.2019
3302 Clear 19 1006 83 10000 3.1 310 17:36 29.11.2019
3303 Clear 19 1006 88 9000 2.6 320 17:18 29.11.2019
3304 Clear 20 1007 83 9000 2.33 277 16:42 29.11.2019
3305 Clear 20 1007 94 8000 2.33 277 16:21 29.11.2019
3306 Clear 20 1007 94 8000 2.33 277 15:43 29.11.2019
3307 Clear 20 1008 94 7000 2.6 220 15:25 29.11.2019
3308 Clear 21 1008 88 9000 2.33 277 14:59 29.11.2019
3309 Clear 21 1008 88 10000 2.33 277 14:40 29.11.2019
3310 Clouds 21 1008 88 10000 1.24 360 14:21 29.11.2019
3311 Clouds 21 1009 83 10000 1 30 13:56 29.11.2019
3312 Clouds 22 1009 83 10000 1 70 13:37 29.11.2019
3313 Clear 22 1009 83 10000 1 70 13:19 29.11.2019
3314 Clear 22 1009 78 10000 3.1 40 12:42 29.11.2019
3315 Clear 23 1009 78 10000 3.1 40 12:24 29.11.2019
3316 Clouds 23 1009 78 10000 5.1 20 11:56 29.11.2019
3317 Clouds 23 1009 83 10000 5.7 20 11:38 29.11.2019
3318 Smoke 24 1009 78 10000 3.6 360 11:18 29.11.2019
3319 Smoke 24 1009 78 10000 3.6 360 10:57 29.11.2019
3320 Smoke 24 1009 83 10000 9.3 30 10:38 29.11.2019
3321 Smoke 24 1009 78 10000 9.3 30 10:20 29.11.2019
3322 Smoke 24 1009 78 10000 9.3 30 09:57 29.11.2019
3323 Smoke 24 1008 73 10000 9.3 30 09:38 29.11.2019
3324 Smoke 25 1008 73 10000 9.3 30 09:20 29.11.2019
3325 Smoke 25 1008 65 10000 9.3 30 08:54 29.11.2019
3326 Smoke 27 1008 61 10000 9.3 30 08:36 29.11.2019
3327 Smoke 28 1008 57 9000 9.3 50 08:18 29.11.2019
3328 Smoke 28 1008 51 9000 9.3 50 07:41 29.11.2019
3329 Smoke 29 1008 51 9000 9.3 50 07:23 29.11.2019
3330 Smoke 29 1009 48 8000 9.3 30 06:46 29.11.2019
3331 Smoke 30 1009 48 8000 9.3 30 06:27 29.11.2019
3332 Smoke 30 1010 54 9000 9.3 30 05:32 29.11.2019
3333 Clouds 31 1010 54 9000 7.7 70 04:56 29.11.2019
3334 Clouds 30 1012 51 8000 4.6 120 03:41 29.11.2019
3335 Clouds 29 1012 61 7000 4.1 130 03:18 29.11.2019
3336 Clouds 27 1012 57 7000 0.5 80 02:24 29.11.2019
3337 Smoke 25 1013 60 7000 6.2 20 01:40 29.11.2019
3338 Clouds 24 1014 60 6000 3.1 310 01:20 29.11.2019
3339 Clouds 23 1014 64 6000 4.1 360 00:40 29.11.2019
3340 Clouds 23 1014 64 6000 4.1 360 00:18 29.11.2019
3341 Clouds 23 1014 64 6000 4.1 360 00:18 29.11.2019
3342 Clouds 22 1014 69 9000 4.6 20 23:42 28.11.2019
3343 Clouds 21 1014 69 9000 4.6 20 23:21 28.11.2019
3344 Clouds 21 1014 69 9000 4.6 20 23:21 28.11.2019
3345 Clouds 21 1015 73 10000 0.5 240 22:57 28.11.2019
3346 Clouds 21 1015 77 10000 2.1 210 22:37 28.11.2019
3347 Clouds 21 1015 77 10000 2.1 210 22:19 28.11.2019
3348 Clouds 20 1015 82 10000 2.6 210 21:55 28.11.2019
3349 Clouds 20 1015 82 10000 2.1 240 21:36 28.11.2019
3350 Clouds 20 1015 73 10000 4.1 10 21:18 28.11.2019
3351 Clouds 20 1014 82 10000 1 220 20:42 28.11.2019
3352 Clouds 20 1014 82 10000 1 220 20:23 28.11.2019
3353 Clouds 20 1014 77 9000 6.7 40 19:59 28.11.2019
3354 Clouds 20 1014 77 9000 6.7 30 19:40 28.11.2019
3355 Clouds 20 1014 77 9000 6.7 30 19:22 28.11.2019
3356 Clouds 20 1014 88 10000 2.1 230 18:59 28.11.2019
3357 Clouds 20 1014 77 9000 7.2 40 18:39 28.11.2019
3358 Clouds 20 1014 77 9000 7.2 40 18:18 28.11.2019
3359 Clouds 20 1014 77 10000 6.7 30 17:59 28.11.2019
3360 -273 0 0 0 0 0 17:41 28.11.2019
3361 Clouds 20 1015 77 9000 6.2 30 17:41 28.11.2019
3362 Clouds 20 1015 77 9000 6.2 40 17:22 28.11.2019
3363 Clouds 20 1015 77 9000 6.2 40 16:57 28.11.2019
3364 Clouds 20 1015 77 10000 6.7 40 16:38 28.11.2019
3365 Clouds 20 1015 77 10000 6.7 40 16:18 28.11.2019
3366 Clouds 20 1016 73 10000 5.7 40 15:42 28.11.2019
3367 Clouds 20 1016 73 10000 5.7 40 15:20 28.11.2019
3368 Clouds 20 1016 73 10000 6.2 40 14:59 28.11.2019
3369 Clouds 20 1016 88 10000 2.6 210 14:41 28.11.2019
3370 Clouds 20 1016 68 10000 6.7 40 14:22 28.11.2019
3371 Clouds 20 1017 73 10000 7.7 30 13:58 28.11.2019
3372 Clouds 20 1017 68 10000 5.7 30 13:40 28.11.2019
3373 Clouds 20 1017 68 10000 5.7 30 13:21 28.11.2019
3374 Clouds 20 1017 68 10000 5.7 30 12:48 28.11.2019
3375 Clear 20 1016 77 10000 3.6 100 12:29 28.11.2019
3376 Clouds 21 1016 73 10000 7.2 30 11:59 28.11.2019
3377 Clear 21 1015 73 10000 3.6 80 11:40 28.11.2019
3378 Smoke 21 1016 73 10000 7.7 40 11:21 28.11.2019
3379 Smoke 21 1016 73 10000 7.7 40 10:59 28.11.2019
3380 Smoke 21 1015 73 10000 7.7 40 10:40 28.11.2019
3381 Clouds 21 1015 73 10000 8.2 40 10:20 28.11.2019
3382 Smoke 21 1015 69 10000 11.3 40 09:41 28.11.2019
3383 Smoke 22 1015 69 10000 11.3 40 09:23 28.11.2019
3384 Clouds 22 1014 69 10000 11.3 50 08:58 28.11.2019
3385 Clouds 22 1013 64 10000 10.3 60 08:39 28.11.2019
3386 Clouds 23 1013 64 10000 10.3 60 08:21 28.11.2019
3387 Clouds 23 1013 61 10000 10.3 50 07:42 28.11.2019
3388 Clouds 24 1013 61 10000 10.3 50 07:24 28.11.2019
3389 Smoke 25 1013 57 10000 10.3 40 06:52 28.11.2019
3390 Clear 26 1013 53 10000 9.8 40 06:34 28.11.2019
3391 Clear 26 1013 50 10000 10.3 60 05:51 28.11.2019
3392 Clear 27 1014 53 10000 10.8 60 05:18 28.11.2019
3393 Clear 27 1014 50 10000 10.3 60 05:18 28.11.2019
3394 Clear 27 1014 50 10000 10.3 60 05:18 28.11.2019
3395 Clear 28 1015 47 10000 7.7 80 02:50 28.11.2019
3396 Clear 27 1016 38 10000 4.6 50 01:57 28.11.2019
3397 Clouds 25 1016 47 10000 3.1 30 00:49 28.11.2019
3398 Clouds 24 1016 49 10000 3.6 50 00:25 28.11.2019
3399 Clouds 23 1016 53 10000 3.6 20 23:56 27.11.2019
3400 Clouds 22 1017 60 10000 3.1 10 23:38 27.11.2019
3401 Clouds 21 1017 60 10000 3.1 10 23:19 27.11.2019
3402 Clouds 20 1017 56 10000 3.1 360 22:54 27.11.2019
3403 Clouds 19 1017 60 10000 2.6 300 22:36 27.11.2019
3404 Clouds 18 1017 60 10000 2.6 300 22:18 27.11.2019
3405 Clouds 17 1016 63 10000 2.6 290 21:55 27.11.2019
3406 Clouds 17 1016 63 10000 1.5 300 21:36 27.11.2019
3407 Clouds 15 1017 78 0 0.89 292 21:18 27.11.2019
3408 Clouds 14 1017 79 0 1.34 303 20:55 27.11.2019
3409 Clouds 14 1016 77 10000 2.1 330 20:36 27.11.2019
3410 Clouds 13 1016 77 10000 2.1 330 20:18 27.11.2019
3411 Clouds 13 1016 93 10000 1.42 263 19:54 27.11.2019
3412 Clouds 13 1016 93 10000 1.42 263 19:54 27.11.2019
3413 Clouds 13 1016 93 10000 1.42 263 19:36 27.11.2019
3414 Clouds 13 1015 77 10000 2.1 310 19:18 27.11.2019
3415 Clouds 13 1015 77 10000 2.1 310 19:18 27.11.2019
3416 Clouds 13 1016 100 10000 1.42 263 18:38 27.11.2019
3417 Clouds 13 1016 100 10000 1.42 263 18:38 27.11.2019
3418 Clouds 13 1016 100 10000 1.42 263 18:19 27.11.2019
3419 Clouds 13 1015 77 10000 1.42 263 17:59 27.11.2019
3420 Clouds 13 1015 72 10000 1.42 263 17:40 27.11.2019
3421 Clouds 13 1016 93 10000 1.6 330 17:22 27.11.2019
3422 Clouds 14 1015 72 10000 1.6 330 16:58 27.11.2019
3423 Clouds 14 1016 72 10000 2.1 280 16:39 27.11.2019
3424 Clouds 14 1016 72 10000 2.1 280 16:21 27.11.2019
3425 Clouds 14 1017 82 10000 1.6 330 15:58 27.11.2019
3426 Clouds 14 1016 68 10000 3.1 300 15:40 27.11.2019
3427 Clouds 14 1017 82 10000 1.6 330 15:21 27.11.2019
3428 Clouds 15 1017 82 10000 1.6 330 14:58 27.11.2019
3429 Clouds 15 1017 77 10000 1.6 330 14:39 27.11.2019
3430 Clear 16 1017 77 10000 2.4 20 14:21 27.11.2019
3431 Clear 16 1017 77 10000 2.4 20 13:58 27.11.2019
3432 Clear 17 1017 63 10000 2.6 30 13:39 27.11.2019
3433 Clear 17 1016 63 10000 2.6 50 13:19 27.11.2019
3434 Clear 17 1016 63 10000 2.6 50 12:57 27.11.2019
3435 Clear 17 1016 63 10000 4.1 30 12:39 27.11.2019
3436 Clear 17 1016 63 10000 4.1 40 12:19 27.11.2019
3437 Clear 18 1016 59 10000 6.2 30 11:54 27.11.2019
3438 Clear 18 1016 59 10000 6.2 30 11:36 27.11.2019
3439 Clear 18 1015 59 10000 6.2 40 11:18 27.11.2019
3440 Clear 18 1015 59 10000 6.7 50 10:41 27.11.2019
3441 Clear 18 1015 59 10000 6.7 50 10:23 27.11.2019
3442 Clear 19 1014 49 10000 7.7 70 09:45 27.11.2019
3443 Clear 19 1014 49 10000 7.7 70 09:26 27.11.2019
3444 Clear 20 1014 46 10000 7.7 60 08:59 27.11.2019
3445 Clear 20 1014 43 10000 8.7 70 08:41 27.11.2019
3446 Clear 21 1013 43 10000 8.7 70 08:22 27.11.2019
3447 Clear 22 1013 40 10000 7.7 60 07:47 27.11.2019
3448 Clear 22 1013 40 10000 8.7 60 07:28 27.11.2019
3449 Clear 22 1014 40 10000 7.7 60 06:49 27.11.2019
3450 Clear 23 1014 40 10000 7.7 60 06:30 27.11.2019
3451 Clear 24 1014 35 10000 7.2 50 05:45 27.11.2019
3452 Clear 24 1015 40 10000 7.2 50 05:19 27.11.2019
3453 Clear 24 1015 37 10000 6.2 70 04:43 27.11.2019
3454 Clear 24 1015 37 10000 6.2 70 03:55 27.11.2019
3455 Clear 23 1015 37 10000 5.7 130 03:36 27.11.2019
3456 Clear 23 1015 40 10000 5.7 130 03:18 27.11.2019
3457 Clear 22 1015 32 10000 2.6 30 02:20 27.11.2019
3458 Clear 21 1016 42 10000 2.6 150 00:47 27.11.2019
3459 Clear 20 1016 42 10000 2.6 150 00:29 27.11.2019
3460 Clear 20 1016 29 10000 2.1 150 23:54 26.11.2019
3461 Clear 19 1016 39 10000 3.1 210 23:36 26.11.2019
3462 Clear 19 1016 42 10000 4.1 230 23:18 26.11.2019
3463 Clear 17 1016 42 10000 4.1 250 22:39 26.11.2019
3464 Clear 17 1016 42 10000 4.1 250 22:19 26.11.2019
3465 Clear 16 1015 41 10000 5.7 230 21:59 26.11.2019
3466 Clear 16 1015 36 10000 5.1 250 21:38 26.11.2019
3467 Clear 15 1015 36 10000 5.1 250 21:20 26.11.2019
3468 Clear 14 1015 41 10000 5.1 250 20:57 26.11.2019
3469 Clear 13 1014 41 10000 5.1 260 20:37 26.11.2019
3470 Clear 13 1014 41 10000 5.1 260 20:37 26.11.2019
3471 Clear 12 1014 41 10000 5.1 260 20:19 26.11.2019
3472 Clear 12 1014 47 10000 5.1 230 19:55 26.11.2019
3473 Clear 12 1014 47 10000 5.1 230 19:55 26.11.2019
3474 Clear 12 1013 44 10000 3.6 240 19:37 26.11.2019
3475 Clear 12 1013 41 10000 4.6 260 19:19 26.11.2019
3476 Clear 13 1013 41 10000 4.6 260 18:57 26.11.2019
3477 Clear 13 1013 41 10000 4.1 260 18:39 26.11.2019
3478 Clear 14 1013 66 10000 2.6 200 18:20 26.11.2019
3479 Clear 14 1013 66 10000 2.6 200 18:20 26.11.2019
3480 Clear 14 1012 38 10000 4.6 270 17:57 26.11.2019
3481 Clear 14 1012 38 10000 4.6 270 17:38 26.11.2019
3482 Clear 14 1012 58 10000 3.73 237 17:20 26.11.2019
3483 Clear 15 1012 58 10000 3.73 237 16:56 26.11.2019
3484 Clear 15 1012 33 10000 4.1 260 16:37 26.11.2019
3485 Clear 15 1012 36 10000 5.1 250 16:18 26.11.2019
3486 Clear 15 1012 33 10000 4.1 260 16:18 26.11.2019
3487 Clear 15 1012 33 10000 4.1 260 16:18 26.11.2019
3488 Clear 16 1012 36 10000 5.1 250 15:58 26.11.2019
3489 Clear 16 1012 36 10000 5.7 250 15:37 26.11.2019
3490 Clear 16 1012 36 10000 5.7 250 15:19 26.11.2019
3491 Clear 16 1011 31 10000 6.2 250 14:47 26.11.2019
3492 Clear 17 1011 31 10000 6.2 250 14:25 26.11.2019
3493 Clear 17 1012 36 10000 3.1 250 13:57 26.11.2019
3494 Clear 18 1011 32 10000 5.7 230 13:38 26.11.2019
3495 Clear 18 1011 34 10000 7.7 230 13:19 26.11.2019
3496 Clear 19 1011 34 10000 8.2 230 12:38 26.11.2019
3497 Clear 19 1009 39 10000 7.2 240 12:20 26.11.2019
3498 Dust 20 1008 22 10000 7.2 220 11:58 26.11.2019
3499 Dust 20 1008 22 10000 7.2 220 11:39 26.11.2019
3500 Dust 21 1007 21 9000 13.9 240 11:20 26.11.2019
3501 Dust 21 1007 21 9000 13.9 240 10:58 26.11.2019
3502 Dust 22 1005 17 8000 13.4 250 10:39 26.11.2019
3503 Dust 22 1005 17 8000 13.4 250 10:20 26.11.2019
3504 Dust 24 1004 14 6000 12.3 250 09:55 26.11.2019
3505 Dust 25 1003 15 7000 10.3 250 09:37 26.11.2019
3506 Clouds 26 1003 16 7000 9.3 270 09:18 26.11.2019
3507 Clouds 27 1001 19 8000 9.8 270 08:43 26.11.2019
3508 Clouds 28 1001 19 8000 9.8 270 08:22 26.11.2019
3509 Clouds 29 999 25 10000 9.3 280 07:44 26.11.2019
3510 Dust 30 999 20 5000 12.3 280 07:25 26.11.2019
3511 Clouds 30 999 23 10000 9.8 280 06:55 26.11.2019
3512 Dust 31 998 21 9000 9.8 330 06:33 26.11.2019
3513 Clouds 32 997 28 10000 9.3 350 05:41 26.11.2019
3514 Rain 27 999 35 10000 10.3 360 03:59 26.11.2019
3515 Rain 32 999 20 10000 11.8 360 02:49 26.11.2019
3516 Clouds 34 1001 26 10000 9.8 340 01:33 26.11.2019
3517 Clouds 32 1002 33 10000 8.2 340 00:51 26.11.2019
3518 Clouds 31 1002 33 10000 8.2 340 00:29 26.11.2019
3519 Clouds 28 1003 42 8000 5.1 10 23:41 25.11.2019
3520 Smoke 28 1003 51 8000 9.3 340 23:21 25.11.2019
3521 Smoke 26 1003 51 8000 9.3 340 22:59 25.11.2019
3522 Clear 25 1004 57 7000 4.6 20 22:39 25.11.2019
3523 Clear 24 1004 57 7000 4.6 20 22:19 25.11.2019
3524 Smoke 22 1004 60 5000 6.2 360 21:59 25.11.2019
3525 Smoke 22 1004 64 4000 4.6 20 21:40 25.11.2019
3526 Smoke 21 1004 64 4000 4.6 20 21:21 25.11.2019
3527 Clear 20 1005 73 7000 4.6 20 20:57 25.11.2019
3528 Clear 19 1005 82 10000 3.1 10 20:39 25.11.2019
3529 Clear 18 1005 82 10000 3.1 10 20:19 25.11.2019
3530 Clouds 18 1005 100 7000 3.6 50 19:56 25.11.2019
3531 Clouds 18 1005 82 10000 3.6 310 19:37 25.11.2019
3532 Clouds 18 1006 93 6000 2.1 80 19:18 25.11.2019
3533 Clear 18 1005 88 10000 3.1 40 18:57 25.11.2019
3534 Clear 18 1005 88 10000 3.1 40 18:39 25.11.2019
3535 Clear 18 1005 93 8000 2.75 299 18:21 25.11.2019
3536 Clear 18 1005 93 8000 2.75 299 18:21 25.11.2019
3537 Clouds 18 1005 93 9000 3.6 40 17:57 25.11.2019
3538 Clouds 18 1005 93 9000 3.6 40 17:39 25.11.2019
3539 Clouds 18 1007 88 10000 3.1 180 17:20 25.11.2019
3540 Clouds 19 1007 88 10000 3.1 180 16:57 25.11.2019
3541 Clear 19 1007 77 10000 3.6 350 16:39 25.11.2019
3542 Clear 19 1007 77 10000 3.6 350 16:20 25.11.2019
3543 Clear 20 1007 88 10000 3.6 10 15:55 25.11.2019
3544 Clear 20 1007 88 10000 3.6 10 15:36 25.11.2019
3545 Clear 20 1007 93 10000 2.6 350 15:18 25.11.2019
3546 Rain 20 1007 78 10000 11.8 30 14:42 25.11.2019
3547 Rain 21 1007 78 10000 11.8 30 14:23 25.11.2019
3548 Thunderstorm 20 1009 88 10000 6.2 330 13:55 25.11.2019
3549 Thunderstorm 20 1009 88 10000 6.2 330 13:36 25.11.2019
3550 Thunderstorm 20 1010 83 10000 3.6 100 13:18 25.11.2019
3551 Thunderstorm 20 1009 88 10000 6.2 330 13:18 25.11.2019
3552 Thunderstorm 21 1011 78 8000 4.1 290 12:55 25.11.2019
3553 Thunderstorm 21 1011 78 8000 4.1 290 12:36 25.11.2019
3554 Thunderstorm 22 1009 78 10000 1.5 290 12:18 25.11.2019
3555 Rain 22 1008 73 10000 6.2 330 11:40 25.11.2019
3556 Rain 22 1008 73 10000 6.2 330 11:40 25.11.2019
3557 Thunderstorm 22 1008 73 10000 7.2 60 11:21 25.11.2019
3558 Thunderstorm 22 1008 73 10000 7.2 60 10:58 25.11.2019
3559 Thunderstorm 22 1009 60 9000 4.6 340 10:39 25.11.2019
3560 Thunderstorm 22 1009 60 9000 4.6 340 10:19 25.11.2019
3561 Thunderstorm 23 1007 47 10000 8.2 70 09:42 25.11.2019
3562 Thunderstorm 23 1007 47 10000 8.2 70 09:24 25.11.2019
3563 Thunderstorm 24 1007 47 10000 2.1 110 08:57 25.11.2019
3564 Thunderstorm 24 1007 42 10000 4.6 140 08:38 25.11.2019
3565 Thunderstorm 25 1007 42 10000 4.6 140 08:18 25.11.2019
3566 Thunderstorm 25 1005 44 10000 10.8 20 07:38 25.11.2019
3567 Thunderstorm 24 1005 57 10000 10.3 30 07:18 25.11.2019
3568 Thunderstorm 25 1006 61 10000 11.8 30 06:38 25.11.2019
3569 Thunderstorm 25 1006 54 10000 9.8 30 06:18 25.11.2019
3570 Clouds 28 1007 48 10000 8.2 40 05:32 25.11.2019
3571 Clouds 31 1007 48 10000 8.2 40 04:50 25.11.2019
3572 Clouds 30 1009 35 10000 2.1 170 02:45 25.11.2019
3573 Clouds 28 1010 51 10000 3.6 10 01:57 25.11.2019
3574 Clouds 27 1011 54 10000 3.1 330 01:38 25.11.2019
3575 Clouds 27 1011 54 10000 3.1 330 01:19 25.11.2019
3576 Clouds 24 1012 64 10000 3.6 330 00:21 25.11.2019
3577 Clouds 23 1012 69 10000 5.7 330 23:46 24.11.2019
3578 Clouds 22 1012 64 10000 4.6 340 23:21 24.11.2019
3579 Clouds 22 1012 64 10000 4.6 340 22:59 24.11.2019
3580 Clouds 21 1012 73 10000 4.6 330 22:40 24.11.2019
3581 Clouds 21 1012 73 10000 4.6 330 22:20 24.11.2019
3582 Clouds 20 1012 77 10000 4.6 320 21:58 24.11.2019
3583 Clouds 19 1012 82 10000 3.6 310 21:40 24.11.2019
3584 Clouds 18 1012 82 10000 4.1 320 21:21 24.11.2019
3585 Clouds 17 1012 93 10000 0.5 250 20:58 24.11.2019
3586 Clouds 17 1012 93 10000 2.1 270 20:38 24.11.2019
3587 Clouds 17 1012 93 10000 2.6 280 20:19 24.11.2019
3588 Clouds 17 1012 93 10000 2.6 280 19:56 24.11.2019
3589 Clouds 17 1012 93 10000 2.1 330 19:38 24.11.2019
3590 Clouds 17 1011 88 10000 0.62 316 19:20 24.11.2019
3591 Clouds 17 1011 88 10000 0.62 316 18:58 24.11.2019
3592 Clouds 17 1011 88 10000 0.62 316 18:38 24.11.2019
3593 Clouds 17 1011 88 10000 2.1 160 18:19 24.11.2019
3594 Clouds 18 1011 88 10000 3.1 210 17:56 24.11.2019
3595 Clouds 18 1011 88 10000 3.1 210 17:56 24.11.2019
3596 Clouds 18 1011 88 10000 3.1 210 17:38 24.11.2019
3597 Clouds 18 1011 93 10000 4.1 220 17:20 24.11.2019
3598 Clouds 18 1011 93 10000 4.1 220 17:20 24.11.2019
3599 Clouds 18 1011 93 10000 4.1 220 16:57 24.11.2019
3600 Clouds 18 1012 93 10000 3.6 240 16:39 24.11.2019
3601 Clouds 18 1012 93 10000 3.6 240 16:20 24.11.2019
3602 Clouds 18 1012 93 10000 2.1 80 15:45 24.11.2019
3603 Rain 18 1013 88 10000 3.6 100 15:26 24.11.2019
3604 Rain 18 1014 88 10000 4.1 140 14:58 24.11.2019
3605 Rain 18 1015 88 10000 2.6 100 14:39 24.11.2019
3606 Clouds 18 1015 77 10000 3.6 20 14:19 24.11.2019
3607 Clouds 19 1015 77 10000 2.6 50 13:55 24.11.2019
3608 Clouds 19 1015 77 10000 2.6 30 13:37 24.11.2019
3609 Clouds 19 1015 77 10000 2.6 50 13:18 24.11.2019
3610 Clouds 19 1015 77 10000 1.5 90 12:42 24.11.2019
3611 Clouds 19 1015 72 10000 4.1 60 12:20 24.11.2019
3612 Clouds 19 1015 77 10000 3.1 100 11:59 24.11.2019
3613 Clouds 19 1015 77 10000 3.1 100 11:37 24.11.2019
3614 Clouds 19 1015 77 10000 3.6 100 11:19 24.11.2019
3615 Clouds 19 1015 72 10000 4.1 60 10:47 24.11.2019
3616 Clouds 19 1015 72 10000 4.1 60 10:29 24.11.2019
3617 Clouds 19 1015 72 10000 4.1 60 10:29 24.11.2019
3618 Clouds 20 1015 72 10000 3.6 130 09:59 24.11.2019
3619 Clouds 20 1015 72 10000 4.1 110 09:38 24.11.2019
3620 Clouds 20 1015 72 10000 4.1 110 09:19 24.11.2019
3621 Clouds 21 1014 72 10000 4.1 130 08:56 24.11.2019
3622 Clouds 21 1014 68 10000 4.6 130 08:37 24.11.2019
3623 Clouds 21 1014 68 10000 4.6 130 08:18 24.11.2019
3624 Clouds 22 1014 64 10000 5.1 130 07:47 24.11.2019
3625 Clouds 23 1015 68 10000 4.6 150 07:20 24.11.2019
3626 Clouds 23 1015 68 10000 4.6 150 07:20 24.11.2019
3627 Clouds 23 1015 68 10000 4.6 160 06:40 24.11.2019
3628 Clouds 23 1016 64 10000 5.1 180 04:54 24.11.2019
3629 Clouds 23 1017 64 10000 5.1 170 04:35 24.11.2019
3630 Clouds 22 1018 68 10000 5.1 170 02:36 24.11.2019
3631 Clouds 21 1019 68 10000 5.7 180 01:55 24.11.2019
3632 Clouds 21 1019 68 10000 6.7 180 01:32 24.11.2019
3633 Clouds 20 1019 68 10000 6.2 180 00:52 24.11.2019
3634 Clouds 20 1020 68 10000 6.2 170 00:25 24.11.2019
3635 Clouds 19 1020 68 10000 5.7 160 23:57 23.11.2019
3636 Clouds 19 1020 68 10000 5.7 160 23:38 23.11.2019
3637 Clouds 19 1019 72 10000 6.2 160 23:20 23.11.2019
3638 Clouds 19 1019 72 10000 6.2 160 22:55 23.11.2019
3639 Clouds 18 1019 72 10000 6.7 160 22:37 23.11.2019
3640 Clouds 18 1019 72 10000 6.7 160 22:19 23.11.2019
3641 Clouds 18 1019 82 10000 2.6 200 21:55 23.11.2019
3642 Clouds 18 1019 72 10000 6.7 160 21:36 23.11.2019
3643 Clouds 18 1019 72 10000 6.7 160 21:18 23.11.2019
3644 Clouds 18 1018 72 10000 7.7 160 20:38 23.11.2019
3645 Clouds 18 1018 72 10000 8.7 160 20:20 23.11.2019
3646 Clouds 18 1018 72 10000 8.7 160 19:57 23.11.2019
3647 Clouds 18 1017 72 10000 9.3 170 19:38 23.11.2019
3648 Clouds 18 1017 77 10000 9.8 170 19:19 23.11.2019
3649 Clouds 18 1017 77 10000 9.8 170 19:19 23.11.2019
3650 Clouds 18 1017 77 10000 9.8 170 19:19 23.11.2019
3651 Clouds 18 1017 77 10000 9.8 170 18:57 23.11.2019
3652 Clouds 18 1017 77 10000 9.8 170 18:38 23.11.2019
3653 Clouds 18 1017 93 10000 3.1 200 18:19 23.11.2019
3654 Clouds 18 1017 93 10000 3.1 200 18:19 23.11.2019
3655 Clouds 18 1017 100 10000 2.6 210 17:43 23.11.2019
3656 Clouds 18 1017 100 10000 3.1 210 17:21 23.11.2019
3657 Clouds 18 1017 100 10000 3.1 200 16:57 23.11.2019
3658 Clouds 18 1017 100 10000 3.1 200 16:38 23.11.2019
3659 Clouds 18 1017 100 10000 3.1 200 16:20 23.11.2019
3660 Clouds 18 1017 100 10000 3.1 190 15:58 23.11.2019
3661 Clouds 18 1018 100 10000 2.6 200 15:39 23.11.2019
3662 Clouds 18 1018 100 10000 2.6 170 15:19 23.11.2019
3663 Clouds 18 1018 100 10000 2.6 170 14:57 23.11.2019
3664 Rain 18 1018 100 4000 2.6 210 14:38 23.11.2019
3665 Rain 19 1018 93 10000 2.6 180 14:20 23.11.2019
3666 Rain 19 1018 82 10000 6.7 140 13:44 23.11.2019
3667 Clouds 19 1018 82 10000 6.7 140 13:22 23.11.2019
3668 Drizzle 19 1018 82 10000 7.2 150 12:59 23.11.2019
3669 Clouds 19 1017 82 10000 3.6 140 12:40 23.11.2019
3670 Clouds 20 1017 82 10000 6.2 150 12:22 23.11.2019
3671 Clouds 20 1016 82 10000 6.7 150 11:43 23.11.2019
3672 Clouds 20 1016 82 10000 5.1 140 11:21 23.11.2019
3673 Clouds 20 1016 82 10000 5.1 140 10:45 23.11.2019
3674 Clouds 20 1015 82 10000 5.7 150 10:22 23.11.2019
3675 Clouds 20 1014 77 10000 5.1 140 09:44 23.11.2019
3676 Clouds 20 1013 77 10000 5.1 140 09:21 23.11.2019
3677 Clouds 20 1013 77 10000 5.1 140 08:59 23.11.2019
3678 Clouds 20 1013 77 10000 3.6 130 08:40 23.11.2019
3679 Rain 21 1013 77 10000 2.6 110 08:18 23.11.2019
3680 Rain 21 1013 77 10000 4.6 110 07:41 23.11.2019
3681 Clouds 21 1012 77 10000 4.6 130 06:52 23.11.2019
3682 Clouds 21 1012 78 10000 2.1 330 06:24 23.11.2019
3683 Clouds 21 1013 68 10000 4.1 110 05:56 23.11.2019
3684 Clouds 22 1013 73 10000 5.1 140 05:31 23.11.2019
3685 Clouds 22 1013 73 10000 5.1 140 04:54 23.11.2019
3686 Clouds 22 1013 77 10000 5.1 140 04:31 23.11.2019
3687 Clouds 21 1014 83 10000 5.1 140 03:25 23.11.2019
3688 Clouds 21 1015 82 10000 4.6 190 02:37 23.11.2019
3689 Clouds 20 1015 82 10000 5.7 180 01:39 23.11.2019
3690 Rain 20 1015 88 10000 4.6 200 00:47 23.11.2019
3691 Rain 20 1015 88 10000 4.6 200 00:47 23.11.2019
3692 Rain 20 1015 88 10000 5.1 200 00:19 23.11.2019
3693 Rain 19 1015 82 10000 5.1 200 23:55 22.11.2019
3694 Rain 19 1015 82 10000 5.1 200 23:36 22.11.2019
3695 Rain 19 1015 88 10000 4.1 230 23:18 22.11.2019
3696 Rain 19 1015 88 10000 4.1 230 22:55 22.11.2019
3697 Clouds 18 1015 93 9000 5.7 200 22:36 22.11.2019
3698 Smoke 18 1015 93 10000 4.1 230 22:18 22.11.2019
3699 Clouds 18 1015 88 9000 7.2 200 21:40 22.11.2019
3700 Smoke 18 1015 88 9000 4.1 230 21:21 22.11.2019
3701 Smoke 18 1015 88 9000 4.1 230 20:55 22.11.2019
3702 Clouds 18 1015 88 10000 4.6 210 20:37 22.11.2019
3703 Clouds 18 1015 88 10000 4.1 200 20:19 22.11.2019
3704 Clouds 18 1014 88 10000 4.6 200 19:39 22.11.2019
3705 Rain 18 1014 88 10000 4.1 190 19:20 22.11.2019
3706 Rain 18 1014 88 10000 4.1 190 18:59 22.11.2019
3707 Clouds 18 1014 82 10000 3.6 170 18:38 22.11.2019
3708 Clouds 18 1014 88 10000 2.6 220 18:20 22.11.2019
3709 Clouds 18 1014 82 10000 3.6 170 18:20 22.11.2019
3710 Clouds 18 1013 88 10000 5.1 140 17:42 22.11.2019
3711 Clouds 18 1013 88 10000 5.1 140 17:23 22.11.2019
3712 Clouds 18 1014 88 10000 5.1 150 16:56 22.11.2019
3713 Rain 18 1014 88 10000 5.7 150 16:37 22.11.2019
3714 Rain 18 1014 88 10000 6.2 140 16:19 22.11.2019
3715 Clouds 18 1015 88 10000 5.1 140 15:39 22.11.2019
3716 Clouds 18 1015 88 10000 5.1 140 15:20 22.11.2019
3717 Clouds 18 1015 93 10000 2.1 220 14:55 22.11.2019
3718 Clouds 18 1015 93 10000 2.1 220 14:55 22.11.2019
3719 Clouds 18 1015 88 10000 5.1 160 14:37 22.11.2019
3720 Clouds 18 1015 88 10000 5.1 160 14:37 22.11.2019
3721 Rain 18 1015 82 10000 4.1 160 14:18 22.11.2019
3722 Rain 18 1015 82 10000 4.1 160 13:39 22.11.2019
3723 Rain 18 1015 82 10000 4.1 160 13:20 22.11.2019
3724 Rain 18 1015 82 10000 4.1 160 13:20 22.11.2019
3725 Clouds 18 1015 93 10000 1.5 200 12:59 22.11.2019
3726 Rain 18 1015 82 10000 3.6 260 12:40 22.11.2019
3727 Rain 18 1015 82 10000 3.6 260 12:40 22.11.2019
3728 Rain 18 1015 82 10000 3.6 260 12:40 22.11.2019
3729 Rain 18 1015 82 10000 3.6 260 12:40 22.11.2019
3730 Rain 18 1015 88 10000 4.1 160 12:20 22.11.2019
3731 Rain 18 1015 88 10000 4.1 160 11:58 22.11.2019
3732 Rain 18 1014 88 10000 4.1 160 11:38 22.11.2019
3733 Rain 18 1014 88 10000 4.1 160 11:19 22.11.2019
3734 Rain 18 1014 88 10000 4.1 160 11:19 22.11.2019
3735 Rain 18 1014 88 10000 4.1 160 10:57 22.11.2019
3736 Rain 18 1015 88 10000 3.6 60 10:39 22.11.2019
3737 Rain 18 1015 88 10000 3.6 60 10:20 22.11.2019
3738 Rain 19 1015 88 10000 4.1 160 09:55 22.11.2019
3739 Drizzle 19 1015 88 10000 3.6 150 09:37 22.11.2019
3740 Thunderstorm 19 1014 88 10000 5.1 210 09:18 22.11.2019
3741 Thunderstorm 19 1014 88 8000 4.1 160 08:42 22.11.2019
3742 Thunderstorm 19 1014 77 10000 3.6 160 08:22 22.11.2019
3743 Thunderstorm 19 1014 77 10000 4.1 150 07:44 22.11.2019
3744 Thunderstorm 20 1014 77 10000 4.1 150 07:22 22.11.2019
3745 Thunderstorm 20 1013 82 9000 7.7 190 06:49 22.11.2019
3746 Clouds 21 1013 73 9000 6.7 150 06:29 22.11.2019
3747 Clouds 22 1013 73 10000 8.2 170 05:44 22.11.2019
3748 Clouds 24 1013 77 9000 8.7 160 04:19 22.11.2019
3749 Clouds 24 1013 77 10000 10.8 170 02:48 22.11.2019
3750 Clouds 24 1013 77 9000 11.8 170 02:28 22.11.2019
3751 Clouds 24 1013 77 8000 11.8 180 01:45 22.11.2019
3752 Clouds 24 1013 77 8000 11.8 180 01:19 22.11.2019
3753 Clouds 24 1011 57 10000 6.7 150 00:49 22.11.2019
3754 Smoke 24 1013 82 9000 10.3 170 00:23 22.11.2019
3755 Clouds 23 1012 82 8000 13.9 180 23:44 21.11.2019
3756 Clouds 23 1012 82 8000 13.9 180 23:44 21.11.2019
3757 Clouds 23 1012 82 8000 13.9 180 23:26 21.11.2019
3758 Clear 23 1012 82 7000 11.8 180 22:58 21.11.2019
3759 Clouds 22 1012 83 6000 8.7 170 22:39 21.11.2019
3760 Clouds 22 1011 88 6000 7.2 170 22:21 21.11.2019
3761 Clouds 21 1011 88 6000 7.2 170 21:56 21.11.2019
3762 Smoke 21 1011 88 5000 10.3 190 21:37 21.11.2019
3763 Smoke 20 1011 88 5000 10.3 190 21:19 21.11.2019
3764 Clouds 20 1010 94 6000 5.1 170 20:58 21.11.2019
3765 Clear 20 1008 83 6000 5.97 147 20:38 21.11.2019
3766 Smoke 19 1008 88 8000 9.3 180 20:19 21.11.2019
3767 Smoke 19 1008 88 8000 9.3 180 19:59 21.11.2019
3768 Clouds 19 1008 88 7000 4.1 270 19:40 21.11.2019
3769 Clouds 19 1007 88 8000 3.1 310 19:21 21.11.2019
3770 Clouds 19 1007 88 8000 3.1 310 18:56 21.11.2019
3771 Clouds 19 1007 88 8000 0.5 330 18:37 21.11.2019
3772 Clouds 19 1007 88 8000 0.5 330 18:19 21.11.2019
3773 Clouds 19 1007 88 8000 1.5 10 17:57 21.11.2019
3774 Clouds 19 1007 83 8000 2.1 10 17:38 21.11.2019
3775 Clouds 19 1007 83 8000 2.1 10 17:19 21.11.2019
3776 Clouds 19 1008 83 8000 1.98 282 16:41 21.11.2019
3777 Clouds 19 1008 83 8000 1.98 282 16:21 21.11.2019
3778 Clouds 19 1008 83 8000 1.98 282 15:57 21.11.2019
3779 Clouds 20 1008 83 8000 2.6 30 15:38 21.11.2019
3780 Clouds 20 1008 83 8000 2.6 30 15:19 21.11.2019
3781 Clouds 20 1009 94 6000 1.98 282 14:56 21.11.2019
3782 Clouds 20 1009 83 9000 3.6 40 14:36 21.11.2019
3783 Clear 20 1009 88 9000 2.6 40 14:18 21.11.2019
3784 Clear 21 1009 88 9000 3.1 40 13:39 21.11.2019
3785 Clear 21 1009 88 9000 3.1 40 13:20 21.11.2019
3786 Clear 21 1009 83 9000 3.6 40 12:57 21.11.2019
3787 Clear 21 1009 83 9000 4.1 30 12:38 21.11.2019
3788 Clear 21 1009 83 9000 4.1 30 12:19 21.11.2019
3789 Clouds 22 1009 78 9000 7.7 20 11:41 21.11.2019
3790 Clouds 22 1009 78 9000 7.7 20 11:21 21.11.2019
3791 Clear 22 1009 83 9000 7.7 20 10:59 21.11.2019
3792 Clear 23 1009 78 9000 8.2 20 10:41 21.11.2019
3793 Smoke 23 1008 78 10000 7.2 20 10:22 21.11.2019
3794 Smoke 23 1008 78 10000 7.2 20 09:57 21.11.2019
3795 Clear 24 1008 78 10000 8.7 30 09:38 21.11.2019
3796 Clear 24 1008 78 10000 8.7 30 09:19 21.11.2019
3797 Clear 24 1008 78 10000 8.7 30 09:19 21.11.2019
3798 Clear 25 1008 69 10000 10.8 30 08:41 21.11.2019
3799 Smoke 25 1008 65 8000 10.3 40 08:20 21.11.2019
3800 Smoke 26 1008 65 8000 10.3 40 07:42 21.11.2019
3801 Smoke 26 1009 65 8000 10.3 40 07:18 21.11.2019
3802 Smoke 27 1009 61 8000 10.3 40 06:57 21.11.2019
3803 Clouds 28 1009 61 8000 11.3 50 06:34 21.11.2019
3804 Clouds 29 1010 58 9000 9.8 40 05:38 21.11.2019
3805 Clouds 31 1012 51 10000 10.8 40 03:34 21.11.2019
3806 Clouds 30 1013 54 8000 8.2 40 02:42 21.11.2019
3807 Clear 28 1014 57 7000 6.2 30 02:21 21.11.2019
3808 Clear 28 1014 61 6000 5.1 30 01:42 21.11.2019
3809 Smoke 27 1015 54 5000 5.7 40 01:19 21.11.2019
3810 Smoke 25 1015 57 4000 3.6 50 00:38 21.11.2019
3811 Smoke 25 1015 57 4000 3.6 50 00:18 21.11.2019
3812 Smoke 23 1016 64 3500 5.1 360 23:41 20.11.2019
3813 Smoke 22 1016 64 3500 5.1 360 23:21 20.11.2019
3814 Smoke 21 1016 64 3000 4.1 350 22:57 20.11.2019
3815 Smoke 21 1016 64 5000 3.6 350 22:37 20.11.2019
3816 Smoke 19 1016 68 5000 2.6 360 22:19 20.11.2019
3817 Smoke 19 1016 68 5000 2.6 360 21:57 20.11.2019
3818 Clear 18 1016 72 9000 2.6 350 21:38 20.11.2019
3819 Clear 17 1016 72 9000 2.6 350 21:19 20.11.2019
3820 Clouds 16 1016 72 9000 1.5 340 20:56 20.11.2019
3821 Clouds 16 1016 100 10000 2.38 330 20:56 20.11.2019
3822 Clouds 16 1016 77 10000 2.6 310 20:38 20.11.2019
3823 Clouds 15 1016 77 10000 2.6 310 20:19 20.11.2019
3824 Clouds 15 1016 77 9000 3.6 320 19:56 20.11.2019
3825 Clouds 15 1016 77 10000 3.6 300 19:37 20.11.2019
3826 Clouds 15 1016 77 10000 3.6 300 19:18 20.11.2019
3827 Clouds 15 1016 100 10000 1.43 296 18:58 20.11.2019
3828 Clouds 15 1016 77 9000 2.6 330 18:38 20.11.2019
3829 Clouds 15 1016 77 9000 2.6 330 18:20 20.11.2019
3830 Clouds 15 1016 93 10000 1.43 296 17:56 20.11.2019
3831 Clouds 15 1016 82 10000 3.1 320 17:38 20.11.2019
3832 Clouds 15 1016 82 10000 3.1 320 17:19 20.11.2019
3833 Clouds 16 1016 82 10000 3.1 300 16:43 20.11.2019
3834 Clouds 16 1017 93 10000 0.5 30 16:21 20.11.2019
3835 Clouds 16 1017 93 10000 0.5 30 15:59 20.11.2019
3836 Clouds 16 1017 77 10000 4.1 320 15:41 20.11.2019
3837 Clouds 16 1017 77 10000 4.1 320 15:21 20.11.2019
3838 Clouds 17 1018 77 10000 3.6 320 14:59 20.11.2019
3839 Clouds 16 1018 87 10000 1.73 279 14:40 20.11.2019
3840 Clouds 16 1018 87 10000 1.1 357 14:21 20.11.2019
3841 Clear 17 1018 82 10000 1.1 357 13:57 20.11.2019
3842 Clear 17 1018 82 10000 0.49 350 13:39 20.11.2019
3843 Clear 17 1018 77 10000 0.49 350 13:20 20.11.2019
3844 Clouds 18 1018 72 10000 1 10 12:55 20.11.2019
3845 Clouds 18 1018 77 10000 2.6 30 12:36 20.11.2019
3846 Clouds 18 1018 72 10000 3.6 50 12:18 20.11.2019
3847 Clear 19 1018 72 10000 4.1 80 11:41 20.11.2019
3848 Clear 19 1018 72 10000 4.1 80 11:22 20.11.2019
3849 Clear 19 1018 68 10000 3.6 80 10:56 20.11.2019
3850 Clear 19 1017 68 10000 4.6 70 10:37 20.11.2019
3851 Clouds 19 1017 68 10000 4.1 50 10:19 20.11.2019
3852 Clouds 20 1017 68 10000 4.1 50 09:43 20.11.2019
3853 Clouds 20 1017 64 10000 4.1 50 09:22 20.11.2019
3854 Clouds 21 1016 60 10000 4.1 50 08:58 20.11.2019
3855 Clouds 21 1016 56 10000 4.1 50 08:39 20.11.2019
3856 Clouds 22 1016 56 10000 4.1 50 08:20 20.11.2019
3857 Clouds 23 1016 49 10000 5.7 110 07:47 20.11.2019
3858 Clouds 23 1016 49 10000 5.7 110 07:26 20.11.2019
3859 Clouds 23 1015 49 10000 5.7 110 06:49 20.11.2019
3860 Clouds 24 1016 49 10000 5.7 130 06:22 20.11.2019
3861 Clouds 24 1016 49 10000 5.7 130 05:42 20.11.2019
3862 Clouds 23 1017 56 10000 5.1 130 03:42 20.11.2019
3863 Clouds 22 1017 56 10000 4.6 130 02:22 20.11.2019
3864 Clouds 21 1018 64 10000 4.1 170 01:33 20.11.2019
3865 Rain 20 1018 72 10000 3.6 200 00:42 20.11.2019
3866 Rain 20 1018 77 10000 5.1 200 23:57 19.11.2019
3867 Rain 19 1018 72 10000 4.6 160 23:27 19.11.2019
3868 Rain 19 1018 77 10000 5.1 210 22:59 19.11.2019
3869 Rain 19 1017 72 10000 5.7 210 22:41 19.11.2019
3870 Rain 18 1017 77 10000 5.7 210 22:19 19.11.2019
3871 Rain 18 1017 77 10000 5.7 210 21:57 19.11.2019
3872 Rain 18 1017 77 10000 5.1 220 21:38 19.11.2019
3873 Rain 18 1017 77 10000 5.1 220 21:20 19.11.2019
3874 Clouds 18 1016 77 10000 5.1 210 20:57 19.11.2019
3875 Clouds 18 1016 77 10000 5.7 220 20:39 19.11.2019
3876 Clouds 18 1016 77 10000 6.7 210 20:20 19.11.2019
3877 Clouds 18 1016 77 10000 6.7 210 19:59 19.11.2019
3878 Clouds 18 1015 82 10000 6.7 210 19:41 19.11.2019
3879 Clouds 18 1015 82 10000 5.7 190 19:19 19.11.2019
3880 Clouds 18 1015 82 10000 5.7 190 19:19 19.11.2019
3881 Clouds 18 1015 82 10000 5.7 190 18:57 19.11.2019
3882 Clouds 18 1015 77 10000 7.2 180 18:38 19.11.2019
3883 Clouds 18 1015 77 10000 7.7 180 18:18 19.11.2019
3884 Clouds 18 1015 77 10000 7.7 180 17:56 19.11.2019
3885 Clouds 18 1015 77 10000 7.7 180 17:37 19.11.2019
3886 Clouds 18 1015 77 10000 7.7 180 17:18 19.11.2019
3887 Clouds 18 1015 88 10000 7.2 180 16:56 19.11.2019
3888 Clouds 18 1015 82 10000 8.7 180 16:37 19.11.2019
3889 Clouds 18 1015 82 10000 8.7 180 16:18 19.11.2019
3890 Clouds 19 1015 82 10000 8.7 170 15:42 19.11.2019
3891 Clouds 19 1015 82 10000 8.7 170 15:23 19.11.2019
3892 Clouds 19 1015 82 10000 8.7 170 14:57 19.11.2019
3893 Clouds 19 1015 82 10000 8.7 160 14:39 19.11.2019
3894 Clouds 19 1015 82 10000 8.7 160 14:20 19.11.2019
3895 Clouds 19 1015 77 10000 9.8 160 13:41 19.11.2019
3896 Clouds 19 1014 77 10000 10.8 160 13:20 19.11.2019
3897 Clouds 20 1014 82 10000 11.3 170 12:42 19.11.2019
3898 Clouds 20 1014 82 10000 11.3 170 12:23 19.11.2019
3899 Clouds 20 1013 82 10000 11.3 170 11:59 19.11.2019
3900 Clouds 20 1013 82 10000 10.8 170 11:39 19.11.2019
3901 Clouds 21 1012 88 10000 10.8 170 11:20 19.11.2019
3902 Clouds 21 1012 88 10000 10.8 170 10:58 19.11.2019
3903 Clouds 22 1011 83 10000 10.8 170 10:40 19.11.2019
3904 Clouds 23 1011 83 10000 10.8 170 10:20 19.11.2019
3905 Clouds 23 1011 83 10000 10.8 170 10:20 19.11.2019
3906 Haze 26 1009 50 10000 10.3 180 09:42 19.11.2019
3907 Haze 27 1009 50 10000 10.3 180 09:21 19.11.2019
3908 Haze 29 1007 77 10000 10.3 180 08:57 19.11.2019
3909 Haze 29 1007 13 10000 10.3 180 08:38 19.11.2019
3910 Haze 30 1007 13 10000 10.3 180 08:20 19.11.2019
3911 Haze 31 1006 15 10000 10.3 180 07:42 19.11.2019
3912 Haze 31 1006 15 10000 10.3 180 07:23 19.11.2019
3913 Haze 31 1007 14 10000 10.3 180 06:55 19.11.2019
3914 Haze 32 1006 13 10000 10.3 180 06:36 19.11.2019
3915 Clear 33 1007 15 10000 9.3 60 05:51 19.11.2019
3916 Clear 35 1007 15 9000 9.3 60 04:48 19.11.2019
3917 Clear 34 1008 14 6000 8.2 70 03:35 19.11.2019
3918 Clear 35 1009 13 6000 5.7 70 02:59 19.11.2019
3919 Clear 34 1009 11 6000 1.5 30 02:39 19.11.2019
3920 Clear 33 1011 30 9000 2.6 270 01:47 19.11.2019
3921 Clear 30 1011 19 9000 3.1 320 00:41 19.11.2019
3922 Clear 30 1011 19 9000 3.1 320 00:19 19.11.2019
3923 Clear 27 1012 34 8000 2.12 333 23:39 18.11.2019
3924 Clear 26 1012 33 6000 1 300 23:19 18.11.2019
3925 Clear 24 1012 33 6000 1 300 22:46 18.11.2019
3926 Smoke 21 1012 43 7000 5.1 320 22:24 18.11.2019
3927 Smoke 20 1012 56 7000 2.6 330 21:57 18.11.2019
3928 Clear 19 1012 72 7000 1.5 270 21:39 18.11.2019
3929 Smoke 18 1012 72 7000 2.6 330 21:20 18.11.2019
3930 Smoke 17 1012 72 7000 2.6 330 20:57 18.11.2019
3931 Smoke 16 1011 77 7000 2.6 330 20:39 18.11.2019
3932 Smoke 14 1011 77 7000 2.6 330 20:18 18.11.2019
3933 Smoke 14 1011 77 8000 2.6 330 19:56 18.11.2019
3934 Clear 14 1011 77 9000 0.5 360 19:38 18.11.2019
3935 Clear 14 1011 77 9000 0.5 360 19:19 18.11.2019
3936 Clear 15 1011 77 9000 2.38 272 18:56 18.11.2019
3937 Clear 15 1011 77 9000 3.1 300 18:38 18.11.2019
3938 Clear 15 1011 77 9000 3.1 300 18:19 18.11.2019
3939 Smoke 15 1011 77 10000 2.6 330 17:55 18.11.2019
3940 Clear 15 1011 77 10000 2.1 290 17:36 18.11.2019
3941 Clear 15 1011 77 10000 2.1 290 17:18 18.11.2019
3942 Clear 15 1011 77 10000 2.1 290 17:18 18.11.2019
3943 Clear 16 1011 72 10000 1 290 16:42 18.11.2019
3944 Clear 16 1011 72 10000 1 290 16:23 18.11.2019
3945 Smoke 16 1011 77 10000 2.6 330 15:57 18.11.2019
3946 Smoke 16 1012 72 10000 2.6 330 15:39 18.11.2019
3947 Smoke 16 1012 72 10000 2.6 330 15:20 18.11.2019
3948 Clear 16 1012 93 10000 1 10 14:44 18.11.2019
3949 Smoke 16 1012 68 10000 2.6 330 14:24 18.11.2019
3950 Clear 17 1013 87 10000 0.88 205 13:59 18.11.2019
3951 Clear 17 1013 87 10000 0.88 205 13:41 18.11.2019
3952 Clear 18 1013 87 10000 0.95 204 13:23 18.11.2019
3953 Clouds 18 1013 77 10000 0.5 120 12:40 18.11.2019
3954 Clouds 19 1013 77 10000 0.5 120 12:20 18.11.2019
3955 Clouds 19 1012 72 10000 1.5 100 11:56 18.11.2019
3956 Clouds 19 1012 68 10000 2.6 70 11:38 18.11.2019
3957 Clouds 20 1012 64 10000 6.7 20 11:19 18.11.2019
3958 Clouds 21 1011 64 10000 9.8 30 10:42 18.11.2019
3959 Clouds 21 1011 64 10000 9.8 30 10:42 18.11.2019
3960 -273 0 0 0 0 0 10:23 18.11.2019
3961 Clouds 21 1011 64 10000 8.7 30 09:57 18.11.2019
3962 Clouds 21 1011 56 10000 10.3 30 09:38 18.11.2019
3963 Clouds 22 1011 56 10000 10.3 30 09:20 18.11.2019
3964 Clouds 22 1011 60 10000 12.3 30 08:47 18.11.2019
3965 Clouds 24 1011 60 10000 10.3 30 08:24 18.11.2019
3966 Clouds 24 1011 60 10000 10.3 30 07:58 18.11.2019
3967 Clouds 24 1011 53 10000 9.8 40 07:38 18.11.2019
3968 Clouds 25 1011 53 10000 9.8 40 07:20 18.11.2019
3969 Clouds 25 1011 53 10000 10.3 50 06:43 18.11.2019
3970 Clouds 25 1012 53 10000 10.8 40 06:25 18.11.2019
3971 Clouds 26 1013 50 10000 9.8 50 05:42 18.11.2019
3972 Clear 26 1014 47 10000 9.3 50 03:59 18.11.2019
3973 Clouds 24 1017 41 10000 5.1 360 01:40 18.11.2019
3974 Clouds 23 1018 43 10000 6.7 40 00:54 18.11.2019
3975 Clouds 22 1018 46 10000 5.7 10 00:19 18.11.2019
3976 Clouds 21 1019 56 10000 6.2 350 23:41 17.11.2019
3977 Clouds 20 1019 56 10000 4.6 350 23:21 17.11.2019
3978 Clouds 20 1019 56 10000 4.6 350 22:57 17.11.2019
3979 Clouds 20 1019 56 10000 4.6 350 22:57 17.11.2019
3980 Clouds 19 1019 77 10000 1.5 340 22:39 17.11.2019
3981 Clouds 18 1019 63 10000 3.6 300 22:20 17.11.2019
3982 Clouds 17 1019 63 10000 3.6 300 21:56 17.11.2019
3983 Clouds 17 1019 63 10000 2.6 290 21:37 17.11.2019
3984 Clouds 16 1019 93 10000 1.5 350 21:18 17.11.2019
3985 Clouds 15 1019 93 10000 0.5 320 20:55 17.11.2019
3986 Clouds 14 1018 93 10000 0.5 280 20:36 17.11.2019
3987 Clouds 14 1018 93 10000 0.5 280 20:18 17.11.2019
3988 Clouds 14 1018 93 10000 0.7 10 19:55 17.11.2019
3989 Clouds 14 1018 93 10000 0.7 10 19:36 17.11.2019
3990 Clouds 14 1018 93 10000 0.7 10 19:18 17.11.2019
3991 Clouds 14 1018 72 10000 0.7 10 18:54 17.11.2019
3992 Clouds 14 1018 72 10000 1 90 18:36 17.11.2019
3993 Clouds 14 1018 72 10000 1 90 18:18 17.11.2019
3994 Clouds 15 1019 67 10000 2.1 90 17:56 17.11.2019
3995 Clouds 15 1019 72 10000 3.1 70 17:38 17.11.2019
3996 Clouds 16 1019 72 10000 3.1 70 17:18 17.11.2019
3997 Clouds 16 1019 72 10000 3.1 100 16:42 17.11.2019
3998 Clouds 16 1019 72 10000 3.1 100 16:22 17.11.2019
3999 Clouds 16 1020 72 10000 3.1 110 15:59 17.11.2019
4000 Clouds 16 1020 67 10000 3.6 110 15:41 17.11.2019
4001 Clouds 16 1020 63 10000 4.6 120 15:19 17.11.2019
4002 Clouds 17 1020 63 10000 4.6 120 14:57 17.11.2019
4003 Clouds 17 1020 63 10000 4.1 120 14:39 17.11.2019
4004 Clouds 17 1020 63 10000 4.1 120 14:21 17.11.2019
4005 Clouds 17 1020 68 10000 3.6 110 13:59 17.11.2019
4006 Clouds 17 1020 63 10000 4.6 130 13:40 17.11.2019
4007 Clouds 17 1020 63 10000 4.6 130 13:20 17.11.2019
4008 Clouds 17 1020 63 10000 4.6 130 13:20 17.11.2019
4009 Clouds 17 1021 63 10000 5.1 120 12:45 17.11.2019
4010 Clouds 17 1021 63 10000 5.1 120 12:25 17.11.2019
4011 Clouds 17 1020 63 10000 5.7 130 11:59 17.11.2019
4012 Clouds 17 1020 68 10000 6.2 130 11:40 17.11.2019
4013 Clouds 17 1020 63 10000 6.7 130 11:21 17.11.2019
4014 Clouds 17 1020 68 10000 6.2 130 11:21 17.11.2019
4015 Clouds 17 1020 63 10000 6.7 130 10:59 17.11.2019
4016 Clouds 17 1019 68 10000 6.7 140 10:40 17.11.2019
4017 Clouds 17 1019 68 10000 7.2 130 10:21 17.11.2019
4018 Clouds 18 1018 68 10000 7.2 130 09:42 17.11.2019
4019 Clouds 18 1018 68 10000 7.2 130 09:24 17.11.2019
4020 Clouds 18 1018 63 10000 7.7 130 08:44 17.11.2019
4021 Clouds 18 1017 68 10000 8.2 130 08:26 17.11.2019
4022 Clouds 19 1017 63 10000 8.2 130 07:59 17.11.2019
4023 Clouds 19 1017 68 10000 8.7 130 07:40 17.11.2019
4024 Clouds 19 1016 64 10000 8.2 130 07:20 17.11.2019
4025 Clouds 19 1016 64 10000 8.2 130 06:54 17.11.2019
4026 Clouds 19 1016 64 10000 8.2 130 06:30 17.11.2019
4027 Clouds 20 1016 68 10000 8.7 140 05:39 17.11.2019
4028 Clouds 21 1016 64 10000 9.8 130 04:18 17.11.2019
4029 Clouds 21 1016 64 10000 9.3 130 03:40 17.11.2019
4030 Clouds 21 1016 64 10000 9.3 130 03:22 17.11.2019
4031 Clouds 22 1015 68 10000 8.7 150 02:19 17.11.2019
4032 Clouds 21 1015 68 10000 9.8 140 01:22 17.11.2019
4033 Clouds 21 1015 72 10000 8.2 150 00:41 17.11.2019
4034 Rain 21 1015 72 10000 8.2 150 00:21 17.11.2019
4035 Rain 20 1015 82 10000 10.3 160 23:42 16.11.2019
4036 Rain 19 1015 82 10000 10.3 160 23:19 16.11.2019
4037 Rain 19 1015 82 10000 10.3 160 22:56 16.11.2019
4038 Clouds 19 1014 82 10000 4.6 200 22:38 16.11.2019
4039 Clouds 19 1014 82 10000 4.6 200 22:18 16.11.2019
4040 Clouds 18 1014 88 10000 4.1 200 21:41 16.11.2019
4041 Clouds 18 1014 88 10000 4.1 200 21:23 16.11.2019
4042 Clouds 17 1014 88 10000 4.6 200 20:58 16.11.2019
4043 Clouds 17 1014 88 10000 4.6 200 20:39 16.11.2019
4044 Clouds 17 1014 88 10000 4.6 200 20:20 16.11.2019
4045 Clouds 17 1014 88 10000 5.7 200 19:56 16.11.2019
4046 Clouds 17 1014 88 10000 4.1 170 19:38 16.11.2019
4047 Clouds 17 1014 88 10000 3.6 170 19:19 16.11.2019
4048 Clouds 17 1014 88 10000 3.6 170 18:43 16.11.2019
4049 Clouds 17 1014 82 10000 2.1 180 18:25 16.11.2019
4050 Clouds 17 1014 77 10000 1.5 160 17:56 16.11.2019
4051 Clouds 17 1015 82 10000 2.1 200 17:37 16.11.2019
4052 Clouds 18 1015 82 10000 2.1 200 17:18 16.11.2019
4053 Clouds 18 1015 77 10000 0.6 78 16:46 16.11.2019
4054 Clouds 18 1015 77 10000 0.6 78 16:28 16.11.2019
4055 Clouds 18 1015 72 10000 3.6 40 15:56 16.11.2019
4056 Clouds 18 1015 72 10000 3.6 50 15:38 16.11.2019
4057 Clouds 18 1016 72 10000 3.1 60 15:20 16.11.2019
4058 Clouds 18 1016 72 10000 2.6 60 14:42 16.11.2019
4059 Clouds 19 1016 72 10000 2.6 60 14:22 16.11.2019
4060 Clouds 19 1016 72 10000 2.6 90 13:58 16.11.2019
4061 Clouds 19 1016 72 10000 2.6 90 13:39 16.11.2019
4062 Clouds 19 1016 72 10000 2.6 90 13:39 16.11.2019
4063 Clouds 19 1016 72 10000 2.6 90 13:19 16.11.2019
4064 Clouds 19 1016 72 10000 3.1 70 12:59 16.11.2019
4065 Clouds 19 1016 72 10000 2.1 90 12:41 16.11.2019
4066 Clouds 19 1016 72 10000 2.1 90 12:20 16.11.2019
4067 Clouds 19 1016 68 10000 4.1 100 11:55 16.11.2019
4068 Clouds 19 1016 64 10000 4.6 100 11:37 16.11.2019
4069 Clouds 19 1015 72 10000 3.6 70 11:18 16.11.2019
4070 Clouds 19 1015 68 10000 3.6 80 10:42 16.11.2019
4071 Clouds 19 1015 68 10000 3.6 80 10:24 16.11.2019
4072 Clouds 19 1015 68 10000 4.1 90 09:56 16.11.2019
4073 Clouds 19 1015 68 10000 4.1 90 09:56 16.11.2019
4074 Clouds 19 1014 64 10000 4.6 100 09:38 16.11.2019
4075 Clouds 19 1014 64 10000 4.6 100 09:19 16.11.2019
4076 Clouds 20 1014 64 10000 6.2 70 08:40 16.11.2019
4077 Clouds 20 1014 64 10000 6.2 90 08:20 16.11.2019
4078 Clouds 20 1014 64 10000 6.2 90 07:44 16.11.2019
4079 Clouds 21 1014 64 10000 6.2 90 07:22 16.11.2019
4080 Clouds 21 1014 60 10000 6.2 90 06:59 16.11.2019
4081 Clouds 22 1014 60 10000 6.2 100 06:41 16.11.2019
4082 Clouds 21 1014 60 10000 6.2 100 06:19 16.11.2019
4083 Clouds 22 1015 60 10000 7.2 110 04:21 16.11.2019
4084 Clouds 22 1015 56 10000 5.7 130 03:26 16.11.2019
4085 Clouds 22 1015 56 10000 5.7 130 03:26 16.11.2019
4086 Clouds 22 1016 60 10000 5.1 120 02:36 16.11.2019
4087 Clouds 22 1016 60 10000 6.2 130 01:38 16.11.2019
4088 Rain 21 1016 77 10000 5.1 130 00:49 16.11.2019
4089 Rain 21 1016 77 10000 5.1 130 00:30 16.11.2019
4090 Clouds 21 1016 60 10000 1 30 23:56 15.11.2019
4091 Rain 21 1016 64 10000 3.6 120 23:38 15.11.2019
4092 Rain 20 1016 64 10000 3.6 120 23:20 15.11.2019
4093 Rain 20 1015 72 10000 7.7 130 22:40 15.11.2019
4094 Rain 20 1015 72 10000 7.7 130 22:20 15.11.2019
4095 Rain 20 1015 72 10000 7.7 130 22:20 15.11.2019
4096 Clouds 19 1015 68 10000 3.6 160 21:57 15.11.2019
4097 Clouds 18 1014 68 10000 4.6 140 21:38 15.11.2019
4098 Clouds 18 1014 68 10000 4.6 140 21:20 15.11.2019
4099 Clouds 17 1014 77 10000 4.6 140 20:56 15.11.2019
4100 Clouds 16 1014 77 10000 4.6 150 20:38 15.11.2019
4101 Clouds 16 1013 72 10000 5.7 150 20:20 15.11.2019
4102 Clouds 16 1013 72 10000 5.7 150 19:57 15.11.2019
4103 Clouds 16 1013 77 10000 6.2 160 19:38 15.11.2019
4104 Clouds 16 1012 77 10000 6.2 160 19:19 15.11.2019
4105 Clouds 17 1012 77 10000 6.2 160 18:55 15.11.2019
4106 Clouds 17 1012 82 10000 7.7 170 18:37 15.11.2019
4107 Clouds 17 1012 82 10000 7.7 170 18:19 15.11.2019
4108 Clouds 17 1012 82 10000 8.7 180 17:41 15.11.2019
4109 Clouds 17 1012 82 10000 8.7 180 17:23 15.11.2019
4110 Clouds 18 1012 82 10000 9.8 180 16:56 15.11.2019
4111 Clouds 18 1012 82 10000 10.3 180 16:37 15.11.2019
4112 Clouds 18 1012 77 10000 7.2 170 16:19 15.11.2019
4113 Clouds 18 1012 88 10000 7.2 170 15:38 15.11.2019
4114 Clouds 18 1012 88 10000 7.2 170 15:38 15.11.2019
4115 Clouds 18 1012 88 10000 7.2 170 15:20 15.11.2019
4116 Clouds 19 1012 88 10000 7.2 170 14:57 15.11.2019
4117 Clouds 19 1011 88 10000 7.2 170 14:38 15.11.2019
4118 Clouds 20 1011 88 10000 7.2 170 14:19 15.11.2019
4119 Clouds 21 1011 88 10000 7.2 170 13:58 15.11.2019
4120 Clouds 22 1011 82 10000 9.8 190 13:39 15.11.2019
4121 Clouds 22 1010 82 10000 11.8 180 13:20 15.11.2019
4122 Clouds 23 1010 82 10000 11.8 180 12:57 15.11.2019
4123 Clouds 24 1010 82 10000 13.9 180 12:39 15.11.2019
4124 Haze 26 1008 13 10000 10.3 180 12:20 15.11.2019
4125 Haze 26 1008 13 10000 10.3 180 11:57 15.11.2019
4126 Haze 26 1008 13 10000 7.2 200 11:38 15.11.2019
4127 Haze 27 1008 13 10000 7.2 200 11:20 15.11.2019
4128 Haze 27 1007 11 10000 10.3 200 10:56 15.11.2019
4129 Clouds 27 1007 9 10000 5.7 280 10:38 15.11.2019
4130 Haze 28 1006 8 10000 10.3 200 10:18 15.11.2019
4131 Clouds 27 1007 9 10000 5.7 280 10:18 15.11.2019
4132 Clouds 29 1006 8 10000 4.6 240 09:40 15.11.2019
4133 Clouds 29 1006 8 10000 4.6 240 09:19 15.11.2019
4134 Clouds 29 1004 7 10000 3.1 250 08:44 15.11.2019
4135 Clouds 29 1004 7 10000 3.1 250 08:44 15.11.2019
4136 Clouds 31 1004 7 10000 3.1 250 08:23 15.11.2019
4137 Clouds 31 1004 14 10000 7.7 270 07:49 15.11.2019
4138 Clouds 31 1004 21 10000 8.7 40 07:49 15.11.2019
4139 Clouds 32 1004 21 10000 8.7 40 07:28 15.11.2019
4140 Clouds 32 1004 19 9000 7.7 230 06:50 15.11.2019
4141 Clouds 31 1004 20 9000 9.8 40 06:31 15.11.2019
4142 Clouds 31 1005 16 9000 7.2 30 05:48 15.11.2019
4143 Clear 31 1005 16 9000 7.2 30 05:26 15.11.2019
4144 Clear 32 1006 14 10000 5.1 40 03:56 15.11.2019
4145 Clear 31 1007 16 10000 5.1 40 03:25 15.11.2019
4146 Clear 29 1008 17 10000 4.1 280 02:21 15.11.2019
4147 Clear 28 1009 18 10000 4.6 300 01:36 15.11.2019
4148 Clear 27 1010 24 10000 4.1 310 01:18 15.11.2019
4149 Clear 26 1010 22 10000 3.6 310 00:34 15.11.2019
4150 Clear 25 1010 25 10000 4.1 320 23:57 14.11.2019
4151 Clear 25 1010 25 10000 4.1 320 23:38 14.11.2019
4152 Clear 24 1010 31 10000 4.1 330 23:18 14.11.2019
4153 Clear 23 1010 35 10000 3.6 330 22:40 14.11.2019
4154 Clear 21 1010 35 10000 3.6 330 22:22 14.11.2019
4155 Clear 20 1010 40 10000 2.6 320 21:57 14.11.2019
4156 Clear 19 1010 42 10000 2.6 320 21:39 14.11.2019
4157 Clear 17 1010 55 10000 2.03 305 21:21 14.11.2019
4158 Clear 16 1010 67 10000 3.1 350 20:43 14.11.2019
4159 Clouds 14 1010 67 10000 3.1 350 20:24 14.11.2019
4160 Clouds 15 1009 67 10000 1.5 360 20:00 14.11.2019
4161 Clouds 14 1009 67 10000 3.1 350 19:41 14.11.2019
4162 Clouds 14 1010 63 10000 3.6 340 19:19 14.11.2019
4163 Clouds 14 1010 93 10000 2.1 70 18:59 14.11.2019
4164 Clouds 14 1010 93 10000 2.1 70 18:41 14.11.2019
4165 Clouds 14 1010 93 10000 2.1 70 18:21 14.11.2019
4166 Clouds 14 1010 67 10000 1.86 263 17:57 14.11.2019
4167 Clouds 14 1010 67 10000 1.86 263 17:37 14.11.2019
4168 Clouds 14 1010 67 10000 1.56 249 17:19 14.11.2019
4169 Clouds 15 1010 67 10000 1.56 249 16:57 14.11.2019
4170 Clouds 15 1010 68 10000 1.56 249 16:37 14.11.2019
4171 Clouds 15 1010 63 10000 1 260 16:19 14.11.2019
4172 Clouds 15 1010 63 10000 1 260 15:57 14.11.2019
4173 Clouds 15 1011 72 10000 1.56 249 15:38 14.11.2019
4174 Clouds 15 1011 68 10000 1.56 249 15:19 14.11.2019
4175 Clouds 15 1011 68 10000 1.56 249 15:19 14.11.2019
4176 Clouds 16 1011 63 10000 1.56 249 14:46 14.11.2019
4177 Clouds 16 1011 63 10000 0.69 162 14:23 14.11.2019
4178 Clouds 16 1011 63 10000 0.69 162 13:58 14.11.2019
4179 Clouds 17 1011 59 10000 0.69 162 13:39 14.11.2019
4180 Clouds 17 1011 59 10000 0.45 103 13:20 14.11.2019
4181 Clouds 17 1011 59 10000 1.5 150 12:56 14.11.2019
4182 Clouds 18 1011 55 10000 2.1 90 12:37 14.11.2019
4183 Clouds 18 1011 55 10000 2.1 90 12:19 14.11.2019
4184 Clouds 18 1011 55 10000 3.1 100 11:54 14.11.2019
4185 Clouds 19 1011 56 10000 4.1 40 11:36 14.11.2019
4186 Smoke 19 1011 52 10000 5.1 30 11:18 14.11.2019
4187 Smoke 19 1010 49 10000 5.1 30 10:41 14.11.2019
4188 Smoke 19 1010 49 10000 5.1 30 10:41 14.11.2019
4189 Smoke 20 1010 49 10000 5.1 30 10:20 14.11.2019
4190 Smoke 20 1010 49 10000 5.1 30 09:59 14.11.2019
4191 Smoke 21 1010 49 10000 5.1 30 09:41 14.11.2019
4192 Clouds 25 1009 40 10000 8.2 30 09:22 14.11.2019
4193 Clouds 25 1009 40 10000 8.2 30 08:48 14.11.2019
4194 Clear 25 1009 40 10000 8.2 30 08:26 14.11.2019
4195 Smoke 25 1009 38 10000 6.7 20 07:57 14.11.2019
4196 Clear 25 1009 31 10000 10.3 30 07:38 14.11.2019
4197 Clear 25 1009 31 10000 10.3 30 07:20 14.11.2019
4198 Clear 27 1010 29 10000 8.7 50 06:44 14.11.2019
4199 Clear 27 1010 29 10000 8.7 50 06:19 14.11.2019
4200 Clear 26 1013 25 0 4.24 74 04:49 14.11.2019
4201 Clear 26 1013 25 0 4.24 74 04:27 14.11.2019
4202 Clear 25 1013 25 10000 7.7 70 02:49 14.11.2019
4203 Clear 24 1014 25 10000 4.1 120 02:28 14.11.2019
4204 Clouds 23 1015 24 10000 4.1 120 01:34 14.11.2019
4205 Clouds 23 1015 26 10000 3.1 150 00:55 14.11.2019
4206 Clouds 23 1015 30 10000 2.6 240 00:36 14.11.2019
4207 Clouds 22 1015 35 10000 4.1 210 00:18 14.11.2019
4208 Clouds 21 1015 28 10000 4.1 200 23:37 13.11.2019
4209 Clear 21 1015 28 10000 4.1 200 23:19 13.11.2019
4210 Clear 18 1015 30 10000 6.7 250 22:41 13.11.2019
4211 Clear 15 1015 42 10000 0.5 340 22:23 13.11.2019
4212 Clear 15 1015 51 10000 2.86 253 21:57 13.11.2019
4213 Clear 14 1015 58 10000 1 340 21:39 13.11.2019
4214 Clear 14 1014 33 10000 5.7 260 21:20 13.11.2019
4215 Clear 14 1014 33 10000 5.7 260 20:58 13.11.2019
4216 Clear 14 1014 36 10000 5.1 260 20:38 13.11.2019
4217 Clear 14 1014 36 10000 5.1 260 20:38 13.11.2019
4218 Clear 14 1014 36 10000 5.1 260 20:20 13.11.2019
4219 Clear 14 1014 36 10000 5.1 260 19:59 13.11.2019
4220 Clear 14 1013 36 10000 5.1 260 19:40 13.11.2019
4221 Clear 14 1013 49 10000 4.1 260 19:18 13.11.2019
4222 Clear 14 1013 49 10000 4.1 260 18:56 13.11.2019
4223 Clear 14 1013 49 10000 4.1 280 18:37 13.11.2019
4224 Clear 14 1013 49 10000 4.6 270 18:19 13.11.2019
4225 Clear 14 1013 49 10000 4.6 270 17:56 13.11.2019
4226 Clear 15 1013 49 10000 4.6 260 17:38 13.11.2019
4227 Clear 15 1013 43 10000 4.6 260 17:19 13.11.2019
4228 Clear 15 1013 43 10000 4.1 250 16:57 13.11.2019
4229 Clear 15 1013 43 10000 4.6 280 16:38 13.11.2019
4230 Clear 15 1013 33 10000 4.6 280 16:20 13.11.2019
4231 Clear 14 1013 33 10000 4.6 280 15:57 13.11.2019
4232 Clear 14 1014 33 10000 4.1 250 15:38 13.11.2019
4233 Clear 14 1014 39 10000 3.6 280 15:18 13.11.2019
4234 Clear 15 1014 48 10000 2.6 350 14:42 13.11.2019
4235 Clear 15 1013 52 10000 3.1 330 14:21 13.11.2019
4236 Clear 15 1013 48 10000 1 350 13:56 13.11.2019
4237 Clear 15 1013 48 10000 1 350 13:36 13.11.2019
4238 Clear 16 1013 52 10000 1.5 30 13:18 13.11.2019
4239 Clear 15 1005 59 0 0.89 13 12:42 13.11.2019
4240 Clear 15 1005 59 0 1.34 296 12:24 13.11.2019
4241 Clear 16 1013 52 10000 4.1 350 11:59 13.11.2019
4242 Clear 16 1013 52 10000 4.1 10 11:38 13.11.2019
4243 Clear 16 1012 49 10000 4.6 30 11:19 13.11.2019
4244 Clear 17 1012 49 10000 4.6 30 10:57 13.11.2019
4245 Clear 17 1012 45 10000 4.1 30 10:39 13.11.2019
4246 Clear 18 1011 48 10000 5.1 30 10:19 13.11.2019
4247 Clear 18 1011 48 10000 5.1 30 10:19 13.11.2019
4248 Clear 18 1011 45 10000 5.1 50 09:45 13.11.2019
4249 Clear 19 1011 45 10000 5.1 50 09:21 13.11.2019
4250 Clear 20 1010 42 10000 5.7 30 08:55 13.11.2019
4251 Clear 20 1010 42 10000 6.7 60 08:36 13.11.2019
4252 Clear 21 1010 42 10000 6.7 60 08:18 13.11.2019
4253 Clear 22 1010 42 10000 6.7 70 07:42 13.11.2019
4254 Clear 22 1010 42 10000 6.7 70 07:42 13.11.2019
4255 Clear 22 1010 37 10000 7.2 70 07:20 13.11.2019
4256 Clear 23 1010 32 10000 6.7 70 06:44 13.11.2019
4257 Clear 23 1010 32 10000 6.7 70 06:19 13.11.2019
4258 Clear 23 1010 32 10000 6.7 70 06:19 13.11.2019
4259 Clear 23 1010 32 10000 6.7 70 06:19 13.11.2019
4260 Clear 23 1010 32 10000 6.2 70 05:52 13.11.2019
4261 Clear 23 1011 26 10000 6.2 60 05:31 13.11.2019
4262 Clear 24 1012 26 10000 6.2 100 04:27 13.11.2019
4263 Clear 23 1013 22 10000 6.7 120 02:19 13.11.2019
4264 Clouds 22 1013 16 10000 2.6 190 01:41 13.11.2019
4265 Clouds 21 1013 20 10000 5.7 260 00:44 13.11.2019
4266 Clouds 20 1013 22 10000 7.7 260 00:21 13.11.2019
4267 Clouds 19 1013 23 10000 7.7 260 23:41 12.11.2019
4268 Clouds 19 1013 23 10000 7.7 260 23:21 12.11.2019
4269 Clouds 18 1013 27 10000 8.7 270 22:55 12.11.2019
4270 Clouds 18 1013 27 10000 9.8 270 22:37 12.11.2019
4271 Clouds 17 1013 27 10000 9.8 270 22:18 12.11.2019
4272 Clouds 16 1012 41 10000 6.7 270 21:43 12.11.2019
4273 Clouds 16 1012 41 10000 6.7 270 21:24 12.11.2019
4274 Clouds 14 1012 54 10000 6.2 270 20:57 12.11.2019
4275 Clouds 14 1011 67 10000 6.2 260 20:37 12.11.2019
4276 Clouds 13 1011 67 10000 6.2 260 20:19 12.11.2019
4277 Clouds 13 1011 67 10000 5.7 270 19:57 12.11.2019
4278 Clouds 13 1011 72 10000 3.6 280 19:39 12.11.2019
4279 Clear 13 1011 77 10000 3.6 300 19:19 12.11.2019
4280 Clear 13 1011 77 10000 3.6 300 18:58 12.11.2019
4281 Clear 13 1010 77 10000 3.1 260 18:40 12.11.2019
4282 Clear 13 1010 77 10000 3.1 260 18:21 12.11.2019
4283 Clear 14 1010 77 10000 3.6 240 17:57 12.11.2019
4284 Clear 14 1010 87 10000 1.5 40 17:39 12.11.2019
4285 Clear 14 1010 72 10000 5.7 170 17:21 12.11.2019
4286 Clear 14 1010 72 10000 5.7 170 17:21 12.11.2019
4287 Clear 14 1010 87 10000 2.1 20 16:57 12.11.2019
4288 Clear 15 1010 72 10000 6.2 190 16:39 12.11.2019
4289 Clear 15 1010 72 10000 6.2 190 16:20 12.11.2019
4290 Clouds 16 1010 77 10000 9.3 170 15:41 12.11.2019
4291 Clouds 16 1010 77 10000 6.2 250 15:21 12.11.2019
4292 Clouds 16 1010 77 10000 6.2 250 14:56 12.11.2019
4293 Clouds 16 1009 77 10000 10.8 170 14:37 12.11.2019
4294 Clouds 17 1009 77 10000 11.8 170 14:18 12.11.2019
4295 Clouds 17 1009 77 10000 11.8 170 13:56 12.11.2019
4296 Clouds 17 1009 77 10000 10.8 170 13:37 12.11.2019
4297 Clouds 17 1009 77 10000 10.8 170 13:18 12.11.2019
4298 Clouds 18 1008 77 10000 11.8 170 12:42 12.11.2019
4299 Clouds 18 1008 77 10000 11.8 170 12:42 12.11.2019
4300 Rain 18 1007 82 9000 9.3 180 12:19 12.11.2019
4301 Dust 19 1007 82 9000 9.3 180 11:58 12.11.2019
4302 Dust 19 1006 82 10000 9.3 180 11:40 12.11.2019
4303 Dust 21 1006 82 10000 9.3 180 11:21 12.11.2019
4304 Dust 21 1006 82 10000 9.3 180 11:21 12.11.2019
4305 Dust 22 1006 82 9000 13.9 180 10:56 12.11.2019
4306 Dust 23 1005 82 8000 13.4 180 10:37 12.11.2019
4307 Dust 26 1003 72 9000 14.9 180 10:19 12.11.2019
4308 Dust 28 1002 68 9000 13.9 180 09:42 12.11.2019
4309 Clouds 31 1002 9 9000 6.7 250 09:21 12.11.2019
4310 Dust 33 1000 7 6000 12.3 260 08:54 12.11.2019
4311 Clouds 34 1000 8 10000 10.8 290 08:36 12.11.2019
4312 Clouds 34 1000 8 10000 10.8 290 08:18 12.11.2019
4313 Clouds 35 999 7 9000 11.3 190 07:40 12.11.2019
4314 Clouds 35 999 7 9000 11.3 190 07:40 12.11.2019
4315 Clouds 35 999 7 9000 11.3 190 07:20 12.11.2019
4316 Clouds 36 999 6 10000 7.7 300 06:42 12.11.2019
4317 Clouds 36 999 6 10000 7.7 300 06:22 12.11.2019
4318 Clouds 36 1000 6 10000 9.8 320 05:46 12.11.2019
4319 Clouds 36 1001 6 10000 10.8 280 04:46 12.11.2019
4320 Clouds 35 1002 6 10000 10.3 300 03:40 12.11.2019
4321 Clear 33 1004 10 10000 7.7 320 01:47 12.11.2019
4322 Clear 32 1005 13 10000 7.2 330 01:22 12.11.2019
4323 Clear 31 1006 13 10000 5.7 340 00:47 12.11.2019
4324 Clear 30 1006 13 10000 5.7 340 00:28 12.11.2019
4325 Clear 28 1007 22 10000 6.2 360 23:44 11.11.2019
4326 Clear 26 1007 22 10000 6.2 360 23:23 11.11.2019
4327 Clear 25 1007 29 6000 4.6 350 22:58 11.11.2019
4328 Smoke 23 1008 49 5000 3.1 320 22:37 11.11.2019
4329 Smoke 20 1008 56 5000 3.1 320 22:18 11.11.2019
4330 Smoke 22 1008 56 5000 3.1 320 21:57 11.11.2019
4331 Clear 21 1008 68 6000 3.1 330 21:38 11.11.2019
4332 Clear 17 1008 72 6000 2.1 310 21:19 11.11.2019
4333 Clear 15 1008 72 6000 2.1 310 20:55 11.11.2019
4334 Smoke 15 1008 82 5000 3.1 290 20:36 11.11.2019
4335 Smoke 15 1008 82 5000 3.1 290 20:18 11.11.2019
4336 Smoke 15 1008 82 5000 3.1 290 20:18 11.11.2019
4337 Smoke 15 1008 82 5000 3.1 290 19:41 11.11.2019
4338 Clear 15 1008 82 6000 2.1 300 19:41 11.11.2019
4339 Clear 15 1008 82 6000 2.1 300 19:19 11.11.2019
4340 Clear 14 1008 82 8000 2.51 309 18:57 11.11.2019
4341 Clear 15 1009 82 6000 2.51 309 18:39 11.11.2019
4342 Clear 15 1009 82 6000 2.51 309 18:20 11.11.2019
4343 Clear 15 1009 77 6000 2.51 309 17:44 11.11.2019
4344 Clear 15 1009 77 6000 2.15 273 17:25 11.11.2019
4345 -273 0 0 0 0 0 16:55 11.11.2019
4346 Clear 15 1010 77 7000 1 40 16:36 11.11.2019
4347 Clear 15 1010 77 7000 1 40 16:18 11.11.2019
4348 Clear 16 1011 72 7000 1.5 20 15:41 11.11.2019
4349 Clear 16 1011 72 7000 1.5 20 15:20 11.11.2019
4350 Clear 16 1011 93 9000 2.15 273 14:54 11.11.2019
4351 Clear 16 1011 93 9000 2.15 273 14:54 11.11.2019
4352 Clear 17 1011 87 10000 2.15 273 14:36 11.11.2019
4353 Clouds 17 1011 82 10000 0.34 45 14:18 11.11.2019
4354 Clouds 18 1011 77 10000 1.5 10 13:39 11.11.2019
4355 Clouds 18 1011 77 10000 1.5 10 13:21 11.11.2019
4356 Clouds 18 1012 72 10000 0.5 30 12:58 11.11.2019
4357 Clouds 18 1012 72 10000 0.5 30 12:58 11.11.2019
4358 Clouds 19 1011 72 10000 2.6 60 12:40 11.11.2019
4359 Clouds 19 1011 72 10000 2.6 60 12:22 11.11.2019
4360 Smoke 19 1011 73 10000 6.2 350 11:57 11.11.2019
4361 Smoke 20 1011 68 8000 6.2 350 11:39 11.11.2019
4362 Smoke 20 1011 68 8000 6.2 350 11:21 11.11.2019
4363 Clouds 20 1011 64 6000 11.8 30 10:43 11.11.2019
4364 Clouds 21 1011 64 6000 11.8 30 10:19 11.11.2019
4365 Clouds 21 1011 68 6000 11.8 30 09:58 11.11.2019
4366 Clouds 21 1011 68 6000 11.8 30 09:58 11.11.2019
4367 Clouds 20 1010 68 9000 12.9 30 09:39 11.11.2019
4368 Clouds 22 1010 68 9000 12.9 30 09:19 11.11.2019
4369 Clouds 22 1010 64 10000 11.8 30 08:41 11.11.2019
4370 Clouds 24 1010 60 10000 11.8 30 08:22 11.11.2019
4371 Clouds 24 1010 60 10000 11.8 30 08:22 11.11.2019
4372 Clouds 24 1010 53 10000 12.9 30 07:57 11.11.2019
4373 Clouds 25 1010 47 10000 10.3 40 07:37 11.11.2019
4374 Clouds 25 1010 47 10000 10.3 40 07:37 11.11.2019
4375 Clouds 26 1010 47 10000 10.3 40 07:19 11.11.2019
4376 Clouds 26 1010 44 10000 11.8 40 06:48 11.11.2019
4377 Clouds 27 1011 44 10000 10.8 40 06:24 11.11.2019
4378 Clouds 28 1011 41 10000 10.8 30 05:51 11.11.2019
4379 Clear 28 1012 39 10000 10.8 50 04:50 11.11.2019
4380 Clear 27 1013 41 10000 6.2 50 03:25 11.11.2019
4381 Clouds 25 1014 31 10000 6.2 60 02:30 11.11.2019
4382 Clouds 25 1015 31 10000 6.2 60 01:57 11.11.2019
4383 Clouds 25 1015 38 10000 7.2 60 01:36 11.11.2019
4384 Clouds 24 1015 41 10000 7.2 40 00:53 11.11.2019
4385 Clouds 23 1016 46 10000 4.1 330 00:29 11.11.2019
4386 Clouds 21 1016 53 10000 5.1 330 23:57 10.11.2019
4387 Clouds 21 1016 56 10000 6.2 330 23:37 10.11.2019
4388 Clouds 20 1016 56 10000 6.2 330 23:19 10.11.2019
4389 Clouds 19 1016 52 10000 5.7 350 22:55 10.11.2019
4390 Clouds 19 1016 52 10000 5.7 350 22:55 10.11.2019
4391 Clouds 19 1016 52 10000 5.7 350 22:55 10.11.2019
4392 Clouds 18 1016 60 10000 4.6 340 22:36 10.11.2019
4393 Clouds 16 1016 77 10000 2.79 314 22:18 10.11.2019
4394 Clouds 16 1016 87 10000 2.79 314 21:55 10.11.2019
4395 Clouds 15 1016 72 10000 3.1 350 21:36 10.11.2019
4396 Clouds 14 1016 72 10000 3.1 350 21:18 10.11.2019
4397 Clouds 13 1016 100 10000 2.79 314 20:40 10.11.2019
4398 Clouds 12 1016 100 10000 1.83 271 20:22 10.11.2019
4399 Clouds 12 1016 93 10000 1.83 271 19:56 10.11.2019
4400 Clouds 12 1015 93 10000 0.5 40 19:37 10.11.2019
4401 Clouds 12 1015 93 10000 0.5 40 19:37 10.11.2019
4402 Clouds 12 1015 93 10000 0.5 40 19:18 10.11.2019
4403 Clouds 12 1015 100 10000 1.5 20 18:58 10.11.2019
4404 Clouds 12 1015 93 10000 1 40 18:39 10.11.2019
4405 Clouds 12 1016 93 10000 0.5 70 18:19 10.11.2019
4406 Clouds 12 1016 93 10000 0.5 70 17:56 10.11.2019
4407 Clouds 13 1016 87 10000 1.5 140 17:38 10.11.2019
4408 Clouds 13 1016 87 10000 1.5 140 17:19 10.11.2019
4409 Clouds 13 1016 93 10000 2.1 50 16:58 10.11.2019
4410 Clouds 13 1016 77 10000 1.39 256 16:38 10.11.2019
4411 Clouds 13 1016 81 10000 1.39 256 16:20 10.11.2019
4412 Clouds 13 1016 82 10000 1.39 256 15:55 10.11.2019
4413 Clouds 13 1016 82 10000 1.39 256 15:36 10.11.2019
4414 Clouds 13 1016 77 10000 1.39 256 15:18 10.11.2019
4415 Clouds 14 1016 76 10000 1.39 256 14:41 10.11.2019
4416 Clouds 14 1016 72 10000 1.12 205 14:23 10.11.2019
4417 Clouds 15 1016 77 10000 1.12 205 13:58 10.11.2019
4418 Clouds 15 1016 72 10000 1.12 205 13:40 10.11.2019
4419 Clouds 15 1016 72 10000 1.05 194 13:20 10.11.2019
4420 Clouds 16 1016 72 10000 2.1 160 12:54 10.11.2019
4421 Clouds 16 1016 72 10000 2.6 150 12:36 10.11.2019
4422 Clouds 16 1016 72 10000 3.1 150 12:18 10.11.2019
4423 Clouds 17 1016 72 10000 3.1 150 11:54 10.11.2019
4424 Clouds 17 1015 72 10000 3.6 150 11:36 10.11.2019
4425 Clouds 17 1015 72 10000 3.6 150 11:18 10.11.2019
4426 Clouds 18 1014 68 10000 5.1 140 10:41 10.11.2019
4427 Clouds 18 1014 68 10000 5.1 140 10:20 10.11.2019
4428 Clouds 18 1014 59 10000 5.7 140 09:44 10.11.2019
4429 Clouds 19 1013 59 10000 6.7 140 09:26 10.11.2019
4430 Clear 19 1012 52 10000 7.2 140 08:59 10.11.2019
4431 Clear 20 1012 52 10000 6.7 150 08:38 10.11.2019
4432 Clear 20 1012 52 10000 6.7 150 08:38 10.11.2019
4433 Clouds 20 1012 52 10000 6.7 150 08:19 10.11.2019
4434 Clouds 21 1012 49 10000 7.2 140 07:43 10.11.2019
4435 Clouds 22 1011 46 10000 6.7 140 07:25 10.11.2019
4436 Clouds 22 1011 46 10000 6.7 140 07:25 10.11.2019
4437 Clouds 23 1011 40 10000 7.2 130 06:33 10.11.2019
4438 Clouds 24 1011 35 10000 6.7 130 05:43 10.11.2019
4439 Clouds 25 1011 28 10000 6.7 110 03:26 10.11.2019
4440 Clear 24 1011 27 10000 3.6 250 02:18 10.11.2019
4441 Clear 23 1012 33 10000 4.6 220 01:19 10.11.2019
4442 Clear 22 1012 35 10000 6.7 160 00:45 10.11.2019
4443 Clear 21 1012 34 10000 6.7 260 23:59 09.11.2019
4444 Clear 20 1012 34 10000 8.7 260 23:38 09.11.2019
4445 Clear 19 1012 34 10000 8.7 260 23:19 09.11.2019
4446 Clear 18 1012 36 10000 8.7 260 22:42 09.11.2019
4447 Clear 18 1012 36 10000 8.7 260 22:42 09.11.2019
4448 Clear 18 1012 36 10000 8.7 260 22:21 09.11.2019
4449 Clear 17 1011 36 10000 9.3 250 21:58 09.11.2019
4450 Clear 16 1011 41 10000 9.3 250 21:39 09.11.2019
4451 Clear 16 1011 41 10000 9.3 250 21:38 09.11.2019
4452 Clear 16 1011 41 10000 9.3 250 21:20 09.11.2019
4453 Clear 14 1011 41 10000 5.1 280 20:44 09.11.2019
4454 Clouds 14 1011 38 10000 3.1 270 20:24 09.11.2019
4455 Clouds 13 1010 41 10000 7.7 250 19:59 09.11.2019
4456 Clouds 14 1010 38 10000 6.7 260 19:40 09.11.2019
4457 Clouds 14 1010 38 10000 6.7 260 19:22 09.11.2019
4458 Clouds 13 1010 41 10000 7.7 250 18:57 09.11.2019
4459 Clouds 14 1010 38 10000 7.7 250 18:38 09.11.2019
4460 Clouds 14 1010 38 10000 7.7 250 18:18 09.11.2019
4461 Clouds 14 1010 36 10000 6.7 270 17:42 09.11.2019
4462 Clouds 14 1010 36 10000 6.7 270 17:23 09.11.2019
4463 Clouds 14 1010 36 10000 6.7 270 16:57 09.11.2019
4464 Clouds 15 1010 52 10000 7.7 260 16:39 09.11.2019
4465 Clouds 15 1010 52 10000 7.7 260 16:19 09.11.2019
4466 Clouds 15 1011 52 10000 8.2 270 15:42 09.11.2019
4467 Clouds 15 1011 52 10000 8.2 270 15:24 09.11.2019
4468 Clouds 15 1011 52 10000 5.1 270 14:57 09.11.2019
4469 Clouds 15 1012 29 10000 6.7 270 14:39 09.11.2019
4470 Clouds 15 1012 29 10000 6.7 270 14:18 09.11.2019
4471 Clouds 15 1012 29 10000 6.7 260 13:55 09.11.2019
4472 Clouds 15 1012 29 10000 7.7 260 13:36 09.11.2019
4473 Clouds 16 1012 29 10000 7.7 260 13:18 09.11.2019
4474 Clouds 16 1012 27 10000 2.6 200 12:41 09.11.2019
4475 Clouds 16 1012 27 10000 2.6 200 12:22 09.11.2019
4476 Clouds 16 1012 25 10000 7.7 250 11:56 09.11.2019
4477 Clouds 16 1012 36 10000 1.5 190 11:38 09.11.2019
4478 Clouds 17 1012 44 10000 6.2 250 11:18 09.11.2019
4479 Clouds 17 1012 48 10000 1 160 10:41 09.11.2019
4480 Clouds 17 1012 48 10000 1 160 10:19 09.11.2019
4481 Clouds 17 1011 44 10000 6.2 250 09:56 09.11.2019
4482 Clouds 17 1010 44 10000 3.6 140 09:38 09.11.2019
4483 Clouds 18 1010 39 10000 4.6 140 09:18 09.11.2019
4484 Clouds 18 1009 36 10000 4.1 130 08:43 09.11.2019
4485 Clouds 19 1009 36 10000 4.1 130 08:24 09.11.2019
4486 Clouds 20 1009 31 10000 3.6 120 07:46 09.11.2019
4487 Clouds 20 1009 31 10000 3.6 120 07:24 09.11.2019
4488 Clouds 20 1009 33 10000 6.2 130 06:50 09.11.2019
4489 Clouds 20 1009 33 10000 6.2 130 06:32 09.11.2019
4490 Clouds 20 1009 34 10000 5.7 120 05:53 09.11.2019
4491 Clouds 20 1010 31 10000 6.7 130 05:34 09.11.2019
4492 Clouds 20 1011 31 10000 6.7 130 03:57 09.11.2019
4493 Clouds 20 1012 20 10000 4.1 220 02:45 09.11.2019
4494 Clear 19 1012 24 10000 5.1 270 01:57 09.11.2019
4495 Clear 18 1012 31 10000 6.7 160 00:57 09.11.2019
4496 Clear 17 1012 31 10000 5.7 220 00:39 09.11.2019
4497 Clouds 17 1012 36 10000 6.2 240 00:20 09.11.2019
4498 Clouds 16 1012 38 10000 7.7 250 23:40 08.11.2019
4499 Clouds 16 1012 33 10000 7.7 250 23:21 08.11.2019
4500 Clouds 15 1012 33 10000 7.7 250 22:50 08.11.2019
4501 Clouds 14 1011 44 10000 8.7 250 22:22 08.11.2019
4502 Clouds 14 1011 44 10000 8.7 250 21:59 08.11.2019
4503 Clouds 14 1011 47 10000 6.7 260 21:40 08.11.2019
4504 Clouds 13 1011 47 10000 6.7 260 21:22 08.11.2019
4505 Clouds 13 1010 47 10000 5.7 270 20:57 08.11.2019
4506 Clouds 12 1010 50 10000 5.7 270 20:38 08.11.2019
4507 Clouds 12 1010 50 10000 5.7 270 20:18 08.11.2019
4508 Clouds 12 1009 47 10000 8.2 250 19:40 08.11.2019
4509 Clouds 12 1010 43 10000 4.6 220 19:19 08.11.2019
4510 Clouds 12 1009 47 10000 8.2 250 19:19 08.11.2019
4511 Clouds 13 1010 43 10000 4.6 220 18:57 08.11.2019
4512 Clouds 13 1010 43 10000 4.6 220 18:57 08.11.2019
4513 Clouds 13 1009 44 10000 8.2 250 18:57 08.11.2019
4514 Clouds 13 1009 44 10000 8.7 260 18:39 08.11.2019
4515 Clouds 13 1009 50 10000 7.7 250 18:20 08.11.2019
4516 Clouds 13 1009 50 10000 7.7 250 17:56 08.11.2019
4517 Clouds 13 1009 54 10000 6.2 230 17:38 08.11.2019
4518 Clouds 13 1009 71 10000 5.7 220 17:20 08.11.2019
4519 Clouds 13 1009 71 10000 5.7 220 16:59 08.11.2019
4520 Clouds 14 1009 67 10000 5.1 230 16:40 08.11.2019
4521 Clouds 14 1009 72 10000 6.7 210 16:21 08.11.2019
4522 Clouds 14 1009 72 10000 6.7 210 15:59 08.11.2019
4523 Clouds 14 1009 72 10000 8.2 210 15:41 08.11.2019
4524 Clouds 15 1009 72 10000 8.2 210 15:22 08.11.2019
4525 Clouds 15 1009 54 10000 4.1 150 14:57 08.11.2019
4526 Clouds 15 1009 54 10000 4.1 150 14:57 08.11.2019
4527 Clouds 15 1009 72 10000 7.2 210 14:38 08.11.2019
4528 Clouds 15 1009 72 10000 7.2 210 14:20 08.11.2019
4529 Clouds 15 1009 72 10000 6.2 210 13:58 08.11.2019
4530 Clouds 15 1008 72 10000 7.7 200 13:39 08.11.2019
4531 Clouds 16 1008 48 10000 7.2 190 13:21 08.11.2019
4532 Clouds 16 1008 45 10000 8.2 260 12:45 08.11.2019
4533 Clouds 16 1008 45 10000 8.2 260 12:27 08.11.2019
4534 Clouds 17 1007 45 10000 10.3 190 11:58 08.11.2019
4535 Clouds 17 1007 42 10000 10.3 190 11:40 08.11.2019
4536 Clouds 18 1007 42 10000 10.3 190 11:21 08.11.2019
4537 Clouds 18 1006 37 10000 11.8 240 10:58 08.11.2019
4538 Clouds 19 1004 42 10000 14.4 250 10:40 08.11.2019
4539 Clouds 19 1004 42 10000 14.4 250 10:21 08.11.2019
4540 Rain 20 1003 37 10000 10.3 190 09:58 08.11.2019
4541 Clouds 22 1002 28 10000 13.4 260 09:37 08.11.2019
4542 Clouds 22 1002 28 10000 13.4 260 09:19 08.11.2019
4543 Clouds 26 1000 22 10000 10.8 250 08:45 08.11.2019
4544 Clouds 26 1000 22 10000 10.8 250 08:21 08.11.2019
4545 Clouds 28 999 29 10000 9.8 270 07:45 08.11.2019
4546 Clouds 28 999 29 10000 9.8 270 07:24 08.11.2019
4547 Clouds 29 998 14 10000 11.8 280 06:58 08.11.2019
4548 Clouds 30 998 12 10000 14.4 300 06:38 08.11.2019
4549 Clouds 30 997 12 10000 11.8 280 06:19 08.11.2019
4550 Clouds 30 997 29 10000 11.8 280 05:32 08.11.2019
4551 Clear 30 998 20 10000 11.3 290 04:29 08.11.2019
4552 Clear 30 999 13 10000 12.3 280 03:43 08.11.2019
4553 Clear 30 999 13 10000 12.3 280 03:19 08.11.2019
4554 Clear 29 1000 17 10000 9.8 300 01:57 08.11.2019
4555 Clear 28 1000 18 10000 10.3 290 01:37 08.11.2019
4556 Clear 25 1001 21 10000 7.7 300 00:49 08.11.2019
4557 Clear 25 1001 21 10000 7.7 300 00:23 08.11.2019
4558 Clear 25 1002 22 10000 6.2 310 23:52 07.11.2019
4559 Clear 25 1002 22 10000 6.2 310 23:33 07.11.2019
4560 Clear 24 1002 25 10000 6.7 320 22:59 07.11.2019
4561 Clear 23 1002 25 10000 6.2 310 22:41 07.11.2019
4562 Clear 22 1002 27 10000 5.7 310 22:21 07.11.2019
4563 Clear 22 1002 27 10000 5.7 310 21:55 07.11.2019
4564 Clear 21 1002 28 10000 5.7 310 21:37 07.11.2019
4565 Clear 20 1002 30 10000 5.1 310 21:18 07.11.2019
4566 Clear 20 1002 30 10000 5.1 310 21:18 07.11.2019
4567 Clear 19 1002 30 10000 5.1 310 20:55 07.11.2019
4568 Clear 19 1002 32 10000 5.1 330 20:36 07.11.2019
4569 Clear 18 1002 30 10000 4.6 340 20:18 07.11.2019
4570 Clear 18 1002 37 10000 2.6 340 19:41 07.11.2019
4571 Clear 18 1002 37 10000 2.6 340 19:23 07.11.2019
4572 Clear 17 1002 40 10000 1 30 18:58 07.11.2019
4573 Clear 18 1002 40 10000 0.5 20 18:39 07.11.2019
4574 Clear 18 1003 45 10000 1 150 18:19 07.11.2019
4575 Clear 18 1003 45 10000 1 150 17:59 07.11.2019
4576 Clear 18 1003 45 10000 1 150 17:39 07.11.2019
4577 Clear 18 1003 45 10000 4.1 350 17:20 07.11.2019
4578 Clear 18 1003 45 10000 4.1 350 16:57 07.11.2019
4579 Clear 18 1003 56 10000 2.1 20 16:38 07.11.2019
4580 Clear 18 1004 52 10000 3.1 30 16:19 07.11.2019
4581 Clear 19 1004 52 10000 3.1 30 15:54 07.11.2019
4582 Clear 19 1004 49 10000 4.1 30 15:36 07.11.2019
4583 Clear 19 1004 49 10000 3.6 30 15:18 07.11.2019
4584 Clear 19 1005 46 10000 4.6 40 14:43 07.11.2019
4585 Clear 19 1005 46 10000 4.6 40 14:25 07.11.2019
4586 Clear 19 1005 52 10000 4.1 40 13:56 07.11.2019
4587 Clear 19 1005 52 10000 4.1 30 13:38 07.11.2019
4588 Clear 19 1005 49 10000 4.6 20 13:20 07.11.2019
4589 Clear 19 1005 49 10000 4.6 20 12:58 07.11.2019
4590 Clear 19 1006 53 10000 4.1 50 12:39 07.11.2019
4591 Clear 20 1006 49 10000 4.1 50 12:20 07.11.2019
4592 Clear 20 1005 49 10000 4.1 60 11:44 07.11.2019
4593 Clear 21 1005 49 10000 4.6 60 11:24 07.11.2019
4594 Clear 22 1005 49 10000 4.6 60 10:59 07.11.2019
4595 Clear 22 1004 43 10000 5.7 50 10:40 07.11.2019
4596 Clear 22 1004 40 10000 5.7 50 10:18 07.11.2019
4597 Clear 22 1004 41 10000 5.7 60 09:43 07.11.2019
4598 Clear 23 1004 41 10000 5.7 60 09:22 07.11.2019
4599 Clear 23 1003 36 10000 5.7 70 08:56 07.11.2019
4600 Clear 23 1003 36 10000 5.7 70 08:56 07.11.2019
4601 Clear 25 1003 36 10000 6.2 80 08:37 07.11.2019
4602 Clear 27 1003 36 10000 6.2 80 08:19 07.11.2019
4603 Clear 27 1002 33 10000 6.2 60 07:41 07.11.2019
4604 Clear 27 1002 33 10000 6.2 60 07:22 07.11.2019
4605 Clear 27 1002 33 10000 6.2 110 06:49 07.11.2019
4606 Clear 28 1002 33 10000 6.2 110 06:29 07.11.2019
4607 Clear 29 1002 31 10000 7.7 100 05:58 07.11.2019
4608 Clear 30 1003 27 10000 8.2 110 05:39 07.11.2019
4609 Clear 30 1002 15 10000 7.7 290 05:21 07.11.2019
4610 Clear 30 1003 16 10000 6.7 250 04:42 07.11.2019
4611 Clear 30 1003 15 10000 8.7 260 03:01 07.11.2019
4612 Clear 29 1004 9 10000 8.7 300 00:58 07.11.2019
4613 Clear 28 1003 12 10000 8.2 330 00:22 07.11.2019
4614 Clear 28 1003 14 10000 8.7 330 00:22 07.11.2019
4615 Clear 28 1003 14 10000 8.7 330 00:22 07.11.2019
4616 Clear 27 1003 15 10000 8.2 320 23:48 06.11.2019
4617 Clear 26 1003 15 10000 8.2 320 23:22 06.11.2019
4618 Clear 26 1004 30 10000 7.7 320 22:57 06.11.2019
4619 Clear 25 1004 21 10000 5.1 340 22:38 06.11.2019
4620 Clear 24 1003 20 10000 6.2 360 22:19 06.11.2019
4621 Clear 24 1003 20 10000 6.2 360 21:56 06.11.2019
4622 Clear 23 1003 23 10000 6.7 360 21:38 06.11.2019
4623 Clear 23 1003 23 10000 6.7 360 21:38 06.11.2019
4624 Clear 22 1002 23 10000 7.2 350 21:18 06.11.2019
4625 Clear 22 1002 30 10000 7.2 350 20:55 06.11.2019
4626 Clear 22 1002 30 10000 7.2 350 20:36 06.11.2019
4627 Clear 21 1002 31 10000 8.2 350 20:18 06.11.2019
4628 Clear 21 1001 31 10000 8.7 340 19:40 06.11.2019
4629 Clear 21 1001 31 10000 9.8 350 19:22 06.11.2019
4630 Clear 21 1001 31 10000 9.8 350 18:59 06.11.2019
4631 Clear 21 1001 31 10000 9.8 350 18:59 06.11.2019
4632 Clear 21 1002 20 10000 9.3 350 18:39 06.11.2019
4633 Clear 21 1001 24 10000 7.7 350 18:19 06.11.2019
4634 Clear 22 1001 24 10000 7.7 350 17:59 06.11.2019
4635 Clear 21 1002 31 10000 8.7 360 17:41 06.11.2019
4636 Clear 21 1002 31 10000 8.7 360 17:22 06.11.2019
4637 Clear 21 1002 31 10000 9.3 360 16:57 06.11.2019
4638 Clear 22 1003 23 10000 9.3 360 16:38 06.11.2019
4639 Clear 22 1003 23 10000 9.3 360 16:19 06.11.2019
4640 Clear 22 1003 25 10000 7.7 360 15:56 06.11.2019
4641 Clear 22 1004 26 10000 6.2 360 15:37 06.11.2019
4642 Clear 22 1005 25 10000 6.7 10 15:19 06.11.2019
4643 Clear 22 1005 25 10000 6.7 10 14:57 06.11.2019
4644 Clear 22 1005 23 10000 6.2 10 14:38 06.11.2019
4645 Clouds 22 1005 23 10000 6.2 10 14:20 06.11.2019
4646 Clouds 22 1006 33 10000 5.1 350 13:57 06.11.2019
4647 Clear 22 1006 31 10000 5.1 350 13:37 06.11.2019
4648 Clear 22 1006 29 10000 3.1 360 13:18 06.11.2019
4649 Clear 21 1006 29 10000 3.1 360 12:54 06.11.2019
4650 Clear 21 1006 49 10000 3.1 30 12:36 06.11.2019
4651 Clear 21 1006 49 10000 3.1 30 12:18 06.11.2019
4652 Clear 21 1006 64 10000 2.1 40 11:54 06.11.2019
4653 Clear 22 1006 64 10000 2.1 30 11:36 06.11.2019
4654 Clear 22 1006 64 10000 2.1 30 11:18 06.11.2019
4655 Clear 22 1006 64 10000 6.2 340 10:42 06.11.2019
4656 Clear 22 1006 64 10000 6.2 340 10:24 06.11.2019
4657 Clear 22 1006 64 10000 6.2 340 10:24 06.11.2019
4658 Clear 22 1006 56 10000 6.2 340 09:58 06.11.2019
4659 Clear 23 1005 49 10000 6.2 340 09:39 06.11.2019
4660 Clear 24 1005 49 10000 6.2 340 09:20 06.11.2019
4661 Clear 25 1005 46 10000 9.8 40 08:55 06.11.2019
4662 Clear 25 1005 33 10000 8.7 40 08:37 06.11.2019
4663 Clear 25 1005 33 10000 8.7 40 08:37 06.11.2019
4664 Clear 25 1005 33 10000 8.7 40 08:37 06.11.2019
4665 Clear 26 1005 33 10000 8.7 40 08:18 06.11.2019
4666 Clear 27 1005 29 10000 9.3 30 07:44 06.11.2019
4667 Clear 27 1005 29 10000 9.3 30 07:26 06.11.2019
4668 Clear 28 1006 27 10000 9.8 30 06:48 06.11.2019
4669 Clear 28 1006 27 10000 8.2 50 06:30 06.11.2019
4670 Clear 29 1006 26 10000 8.2 50 05:50 06.11.2019
4671 Clear 28 1010 14 10000 5.1 310 03:35 06.11.2019
4672 Clear 24 1012 23 10000 5.7 330 01:42 06.11.2019
4673 Clear 22 1013 28 10000 5.7 320 00:47 06.11.2019
4674 Clear 21 1013 28 10000 5.7 320 00:25 06.11.2019
4675 Clear 20 1013 42 10000 4.6 310 23:41 05.11.2019
4676 Clear 18 1013 42 10000 4.6 310 23:22 05.11.2019
4677 Clear 17 1014 52 10000 5.7 310 22:59 05.11.2019
4678 Clear 16 1014 63 10000 5.1 320 22:41 05.11.2019
4679 Clear 15 1014 63 10000 5.1 320 22:19 05.11.2019
4680 Clear 14 1014 67 10000 4.6 330 21:55 05.11.2019
4681 Clear 13 1014 71 10000 4.6 320 21:37 05.11.2019
4682 Clear 12 1014 71 10000 4.6 320 21:19 05.11.2019
4683 Clear 11 1014 76 10000 4.6 310 20:56 05.11.2019
4684 Clear 10 1014 81 10000 4.6 310 20:37 05.11.2019
4685 Clear 10 1014 81 10000 4.6 310 20:19 05.11.2019
4686 Clear 9 1013 100 10000 2.4 294 19:42 05.11.2019
4687 Clear 9 1013 100 10000 2.4 294 19:23 05.11.2019
4688 Clear 9 1014 100 10000 2.4 294 18:58 05.11.2019
4689 Clear 9 1014 100 10000 1 40 18:40 05.11.2019
4690 Clear 9 1014 100 10000 1 40 18:21 05.11.2019
4691 Clear 10 1014 100 10000 2.4 294 17:59 05.11.2019
4692 Clear 10 1014 93 10000 1.5 40 17:39 05.11.2019
4693 Clear 10 1014 93 10000 1.5 40 17:20 05.11.2019
4694 Clear 10 1015 93 10000 1 10 16:58 05.11.2019
4695 Clear 10 1015 87 10000 1.85 256 16:40 05.11.2019
4696 Clear 11 1016 93 10000 1.85 256 16:20 05.11.2019
4697 Clear 11 1016 81 10000 1.5 250 15:41 05.11.2019
4698 Clear 11 1017 87 10000 2.1 240 15:20 05.11.2019
4699 Clear 11 1017 87 10000 2.1 240 14:59 05.11.2019
4700 Clear 12 1016 81 10000 2.1 280 14:41 05.11.2019
4701 Clear 11 1016 81 10000 2.1 280 14:22 05.11.2019
4702 Clouds 12 1016 76 10000 3.6 260 13:58 05.11.2019
4703 Clouds 12 1016 72 10000 3.1 250 13:40 05.11.2019
4704 Clear 12 1017 76 10000 2.1 280 13:22 05.11.2019
4705 Clear 13 1017 71 10000 1.5 250 12:41 05.11.2019
4706 Clear 13 1017 71 10000 1.5 250 12:22 05.11.2019
4707 Clouds 14 1016 67 10000 3.1 180 11:57 05.11.2019
4708 Clouds 14 1016 63 10000 3.1 170 11:38 05.11.2019
4709 Clouds 14 1016 63 10000 3.1 170 11:20 05.11.2019
4710 Clouds 15 1016 63 10000 3.6 170 10:55 05.11.2019
4711 Clouds 15 1016 63 10000 4.6 150 10:37 05.11.2019
4712 Clouds 15 1015 59 10000 5.7 160 10:18 05.11.2019
4713 Clouds 16 1015 59 10000 5.7 160 09:54 05.11.2019
4714 Clouds 16 1015 59 10000 6.2 140 09:36 05.11.2019
4715 Clouds 16 1015 59 10000 7.2 150 09:18 05.11.2019
4716 Clouds 17 1015 59 10000 7.2 150 08:38 05.11.2019
4717 Clouds 18 1015 55 10000 7.7 160 08:19 05.11.2019
4718 Clouds 18 1015 55 10000 7.7 160 07:55 05.11.2019
4719 Clouds 18 1015 63 10000 8.7 160 07:37 05.11.2019
4720 Clouds 18 1015 63 10000 8.7 160 07:19 05.11.2019
4721 Clouds 18 1014 63 10000 10.3 160 06:43 05.11.2019
4722 Clouds 18 1014 63 10000 10.3 160 06:43 05.11.2019
4723 Clouds 19 1015 63 10000 11.8 170 05:51 05.11.2019
4724 Clouds 19 1015 63 10000 11.3 180 05:22 05.11.2019
4725 Clouds 19 1015 63 10000 12.3 190 04:25 05.11.2019
4726 Clouds 19 1015 59 10000 12.9 190 03:49 05.11.2019
4727 Clouds 18 1015 63 10000 13.4 190 02:44 05.11.2019
4728 Rain 17 1015 63 10000 12.9 190 01:59 05.11.2019
4729 Rain 17 1015 67 10000 12.3 200 00:50 05.11.2019
4730 Rain 17 1015 67 10000 10.8 200 00:29 05.11.2019
4731 Rain 17 1014 67 10000 10.8 190 23:55 04.11.2019
4732 Clouds 17 1014 67 10000 9.3 190 23:36 04.11.2019
4733 Clouds 17 1014 67 10000 9.3 190 23:18 04.11.2019
4734 Clouds 17 1014 67 10000 6.7 230 22:41 04.11.2019
4735 Clouds 17 1014 67 10000 6.7 230 22:23 04.11.2019
4736 Clouds 17 1014 67 10000 6.7 230 22:23 04.11.2019
4737 Clouds 16 1014 67 10000 7.7 230 21:56 04.11.2019
4738 Clouds 16 1014 72 10000 8.2 240 21:38 04.11.2019
4739 Clouds 15 1014 72 10000 8.2 240 21:19 04.11.2019
4740 Clouds 14 1013 77 10000 8.2 220 20:58 04.11.2019
4741 Clouds 14 1013 77 10000 7.2 210 20:39 04.11.2019
4742 Clouds 14 1013 77 10000 7.2 210 20:21 04.11.2019
4743 Clouds 14 1013 72 10000 7.7 210 19:59 04.11.2019
4744 Clouds 15 1012 77 10000 9.3 210 19:40 04.11.2019
4745 Clouds 15 1012 77 10000 9.3 210 19:21 04.11.2019
4746 Clouds 15 1012 82 10000 8.7 210 18:57 04.11.2019
4747 Clouds 15 1012 59 10000 7.7 220 18:38 04.11.2019
4748 Clouds 16 1012 55 10000 7.2 230 18:19 04.11.2019
4749 Clouds 16 1012 55 10000 5.1 230 17:40 04.11.2019
4750 Clouds 16 1012 55 10000 5.1 230 17:21 04.11.2019
4751 Clouds 16 1012 68 10000 5.7 230 16:59 04.11.2019
4752 Clouds 16 1012 82 10000 4.1 240 16:40 04.11.2019
4753 Clouds 16 1012 82 10000 4.1 240 16:22 04.11.2019
4754 Clouds 16 1012 93 10000 2.1 150 15:56 04.11.2019
4755 Clouds 16 1012 100 10000 2.1 250 15:38 04.11.2019
4756 Clouds 16 1012 100 10000 2.1 250 15:19 04.11.2019
4757 Clouds 17 1013 93 10000 2.1 210 14:57 04.11.2019
4758 Clouds 17 1013 88 10000 1.5 210 14:39 04.11.2019
4759 Rain 17 1013 88 10000 1.5 210 14:19 04.11.2019
4760 Rain 17 1013 88 10000 1 250 13:56 04.11.2019
4761 Rain 18 1013 88 10000 2.1 272 13:38 04.11.2019
4762 Rain 18 1013 88 10000 2.14 265 13:19 04.11.2019
4763 Rain 18 1013 82 10000 2.1 190 12:44 04.11.2019
4764 Rain 18 1013 82 10000 2.1 190 12:25 04.11.2019
4765 Rain 18 1013 77 10000 2.6 160 11:58 04.11.2019
4766 Rain 18 1013 77 10000 2.6 160 11:58 04.11.2019
4767 Clouds 18 1013 72 10000 2.6 180 11:40 04.11.2019
4768 Clouds 19 1013 72 10000 2.6 180 11:21 04.11.2019
4769 Rain 19 1006 82 0 1.34 324 10:47 04.11.2019
4770 Thunderstorm 19 1012 73 10000 5.1 40 10:26 04.11.2019
4771 Rain 19 1012 77 10000 6.7 60 09:56 04.11.2019
4772 Rain 19 1012 77 10000 5.7 90 09:38 04.11.2019
4773 Thunderstorm 20 1012 77 10000 5.1 70 09:19 04.11.2019
4774 Rain 20 1012 72 10000 6.7 80 08:42 04.11.2019
4775 Rain 21 1012 72 10000 6.7 80 08:23 04.11.2019
4776 Rain 21 1012 72 10000 6.7 80 08:23 04.11.2019
4777 Clouds 21 1011 64 10000 6.7 80 07:59 04.11.2019
4778 Rain 22 1012 60 10000 6.7 60 07:41 04.11.2019
4779 Rain 22 1012 56 10000 7.7 60 07:19 04.11.2019
4780 Rain 23 1012 56 10000 7.7 60 06:47 04.11.2019
4781 Clouds 22 1012 56 10000 7.7 90 06:18 04.11.2019
4782 Clouds 24 1012 56 10000 6.2 70 05:31 04.11.2019
4783 Clouds 24 1013 56 10000 4.6 120 04:34 04.11.2019
4784 Clouds 24 1013 56 10000 5.7 120 03:39 04.11.2019
4785 Rain 24 1015 73 10000 5.7 170 01:37 04.11.2019
4786 Rain 24 1015 73 10000 5.7 170 01:18 04.11.2019
4787 Rain 23 1014 68 10000 5.7 160 00:22 04.11.2019
4788 Clouds 23 1014 64 10000 5.7 240 23:58 03.11.2019
4789 Clouds 22 1014 68 10000 2.6 190 23:38 03.11.2019
4790 Clouds 21 1014 68 10000 2.6 190 23:19 03.11.2019
4791 Clouds 20 1014 72 10000 2.1 210 22:56 03.11.2019
4792 Rain 19 1014 82 10000 3.6 230 22:38 03.11.2019
4793 Clouds 18 1014 82 10000 3.6 230 22:19 03.11.2019
4794 Rain 17 1013 88 10000 3.6 270 21:43 03.11.2019
4795 Clouds 17 1013 88 10000 3.6 270 21:22 03.11.2019
4796 Clouds 17 1013 88 10000 3.6 270 21:22 03.11.2019
4797 Rain 16 1013 100 10000 3.12 242 20:59 03.11.2019
4798 Rain 16 1012 93 10000 5.1 240 20:38 03.11.2019
4799 Rain 16 1012 93 10000 5.1 240 20:19 03.11.2019
4800 Rain 16 1012 100 10000 1.67 238 19:58 03.11.2019
4801 Rain 16 1012 100 10000 1.67 238 19:58 03.11.2019
4802 Rain 16 1011 93 10000 2.6 300 19:39 03.11.2019
4803 Rain 16 1011 93 10000 2.6 300 19:20 03.11.2019
4804 Rain 16 1011 93 10000 7.2 180 18:58 03.11.2019
4805 Rain 16 1011 93 10000 3.6 310 18:38 03.11.2019
4806 Rain 16 1011 93 10000 7.2 180 18:18 03.11.2019
4807 Rain 16 1011 93 10000 7.2 180 17:55 03.11.2019
4808 Rain 16 1011 93 10000 3.6 320 17:37 03.11.2019
4809 Rain 16 1011 93 10000 7.2 180 17:18 03.11.2019
4810 Rain 16 1012 93 9000 3.6 270 16:42 03.11.2019
4811 Rain 16 1012 93 9000 3.6 270 16:22 03.11.2019
4812 Rain 16 1012 93 7000 5.1 240 15:59 03.11.2019
4813 Rain 16 1012 88 5000 5.7 260 15:41 03.11.2019
4814 Rain 16 1012 88 5000 5.7 260 15:23 03.11.2019
4815 Rain 16 1012 93 10000 2.6 320 14:56 03.11.2019
4816 Rain 16 1012 88 10000 6.7 230 14:38 03.11.2019
4817 Rain 17 1012 88 8000 6.2 250 14:18 03.11.2019
4818 Rain 16 1012 88 10000 6.7 230 14:18 03.11.2019
4819 Rain 18 1012 88 8000 6.2 250 13:43 03.11.2019
4820 Rain 18 1012 88 7000 4.1 220 13:20 03.11.2019
4821 Rain 19 1012 88 9000 8.2 210 12:58 03.11.2019
4822 Rain 19 1012 94 10000 3.1 40 12:37 03.11.2019
4823 Rain 20 1013 94 10000 3.1 40 12:18 03.11.2019
4824 Rain 21 1012 88 10000 2.1 50 11:43 03.11.2019
4825 Rain 21 1012 88 10000 2.1 50 11:22 03.11.2019
4826 Rain 21 1012 78 10000 4.1 320 10:58 03.11.2019
4827 Rain 22 1011 78 10000 1.1 242 10:40 03.11.2019
4828 Rain 22 1011 78 10000 1.1 242 10:22 03.11.2019
4829 Rain 22 1011 78 10000 1.1 242 09:56 03.11.2019
4830 Rain 22 1010 78 10000 2.6 50 09:38 03.11.2019
4831 Rain 22 1010 78 10000 2.6 50 09:20 03.11.2019
4832 Rain 22 1010 83 10000 5.7 40 08:41 03.11.2019
4833 Rain 23 1010 83 10000 5.7 40 08:22 03.11.2019
4834 Rain 23 1009 57 10000 7.7 40 07:46 03.11.2019
4835 Rain 24 1009 57 10000 7.7 40 07:28 03.11.2019
4836 Rain 24 1008 69 10000 8.7 50 06:50 03.11.2019
4837 Thunderstorm 24 1008 69 10000 9.8 40 06:31 03.11.2019
4838 Rain 25 1009 42 10000 8.2 50 05:40 03.11.2019
4839 Rain 29 1009 47 10000 2.6 340 04:58 03.11.2019
4840 Rain 29 1010 47 10000 7.2 30 04:37 03.11.2019
4841 Rain 30 1010 39 10000 8.7 50 03:35 03.11.2019
4842 Rain 31 1011 29 10000 5.1 360 02:45 03.11.2019
4843 Clouds 31 1011 29 10000 5.1 360 02:20 03.11.2019
4844 Clouds 31 1012 33 10000 4.1 20 01:42 03.11.2019
4845 Rain 30 1012 42 10000 7.2 10 01:20 03.11.2019
4846 Rain 29 1012 42 10000 7.2 10 00:45 03.11.2019
4847 Rain 28 1012 61 10000 1 100 00:27 03.11.2019
4848 Rain 27 1012 57 10000 3.6 50 23:58 02.11.2019
4849 Rain 26 1013 57 10000 7.2 10 23:38 02.11.2019
4850 Clouds 25 1013 64 10000 7.2 10 23:19 02.11.2019
4851 Clouds 24 1013 64 10000 7.2 10 22:56 02.11.2019
4852 Clouds 23 1013 73 10000 7.2 10 22:37 02.11.2019
4853 Clouds 22 1013 73 10000 7.2 10 22:19 02.11.2019
4854 Clouds 21 1013 73 10000 7.2 10 21:56 02.11.2019
4855 Clouds 20 1013 88 10000 2.1 290 21:38 02.11.2019
4856 Clouds 18 1013 88 10000 2.1 290 21:18 02.11.2019
4857 Clouds 18 1013 88 10000 2.1 290 21:18 02.11.2019
4858 Clouds 18 1013 88 10000 2.1 290 21:18 02.11.2019
4859 Clouds 18 1013 88 10000 4.67 319 20:59 02.11.2019
4860 Clouds 17 1012 88 10000 1 10 20:39 02.11.2019
4861 Clouds 17 1012 88 10000 1 10 20:20 02.11.2019
4862 Clouds 17 1012 88 10000 2.6 40 19:55 02.11.2019
4863 Clouds 17 1012 88 9000 1 40 19:36 02.11.2019
4864 Clouds 17 1012 88 9000 1 40 19:18 02.11.2019
4865 Clouds 17 1012 82 10000 2.1 30 18:42 02.11.2019
4866 Clouds 17 1012 82 10000 2.1 30 18:24 02.11.2019
4867 Clouds 17 1012 82 10000 2.6 50 17:59 02.11.2019
4868 Clouds 17 1012 82 10000 3.6 30 17:40 02.11.2019
4869 Clear 17 1013 82 10000 1.5 350 17:22 02.11.2019
4870 Clear 18 1013 82 10000 1.5 350 16:58 02.11.2019
4871 Clear 18 1013 88 10000 1.46 313 16:38 02.11.2019
4872 Clear 18 1013 88 10000 1.46 313 16:38 02.11.2019
4873 Clear 18 1013 82 10000 3.1 20 16:20 02.11.2019
4874 Clear 18 1013 82 10000 4.1 50 15:42 02.11.2019
4875 Clear 18 1013 82 10000 4.1 50 15:20 02.11.2019
4876 Clear 19 1014 77 10000 3.6 30 14:43 02.11.2019
4877 Clear 19 1014 77 10000 3.6 30 14:43 02.11.2019
4878 Clouds 19 1014 77 10000 3.6 30 14:24 02.11.2019
4879 Clouds 20 1014 77 10000 5.7 30 13:59 02.11.2019
4880 Clouds 20 1014 73 10000 5.7 10 13:40 02.11.2019
4881 Clouds 20 1013 73 10000 7.7 20 13:20 02.11.2019
4882 Clouds 20 1013 73 10000 7.7 20 12:57 02.11.2019
4883 Clouds 20 1013 73 10000 10.8 30 12:38 02.11.2019
4884 Clouds 21 1013 77 10000 11.3 30 12:19 02.11.2019
4885 Clouds 21 1013 77 10000 11.8 40 11:42 02.11.2019
4886 Clouds 21 1013 73 10000 12.9 40 11:24 02.11.2019
4887 Clouds 22 1013 73 10000 12.9 40 10:57 02.11.2019
4888 Clouds 22 1012 77 10000 13.4 40 10:39 02.11.2019
4889 Clouds 22 1012 77 10000 13.4 40 10:18 02.11.2019
4890 Clouds 23 1012 73 10000 13.9 40 09:43 02.11.2019
4891 Clouds 23 1012 73 10000 13.9 40 09:22 02.11.2019
4892 Clouds 23 1012 68 10000 13.9 40 08:55 02.11.2019
4893 Clouds 24 1011 68 10000 12.9 40 08:37 02.11.2019
4894 Clouds 24 1011 68 10000 12.9 40 08:18 02.11.2019
4895 Clouds 26 1011 64 10000 14.9 40 07:43 02.11.2019
4896 Clouds 26 1011 64 10000 14.9 40 07:25 02.11.2019
4897 Clouds 27 1012 60 10000 12.3 40 06:52 02.11.2019
4898 Clouds 27 1012 60 10000 12.3 40 06:51 02.11.2019
4899 Clouds 28 1012 57 10000 11.3 40 06:23 02.11.2019
4900 Clouds 29 1012 54 10000 13.4 40 05:44 02.11.2019
4901 Clouds 31 1013 50 10000 11.8 40 04:25 02.11.2019
4902 Clouds 31 1014 47 10000 10.3 40 03:52 02.11.2019
4903 Clouds 31 1014 47 10000 10.8 30 03:31 02.11.2019
4904 Clouds 29 1014 47 10000 8.2 50 02:31 02.11.2019
4905 Clouds 28 1015 53 10000 5.7 40 01:36 02.11.2019
4906 Clouds 28 1015 53 10000 5.7 40 01:18 02.11.2019
4907 Clouds 27 1016 60 10000 5.1 40 00:42 02.11.2019
4908 Clouds 26 1016 60 10000 5.1 40 00:21 02.11.2019
4909 Clouds 24 1016 60 10000 5.7 40 23:42 01.11.2019
4910 Clouds 24 1016 60 10000 5.7 40 23:42 01.11.2019
4911 Clear 23 1016 60 10000 5.7 40 23:20 01.11.2019
4912 Clear 21 1016 68 10000 3.6 20 22:42 01.11.2019
4913 Clear 20 1016 73 10000 4.1 20 22:21 01.11.2019
4914 Clear 20 1016 73 10000 4.1 20 21:56 01.11.2019
4915 Clear 19 1015 77 10000 4.1 30 21:37 01.11.2019
4916 Clear 17 1015 100 8000 1.79 330 21:18 01.11.2019
4917 Clear 16 1015 88 10000 3.1 30 20:42 01.11.2019
4918 Clear 16 1015 88 10000 3.1 30 20:24 01.11.2019
4919 Clear 16 1015 93 10000 0.88 275 19:59 01.11.2019
4920 Clear 16 1014 93 10000 0.88 275 19:41 01.11.2019
4921 Clear 16 1014 93 10000 0.88 275 19:22 01.11.2019
4922 Clear 16 1014 93 10000 0.88 275 18:42 01.11.2019
4923 Clear 16 1014 93 10000 0.88 275 18:21 01.11.2019
4924 Clear 16 1014 100 10000 0.88 275 17:59 01.11.2019
4925 Clear 17 1014 100 10000 0.88 275 17:41 01.11.2019
4926 Clear 17 1014 100 10000 1.03 22 17:23 01.11.2019
4927 Clear 17 1014 82 10000 7.7 20 16:58 01.11.2019
4928 Clear 17 1015 93 10000 1.03 22 16:36 01.11.2019
4929 Clear 17 1015 100 10000 1.03 22 16:18 01.11.2019
4930 Clear 17 1015 100 10000 1.03 22 16:18 01.11.2019
4931 Clear 18 1015 93 10000 1.03 22 15:40 01.11.2019
4932 Clear 18 1015 93 10000 1.03 22 15:22 01.11.2019
4933 Clear 18 1015 93 10000 1.03 22 14:56 01.11.2019
4934 Clear 18 1015 88 10000 1.03 22 14:38 01.11.2019
4935 Clear 18 1015 88 10000 2.23 37 14:19 01.11.2019
4936 Clear 18 1015 82 10000 2.6 190 13:55 01.11.2019
4937 Clear 19 1015 82 10000 2.23 37 13:36 01.11.2019
4938 Clear 19 1015 82 10000 2.52 33 13:18 01.11.2019
4939 Clear 19 1015 72 10000 2.52 33 12:42 01.11.2019
4940 Clear 19 1015 72 10000 2.52 33 12:24 01.11.2019
4941 Clear 20 1015 77 10000 11.3 30 11:42 01.11.2019
4942 Clear 20 1015 77 10000 11.3 30 11:24 01.11.2019
4943 Clear 20 1015 77 10000 11.3 30 10:56 01.11.2019
4944 Clear 20 1014 77 10000 11.8 40 10:38 01.11.2019
4945 Clear 20 1014 77 10000 11.8 40 10:19 01.11.2019
4946 Clear 21 1014 73 10000 12.9 40 09:43 01.11.2019
4947 Clouds 21 1014 73 10000 12.3 30 09:25 01.11.2019
4948 Clouds 22 1014 73 10000 12.3 30 08:57 01.11.2019
4949 Clouds 22 1014 68 10000 12.3 30 08:39 01.11.2019
4950 Clear 23 1014 64 10000 10.8 40 08:20 01.11.2019
4951 Clear 24 1014 64 10000 10.8 40 07:51 01.11.2019
4952 Clear 25 1013 64 10000 11.8 40 07:24 01.11.2019
4953 Clear 26 1013 61 10000 9.8 40 06:56 01.11.2019
4954 Clear 26 1014 57 10000 10.3 30 06:23 01.11.2019
4955 Clear 27 1014 50 10000 8.7 30 05:59 01.11.2019
4956 Clear 27 1014 53 10000 9.3 50 05:38 01.11.2019
4957 Clear 28 1015 57 8000 7.7 40 03:33 01.11.2019
4958 Clear 25 1017 57 7000 7.7 40 01:51 01.11.2019
4959 Clear 25 1017 57 8000 4.1 60 01:26 01.11.2019
4960 Clear 23 1017 64 9000 4.1 40 00:21 01.11.2019
4961 Clear 22 1017 64 9000 4.1 40 23:56 31.10.2019
4962 Clear 22 1018 60 9000 4.6 40 23:38 31.10.2019
4963 Clouds 20 1018 64 10000 5.1 10 23:19 31.10.2019
4964 Clouds 19 1018 88 10000 0.96 331 22:42 31.10.2019
4965 Clouds 18 1018 88 10000 0.96 331 22:24 31.10.2019
4966 Clouds 18 1018 93 10000 0.96 331 21:58 31.10.2019
4967 Clouds 17 1017 93 10000 1.5 350 21:40 31.10.2019
4968 Clouds 16 1017 93 10000 0.96 331 21:19 31.10.2019
4969 Clouds 15 1017 100 10000 1 230 20:41 31.10.2019
4970 Clouds 14 1017 100 10000 1 230 20:23 31.10.2019
4971 Rain 15 1016 100 10000 1.37 48 19:59 31.10.2019
4972 Rain 14 1016 93 1200 1.37 48 19:39 31.10.2019
4973 Clouds 15 1016 93 1200 1.37 48 19:21 31.10.2019
4974 Clouds 15 1016 100 6000 1.37 48 18:44 31.10.2019
4975 Clouds 15 1016 88 10000 3.6 30 18:26 31.10.2019
4976 Clouds 15 1016 100 10000 1.37 48 17:59 31.10.2019
4977 Clouds 15 1016 82 10000 5.1 20 17:41 31.10.2019
4978 Clouds 15 1016 82 10000 5.1 20 17:21 31.10.2019
4979 Smoke 16 1016 88 10000 5.1 10 16:55 31.10.2019
4980 Clouds 16 1016 100 10000 1.36 59 16:37 31.10.2019
4981 Clouds 16 1016 100 10000 1.36 59 16:18 31.10.2019
4982 Clouds 16 1016 100 10000 1.36 59 15:41 31.10.2019
4983 Clouds 16 1016 100 10000 1.36 59 15:23 31.10.2019
4984 Clouds 17 1016 93 10000 1.36 59 14:59 31.10.2019
4985 Clouds 17 1016 87 10000 1 190 14:41 31.10.2019
4986 Clouds 17 1016 77 10000 7.7 40 14:23 31.10.2019
4987 Clouds 18 1016 87 10000 1.38 48 13:59 31.10.2019
4988 Clouds 18 1016 87 10000 1.38 48 13:39 31.10.2019
4989 Clouds 18 1016 77 10000 1.5 180 13:19 31.10.2019
4990 Clouds 18 1016 77 10000 1.5 180 12:58 31.10.2019
4991 Clouds 18 1016 77 10000 2.1 200 12:38 31.10.2019
4992 Clouds 19 1016 77 10000 2.1 200 12:20 31.10.2019
4993 Smoke 19 1016 73 10000 5.1 10 11:46 31.10.2019
4994 Smoke 20 1016 73 10000 5.1 10 11:21 31.10.2019
4995 Smoke 20 1016 73 10000 5.1 10 10:59 31.10.2019
4996 Smoke 20 1015 73 10000 6.2 40 10:40 31.10.2019
4997 Smoke 21 1015 73 10000 6.2 40 10:21 31.10.2019
4998 Smoke 21 1015 73 10000 6.2 40 09:56 31.10.2019
4999 Clouds 23 1015 68 10000 10.3 50 09:38 31.10.2019
5000 Smoke 23 1015 69 10000 6.2 40 09:18 31.10.2019
5001 Clouds 23 1014 64 10000 9.8 50 08:46 31.10.2019
5002 Clouds 23 1014 64 10000 9.8 50 08:46 31.10.2019
5003 Clouds 25 1014 64 10000 9.8 50 08:26 31.10.2019
5004 Clouds 26 1014 60 10000 9.3 40 07:48 31.10.2019
5005 Clouds 26 1014 60 10000 9.3 50 07:28 31.10.2019
5006 Clouds 27 1014 54 10000 8.2 50 06:55 31.10.2019
5007 Clouds 28 1015 47 9000 8.2 40 06:32 31.10.2019
5008 Clear 29 1015 50 8000 7.2 50 05:32 31.10.2019
5009 Smoke 30 1016 54 5000 5.7 100 03:21 31.10.2019
5010 Clear 29 1016 57 6000 4.6 110 02:38 31.10.2019
5011 Clear 26 1017 73 6000 4.1 150 01:43 31.10.2019
5012 Smoke 23 1017 78 5000 3.6 190 00:35 31.10.2019
5013 Smoke 22 1017 64 5000 1.9 133 23:53 30.10.2019
5014 Smoke 21 1017 73 4000 1.5 10 23:28 30.10.2019
5015 Smoke 19 1017 88 5000 1.5 50 22:43 30.10.2019
5016 Smoke 19 1017 88 5000 1.5 50 22:43 30.10.2019
5017 Smoke 18 1017 88 5000 1.5 50 22:21 30.10.2019
5018 Smoke 18 1017 88 5000 1.89 210 21:55 30.10.2019
5019 Smoke 18 1017 93 5000 0.5 70 21:37 30.10.2019
5020 Smoke 17 1017 93 5000 0.5 70 21:18 30.10.2019
5021 Clouds 17 1016 93 6000 1 70 20:59 30.10.2019
5022 Clouds 17 1016 93 6000 2.1 70 20:41 30.10.2019
5023 Clouds 16 1016 93 6000 2.1 70 20:22 30.10.2019
5024 Clouds 16 1016 100 7000 0.5 100 19:58 30.10.2019
5025 Clouds 16 1015 93 7000 1 90 19:38 30.10.2019
5026 Clouds 16 1015 93 7000 1 90 19:20 30.10.2019
5027 Clouds 16 1015 93 7000 2.6 70 18:57 30.10.2019
5028 Clouds 16 1015 100 2900 1.96 217 18:37 30.10.2019
5029 Clouds 16 1015 93 6000 3.1 220 18:18 30.10.2019
5030 Clouds 16 1015 93 10000 1.96 217 17:41 30.10.2019
5031 Clouds 16 1015 93 10000 1.72 246 17:20 30.10.2019
5032 Clouds 16 1015 93 10000 1.72 246 16:59 30.10.2019
5033 Clouds 17 1015 88 10000 1.72 246 16:40 30.10.2019
5034 Clouds 17 1015 88 10000 2.1 80 16:22 30.10.2019
5035 Clouds 17 1015 88 10000 2.1 80 15:57 30.10.2019
5036 Clouds 17 1016 88 8000 1.72 246 15:38 30.10.2019
5037 Clouds 18 1016 88 8000 1.72 246 15:19 30.10.2019
5038 Clouds 18 1016 88 9000 2.6 30 14:56 30.10.2019
5039 Clouds 18 1016 88 9000 2.6 30 14:56 30.10.2019
5040 Clouds 18 1016 82 10000 2.6 30 14:38 30.10.2019
5041 Clouds 19 1016 82 10000 2.6 30 14:19 30.10.2019
5042 Clouds 19 1016 82 9000 3.6 40 13:54 30.10.2019
5043 Clouds 19 1016 82 9000 3.1 50 13:36 30.10.2019
5044 Clouds 19 1016 77 8000 0.5 80 13:18 30.10.2019
5045 Clouds 20 1016 72 10000 1.5 130 12:42 30.10.2019
5046 Clouds 20 1016 72 10000 1.5 130 12:23 30.10.2019
5047 Clouds 20 1016 77 8000 3.6 30 11:56 30.10.2019
5048 Clouds 20 1016 77 8000 3.6 30 11:56 30.10.2019
5049 Clouds 21 1016 73 8000 0.5 60 11:38 30.10.2019
5050 Clouds 21 1016 73 8000 0.5 60 11:18 30.10.2019
5051 Smoke 21 1016 64 5000 1.5 150 10:42 30.10.2019
5052 Smoke 22 1015 60 5000 4.1 40 10:23 30.10.2019
5053 Smoke 22 1015 60 5000 5.7 30 09:42 30.10.2019
5054 Smoke 22 1015 60 5000 5.7 30 09:23 30.10.2019
5055 Smoke 23 1015 53 5000 5.7 30 08:57 30.10.2019
5056 Clouds 23 1014 53 8000 4.6 30 08:39 30.10.2019
5057 Clouds 24 1014 53 8000 4.6 30 08:19 30.10.2019
5058 Clouds 24 1015 57 10000 3.6 70 07:43 30.10.2019
5059 Clouds 26 1015 57 10000 3.6 70 07:20 30.10.2019
5060 Clouds 26 1015 57 10000 6.2 80 06:42 30.10.2019
5061 Clouds 26 1015 53 10000 6.2 90 06:18 30.10.2019
5062 Clouds 28 1015 47 10000 7.2 80 05:41 30.10.2019
5063 Clouds 29 1016 45 10000 3.6 120 04:42 30.10.2019
5064 Clouds 29 1016 44 10000 4.6 130 03:43 30.10.2019
5065 Clouds 28 1017 50 10000 4.1 150 02:51 30.10.2019
5066 Clouds 26 1017 47 10000 4.1 110 01:58 30.10.2019
5067 Clouds 23 1018 60 10000 0.5 360 00:57 30.10.2019
5068 Clouds 23 1018 60 10000 2.1 230 00:28 30.10.2019
5069 Clouds 22 1018 64 10000 1 290 23:43 29.10.2019
5070 Clouds 20 1018 64 10000 1 290 23:23 29.10.2019
5071 Clouds 19 1018 64 10000 1.5 290 22:48 29.10.2019
5072 Clouds 18 1018 68 10000 3.1 310 22:20 29.10.2019
5073 Clouds 17 1017 90 0 1.8 291 21:59 29.10.2019
5074 Clouds 16 1018 93 10000 1.8 291 21:41 29.10.2019
5075 Clouds 16 1018 93 10000 1.8 291 21:20 29.10.2019
5076 Clouds 15 1018 93 5000 1.8 291 20:56 29.10.2019
5077 Clouds 15 1017 100 10000 1.8 291 20:38 29.10.2019
5078 Clouds 15 1017 100 10000 1.8 291 20:38 29.10.2019
5079 Clouds 15 1017 100 10000 1.8 277 20:20 29.10.2019
5080 Clouds 15 1017 93 10000 1.8 277 19:56 29.10.2019
5081 Clouds 15 1017 93 10000 1.8 277 19:56 29.10.2019
5082 Clouds 15 1017 93 2300 1.8 277 19:38 29.10.2019
5083 Clouds 15 1017 93 2300 1.8 277 19:19 29.10.2019
5084 Clouds 15 1017 100 6000 1.8 277 18:55 29.10.2019
5085 Clouds 15 1017 93 10000 1.8 277 18:37 29.10.2019
5086 Clouds 15 1017 93 10000 1.8 277 18:37 29.10.2019
5087 Clouds 15 1017 100 10000 1.8 277 18:18 29.10.2019
5088 Clouds 15 1017 100 10000 1.8 277 17:54 29.10.2019
5089 Clouds 15 1017 100 10000 1.8 277 17:54 29.10.2019
5090 Clouds 15 1017 93 10000 1.8 277 17:36 29.10.2019
5091 Clouds 15 1017 77 10000 1.44 259 17:18 29.10.2019
5092 Clouds 15 1017 77 10000 1.44 259 17:18 29.10.2019
5093 Clouds 16 1018 93 10000 1.44 259 16:39 29.10.2019
5094 Clouds 16 1018 93 10000 1.44 259 16:39 29.10.2019
5095 Clouds 16 1018 93 10000 1.44 259 16:20 29.10.2019
5096 Clouds 16 1018 93 10000 1.44 259 15:56 29.10.2019
5097 Clouds 16 1018 82 10000 3.6 40 15:38 29.10.2019
5098 Clouds 16 1018 82 10000 3.6 40 15:19 29.10.2019
5099 Clouds 16 1018 87 10000 1.44 259 14:55 29.10.2019
5100 Clouds 17 1018 87 10000 1.44 259 14:37 29.10.2019
5101 Clouds 17 1019 82 10000 0.5 230 14:18 29.10.2019
5102 Clouds 17 1019 77 10000 1 230 13:40 29.10.2019
5103 Clouds 17 1019 77 10000 1 230 13:40 29.10.2019
5104 Clouds 17 1019 77 10000 1 230 13:22 29.10.2019
5105 Clouds 18 1019 72 10000 1.38 14 12:45 29.10.2019
5106 Clouds 18 1019 72 10000 1.38 14 12:26 29.10.2019
5107 Clouds 18 1019 72 10000 1.38 14 12:26 29.10.2019
5108 Clouds 19 1018 68 10000 2.1 110 11:59 29.10.2019
5109 Clouds 19 1019 68 10000 8.2 30 11:41 29.10.2019
5110 Clear 19 1018 68 10000 9.8 30 11:19 29.10.2019
5111 Clear 20 1018 68 10000 9.8 30 11:19 29.10.2019
5112 Clear 20 1018 68 10000 9.8 30 10:57 29.10.2019
5113 Clear 20 1018 68 10000 9.8 30 10:38 29.10.2019
5114 Clear 20 1018 68 10000 9.8 30 10:20 29.10.2019
5115 Clear 20 1018 73 10000 9.8 30 09:55 29.10.2019
5116 Clear 21 1018 64 10000 10.3 30 09:37 29.10.2019
5117 Clear 21 1017 60 10000 10.8 30 09:19 29.10.2019
5118 Clear 21 1018 60 10000 11.3 40 08:44 29.10.2019
5119 Clear 23 1018 60 10000 11.3 40 08:25 29.10.2019
5120 Clear 23 1018 60 10000 10.3 40 07:55 29.10.2019
5121 Clear 24 1017 56 10000 11.3 40 07:36 29.10.2019
5122 Smoke 24 1017 56 10000 10.3 30 07:18 29.10.2019
5123 Smoke 24 1017 56 10000 10.3 30 06:44 29.10.2019
5124 Smoke 25 1018 47 10000 10.3 30 06:21 29.10.2019
5125 Clear 25 1018 50 10000 8.2 40 05:50 29.10.2019
5126 Clear 26 1018 50 10000 8.2 40 05:26 29.10.2019
5127 Clear 27 1020 44 10000 7.7 70 04:31 29.10.2019
5128 Clear 25 1022 44 10000 3.6 20 02:33 29.10.2019
5129 Clouds 24 1023 47 10000 3.6 360 01:47 29.10.2019
5130 Clouds 23 1023 53 10000 4.6 360 01:18 29.10.2019
5131 Clouds 22 1023 53 10000 4.6 10 00:43 29.10.2019
5132 Clouds 21 1024 56 10000 3.6 350 23:43 28.10.2019
5133 Clouds 20 1024 60 10000 3.1 300 23:21 28.10.2019
5134 Clouds 20 1024 60 10000 3.1 300 23:21 28.10.2019
5135 Clouds 18 1024 64 10000 2.6 290 22:59 28.10.2019
5136 Clouds 17 1024 68 10000 2.1 310 22:37 28.10.2019
5137 Clouds 16 1023 68 10000 1.5 310 22:18 28.10.2019
5138 Clouds 16 1023 68 10000 1.5 310 21:56 28.10.2019
5139 Clouds 15 1023 68 10000 1.5 310 21:56 28.10.2019
5140 Clouds 15 1023 77 10000 1.94 317 21:38 28.10.2019
5141 Clouds 13 1024 100 10000 1.94 317 21:20 28.10.2019
5142 Clouds 12 1023 82 10000 1.94 317 20:54 28.10.2019
5143 Clouds 12 1023 100 200 1.94 317 20:36 28.10.2019
5144 Clouds 12 1023 100 10000 1.2 274 20:18 28.10.2019
5145 Clouds 12 1023 100 5000 1.2 274 19:40 28.10.2019
5146 Clouds 12 1023 100 5000 1.2 274 19:21 28.10.2019
5147 Clear 12 1023 100 10000 1.2 274 18:59 28.10.2019
5148 Clear 12 1023 100 10000 1.2 274 18:41 28.10.2019
5149 Clear 12 1023 100 10000 1.2 274 18:22 28.10.2019
5150 Clouds 12 1023 100 10000 1.2 274 17:57 28.10.2019
5151 Clouds 12 1023 100 10000 1.2 274 17:39 28.10.2019
5152 Clouds 13 1023 100 10000 1.56 255 17:20 28.10.2019
5153 Clouds 13 1023 100 10000 1.56 255 16:58 28.10.2019
5154 Clouds 13 1024 100 10000 1.56 255 16:39 28.10.2019
5155 Clouds 13 1024 93 10000 1.56 255 16:21 28.10.2019
5156 Clouds 13 1024 93 10000 1.56 255 15:58 28.10.2019
5157 Clouds 13 1024 87 10000 1.56 255 15:40 28.10.2019
5158 Clouds 13 1024 87 10000 1.56 255 15:21 28.10.2019
5159 Clouds 13 1024 93 10000 1.56 255 14:58 28.10.2019
5160 Clouds 13 1024 87 10000 1.56 255 14:40 28.10.2019
5161 Clouds 14 1024 87 10000 0.97 32 14:19 28.10.2019
5162 Clouds 14 1024 72 10000 0.97 32 13:58 28.10.2019
5163 Clouds 14 1024 72 10000 1.5 20 13:40 28.10.2019
5164 Clouds 15 1024 72 10000 1.5 20 13:18 28.10.2019
5165 Clouds 15 1024 82 10000 1.03 40 12:43 28.10.2019
5166 Clouds 15 1024 68 10000 2.6 30 12:21 28.10.2019
5167 Clouds 15 1024 72 10000 2.6 50 11:57 28.10.2019
5168 Clouds 16 1024 68 10000 3.1 50 11:37 28.10.2019
5169 Clouds 16 1023 68 10000 4.1 50 11:18 28.10.2019
5170 Clouds 17 1023 68 10000 3.6 60 10:40 28.10.2019
5171 Clouds 17 1023 63 10000 5.1 80 10:21 28.10.2019
5172 Clouds 17 1023 63 10000 5.1 80 09:57 28.10.2019
5173 Clouds 18 1023 63 10000 6.2 80 09:39 28.10.2019
5174 Clouds 18 1023 63 10000 6.2 80 09:19 28.10.2019
5175 Clouds 18 1023 55 10000 5.7 100 08:57 28.10.2019
5176 Clouds 19 1023 59 10000 6.2 100 08:38 28.10.2019
5177 Clouds 19 1023 59 10000 6.2 100 08:19 28.10.2019
5178 Clouds 19 1022 52 10000 7.2 110 07:56 28.10.2019
5179 Clouds 20 1022 56 10000 7.2 120 07:36 28.10.2019
5180 Clouds 20 1022 56 10000 7.2 120 07:18 28.10.2019
5181 Clouds 20 1022 60 10000 7.7 140 06:40 28.10.2019
5182 Clouds 21 1022 60 10000 7.7 140 05:47 28.10.2019
5183 Clouds 22 1022 60 10000 7.7 130 03:49 28.10.2019
5184 Clouds 21 1022 64 10000 6.7 130 02:54 28.10.2019
5185 Clouds 21 1023 64 10000 7.2 130 02:34 28.10.2019
5186 Rain 21 1022 64 10000 6.7 120 00:57 28.10.2019
5187 Rain 21 1022 72 10000 5.7 110 00:38 28.10.2019
5188 Rain 21 1022 72 10000 5.7 110 00:19 28.10.2019
5189 Clouds 20 1021 72 10000 4.33 129 23:42 27.10.2019
5190 Clouds 19 1021 68 10000 1.5 260 23:18 27.10.2019
5191 Clouds 17 1021 63 10000 1 290 22:42 27.10.2019
5192 Clouds 16 1021 63 10000 1 290 22:22 27.10.2019
5193 Clouds 15 1020 63 10000 2.6 310 21:58 27.10.2019
5194 Clouds 14 1020 72 10000 3.1 320 21:39 27.10.2019
5195 Clouds 12 1019 72 10000 3.6 330 21:21 27.10.2019
5196 Clear 11 1020 100 10000 2.19 212 20:58 27.10.2019
5197 Clouds 11 1019 72 10000 2.6 320 20:40 27.10.2019
5198 Clear 11 1019 93 10000 1.97 233 20:22 27.10.2019
5199 Clouds 11 1019 72 10000 2.6 290 19:56 27.10.2019
5200 Clouds 11 1018 77 10000 2.6 270 19:37 27.10.2019
5201 Clear 11 1019 93 10000 1.97 233 19:19 27.10.2019
5202 Clouds 12 1018 77 10000 3.6 230 18:55 27.10.2019
5203 Clear 12 1018 77 10000 3.1 220 18:37 27.10.2019
5204 Clear 12 1018 77 10000 3.6 230 18:19 27.10.2019
5205 Clear 12 1018 87 10000 1.97 233 17:41 27.10.2019
5206 Clear 12 1018 87 10000 1.9 237 17:21 27.10.2019
5207 Clear 12 1018 87 10000 1.9 237 17:21 27.10.2019
5208 Clear 12 1018 87 10000 1.9 237 16:59 27.10.2019
5209 Clear 12 1018 87 10000 1.9 237 16:40 27.10.2019
5210 Clear 12 1018 87 10000 1.9 237 16:22 27.10.2019
5211 Clear 12 1018 81 10000 1.9 237 15:58 27.10.2019
5212 Clear 12 1018 76 10000 1.9 237 15:39 27.10.2019
5213 Clear 12 1018 76 10000 1.9 237 15:20 27.10.2019
5214 Clear 13 1018 76 10000 1.9 237 14:59 27.10.2019
5215 Clear 13 1018 71 10000 1.9 237 14:40 27.10.2019
5216 Clear 13 1018 71 10000 0.97 332 14:18 27.10.2019
5217 Clear 13 1018 71 10000 0.97 332 13:54 27.10.2019
5218 Clear 13 1018 71 10000 0.5 230 13:36 27.10.2019
5219 Clear 14 1018 66 10000 0.8 344 13:18 27.10.2019
5220 Clear 14 1017 62 10000 0.5 220 12:42 27.10.2019
5221 Clear 14 1017 62 10000 0.5 220 12:23 27.10.2019
5222 Clear 15 1017 52 10000 2.6 40 11:43 27.10.2019
5223 Clear 16 1016 52 10000 3.6 50 11:25 27.10.2019
5224 Clear 16 1016 52 10000 3.6 50 11:25 27.10.2019
5225 Clear 16 1017 55 10000 3.6 120 11:25 27.10.2019
5226 Clear 17 1016 52 10000 3.6 50 10:59 27.10.2019
5227 Clear 17 1016 52 10000 4.6 50 10:41 27.10.2019
5228 Clear 17 1016 52 10000 4.6 50 10:22 27.10.2019
5229 Clear 18 1014 42 10000 6.2 80 09:43 27.10.2019
5230 Clear 18 1014 42 10000 6.2 80 09:19 27.10.2019
5231 Clear 19 1014 42 10000 6.7 80 08:57 27.10.2019
5232 Clear 19 1013 40 10000 7.7 80 08:38 27.10.2019
5233 Clear 20 1013 37 10000 6.2 60 08:19 27.10.2019
5234 Clear 21 1013 37 10000 6.2 60 07:48 27.10.2019
5235 Clear 21 1013 35 10000 8.2 80 07:28 27.10.2019
5236 Clear 21 1013 32 10000 8.7 80 06:55 27.10.2019
5237 Clear 22 1013 30 10000 8.2 70 06:31 27.10.2019
5238 Clear 22 1013 32 10000 8.2 80 05:58 27.10.2019
5239 Clear 23 1013 30 10000 7.7 90 05:37 27.10.2019
5240 Clear 24 1014 28 10000 6.7 90 04:32 27.10.2019
5241 Clear 22 1015 22 10000 3.6 140 02:42 27.10.2019
5242 Clear 21 1015 28 10000 4.6 240 01:28 27.10.2019
5243 Clear 20 1015 29 10000 6.2 250 00:56 27.10.2019
5244 Clear 19 1015 18 10000 6.7 250 00:38 27.10.2019
5245 Clear 18 1015 27 10000 6.2 260 23:59 26.10.2019
5246 Clear 18 1015 27 10000 6.7 260 23:40 26.10.2019
5247 Clear 17 1015 27 10000 6.7 260 23:22 26.10.2019
5248 Clear 16 1015 38 10000 4.6 270 22:59 26.10.2019
5249 Clouds 15 1015 31 10000 4.6 280 22:39 26.10.2019
5250 Clouds 14 1015 31 10000 4.6 280 22:20 26.10.2019
5251 Clouds 13 1014 33 10000 4.1 270 21:59 26.10.2019
5252 Clouds 13 1014 33 10000 5.1 260 21:41 26.10.2019
5253 Clouds 12 1014 33 10000 5.1 260 21:20 26.10.2019
5254 Clouds 13 1014 33 10000 4.6 250 20:45 26.10.2019
5255 Clouds 12 1013 29 10000 5.1 250 20:20 26.10.2019
5256 Clouds 13 1013 29 10000 5.1 250 19:57 26.10.2019
5257 Clouds 13 1013 31 10000 4.1 260 19:38 26.10.2019
5258 Clouds 14 1013 27 10000 3.6 270 19:19 26.10.2019
5259 Clouds 14 1013 27 10000 3.6 270 18:56 26.10.2019
5260 Clouds 14 1013 27 10000 3.1 280 18:37 26.10.2019
5261 Clouds 14 1013 27 10000 3.1 280 18:37 26.10.2019
5262 Clouds 14 1013 25 10000 3.6 270 18:18 26.10.2019
5263 Clouds 15 1013 25 10000 3.6 270 17:56 26.10.2019
5264 Clouds 15 1013 23 10000 4.6 260 17:36 26.10.2019
5265 Clouds 16 1013 22 10000 4.1 280 17:18 26.10.2019
5266 Clouds 17 1013 22 10000 6.7 270 16:42 26.10.2019
5267 Clouds 17 1013 22 10000 6.7 270 16:22 26.10.2019
5268 Clouds 18 1013 27 10000 3.6 250 15:41 26.10.2019
5269 Clear 18 1012 22 10000 8.2 250 15:20 26.10.2019
5270 Clear 18 1012 22 10000 8.2 250 14:54 26.10.2019
5271 Clear 19 1012 24 10000 8.2 240 14:36 26.10.2019
5272 Clear 19 1012 24 10000 8.2 240 14:18 26.10.2019
5273 Clear 19 1011 31 10000 3.6 240 13:42 26.10.2019
5274 Clear 15 1013 31 0 2.09 229 13:22 26.10.2019
5275 Clear 22 1010 23 0 4.47 306 12:49 26.10.2019
5276 Clear 20 1010 19 10000 5.1 250 12:49 26.10.2019
5277 Clear 22 1008 18 10000 7.2 260 12:25 26.10.2019
5278 Clear 21 1009 26 10000 4.6 280 11:56 26.10.2019
5279 Clear 22 1008 18 10000 7.2 260 11:37 26.10.2019
5280 Clear 22 1007 17 10000 9.3 260 11:18 26.10.2019
5281 Clear 23 1007 17 10000 12.3 260 10:44 26.10.2019
5282 Clear 23 1007 17 10000 12.3 260 10:24 26.10.2019
5283 Clear 26 1005 13 10000 9.3 260 09:48 26.10.2019
5284 Clouds 26 1005 13 10000 9.3 260 09:28 26.10.2019
5285 Clouds 26 1004 12 10000 14.4 280 08:44 26.10.2019
5286 Clouds 28 1003 14 10000 12.3 280 08:26 26.10.2019
5287 Clouds 28 1002 14 10000 11.8 280 07:56 26.10.2019
5288 Clouds 29 1001 16 10000 13.9 280 07:33 26.10.2019
5289 Clouds 30 1001 12 10000 11.8 280 06:48 26.10.2019
5290 Clouds 30 1001 14 10000 12.3 280 06:29 26.10.2019
5291 Clouds 31 1001 16 10000 11.8 280 05:21 26.10.2019
5292 Clouds 31 1002 18 10000 13.4 280 04:58 26.10.2019
5293 Rain 30 1002 22 10000 13.4 320 03:24 26.10.2019
5294 Rain 29 1002 22 10000 13.4 320 02:23 26.10.2019
5295 Clouds 28 1003 25 10000 8.7 320 01:44 26.10.2019
5296 Clouds 27 1003 26 10000 9.3 310 00:33 26.10.2019
5297 Clouds 26 1003 34 10000 7.7 360 23:47 25.10.2019
5298 Clouds 25 1003 34 10000 7.7 360 23:22 25.10.2019
5299 Clouds 25 1003 34 10000 7.7 360 23:22 25.10.2019
5300 Drizzle 24 1003 38 10000 7.2 350 22:56 25.10.2019
5301 Clouds 23 1003 38 10000 5.7 330 22:38 25.10.2019
5302 Clouds 23 1003 38 10000 5.7 330 22:38 25.10.2019
5303 Clouds 23 1005 56 10000 3.1 250 22:20 25.10.2019
5304 Clouds 22 1003 52 10000 0.5 320 21:55 25.10.2019
5305 Clouds 22 1002 41 10000 9.3 340 21:37 25.10.2019
5306 Rain 23 1003 44 10000 7.2 350 21:18 25.10.2019
5307 Rain 23 1003 41 10000 6.7 330 20:42 25.10.2019
5308 Clouds 23 1005 44 10000 9.8 280 20:19 25.10.2019
5309 Clouds 24 1006 38 10000 7.7 260 19:47 25.10.2019
5310 Clouds 24 1006 38 10000 7.7 260 19:27 25.10.2019
5311 Rain 24 1004 27 10000 4.1 330 18:55 25.10.2019
5312 Clouds 24 1003 27 10000 4.6 360 18:37 25.10.2019
5313 Rain 23 1004 26 10000 4.6 350 18:18 25.10.2019
5314 Rain 24 1004 24 10000 4.6 350 17:39 25.10.2019
5315 Rain 24 1004 24 10000 4.6 350 17:18 25.10.2019
5316 Rain 24 1005 34 10000 1.5 10 16:46 25.10.2019
5317 Rain 24 1005 34 10000 1.5 10 16:22 25.10.2019
5318 Rain 24 1005 36 10000 2.6 30 15:56 25.10.2019
5319 Rain 24 1005 39 10000 2.6 20 15:38 25.10.2019
5320 Clouds 24 1005 36 10000 2.6 20 15:19 25.10.2019
5321 Rain 24 1005 39 10000 2.6 30 14:42 25.10.2019
5322 Rain 24 1005 39 10000 2.6 30 14:23 25.10.2019
5323 Rain 24 1006 34 10000 2.6 30 13:57 25.10.2019
5324 Rain 25 1007 34 10000 4.1 330 13:38 25.10.2019
5325 Rain 24 1007 34 10000 2.6 40 13:38 25.10.2019
5326 Rain 25 1007 34 10000 4.1 330 13:20 25.10.2019
5327 Rain 25 1007 36 10000 3.07 338 12:42 25.10.2019
5328 Clouds 25 1007 36 10000 1.58 253 12:22 25.10.2019
5329 Clouds 26 1007 34 10000 6.2 330 11:58 25.10.2019
5330 Clouds 26 1007 32 10000 6.7 60 11:38 25.10.2019
5331 Rain 27 1007 30 10000 4.6 60 11:19 25.10.2019
5332 Rain 28 1007 25 10000 9.8 360 10:41 25.10.2019
5333 Rain 28 1007 25 10000 9.8 360 10:23 25.10.2019
5334 Rain 28 1007 20 10000 10.3 360 09:58 25.10.2019
5335 Rain 28 1006 32 10000 10.8 40 09:38 25.10.2019
5336 Rain 29 1006 34 10000 8.7 50 09:19 25.10.2019
5337 Rain 30 1006 34 10000 8.7 50 08:51 25.10.2019
5338 Clouds 31 1006 25 10000 11.3 40 08:33 25.10.2019
5339 Clouds 34 1005 11 10000 7.7 330 07:57 25.10.2019
5340 Rain 34 1006 13 10000 7.7 350 07:35 25.10.2019
5341 Rain 35 1006 11 10000 7.7 330 06:42 25.10.2019
5342 Clouds 35 1007 16 10000 5.7 330 05:59 25.10.2019
5343 Clouds 35 1007 12 10000 8.2 350 05:37 25.10.2019
5344 Clouds 35 1008 11 10000 8.2 360 04:54 25.10.2019
5345 Clouds 34 1010 13 10000 8.2 340 03:45 25.10.2019
5346 Clear 32 1012 18 10000 8.7 330 02:22 25.10.2019
5347 Clear 32 1012 18 10000 8.7 330 01:51 25.10.2019
5348 Clear 27 1012 30 10000 5.1 320 00:26 25.10.2019
5349 Clear 25 1012 46 10000 3.1 330 23:41 24.10.2019
5350 Clear 22 1012 46 10000 3.1 330 23:23 24.10.2019
5351 Clear 22 1012 56 10000 2.6 340 22:57 24.10.2019
5352 Clear 22 1012 68 10000 4.1 310 22:38 24.10.2019
5353 Clear 20 1012 68 10000 4.1 310 22:19 24.10.2019
5354 Clear 19 1012 68 10000 2.6 310 21:57 24.10.2019
5355 Clear 19 1012 68 10000 2.6 350 21:38 24.10.2019
5356 Clear 19 1012 68 10000 2.6 350 21:38 24.10.2019
5357 Clear 18 1012 68 10000 2.6 350 21:19 24.10.2019
5358 Clear 18 1012 72 10000 2.1 360 21:19 24.10.2019
5359 Clear 18 1012 72 10000 2.1 360 20:57 24.10.2019
5360 Clear 18 1012 72 10000 2.1 350 20:38 24.10.2019
5361 Clear 18 1012 72 10000 2.1 350 20:20 24.10.2019
5362 Clear 18 1012 72 10000 3.1 350 19:56 24.10.2019
5363 Clear 18 1012 77 10000 3.1 360 19:37 24.10.2019
5364 Clear 18 1012 77 10000 3.1 360 19:18 24.10.2019
5365 Clear 18 1013 77 10000 2.1 310 18:41 24.10.2019
5366 Clear 17 1013 77 10000 2.1 310 18:23 24.10.2019
5367 Clear 17 1013 82 10000 2.6 300 17:59 24.10.2019
5368 Clear 17 1013 77 10000 2.6 310 17:41 24.10.2019
5369 Clear 17 1014 82 10000 2.23 282 17:20 24.10.2019
5370 Clear 17 1014 82 10000 2.23 282 16:56 24.10.2019
5371 Clear 17 1014 82 10000 2.23 282 16:56 24.10.2019
5372 Clear 17 1014 77 10000 2.23 282 16:38 24.10.2019
5373 Clear 17 1014 77 10000 2.23 282 16:19 24.10.2019
5374 Clear 17 1015 93 10000 2.23 282 15:58 24.10.2019
5375 Clear 17 1015 88 10000 1 230 15:40 24.10.2019
5376 Clouds 18 1015 82 10000 1 30 15:21 24.10.2019
5377 Clouds 18 1015 82 10000 1 30 14:57 24.10.2019
5378 Clouds 18 1015 73 10000 3.6 80 14:38 24.10.2019
5379 Clouds 19 1015 72 10000 0.5 120 14:19 24.10.2019
5380 Clouds 19 1015 68 10000 2.6 60 13:40 24.10.2019
5381 Clouds 20 1015 68 10000 2.6 60 13:20 24.10.2019
5382 Clouds 20 1015 68 10000 3.1 70 12:57 24.10.2019
5383 Clouds 20 1015 73 10000 6.7 20 12:39 24.10.2019
5384 Clouds 21 1015 64 10000 6.7 30 12:19 24.10.2019
5385 Clouds 21 1015 64 10000 6.7 30 11:57 24.10.2019
5386 Clouds 21 1015 56 10000 7.2 40 11:38 24.10.2019
5387 Clouds 21 1015 56 10000 7.2 40 11:19 24.10.2019
5388 Clouds 22 1015 53 10000 2.1 70 10:57 24.10.2019
5389 Clouds 23 1014 53 10000 3.1 90 10:38 24.10.2019
5390 Clouds 23 1014 53 10000 3.1 90 10:20 24.10.2019
5391 Clouds 25 1014 53 10000 6.7 60 09:38 24.10.2019
5392 Clouds 25 1014 53 10000 6.7 60 09:19 24.10.2019
5393 Clouds 26 1015 57 10000 4.1 40 08:55 24.10.2019
5394 Clouds 26 1015 57 10000 4.1 40 08:36 24.10.2019
5395 Clouds 25 1015 57 10000 4.1 60 08:18 24.10.2019
5396 Clouds 24 1015 65 10000 5.1 40 07:45 24.10.2019
5397 Clouds 25 1015 65 10000 5.1 40 07:22 24.10.2019
5398 Clouds 26 1016 64 10000 5.7 160 06:46 24.10.2019
5399 Clouds 27 1016 64 10000 5.7 160 06:23 24.10.2019
5400 Clouds 29 1016 69 10000 5.1 70 05:49 24.10.2019
5401 Clouds 29 1016 61 10000 5.1 70 05:28 24.10.2019
5402 Clear 30 1017 48 10000 2.6 40 03:38 24.10.2019
5403 Clouds 28 1018 60 10000 5.1 70 02:56 24.10.2019
5404 Clear 26 1018 69 10000 3.6 150 02:25 24.10.2019
5405 Clear 26 1018 69 10000 1 20 01:52 24.10.2019
5406 Clear 25 1017 62 0 0.73 54 01:28 24.10.2019
5407 Clouds 23 1019 77 10000 4.1 160 00:44 24.10.2019
5408 Clouds 22 1019 77 10000 3.6 170 00:23 24.10.2019
5409 Clouds 20 1019 77 10000 3.6 200 23:43 23.10.2019
5410 Clouds 20 1018 82 10000 3.1 210 23:43 23.10.2019
5411 Clouds 19 1018 82 10000 3.1 210 23:23 23.10.2019
5412 Clouds 19 1018 82 10000 3.1 210 23:23 23.10.2019
5413 Clouds 18 1018 88 10000 3.1 190 22:57 23.10.2019
5414 Clouds 17 1018 88 10000 3.6 200 22:38 23.10.2019
5415 Clouds 17 1017 93 10000 4.6 210 22:19 23.10.2019
5416 Clouds 16 1017 93 10000 4.6 210 21:57 23.10.2019
5417 Clouds 16 1017 88 10000 4.6 210 21:38 23.10.2019
5418 Clouds 16 1017 88 10000 4.6 210 21:20 23.10.2019
5419 Clouds 16 1017 88 10000 4.6 200 20:58 23.10.2019
5420 Clouds 16 1017 88 10000 4.6 200 20:39 23.10.2019
5421 Clouds 16 1017 88 10000 4.6 200 20:20 23.10.2019
5422 Clouds 16 1017 93 10000 5.7 200 19:58 23.10.2019
5423 Clouds 16 1017 93 10000 7.2 190 19:39 23.10.2019
5424 Clouds 16 1017 93 10000 7.2 190 19:18 23.10.2019
5425 Clouds 16 1017 93 10000 4.1 180 18:55 23.10.2019
5426 Clouds 16 1017 93 10000 4.1 180 18:36 23.10.2019
5427 Clouds 16 1017 93 10000 4.1 180 18:18 23.10.2019
5428 Clear 16 1017 88 10000 3.6 160 17:44 23.10.2019
5429 Clear 16 1017 88 10000 3.6 160 17:20 23.10.2019
5430 Clear 16 1017 88 10000 3.6 160 17:20 23.10.2019
5431 Clear 16 1017 93 10000 1.59 216 16:58 23.10.2019
5432 Clouds 17 1017 88 10000 4.1 200 16:39 23.10.2019
5433 Clouds 17 1017 88 10000 4.1 200 16:20 23.10.2019
5434 Clear 17 1017 82 10000 1.59 216 15:42 23.10.2019
5435 Clear 17 1017 82 10000 1.59 216 15:42 23.10.2019
5436 Clouds 17 1017 82 10000 1.5 273 15:23 23.10.2019
5437 Clouds 18 1018 82 10000 1.5 273 14:58 23.10.2019
5438 Clouds 18 1018 77 10000 0.5 30 14:39 23.10.2019
5439 Clouds 18 1018 77 10000 0.5 30 14:20 23.10.2019
5440 Clouds 18 1017 72 10000 2.1 200 13:59 23.10.2019
5441 Clouds 19 1018 73 10000 5.1 20 13:41 23.10.2019
5442 Clouds 19 1018 73 10000 5.1 20 13:23 23.10.2019
5443 Clouds 19 1017 60 10000 1 60 12:56 23.10.2019
5444 Clouds 20 1017 56 10000 2.6 100 12:37 23.10.2019
5445 Clouds 20 1017 73 10000 7.2 20 12:18 23.10.2019
5446 Clouds 20 1017 73 10000 7.2 20 11:57 23.10.2019
5447 Clouds 21 1017 77 10000 7.2 30 11:38 23.10.2019
5448 Clouds 21 1017 77 10000 7.2 30 11:20 23.10.2019
5449 Clouds 21 1017 68 10000 6.7 50 10:45 23.10.2019
5450 Clouds 22 1017 68 10000 10.3 30 10:26 23.10.2019
5451 Clouds 22 1017 68 10000 6.7 50 10:26 23.10.2019
5452 Clouds 23 1017 68 10000 10.3 30 09:57 23.10.2019
5453 Clouds 23 1017 60 10000 9.8 40 09:38 23.10.2019
5454 Clouds 23 1017 60 10000 9.8 40 09:38 23.10.2019
5455 Clouds 25 1017 60 10000 9.8 40 09:20 23.10.2019
5456 Clear 25 1016 60 10000 10.8 30 08:43 23.10.2019
5457 Clear 25 1016 60 10000 10.8 30 08:25 23.10.2019
5458 Clear 25 1016 57 10000 10.8 40 07:47 23.10.2019
5459 Clear 26 1017 53 10000 9.8 40 07:25 23.10.2019
5460 Clear 26 1017 57 10000 10.8 40 06:48 23.10.2019
5461 Clear 27 1018 53 10000 9.8 50 06:22 23.10.2019
5462 Clear 28 1018 53 10000 8.7 40 05:55 23.10.2019
5463 Clear 28 1019 53 10000 9.3 50 05:18 23.10.2019
5464 Clear 26 1021 60 10000 7.2 40 03:36 23.10.2019
5465 Clouds 25 1022 56 10000 6.7 40 02:42 23.10.2019
5466 Clouds 23 1023 53 10000 6.2 20 01:34 23.10.2019
5467 Clouds 22 1023 56 10000 6.2 20 00:59 23.10.2019
5468 Clouds 21 1023 64 10000 6.2 20 00:33 23.10.2019
5469 Clouds 19 1024 72 10000 4.1 350 23:43 22.10.2019
5470 Clouds 18 1024 72 10000 4.1 350 23:19 22.10.2019
5471 Clouds 17 1024 77 10000 4.1 350 22:59 22.10.2019
5472 Clouds 17 1024 77 10000 4.1 350 22:59 22.10.2019
5473 Clouds 16 1023 77 10000 3.1 340 22:40 22.10.2019
5474 Clouds 16 1024 93 10000 1.88 300 22:21 22.10.2019
5475 Clouds 15 1024 93 10000 1.88 300 21:57 22.10.2019
5476 Clouds 14 1023 93 10000 1.88 300 21:38 22.10.2019
5477 Clouds 14 1023 87 10000 1.58 261 21:19 22.10.2019
5478 Clouds 14 1023 87 10000 1.58 261 20:58 22.10.2019
5479 Clouds 15 1023 88 10000 1.58 261 20:40 22.10.2019
5480 Clouds 14 1023 93 10000 1 350 20:22 22.10.2019
5481 Clouds 15 1023 88 10000 1.58 261 19:57 22.10.2019
5482 Clouds 15 1023 88 10000 1.58 261 19:39 22.10.2019
5483 Clouds 15 1023 82 10000 1.58 261 19:21 22.10.2019
5484 Clouds 15 1023 82 10000 1.58 261 18:56 22.10.2019
5485 Clouds 15 1023 82 10000 1.5 30 18:37 22.10.2019
5486 Clouds 15 1023 82 10000 1.5 30 18:19 22.10.2019
5487 Clouds 15 1023 87 10000 2.6 230 17:55 22.10.2019
5488 Clouds 15 1023 82 10000 2.6 50 17:36 22.10.2019
5489 Clouds 15 1023 82 10000 2.6 50 17:18 22.10.2019
5490 Clouds 16 1024 82 10000 2.6 50 16:39 22.10.2019
5491 Clouds 16 1024 82 10000 2.6 50 16:20 22.10.2019
5492 Clouds 16 1025 82 10000 3.1 60 15:59 22.10.2019
5493 Clouds 16 1025 82 10000 2.6 50 15:41 22.10.2019
5494 Clouds 16 1025 82 10000 2.6 50 15:19 22.10.2019
5495 Clouds 16 1025 82 10000 2.1 60 14:47 22.10.2019
5496 Clouds 17 1025 72 10000 2.6 40 14:22 22.10.2019
5497 Clouds 17 1025 77 10000 4.1 60 13:59 22.10.2019
5498 Clouds 17 1025 72 10000 2.6 20 13:41 22.10.2019
5499 Clouds 18 1025 72 10000 2.6 20 13:18 22.10.2019
5500 Clear 18 1025 72 10000 3.1 50 12:55 22.10.2019
5501 Clear 18 1024 72 10000 5.1 50 12:37 22.10.2019
5502 Clear 18 1024 72 10000 5.1 50 12:19 22.10.2019
5503 Clear 18 1023 72 10000 6.2 60 11:40 22.10.2019
5504 Clear 19 1023 72 10000 6.2 60 11:22 22.10.2019
5505 Clear 19 1023 72 10000 6.7 70 10:59 22.10.2019
5506 Clear 19 1023 68 10000 7.7 60 10:38 22.10.2019
5507 Clear 19 1023 68 10000 7.7 60 10:19 22.10.2019
5508 Clear 20 1022 60 10000 7.7 70 09:57 22.10.2019
5509 Clear 20 1022 60 10000 7.2 50 09:39 22.10.2019
5510 Clear 20 1022 60 10000 7.2 50 09:39 22.10.2019
5511 Clear 21 1022 60 10000 7.2 50 09:21 22.10.2019
5512 Clear 22 1021 53 10000 6.2 50 08:55 22.10.2019
5513 Clear 22 1021 53 10000 8.7 70 08:36 22.10.2019
5514 Clear 23 1021 53 10000 8.7 70 08:18 22.10.2019
5515 Clear 23 1021 53 10000 8.7 50 07:41 22.10.2019
5516 Clear 24 1021 53 10000 8.7 50 07:22 22.10.2019
5517 Clear 25 1022 50 10000 9.3 80 06:40 22.10.2019
5518 Clear 26 1022 50 10000 9.3 80 06:20 22.10.2019
5519 Clear 26 1022 47 10000 7.7 60 05:27 22.10.2019
5520 Clear 26 1023 46 10000 8.7 60 04:19 22.10.2019
5521 Clear 23 1025 40 10000 2.6 50 02:30 22.10.2019
5522 Clear 22 1025 46 10000 3.6 350 01:38 22.10.2019
5523 Clear 21 1025 53 10000 3.1 340 01:18 22.10.2019
5524 Clouds 20 1026 59 10000 3.1 310 00:42 22.10.2019
5525 Clouds 19 1026 59 10000 3.1 310 00:24 22.10.2019
5526 Clear 17 1026 68 10000 2.6 310 23:59 21.10.2019
5527 Clear 16 1026 68 10000 3.1 320 23:38 21.10.2019
5528 Clear 15 1026 68 10000 3.1 320 23:19 21.10.2019
5529 Clear 14 1026 72 10000 3.1 310 22:58 21.10.2019
5530 Clear 14 1025 77 10000 3.1 300 22:39 21.10.2019
5531 Clear 14 1025 77 10000 3.1 300 22:39 21.10.2019
5532 Clear 12 1025 77 10000 3.1 300 22:20 21.10.2019
5533 Clear 12 1025 77 10000 3.1 300 22:20 21.10.2019
5534 Clear 11 1025 82 10000 3.6 310 21:56 21.10.2019
5535 Clouds 11 1025 82 10000 3.1 340 21:38 21.10.2019
5536 Clouds 11 1025 82 10000 3.1 350 21:19 21.10.2019
5537 Clouds 11 1025 100 10000 1.5 40 20:57 21.10.2019
5538 Clouds 11 1025 82 10000 3.1 350 20:57 21.10.2019
5539 Clouds 11 1025 100 300 2.1 30 20:38 21.10.2019
5540 Clouds 11 1025 100 300 2.1 30 20:20 21.10.2019
5541 Clear 11 1024 82 10000 3.6 340 19:55 21.10.2019
5542 Clear 11 1025 93 7000 1.6 270 19:37 21.10.2019
5543 Clear 11 1025 100 5000 1.6 270 19:18 21.10.2019
5544 Clear 11 1025 100 5000 1.6 270 18:55 21.10.2019
5545 Clear 11 1025 93 10000 1.6 270 18:36 21.10.2019
5546 Clear 12 1025 93 10000 1.6 270 18:36 21.10.2019
5547 Clear 12 1025 93 10000 1.37 245 18:18 21.10.2019
5548 Clear 12 1025 93 10000 1.37 245 18:18 21.10.2019
5549 Clear 12 1025 100 10000 1.37 245 18:18 21.10.2019
5550 Clear 12 1025 93 10000 1.37 245 17:39 21.10.2019
5551 Clear 12 1025 93 10000 1.37 245 17:20 21.10.2019
5552 Clear 12 1025 93 10000 1.37 245 16:58 21.10.2019
5553 Clear 12 1026 93 10000 1.37 245 16:40 21.10.2019
5554 Clear 13 1026 93 10000 1.37 245 16:22 21.10.2019
5555 Clear 13 1026 93 10000 1.37 245 15:58 21.10.2019
5556 Clear 13 1026 87 10000 1.37 245 15:39 21.10.2019
5557 Clouds 13 1026 87 10000 0.49 253 15:19 21.10.2019
5558 Clouds 14 1026 82 10000 0.44 236 14:40 21.10.2019
5559 Clouds 14 1026 82 10000 0.44 236 14:22 21.10.2019
5560 Clouds 14 1026 77 10000 0.44 236 13:59 21.10.2019
5561 Clouds 15 1026 68 10000 1.5 50 13:41 21.10.2019
5562 Clouds 15 1026 68 10000 1.5 50 13:20 21.10.2019
5563 Clouds 15 1026 68 10000 1.5 50 13:20 21.10.2019
5564 Clouds 16 1026 68 10000 3.6 90 12:58 21.10.2019
5565 Clouds 16 1026 68 10000 3.1 90 12:40 21.10.2019
5566 Clear 16 1026 68 10000 3.1 90 12:20 21.10.2019
5567 Clear 17 1026 68 10000 3.6 90 11:55 21.10.2019
5568 Clear 17 1026 63 10000 4.1 80 11:36 21.10.2019
5569 Clear 18 1026 63 10000 4.1 80 11:18 21.10.2019
5570 Clear 18 1025 59 10000 5.1 80 10:54 21.10.2019
5571 Clear 18 1025 59 10000 5.7 90 10:36 21.10.2019
5572 Clear 18 1025 59 10000 5.7 90 10:36 21.10.2019
5573 Clear 19 1025 52 10000 6.2 80 10:18 21.10.2019
5574 Clear 19 1024 52 10000 6.2 80 09:42 21.10.2019
5575 Clear 20 1024 52 10000 6.2 80 09:22 21.10.2019
5576 Clear 21 1024 46 10000 6.7 80 08:43 21.10.2019
5577 Clear 21 1024 46 10000 6.7 80 08:43 21.10.2019
5578 Clear 21 1024 46 10000 6.7 80 08:23 21.10.2019
5579 Clear 22 1024 46 10000 6.7 90 07:58 21.10.2019
5580 Clear 22 1024 46 10000 6.7 90 07:37 21.10.2019
5581 Clear 22 1024 46 10000 7.2 80 07:18 21.10.2019
5582 Clear 23 1024 46 10000 7.2 80 06:50 21.10.2019
5583 Clear 23 1024 43 10000 7.2 80 06:31 21.10.2019
5584 Clear 24 1025 49 10000 7.7 80 05:46 21.10.2019
5585 Clear 24 1025 49 10000 6.2 90 04:42 21.10.2019
5586 Clouds 22 1026 43 10000 3.1 300 02:41 21.10.2019
5587 Clouds 21 1026 43 10000 3.1 300 02:21 21.10.2019
5588 Clouds 21 1027 46 10000 4.1 90 01:49 21.10.2019
5589 Clouds 20 1027 49 10000 2.1 270 01:22 21.10.2019
5590 Clouds 19 1027 55 10000 3.1 310 00:42 21.10.2019
5591 Clouds 18 1027 55 10000 3.1 310 00:24 21.10.2019
5592 Clouds 16 1027 63 10000 3.1 330 23:41 20.10.2019
5593 Clouds 14 1027 63 10000 3.1 330 23:22 20.10.2019
5594 Clouds 13 1026 62 10000 2.6 310 22:56 20.10.2019
5595 Clouds 13 1026 71 10000 3.6 320 22:37 20.10.2019
5596 Clouds 11 1026 71 10000 3.6 320 22:18 20.10.2019
5597 Clouds 10 1026 71 10000 3.6 320 21:57 20.10.2019
5598 Clouds 10 1026 93 10000 2.18 288.801 21:38 20.10.2019
5599 Clouds 10 1026 93 10000 1.88 262.154 21:20 20.10.2019
5600 Clear 10 1025 93 10000 1.82 261.46 20:41 20.10.2019
5601 Clear 10 1025 93 10000 1.82 261.46 20:18 20.10.2019
5602 Clear 10 1025 93 10000 1.82 261.46 19:56 20.10.2019
5603 Clear 10 1025 100 10000 1.82 261.46 19:37 20.10.2019
5604 Clear 10 1025 93 10000 1.82 261.46 19:19 20.10.2019
5605 Clear 10 1025 87 10000 1.82 261.46 18:42 20.10.2019
5606 Clear 10 1025 87 10000 1.66 244.317 18:24 20.10.2019
5607 Clear 11 1025 87 10000 1.66 244.317 17:59 20.10.2019
5608 Clear 11 1026 87 10000 1.66 244.317 17:41 20.10.2019
5609 Clear 11 1026 87 10000 1.66 244.317 17:23 20.10.2019
5610 Clear 11 1026 81 10000 1.66 244.317 16:57 20.10.2019
5611 Clear 11 1026 81 10000 1.66 244.317 16:39 20.10.2019
5612 Clear 11 1026 81 10000 1.66 244.317 16:21 20.10.2019
5613 Clear 11 1026 81 10000 1.66 244.317 16:21 20.10.2019
5614 Clear 11 1026 76 10000 1.66 244.317 15:56 20.10.2019
5615 Clear 12 1026 76 10000 1.66 244.317 15:38 20.10.2019
5616 Clear 12 1026 76 10000 1.61 146.033 15:19 20.10.2019
5617 Clear 12 1026 71 10000 2.6 230 14:56 20.10.2019
5618 Clear 12 1026 71 10000 3.1 210 14:37 20.10.2019
5619 Clear 12 1026 71 10000 3.1 210 14:18 20.10.2019
5620 Clear 12 1025 71 10000 0.5 210 13:54 20.10.2019
5621 Clear 12 1025 71 10000 0.5 210 13:54 20.10.2019
5622 Clear 12 1025 71 10000 0.5 210 13:54 20.10.2019
5623 Clear 13 1025 66 10000 1 180 13:36 20.10.2019
5624 Clear 13 1025 66 10000 1 180 13:18 20.10.2019
5625 Clear 14 1025 66 10000 1.5 200 12:55 20.10.2019
5626 Clear 14 1025 62 10000 2.1 180 12:36 20.10.2019
5627 Clear 14 1025 62 10000 2.1 180 12:18 20.10.2019
5628 Clear 15 1024 51 10000 4.1 110 11:41 20.10.2019
5629 Clear 15 1024 51 10000 4.1 110 11:41 20.10.2019
5630 Clear 16 1024 51 10000 4.1 110 11:23 20.10.2019
5631 Clear 16 1023 51 10000 5.1 110 10:58 20.10.2019
5632 Clear 17 1023 48 10000 5.1 110 10:39 20.10.2019
5633 Clear 17 1023 48 10000 5.1 110 10:21 20.10.2019
5634 Clear 17 1023 48 10000 5.1 110 10:21 20.10.2019
5635 Clear 18 1022 45 10000 5.7 110 09:56 20.10.2019
5636 Clear 18 1022 39 10000 6.2 120 09:38 20.10.2019
5637 Clear 19 1022 39 10000 6.2 120 09:19 20.10.2019
5638 Clear 19 1021 34 10000 5.7 110 08:44 20.10.2019
5639 Clear 20 1021 34 10000 5.7 110 08:22 20.10.2019
5640 Clear 20 1020 34 10000 5.7 100 07:49 20.10.2019
5641 Clear 20 1021 32 10000 6.2 110 07:29 20.10.2019
5642 Clouds 21 1021 32 10000 5.7 120 06:31 20.10.2019
5643 Clouds 22 1021 28 10000 5.7 120 04:41 20.10.2019
5644 Clouds 21 1022 29 10000 5.7 130 03:59 20.10.2019
5645 Clouds 21 1022 30 10000 6.2 120 03:39 20.10.2019
5646 Clouds 21 1022 30 10000 6.2 120 03:18 20.10.2019
5647 Clouds 21 1022 32 10000 4.1 160 02:33 20.10.2019
5648 Clear 20 1022 34 10000 2.6 160 01:55 20.10.2019
5649 Clear 19 1022 34 10000 1 310 01:23 20.10.2019
5650 Clouds 18 1022 33 10000 2.1 260 00:53 20.10.2019
5651 Clouds 17 1022 33 10000 2.6 270 00:21 20.10.2019
5652 Clouds 16 1022 38 10000 4.1 260 23:55 19.10.2019
5653 Clouds 15 1021 41 10000 5.7 250 23:37 19.10.2019
5654 Clouds 14 1021 44 10000 5.1 250 23:19 19.10.2019
5655 Clouds 13 1021 44 10000 5.1 250 22:55 19.10.2019
5656 Clouds 12 1021 44 10000 5.1 250 22:37 19.10.2019
5657 Clouds 11 1021 44 10000 5.1 250 22:18 19.10.2019
5658 Clear 9 1021 81 10000 0.5 300 21:43 19.10.2019
5659 Clouds 9 1020 50 10000 5.1 250 21:20 19.10.2019
5660 Clear 9 1020 75 10000 1.5 240 20:44 19.10.2019
5661 Clear 9 1020 75 10000 1.5 240 20:44 19.10.2019
5662 Clear 10 1020 76 10000 2.6 280 20:22 19.10.2019
5663 Clear 10 1020 76 10000 2.6 280 19:56 19.10.2019
5664 Clear 10 1019 76 10000 1 90 19:38 19.10.2019
5665 Clear 10 1019 76 10000 1 90 19:20 19.10.2019
5666 Clouds 11 1019 71 10000 4.6 230 18:41 19.10.2019
5667 Clouds 11 1019 71 10000 4.6 230 18:41 19.10.2019
5668 Rain 11 1020 66 10000 2.6 210 18:23 19.10.2019
5669 Clouds 12 1019 76 10000 4.6 230 17:55 19.10.2019
5670 Clouds 12 1019 76 10000 4.6 230 17:55 19.10.2019
5671 Rain 12 1019 47 10000 2.6 240 17:36 19.10.2019
5672 Rain 13 1019 47 10000 2.6 240 17:18 19.10.2019
5673 Rain 13 1019 38 10000 2.1 190 16:39 19.10.2019
5674 Rain 14 1019 38 10000 2.1 190 16:20 19.10.2019
5675 Clouds 14 1019 77 10000 6.2 200 15:44 19.10.2019
5676 Clouds 14 1019 77 10000 6.2 200 15:44 19.10.2019
5677 Clouds 15 1019 77 10000 6.2 200 15:26 19.10.2019
5678 Clouds 15 1019 77 10000 6.2 200 15:26 19.10.2019
5679 Clouds 15 1019 82 10000 6.7 200 14:55 19.10.2019
5680 Clouds 15 1019 77 10000 7.7 210 14:37 19.10.2019
5681 Clouds 16 1019 77 10000 7.7 210 14:19 19.10.2019
5682 Clouds 16 1019 77 10000 7.7 210 14:19 19.10.2019
5683 Clouds 16 1018 72 10000 7.7 200 13:54 19.10.2019
5684 Clouds 17 1018 77 10000 8.7 200 13:36 19.10.2019
5685 Clouds 17 1017 77 10000 7.2 210 13:18 19.10.2019
5686 Clouds 18 1016 72 10000 10.8 190 12:39 19.10.2019
5687 Clouds 19 1016 72 10000 10.8 190 12:21 19.10.2019
5688 Clear 20 1015 63 10000 9.3 190 11:56 19.10.2019
5689 Clear 20 1015 40 10000 7.7 240 11:37 19.10.2019
5690 Clear 21 1015 40 10000 7.7 240 11:18 19.10.2019
5691 Clear 22 1013 27 10000 7.7 230 10:41 19.10.2019
5692 Clear 22 1013 25 10000 7.7 230 10:23 19.10.2019
5693 Clear 23 1013 25 10000 7.7 230 09:59 19.10.2019
5694 Rain 24 1012 22 10000 10.3 270 09:40 19.10.2019
5695 Rain 23 1011 22 10000 11.8 260 09:22 19.10.2019
5696 Rain 24 1011 36 10000 18 280 08:56 19.10.2019
5697 Rain 24 1011 36 10000 18 280 08:37 19.10.2019
5698 Clear 25 1010 36 10000 12.3 280 08:19 19.10.2019
5699 Rain 26 1010 16 10000 13.9 240 07:41 19.10.2019
5700 Rain 27 1010 16 10000 13.9 240 07:23 19.10.2019
5701 Clear 28 1010 13 10000 10.3 300 06:36 19.10.2019
5702 Clear 28 1010 13 10000 8.7 290 05:51 19.10.2019
5703 Clear 28 1011 15 10000 10.3 260 04:54 19.10.2019
5704 Clear 27 1012 17 10000 7.2 330 03:19 19.10.2019
5705 Clear 26 1013 17 10000 6.2 340 02:34 19.10.2019
5706 Clear 25 1014 16 10000 5.1 330 01:50 19.10.2019
5707 Clear 23 1015 16 10000 6.2 330 00:57 19.10.2019
5708 Clear 22 1015 21 10000 5.7 320 00:37 19.10.2019
5709 Clear 21 1015 21 10000 5.7 320 00:19 19.10.2019
5710 Clear 19 1015 29 10000 4.6 320 23:39 18.10.2019
5711 Clear 17 1015 29 10000 4.6 320 23:21 18.10.2019
5712 Clear 16 1014 38 10000 4.6 320 22:55 18.10.2019
5713 Clear 16 1014 47 10000 4.1 300 22:37 18.10.2019
5714 Clear 16 1014 47 10000 4.1 300 22:37 18.10.2019
5715 Clear 14 1014 47 10000 4.1 300 22:18 18.10.2019
5716 Clear 14 1014 62 10000 2.6 310 21:56 18.10.2019
5717 Clear 13 1013 71 10000 3.33 309.909 21:37 18.10.2019
5718 Clear 12 1013 67 10000 2.1 360 21:18 18.10.2019
5719 Clear 12 1013 67 10000 2.1 360 20:43 18.10.2019
5720 Clear 11 1013 76 10000 2.21 315.311 20:24 18.10.2019
5721 Clear 11 1013 76 10000 2.21 315.311 19:59 18.10.2019
5722 Clear 10 1013 71 10000 2.21 315.311 19:41 18.10.2019
5723 Clear 10 1013 71 10000 2.21 315.311 19:22 18.10.2019
5724 Clear 10 1013 71 10000 2.21 315.311 19:22 18.10.2019
5725 Clear 10 1013 71 10000 2.21 315.311 18:59 18.10.2019
5726 Clear 10 1014 71 10000 2.21 315.311 18:41 18.10.2019
5727 Clear 12 1014 71 10000 2.1 282.156 18:23 18.10.2019
5728 Clear 11 1014 58 10000 2.1 282.156 17:57 18.10.2019
5729 Clear 12 1014 62 10000 2.1 282.156 17:37 18.10.2019
5730 Clear 12 1014 62 10000 2.1 282.156 17:19 18.10.2019
5731 Clear 12 1014 67 10000 2.1 282.156 16:44 18.10.2019
5732 Clear 12 1014 67 10000 2.1 282.156 16:43 18.10.2019
5733 Clear 12 1014 67 10000 2.1 282.156 16:22 18.10.2019
5734 Clear 12 1015 87 10000 0.5 240 15:58 18.10.2019
5735 Clear 12 1015 81 10000 1 20 15:39 18.10.2019
5736 Clear 13 1015 81 10000 1 20 15:20 18.10.2019
5737 Clear 13 1015 76 10000 1.16 274.645 14:57 18.10.2019
5738 Clear 14 1015 71 10000 1.16 274.645 14:38 18.10.2019
5739 Clear 14 1015 67 10000 0.5 200 14:20 18.10.2019
5740 Clear 14 1015 67 10000 0.5 200 13:57 18.10.2019
5741 Clear 14 1015 67 10000 3.6 40 13:39 18.10.2019
5742 Clear 15 1015 67 10000 3.6 40 13:20 18.10.2019
5743 Clear 16 1015 63 10000 4.1 50 12:56 18.10.2019
5744 Clear 16 1014 59 10000 4.1 50 12:37 18.10.2019
5745 Clear 17 1014 59 10000 4.1 50 12:19 18.10.2019
5746 Clear 17 1014 49 10000 4.6 20 11:54 18.10.2019
5747 Clear 17 1014 52 10000 5.1 10 11:36 18.10.2019
5748 Clear 18 1014 52 10000 5.1 10 11:18 18.10.2019
5749 Clear 19 1013 45 10000 7.7 30 10:41 18.10.2019
5750 Clear 20 1013 45 10000 7.7 30 10:22 18.10.2019
5751 Clear 20 1013 45 10000 7.7 30 10:22 18.10.2019
5752 Clear 20 1013 43 10000 8.2 30 09:58 18.10.2019
5753 Clear 20 1013 40 10000 8.7 40 09:40 18.10.2019
5754 Clear 22 1013 40 10000 8.7 40 09:20 18.10.2019
5755 Clear 22 1012 37 10000 7.7 30 08:57 18.10.2019
5756 Clear 22 1013 33 10000 9.8 40 08:38 18.10.2019
5757 Clear 23 1013 33 10000 9.8 40 08:20 18.10.2019
5758 Clear 24 1013 33 10000 9.3 50 07:42 18.10.2019
5759 Clear 24 1013 33 10000 9.3 50 07:20 18.10.2019
5760 Clear 23 1013 28 10000 8.7 60 06:39 18.10.2019
5761 Clear 24 1014 30 10000 7.7 60 06:20 18.10.2019
5762 Clear 24 1014 30 10000 7.7 60 05:55 18.10.2019
5763 Clear 24 1015 30 10000 8.7 70 05:21 18.10.2019
5764 Clear 23 1016 19 10000 5.1 70 03:56 18.10.2019
5765 Clear 22 1016 23 10000 3.1 270 03:24 18.10.2019
5766 Clear 21 1017 32 10000 2.6 320 02:33 18.10.2019
5767 Clear 20 1017 30 10000 3.6 290 01:44 18.10.2019
5768 Clear 20 1017 32 10000 4.6 250 01:26 18.10.2019
5769 Clear 18 1017 42 10000 6.2 250 00:44 18.10.2019
5770 Clear 17 1017 42 10000 6.2 250 00:20 18.10.2019
5771 Clear 17 1017 44 10000 6.2 240 23:54 17.10.2019
5772 Clear 16 1017 44 10000 5.7 240 23:36 17.10.2019
5773 Clear 15 1017 44 10000 5.7 240 23:18 17.10.2019
5774 Clear 14 1016 44 10000 4.6 250 22:54 17.10.2019
5775 Clear 13 1016 41 10000 4.1 270 22:36 17.10.2019
5776 Clear 11 1016 41 10000 4.1 270 22:18 17.10.2019
5777 Clear 10 1016 66 10000 2.6 40 21:54 17.10.2019
5778 Clear 10 1015 66 10000 2.6 260 21:36 17.10.2019
5779 Clear 10 1015 66 10000 2.6 260 21:18 17.10.2019
5780 Clear 11 1015 57 10000 3.1 340 20:54 17.10.2019
5781 Clear 11 1015 53 10000 3.6 330 20:36 17.10.2019
5782 Clear 11 1015 46 10000 2.6 360 20:18 17.10.2019
5783 Clear 11 1015 46 10000 3.1 360 19:42 17.10.2019
5784 Clear 12 1014 41 10000 5.1 270 19:20 17.10.2019
5785 Clear 12 1014 41 10000 5.1 270 19:20 17.10.2019
5786 Clear 12 1014 41 10000 5.1 270 18:59 17.10.2019
5787 Clear 12 1014 33 10000 5.1 290 18:38 17.10.2019
5788 Clear 12 1014 33 10000 5.1 290 18:20 17.10.2019
5789 Clear 13 1014 33 10000 6.2 280 17:43 17.10.2019
5790 Clear 13 1014 33 10000 6.2 280 17:43 17.10.2019
5791 Clear 13 1014 33 10000 6.2 280 17:24 17.10.2019
5792 Clear 14 1014 29 10000 6.7 270 16:59 17.10.2019
5793 Clear 14 1014 29 10000 5.7 270 16:40 17.10.2019
5794 Clear 14 1014 29 10000 5.7 270 16:19 17.10.2019
5795 Clear 15 1014 29 10000 7.2 280 15:57 17.10.2019
5796 Clear 15 1014 29 10000 7.2 290 15:38 17.10.2019
5797 Clear 15 1014 29 10000 7.2 290 15:20 17.10.2019
5798 Clear 16 1014 27 10000 7.7 280 14:56 17.10.2019
5799 Clear 16 1014 25 10000 8.2 260 14:38 17.10.2019
5800 Clear 16 1014 25 10000 8.2 260 14:20 17.10.2019
5801 Clear 17 1013 29 10000 6.2 270 13:40 17.10.2019
5802 Clear 17 1012 25 10000 9.8 280 13:20 17.10.2019
5803 Clear 17 1012 25 10000 9.8 280 12:58 17.10.2019
5804 Clear 17 1012 25 10000 8.7 260 12:38 17.10.2019
5805 Clear 18 1012 23 10000 8.7 260 12:19 17.10.2019
5806 Clear 18 1012 23 10000 8.7 260 11:55 17.10.2019
5807 Clear 18 1012 23 10000 8.7 260 11:55 17.10.2019
5808 Clear 18 1012 23 10000 8.7 260 11:55 17.10.2019
5809 Clear 18 1012 23 10000 8.7 260 11:55 17.10.2019
5810 Clear 18 1011 20 10000 8.7 260 11:37 17.10.2019
5811 Clear 18 1011 22 10000 7.7 250 11:18 17.10.2019
5812 Clear 19 1010 16 10000 10.8 260 10:42 17.10.2019
5813 Clear 19 1010 16 10000 10.8 260 10:42 17.10.2019
5814 Clear 19 1009 19 10000 10.3 260 10:20 17.10.2019
5815 Clear 20 1009 19 10000 10.3 260 09:57 17.10.2019
5816 Clear 20 1009 19 10000 9.8 270 09:38 17.10.2019
5817 Clouds 21 1008 18 10000 9.3 270 09:20 17.10.2019
5818 Clouds 22 1008 18 10000 9.3 270 08:56 17.10.2019
5819 Clouds 22 1007 15 10000 15.4 260 08:37 17.10.2019
5820 Clouds 22 1007 15 10000 15.4 260 08:18 17.10.2019
5821 Clouds 22 1007 15 10000 15.4 260 08:18 17.10.2019
5822 Clouds 23 1007 23 10000 11.8 270 07:43 17.10.2019
5823 Clouds 24 1006 20 10000 13.4 270 07:21 17.10.2019
5824 -273 0 0 0 0 0 07:21 17.10.2019
5825 -273 0 0 0 0 0 06:56 17.10.2019
5826 Clouds 25 1005 19 10000 15.4 280 06:38 17.10.2019
5827 Clouds 25 1005 19 10000 15.4 280 06:19 17.10.2019
5828 Clouds 26 1005 21 10000 11.8 280 05:41 17.10.2019
5829 Clouds 27 1005 21 10000 11.8 280 05:20 17.10.2019
5830 Clouds 28 1004 21 10000 9.8 290 04:50 17.10.2019
5831 Clouds 27 1004 44 10000 11.3 260 03:49 17.10.2019
5832 Clouds 26 1005 39 10000 2.6 250 02:35 17.10.2019
5833 Clouds 22 1006 68 10000 7.2 270 00:44 17.10.2019
5834 Clouds 21 1006 68 10000 7.2 270 00:22 17.10.2019
5835 Clouds 20 1006 68 10000 7.2 270 23:59 16.10.2019
5836 Clouds 19 1006 72 10000 3.1 300 23:41 16.10.2019
5837 Clouds 19 1006 72 10000 3.1 300 23:19 16.10.2019
5838 Clouds 19 1006 72 10000 3.1 300 23:19 16.10.2019
5839 Clouds 18 1006 77 10000 2.6 280 22:55 16.10.2019
5840 Clouds 18 1006 77 10000 2.6 280 22:55 16.10.2019
5841 Clouds 17 1006 77 10000 2.1 310 22:36 16.10.2019
5842 Clouds 17 1006 77 10000 2.1 310 22:36 16.10.2019
5843 Clouds 16 1006 87 10000 1.512 273 22:18 16.10.2019
5844 Clouds 16 1006 88 10000 1.5 270 21:55 16.10.2019
5845 Clouds 16 1006 93 10000 3.1 280 21:37 16.10.2019
5846 Clouds 16 1006 93 10000 3.1 280 21:18 16.10.2019
5847 Rain 16 1006 88 10000 2.1 300 20:56 16.10.2019
5848 Rain 16 1006 82 10000 2.713 327 20:38 16.10.2019
5849 Rain 16 1006 82 10000 2.713 327 20:20 16.10.2019
5850 Rain 17 1007 88 10000 4.6 180 19:42 16.10.2019
5851 Rain 17 1007 88 10000 3.6 170 19:21 16.10.2019
5852 Rain 17 1007 88 10000 4.6 180 19:21 16.10.2019
5853 Rain 17 1007 88 10000 3.6 170 18:59 16.10.2019
5854 Rain 17 1007 93 10000 4.6 160 18:39 16.10.2019
5855 Rain 18 1007 93 10000 4.6 160 18:19 16.10.2019
5856 Rain 18 1008 88 10000 4.1 160 17:56 16.10.2019
5857 Rain 18 1008 88 10000 4.1 150 17:37 16.10.2019
5858 Rain 18 1009 88 10000 4.6 150 17:19 16.10.2019
5859 Rain 18 1009 88 10000 4.6 150 16:58 16.10.2019
5860 Rain 19 1009 88 10000 3.6 200 16:38 16.10.2019
5861 Rain 19 1009 82 10000 4.1 180 16:20 16.10.2019
5862 Rain 19 1009 82 10000 4.1 180 15:55 16.10.2019
5863 Rain 19 1008 63 10000 3.1 100 15:36 16.10.2019
5864 Rain 19 1008 63 10000 3.1 100 15:18 16.10.2019
5865 Rain 19 1008 63 10000 3.1 100 15:18 16.10.2019
5866 -273 0 0 0 0 0 14:55 16.10.2019
5867 Rain 19 1009 77 10000 4.6 60 14:36 16.10.2019
5868 Rain 19 1009 77 10000 4.6 60 14:18 16.10.2019
5869 Rain 20 1009 77 10000 6.2 50 13:55 16.10.2019
5870 Rain 20 1009 72 10000 5.1 60 13:36 16.10.2019
5871 Rain 20 1009 72 10000 5.1 60 13:18 16.10.2019
5872 Rain 21 1009 38 10000 4.1 40 12:40 16.10.2019
5873 Rain 22 1009 38 10000 4.1 40 12:18 16.10.2019
5874 Rain 22 1009 38 10000 4.1 40 11:42 16.10.2019
5875 Rain 22 1010 41 10000 2.6 320 11:18 16.10.2019
5876 Clouds 23 1009 33 10000 2.6 330 10:39 16.10.2019
5877 Clouds 23 1008 33 10000 3.1 310 10:20 16.10.2019
5878 Clouds 23 1008 33 10000 1.5 290 09:56 16.10.2019
5879 Clouds 24 1008 38 10000 3.6 270 09:38 16.10.2019
5880 Rain 24 1008 38 10000 3.6 270 09:19 16.10.2019
5881 Rain 24 1009 77 10000 2.6 170 08:43 16.10.2019
5882 Rain 24 1009 77 10000 2.6 170 08:24 16.10.2019
5883 Rain 24 1009 72 10000 4.052 248 07:46 16.10.2019
5884 Rain 23 1009 77 10000 2.6 130 07:26 16.10.2019
5885 Rain 23 1009 77 10000 2.6 130 07:25 16.10.2019
5886 Rain 23 1009 72 10000 3.6 160 06:59 16.10.2019
5887 Rain 23 1009 72 10000 5.1 120 06:39 16.10.2019
5888 Clouds 24 1009 72 10000 4.1 120 05:54 16.10.2019
5889 Clouds 23 1011 68 10000 2.1 110 03:26 16.10.2019
5890 Clouds 22 1011 77 10000 4.6 150 02:49 16.10.2019
5891 Clouds 19 1012 77 10000 6.2 170 01:19 16.10.2019
5892 Clouds 19 1012 82 10000 7.2 170 00:50 16.10.2019
5893 Clouds 18 1012 82 10000 6.7 180 00:32 16.10.2019
5894 Clouds 17 1012 82 10000 6.2 190 23:41 15.10.2019
5895 Clouds 17 1012 88 10000 7.2 190 23:22 15.10.2019
5896 Clouds 17 1012 88 10000 7.7 190 22:56 15.10.2019
5897 Clouds 16 1012 88 10000 8.2 180 22:38 15.10.2019
5898 Clouds 16 1012 88 10000 8.2 180 22:20 15.10.2019
5899 Clouds 16 1011 88 10000 8.7 170 21:56 15.10.2019
5900 Clouds 17 1011 88 10000 8.7 170 21:56 15.10.2019
5901 Clouds 16 1011 93 10000 9.8 180 21:38 15.10.2019
5902 Clouds 16 1011 93 10000 9.8 180 21:20 15.10.2019
5903 Clouds 16 1011 93 10000 8.7 180 20:58 15.10.2019
5904 Clouds 16 1011 93 10000 8.7 180 20:39 15.10.2019
5905 Clouds 16 1011 93 10000 8.7 190 20:21 15.10.2019
5906 Clouds 16 1010 93 10000 7.2 190 19:59 15.10.2019
5907 Rain 16 1010 93 10000 6.2 200 19:40 15.10.2019
5908 Rain 16 1010 93 10000 6.2 200 19:20 15.10.2019
5909 Rain 16 1010 93 8000 2.6 220 18:55 15.10.2019
5910 Clouds 15 1009 100 10000 2.62 180 18:36 15.10.2019
5911 Clear 15 1009 100 10000 1.787 197 18:18 15.10.2019
5912 Clear 15 1010 100 10000 1.787 197 17:41 15.10.2019
5913 Clear 15 1010 100 10000 1.787 197 17:41 15.10.2019
5914 Clouds 16 1010 88 10000 2.6 340 17:21 15.10.2019
5915 Clouds 16 1010 88 10000 3.1 350 16:59 15.10.2019
5916 Clouds 16 1010 88 10000 3.1 350 16:59 15.10.2019
5917 Clouds 16 1010 88 10000 3.1 350 16:40 15.10.2019
5918 Clear 16 1011 87 10000 2.1 240 16:21 15.10.2019
5919 Clouds 17 1011 88 10000 3.1 360 15:55 15.10.2019
5920 Clouds 17 1011 88 10000 3.1 360 15:55 15.10.2019
5921 Clouds 17 1011 88 10000 4.6 20 15:37 15.10.2019
5922 Clouds 17 1011 88 10000 4.6 20 15:19 15.10.2019
5923 Clouds 18 1010 88 10000 7.2 40 14:38 15.10.2019
5924 Clouds 18 1010 88 10000 7.2 40 14:20 15.10.2019
5925 Clear 18 1011 87 10000 0.628 74 13:59 15.10.2019
5926 Clear 18 1011 87 10000 0.628 74 13:40 15.10.2019
5927 Clear 19 1011 82 10000 0.628 74 13:20 15.10.2019
5928 Clouds 19 1011 83 10000 8.2 20 12:44 15.10.2019
5929 Clouds 19 1011 83 10000 8.2 20 12:22 15.10.2019
5930 Clear 19 1010 64 10000 2.1 180 11:59 15.10.2019
5931 Clouds 20 1010 77 10000 8.2 30 11:40 15.10.2019
5932 Clouds 20 1010 77 10000 8.2 30 11:19 15.10.2019
5933 Clouds 20 1009 83 10000 6.7 10 10:46 15.10.2019
5934 Clouds 21 1009 78 10000 8.2 30 10:24 15.10.2019
5935 Clouds 21 1009 78 10000 6.7 10 09:59 15.10.2019
5936 Clouds 22 1009 78 10000 6.7 10 09:40 15.10.2019
5937 Clouds 23 1009 78 10000 6.7 10 09:21 15.10.2019
5938 Clouds 23 1009 78 10000 6.7 10 09:21 15.10.2019
5939 Clouds 23 1009 69 10000 6.7 10 08:58 15.10.2019
5940 Clouds 23 1009 68 10000 9.3 40 08:39 15.10.2019
5941 Clouds 24 1009 68 10000 9.3 40 08:19 15.10.2019
5942 Clear 25 1009 57 10000 8.7 40 07:43 15.10.2019
5943 Clear 25 1009 57 10000 8.7 40 07:23 15.10.2019
5944 Clear 26 1009 53 10000 8.7 50 06:57 15.10.2019
5945 Clear 26 1009 53 10000 7.7 50 06:39 15.10.2019
5946 Clear 27 1010 47 10000 8.2 40 05:56 15.10.2019
5947 Clear 26 1010 47 10000 6.7 50 05:37 15.10.2019
5948 Clear 27 1011 44 10000 7.2 50 04:49 15.10.2019
5949 Clear 26 1011 50 10000 6.7 70 04:19 15.10.2019
5950 Clear 25 1012 50 10000 6.7 40 03:35 15.10.2019
5951 Clear 24 1013 56 10000 6.7 40 01:59 15.10.2019
5952 Clear 22 1013 60 10000 2.1 270 01:40 15.10.2019
5953 Clear 21 1013 68 10000 2.1 270 00:59 15.10.2019
5954 Clear 19 1013 72 10000 2.1 290 00:26 15.10.2019
5955 Clear 18 1013 77 10000 2.6 300 23:59 14.10.2019
5956 Clear 16 1013 77 10000 2.6 300 23:37 14.10.2019
5957 Clear 16 1013 82 10000 2.1 290 23:19 14.10.2019
5958 Clear 16 1013 82 10000 2.1 290 23:19 14.10.2019
5959 Clear 14 1013 87 10000 2.6 290 22:40 14.10.2019
5960 Clear 14 1013 87 10000 3.1 280 22:21 14.10.2019
5961 Clear 13 1013 87 10000 2.1 310 21:58 14.10.2019
5962 Clear 13 1013 93 10000 1.41 295.162 21:40 14.10.2019
5963 Clouds 12 1013 100 10000 1.16 254.312 21:21 14.10.2019
5964 Clear 13 1012 93 10000 1.16 266.101 20:58 14.10.2019
5965 Clear 13 1012 87 10000 1.16 266.101 20:38 14.10.2019
5966 Clear 13 1012 87 10000 1.16 266.101 20:19 14.10.2019
5967 Clear 13 1012 93 10000 1.16 266.101 19:55 14.10.2019
5968 Clear 13 1012 87 10000 1.162 266 19:37 14.10.2019
5969 Clear 13 1012 87 10000 1.16 266.101 19:19 14.10.2019
5970 Clouds 13 1013 100 10000 1.16 266.101 18:57 14.10.2019
5971 Clouds 13 1013 93 10000 1.16 266.101 18:37 14.10.2019
5972 Clear 13 1013 100 10000 0.36 153.795 18:18 14.10.2019
5973 Clear 14 1013 87 10000 0.36 153.795 17:41 14.10.2019
5974 Clear 14 1013 87 10000 0.36 153.795 17:23 14.10.2019
5975 Clear 15 1013 82 10000 0.36 153.795 16:56 14.10.2019
5976 Clear 15 1014 82 10000 2.1 230 16:38 14.10.2019
5977 Clear 15 1014 87 10000 0.36 153.795 16:19 14.10.2019
5978 Clear 16 1014 93 10000 0.36 153.795 15:41 14.10.2019
5979 Clouds 16 1014 93 10000 0.67 13.353 15:22 14.10.2019
5980 Clouds 17 1014 87 10000 1 270 14:44 14.10.2019
5981 Clouds 17 1014 87 10000 1 270 14:26 14.10.2019
5982 Clouds 17 1014 77 10000 1 90 13:59 14.10.2019
5983 Clouds 17 1014 72 10000 2.1 70 13:40 14.10.2019
5984 Clouds 17 1014 77 10000 2.1 150 13:21 14.10.2019
5985 Rain 18 1014 77 10000 5.7 30 12:42 14.10.2019
5986 Rain 18 1014 77 10000 5.7 30 12:21 14.10.2019
5987 Rain 18 1014 77 10000 5.7 30 12:21 14.10.2019
5988 Rain 18 1014 72 10000 6.2 40 11:59 14.10.2019
5989 Clear 18 1013 72 10000 5.7 50 11:41 14.10.2019
5990 Clear 18 1013 72 10000 5.7 50 11:22 14.10.2019
5991 Clouds 18 1013 68 10000 6.2 40 10:44 14.10.2019
5992 Clouds 19 1013 64 10000 7.7 40 10:23 14.10.2019
5993 Clouds 19 1013 64 10000 7.7 40 09:59 14.10.2019
5994 Clouds 19 1013 60 10000 7.7 40 09:40 14.10.2019
5995 Clouds 19 1013 60 10000 7.7 40 09:40 14.10.2019
5996 Clear 21 1012 60 10000 7.7 50 09:20 14.10.2019
5997 Clear 21 1012 60 10000 7.7 50 08:48 14.10.2019
5998 Clear 22 1013 56 10000 7.7 50 08:23 14.10.2019
5999 Clouds 23 1013 49 10000 6.7 40 07:45 14.10.2019
6000 Clouds 23 1013 53 10000 7.7 40 07:23 14.10.2019
6001 Clouds 23 1013 53 10000 7.7 40 06:56 14.10.2019
6002 Clouds 23 1013 56 10000 7.2 40 06:28 14.10.2019
6003 Clouds 24 1014 49 10000 6.7 60 05:55 14.10.2019
6004 Clouds 24 1015 53 10000 6.2 40 04:59 14.10.2019
6005 Clouds 23 1016 49 10000 4.1 30 03:50 14.10.2019
6006 Clouds 22 1016 49 10000 4.1 30 03:23 14.10.2019
6007 Clouds 21 1017 49 10000 6.7 40 02:25 14.10.2019
6008 Clear 19 1018 55 10000 4.1 350 01:19 14.10.2019
6009 Clear 17 1018 63 10000 4.6 340 00:42 14.10.2019
6010 Clear 16 1017 67 10000 2.6 320 00:18 14.10.2019
6011 Clear 14 1018 67 10000 2.6 320 23:40 13.10.2019
6012 Clear 13 1018 93 10000 1.47 324.231 23:19 13.10.2019
6013 Clear 12 1018 100 10000 1.47 324.231 22:57 13.10.2019
6014 Clear 11 1017 100 10000 1.47 324.231 22:39 13.10.2019
6015 Clear 11 1017 100 10000 1.47 324.231 22:19 13.10.2019
6016 Clear 10 1017 100 10000 1.47 324.231 21:57 13.10.2019
6017 Clear 10 1017 93 10000 1.5 290 21:36 13.10.2019
6018 Clear 10 1017 82 10000 3.1 360 21:18 13.10.2019
6019 Clear 10 1017 82 10000 3.1 360 20:56 13.10.2019
6020 Clouds 10 1017 100 10000 0.5 140 20:37 13.10.2019
6021 Clouds 10 1017 100 10000 0.5 140 20:37 13.10.2019
6022 Clouds 10 1017 100 10000 0.5 140 20:37 13.10.2019
6023 Clouds 10 1017 100 10000 0.5 140 20:19 13.10.2019
6024 -273 0 0 0 0 0 19:55 13.10.2019
6025 Clear 10 1017 82 10000 2.6 350 19:36 13.10.2019
6026 Clear 10 1017 82 10000 3.1 320 19:18 13.10.2019
6027 Clear 10 1017 82 10000 3.1 320 18:54 13.10.2019
6028 Clear 10 1018 82 10000 2.6 350 18:36 13.10.2019
6029 Rain 10 1018 100 10000 2.1 30 18:18 13.10.2019
6030 Rain 10 1018 100 10000 3.1 70 17:42 13.10.2019
6031 Rain 10 1018 100 10000 3.1 70 17:42 13.10.2019
6032 Rain 10 1018 100 10000 3.1 70 17:24 13.10.2019
6033 Clouds 10 1019 93 10000 0.88 359.083 16:45 13.10.2019
6034 Clouds 10 1019 93 10000 0.88 359.083 16:45 13.10.2019
6035 Clouds 10 1020 93 10000 0.88 359.083 16:20 13.10.2019
6036 Clouds 11 1020 93 10000 0.88 359.083 15:59 13.10.2019
6037 Clouds 10 1020 93 10000 0.88 359.083 15:59 13.10.2019
6038 Clouds 11 1020 93 10000 1.5 360 15:39 13.10.2019
6039 Clouds 11 1020 93 10000 1.5 360 15:21 13.10.2019
6040 Clouds 11 1020 93 10000 1.45 307.035 14:59 13.10.2019
6041 Clouds 12 1020 87 10000 1.45 307.035 14:40 13.10.2019
6042 Clouds 12 1020 87 10000 1.45 307.035 14:22 13.10.2019
6043 Clouds 12 1020 87 10000 1.45 307.035 13:59 13.10.2019
6044 Clouds 12 1020 87 10000 1.45 307.035 13:38 13.10.2019
6045 Clouds 12 1020 87 10000 1.45 307.035 13:38 13.10.2019
6046 Clouds 12 1020 87 10000 1.47 325.443 13:20 13.10.2019
6047 Clouds 13 1020 82 10000 1.47 325.443 12:56 13.10.2019
6048 Clouds 13 1020 76 10000 1.47 325.443 12:38 13.10.2019
6049 Clear 14 1019 63 10000 3.1 40 12:19 13.10.2019
6050 Clear 14 1019 63 10000 3.1 40 11:56 13.10.2019
6051 Clear 14 1019 63 10000 3.6 40 11:38 13.10.2019
6052 Clear 15 1019 63 10000 3.6 40 11:19 13.10.2019
6053 Clear 15 1019 59 10000 5.1 70 10:42 13.10.2019
6054 Clear 16 1019 59 10000 5.1 70 10:23 13.10.2019
6055 Clouds 16 1019 59 10000 5.7 90 09:57 13.10.2019
6056 Clouds 17 1019 55 10000 5.1 90 09:38 13.10.2019
6057 Clouds 17 1019 55 10000 5.1 90 09:19 13.10.2019
6058 Clouds 18 1019 55 10000 5.1 90 08:43 13.10.2019
6059 Clouds 18 1018 52 10000 5.7 80 08:22 13.10.2019
6060 Clouds 18 1018 55 10000 5.7 120 07:47 13.10.2019
6061 Clouds 18 1018 55 10000 5.7 120 07:28 13.10.2019
6062 Rain 19 1019 52 10000 4.6 90 06:48 13.10.2019
6063 Clouds 19 1019 55 10000 5.1 130 05:57 13.10.2019
6064 Clouds 19 1020 63 10000 5.7 130 04:59 13.10.2019
6065 Rain 19 1020 59 10000 4.1 140 04:33 13.10.2019
6066 Rain 17 1021 72 10000 2.1 170 02:48 13.10.2019
6067 Clouds 17 1021 77 10000 3.6 210 02:23 13.10.2019
6068 Rain 16 1021 77 10000 3.6 240 01:34 13.10.2019
6069 Rain 16 1021 77 10000 3.6 240 01:34 13.10.2019
6070 Rain 15 1021 82 10000 2.6 280 00:52 13.10.2019
6071 Rain 13 1021 82 10000 3.6 290 00:22 13.10.2019
6072 Rain 13 1021 87 10000 3.1 280 23:59 12.10.2019
6073 Rain 12 1021 87 10000 3.1 290 23:40 12.10.2019
6074 Rain 12 1021 87 10000 3.1 290 23:40 12.10.2019
6075 Rain 12 1021 87 10000 3.1 290 23:21 12.10.2019
6076 Drizzle 11 1021 87 10000 3.1 300 22:58 12.10.2019
6077 Clouds 10 1021 100 10000 1.5 130 22:40 12.10.2019
6078 Clouds 10 1021 100 10000 1.5 130 22:21 12.10.2019
6079 Clouds 10 1021 100 10000 1.5 207.764 21:56 12.10.2019
6080 Rain 10 1020 93 10000 1.5 207.764 21:38 12.10.2019
6081 Rain 10 1020 93 10000 1.94 208.305 21:20 12.10.2019
6082 Rain 10 1020 93 10000 2.36 214.895 20:45 12.10.2019
6083 Rain 11 1020 87 10000 6.7 220 20:27 12.10.2019
6084 Rain 11 1020 93 10000 2.36 214.895 19:42 12.10.2019
6085 Rain 11 1020 93 10000 2.36 214.895 19:24 12.10.2019
6086 Rain 11 1020 93 10000 3.6 210 18:59 12.10.2019
6087 Rain 11 1020 93 10000 4.1 210 18:41 12.10.2019
6088 Rain 11 1020 93 10000 4.1 210 18:23 12.10.2019
6089 Rain 11 1020 87 10000 4.6 220 17:45 12.10.2019
6090 Rain 11 1020 87 10000 4.6 220 17:21 12.10.2019
6091 Rain 12 1020 93 10000 4.6 230 16:58 12.10.2019
6092 Rain 12 1020 93 10000 4.6 230 16:58 12.10.2019
6093 Rain 12 1020 87 10000 4.1 240 16:40 12.10.2019
6094 Rain 12 1020 87 10000 4.1 240 16:20 12.10.2019
6095 Rain 12 1021 87 10000 3.1 270 15:56 12.10.2019
6096 Rain 12 1021 87 10000 3.6 300 15:37 12.10.2019
6097 Rain 12 1021 87 10000 3.6 300 15:18 12.10.2019
6098 Rain 12 1021 77 10000 6.2 180 14:39 12.10.2019
6099 Rain 13 1021 77 10000 6.2 180 14:20 12.10.2019
6100 Rain 13 1021 82 10000 4.6 210 13:50 12.10.2019
6101 Rain 13 1020 82 10000 5.7 210 13:32 12.10.2019
6102 Clouds 13 1020 77 10000 4.1 200 12:55 12.10.2019
6103 Rain 13 1020 82 10000 5.1 220 12:37 12.10.2019
6104 Rain 13 1020 72 10000 5.1 220 12:19 12.10.2019
6105 Clouds 13 1020 93 10000 2.1 230 11:43 12.10.2019
6106 Clouds 13 1020 93 10000 2.1 230 11:22 12.10.2019
6107 Rain 13 1019 72 10000 5.7 130 10:58 12.10.2019
6108 Rain 13 1019 77 10000 6.2 210 10:39 12.10.2019
6109 Rain 13 1019 100 10000 1.5 250 10:20 12.10.2019
6110 Rain 14 1019 100 10000 1.5 250 09:57 12.10.2019
6111 Rain 14 1018 100 10000 2.1 250 09:37 12.10.2019
6112 Rain 14 1018 93 10000 2.6 200 09:19 12.10.2019
6113 Rain 14 1018 93 10000 3.1 170 08:43 12.10.2019
6114 Rain 14 1018 93 10000 3.1 170 08:23 12.10.2019
6115 Rain 14 1017 67 10000 7.7 170 07:50 12.10.2019
6116 Rain 14 1017 67 10000 7.7 170 07:30 12.10.2019
6117 Rain 15 1017 63 10000 8.2 150 06:27 12.10.2019
6118 Rain 16 1018 72 10000 8.2 160 05:42 12.10.2019
6119 Rain 17 1018 72 10000 6.7 170 04:34 12.10.2019
6120 Rain 17 1018 77 10000 6.7 190 03:53 12.10.2019
6121 Rain 16 1018 48 10000 6.7 140 02:45 12.10.2019
6122 Rain 16 1018 52 10000 7.2 130 01:32 12.10.2019
6123 Rain 16 1019 77 10000 4.1 190 01:32 12.10.2019
6124 Rain 15 1019 59 10000 7.2 120 00:55 12.10.2019
6125 Rain 15 1019 59 10000 7.2 120 00:55 12.10.2019
6126 Clouds 15 1018 59 10000 6.7 130 00:37 12.10.2019
6127 Rain 13 1018 93 10000 3.6 180 23:55 11.10.2019
6128 Rain 13 1018 100 10000 2.6 230 23:36 11.10.2019
6129 Rain 12 1018 100 10000 2.6 230 23:18 11.10.2019
6130 Rain 12 1018 93 10000 2.6 240 22:37 11.10.2019
6131 Clouds 12 1018 93 10000 2.6 240 22:19 11.10.2019
6132 Rain 11 1017 100 10000 3.1 210 21:43 11.10.2019
6133 Rain 11 1017 100 10000 2.6 230 21:21 11.10.2019
6134 Rain 11 1017 100 10000 2.6 230 20:57 11.10.2019
6135 Rain 11 1017 100 10000 2.6 230 20:57 11.10.2019
6136 Rain 11 1017 100 10000 2.6 240 20:39 11.10.2019
6137 Rain 11 1017 100 10000 3.6 210 20:20 11.10.2019
6138 Rain 11 1017 100 10000 3.6 210 19:55 11.10.2019
6139 Rain 11 1017 100 10000 3.1 210 19:37 11.10.2019
6140 Rain 11 1017 100 10000 3.1 210 19:37 11.10.2019
6141 Rain 11 1017 100 10000 3.1 210 19:18 11.10.2019
6142 Rain 11 1017 100 10000 3.1 210 19:18 11.10.2019
6143 Rain 11 1017 100 10000 3.1 210 19:18 11.10.2019
6144 Rain 11 1017 93 2500 6.2 210 18:56 11.10.2019
6145 Rain 11 1018 100 10000 2.6 200 18:37 11.10.2019
6146 Rain 11 1018 93 10000 6.2 250 18:18 11.10.2019
6147 Rain 11 1018 93 10000 6.2 250 17:57 11.10.2019
6148 Rain 11 1018 93 8000 5.7 240 17:37 11.10.2019
6149 Rain 11 1018 93 6000 5.1 200 17:18 11.10.2019
6150 Rain 11 1018 93 8000 5.7 240 17:18 11.10.2019
6151 Rain 12 1018 87 10000 4.1 240 16:41 11.10.2019
6152 Rain 12 1018 87 10000 4.1 240 16:21 11.10.2019
6153 Rain 12 1018 93 10000 5.7 230 15:59 11.10.2019
6154 Rain 12 1019 100 10000 2.6 190 15:39 11.10.2019
6155 Rain 12 1019 100 10000 2.6 190 15:19 11.10.2019
6156 Rain 12 1019 100 10000 1.5 180 14:48 11.10.2019
6157 Rain 12 1018 82 10000 4.1 130 14:29 11.10.2019
6158 Rain 12 1018 87 10000 5.1 150 13:57 11.10.2019
6159 Rain 12 1019 82 10000 5.7 160 13:39 11.10.2019
6160 Rain 12 1019 82 10000 5.7 160 13:21 11.10.2019
6161 Rain 12 1019 82 10000 5.7 160 13:21 11.10.2019
6162 Rain 12 1019 100 10000 3.09 128.327 12:56 11.10.2019
6163 Rain 12 1018 82 10000 0.5 150 12:38 11.10.2019
6164 Rain 13 1018 71 10000 6.7 120 12:19 11.10.2019
6165 Clouds 13 1018 100 10000 2.54 135.479 11:41 11.10.2019
6166 Clouds 13 1018 100 10000 2.54 135.479 11:41 11.10.2019
6167 Clouds 13 1018 100 10000 2.54 135.479 11:22 11.10.2019
6168 Clouds 13 1018 100 10000 2.54 135.479 11:22 11.10.2019
6169 Clouds 13 1018 100 10000 2.54 135.479 10:59 11.10.2019
6170 Clouds 13 1018 100 10000 2.54 135.479 10:59 11.10.2019
6171 Clouds 13 1017 59 10000 4.1 140 10:41 11.10.2019
6172 Clouds 14 1017 59 10000 4.1 140 10:23 11.10.2019
6173 Rain 14 1017 59 10000 4.6 130 09:56 11.10.2019
6174 Clouds 14 1017 59 10000 5.1 140 09:37 11.10.2019
6175 Clouds 15 1017 63 10000 5.1 140 09:19 11.10.2019
6176 Clouds 15 1017 63 10000 5.1 140 08:55 11.10.2019
6177 Clouds 15 1017 55 10000 5.7 140 08:37 11.10.2019
6178 Clouds 15 1016 55 10000 6.2 140 08:19 11.10.2019
6179 Clouds 15 1017 52 10000 5.7 130 07:44 11.10.2019
6180 Clouds 16 1017 52 10000 5.7 130 07:25 11.10.2019
6181 Clouds 16 1017 59 10000 5.7 130 06:49 11.10.2019
6182 Clouds 16 1017 63 10000 5.1 130 06:24 11.10.2019
6183 Rain 16 1017 55 10000 5.7 130 05:41 11.10.2019
6184 Rain 16 1018 55 10000 6.2 130 04:59 11.10.2019
6185 Rain 15 1018 55 10000 5.7 130 04:28 11.10.2019
6186 Clouds 17 1019 72 10000 4.6 170 02:41 11.10.2019
6187 Rain 16 1020 72 10000 6.2 170 00:52 11.10.2019
6188 Rain 15 1020 77 10000 7.7 180 00:29 11.10.2019
6189 Rain 15 1019 77 10000 2.6 240 23:48 10.10.2019
6190 Clouds 13 1019 77 10000 2.6 270 23:23 10.10.2019
6191 Clouds 13 1019 82 10000 2.6 300 22:58 10.10.2019
6192 Clouds 12 1019 100 6000 2.01 194.05 22:40 10.10.2019
6193 Clouds 12 1019 100 6000 2.01 194.05 22:21 10.10.2019
6194 Clouds 12 1019 100 6000 2.01 194.05 22:21 10.10.2019
6195 Clouds 12 1019 100 6000 2.01 194.05 22:21 10.10.2019
6196 Clouds 11 1019 93 8000 2.1 330 21:59 10.10.2019
6197 Rain 11 1019 87 10000 2.01 194.05 21:40 10.10.2019
6198 Rain 11 1019 87 10000 1.25 209.455 21:22 10.10.2019
6199 Rain 11 1019 87 10000 4.1 210 20:57 10.10.2019
6200 Rain 12 1019 93 10000 0.73 174.578 20:39 10.10.2019
6201 Rain 12 1019 100 10000 2.6 200 20:18 10.10.2019
6202 Rain 12 1019 100 10000 2.6 200 20:18 10.10.2019
6203 Rain 12 1019 93 10000 0.73 174.578 19:54 10.10.2019
6204 Rain 12 1019 93 10000 0.73 174.578 19:36 10.10.2019
6205 Rain 12 1019 76 10000 3.1 10 19:18 10.10.2019
6206 Rain 12 1019 76 10000 2.1 50 18:41 10.10.2019
6207 Rain 12 1020 76 10000 4.6 110 18:20 10.10.2019
6208 Rain 12 1020 76 10000 4.6 110 17:57 10.10.2019
6209 Rain 13 1020 87 10000 2.6 240 17:37 10.10.2019
6210 Drizzle 13 1020 82 10000 2.6 260 17:18 10.10.2019
6211 Drizzle 13 1020 82 10000 2.6 260 16:48 10.10.2019
6212 Clouds 13 1021 93 10000 1.5 290 16:27 10.10.2019
6213 Rain 13 1021 100 10000 1 300 15:59 10.10.2019
6214 Rain 13 1021 67 10000 3.1 90 15:39 10.10.2019
6215 Rain 13 1021 67 10000 3.1 90 15:39 10.10.2019
6216 Rain 13 1021 67 10000 3.1 90 15:20 10.10.2019
6217 Rain 13 1021 100 10000 1.5 310 14:56 10.10.2019
6218 Rain 14 1021 63 10000 3.6 140 14:37 10.10.2019
6219 Rain 14 1021 63 10000 3.6 140 14:19 10.10.2019
6220 Clouds 14 1021 67 10000 2.6 100 13:55 10.10.2019
6221 Clouds 14 1021 72 10000 3.6 120 13:37 10.10.2019
6222 Clouds 14 1021 67 10000 5.1 130 13:18 10.10.2019
6223 Clouds 14 1021 67 10000 5.1 130 12:42 10.10.2019
6224 Clouds 15 1021 67 10000 5.7 130 12:21 10.10.2019
6225 Clouds 15 1021 67 10000 5.7 130 11:58 10.10.2019
6226 Clouds 15 1021 67 10000 7.2 140 11:40 10.10.2019
6227 Clouds 15 1021 63 10000 6.7 140 11:19 10.10.2019
6228 Clouds 15 1021 67 10000 7.2 140 10:47 10.10.2019
6229 Clouds 16 1021 67 10000 7.2 140 10:28 10.10.2019
6230 Clouds 16 1020 67 10000 6.7 140 09:59 10.10.2019
6231 Clouds 16 1020 67 10000 8.2 130 09:41 10.10.2019
6232 Clouds 17 1020 63 10000 6.7 140 09:23 10.10.2019
6233 Clouds 17 1020 63 10000 6.7 140 08:59 10.10.2019
6234 Clouds 17 1020 63 10000 7.2 150 08:39 10.10.2019
6235 Clouds 18 1020 63 10000 8.2 150 08:20 10.10.2019
6236 Clouds 18 1020 63 10000 8.7 150 07:47 10.10.2019
6237 Clouds 18 1020 63 10000 8.7 150 07:25 10.10.2019
6238 Clouds 19 1020 63 10000 7.7 160 06:55 10.10.2019
6239 Clouds 19 1021 67 10000 8.7 170 06:36 10.10.2019
6240 Clouds 19 1021 67 10000 8.2 180 05:39 10.10.2019
6241 Clouds 19 1021 67 10000 8.2 180 05:18 10.10.2019
6242 Clouds 19 1022 63 10000 8.2 180 04:34 10.10.2019
6243 Clouds 18 1023 63 10000 7.7 190 02:29 10.10.2019
6244 Clouds 18 1023 67 10000 7.7 200 01:37 10.10.2019
6245 Clouds 17 1023 67 10000 7.7 200 01:18 10.10.2019
6246 Clouds 16 1023 63 10000 6.7 210 00:33 10.10.2019
6247 Clouds 14 1023 62 10000 7.7 190 23:55 09.10.2019
6248 Clouds 14 1023 67 10000 7.2 220 23:36 09.10.2019
6249 Clouds 13 1023 67 10000 7.7 220 23:18 09.10.2019
6250 Clouds 13 1023 67 10000 7.2 220 23:18 09.10.2019
6251 Clouds 12 1023 71 10000 7.7 220 22:41 09.10.2019
6252 Clouds 11 1023 71 10000 7.7 220 22:22 09.10.2019
6253 Clear 10 1023 87 10000 2.1 270 21:58 09.10.2019
6254 Clear 10 1023 87 10000 1.5 260 21:39 09.10.2019
6255 Clear 10 1023 87 10000 1.5 260 21:39 09.10.2019
6256 Clear 10 1023 93 10000 2.1 270 21:19 09.10.2019
6257 Clouds 10 1023 93 10000 2.1 270 20:55 09.10.2019
6258 Clouds 10 1022 87 10000 2.48 231.409 20:37 09.10.2019
6259 Rain 11 1022 76 10000 7.2 200 20:18 09.10.2019
6260 Rain 11 1022 76 10000 7.2 200 20:18 09.10.2019
6261 Rain 11 1022 76 10000 7.2 200 20:18 09.10.2019
6262 Rain 11 1022 76 10000 4.6 230 19:45 09.10.2019
6263 Rain 11 1022 76 10000 4.6 230 19:23 09.10.2019
6264 Rain 11 1022 76 10000 7.7 210 18:57 09.10.2019
6265 Clouds 11 1022 71 10000 2.6 210 18:37 09.10.2019
6266 Rain 12 1022 76 10000 4.6 260 18:18 09.10.2019
6267 Rain 12 1022 76 10000 4.6 260 17:55 09.10.2019
6268 Rain 12 1022 76 10000 4.6 260 17:36 09.10.2019
6269 Rain 12 1023 71 10000 5.1 260 17:18 09.10.2019
6270 Clouds 12 1023 67 10000 4.6 260 16:40 09.10.2019
6271 Clouds 12 1023 67 10000 4.6 260 16:22 09.10.2019
6272 Clouds 13 1023 67 10000 4.1 260 15:58 09.10.2019
6273 Clouds 13 1023 67 10000 4.6 250 15:39 09.10.2019
6274 Clouds 13 1023 67 10000 4.6 250 15:39 09.10.2019
6275 Clouds 13 1024 62 10000 2.6 230 15:20 09.10.2019
6276 Clouds 13 1024 62 10000 2.6 230 14:58 09.10.2019
6277 Clouds 13 1024 62 10000 3.1 220 14:39 09.10.2019
6278 Clouds 14 1023 67 10000 8.7 190 14:18 09.10.2019
6279 Clouds 14 1023 67 10000 8.7 170 13:40 09.10.2019
6280 Clouds 14 1023 67 10000 8.7 170 13:21 09.10.2019
6281 Clouds 14 1023 63 10000 8.7 180 12:59 09.10.2019
6282 Clouds 15 1023 67 10000 8.7 180 12:40 09.10.2019
6283 Clouds 15 1023 67 10000 8.7 180 12:21 09.10.2019
6284 Clouds 15 1023 67 10000 9.3 180 11:55 09.10.2019
6285 Clouds 15 1022 67 10000 6.7 180 11:37 09.10.2019
6286 Clouds 15 1022 67 10000 6.7 180 11:19 09.10.2019
6287 Clouds 15 1022 63 10000 6.7 180 10:44 09.10.2019
6288 Clouds 15 1022 63 10000 6.7 180 10:22 09.10.2019
6289 Rain 16 1022 67 10000 6.7 180 09:59 09.10.2019
6290 Rain 16 1022 67 10000 11.3 170 09:40 09.10.2019
6291 Rain 17 1021 59 10000 6.7 180 09:19 09.10.2019
6292 Rain 17 1021 63 10000 11.3 180 08:43 09.10.2019
6293 Rain 17 1021 63 10000 11.3 180 08:23 09.10.2019
6294 Rain 17 1021 59 10000 11.8 180 07:59 09.10.2019
6295 Rain 17 1021 63 10000 12.3 180 07:39 09.10.2019
6296 Rain 18 1021 63 10000 12.3 180 07:21 09.10.2019
6297 Rain 18 1021 59 10000 11.8 180 06:52 09.10.2019
6298 Rain 18 1021 59 10000 11.8 180 06:52 09.10.2019
6299 Rain 19 1021 59 10000 10.3 170 06:19 09.10.2019
6300 Rain 19 1022 55 10000 10.3 170 05:44 09.10.2019
6301 Clouds 19 1022 55 10000 9.8 180 04:26 09.10.2019
6302 Clouds 18 1022 51 10000 9.8 190 02:54 09.10.2019
6303 Clouds 17 1022 62 10000 9.3 210 01:44 09.10.2019
6304 Clouds 16 1022 58 10000 10.3 190 01:21 09.10.2019
6305 Clouds 16 1022 58 10000 10.3 190 00:57 09.10.2019
6306 Clouds 15 1022 67 10000 8.2 210 00:39 09.10.2019
6307 Clouds 14 1021 58 10000 7.7 200 00:20 09.10.2019
6308 Clouds 13 1021 62 10000 5.7 270 23:40 08.10.2019
6309 Clouds 12 1021 62 10000 7.7 200 23:19 08.10.2019
6310 Clouds 12 1021 62 10000 7.7 200 22:58 08.10.2019
6311 Clouds 11 1021 66 10000 7.7 200 22:39 08.10.2019
6312 Clouds 11 1021 66 10000 7.7 200 22:20 08.10.2019
6313 Clouds 11 1020 62 10000 7.7 200 22:20 08.10.2019
6314 Clouds 10 1020 62 10000 7.7 200 21:57 08.10.2019
6315 Clouds 10 1020 62 10000 4.6 270 21:39 08.10.2019
6316 Clouds 10 1020 62 10000 4.6 270 21:19 08.10.2019
6317 Clouds 10 1019 62 10000 6.2 250 20:57 08.10.2019
6318 Clouds 10 1019 62 10000 6.2 250 20:57 08.10.2019
6319 Clouds 10 1019 62 10000 6.2 250 20:57 08.10.2019
6320 Clouds 10 1019 62 10000 7.2 250 20:39 08.10.2019
6321 Clouds 10 1019 62 10000 7.7 260 20:21 08.10.2019
6322 Clouds 11 1019 62 10000 7.7 260 19:58 08.10.2019
6323 Clouds 11 1019 62 10000 7.2 260 19:40 08.10.2019
6324 Clouds 11 1019 62 10000 7.2 250 19:22 08.10.2019
6325 Clouds 11 1019 62 10000 7.2 250 18:55 08.10.2019
6326 Clouds 11 1019 62 10000 7.2 250 18:55 08.10.2019
6327 Clear 11 1019 62 10000 7.2 260 18:36 08.10.2019
6328 Clear 11 1019 62 10000 7.7 260 18:18 08.10.2019
6329 Clouds 11 1019 66 10000 8.2 260 17:40 08.10.2019
6330 Clouds 11 1019 66 10000 8.2 260 17:21 08.10.2019
6331 Clouds 12 1019 66 10000 8.7 250 16:59 08.10.2019
6332 Clouds 12 1019 62 10000 7.7 250 16:40 08.10.2019
6333 Clouds 12 1018 62 10000 7.2 260 16:21 08.10.2019
6334 Clouds 12 1019 62 10000 7.7 260 15:41 08.10.2019
6335 Clouds 12 1018 62 10000 7.2 250 15:22 08.10.2019
6336 Clouds 12 1019 62 10000 7.7 260 15:22 08.10.2019
6337 Clouds 12 1018 62 10000 7.2 250 14:59 08.10.2019
6338 Clouds 13 1018 62 10000 7.2 250 14:41 08.10.2019
6339 Clouds 13 1018 62 10000 7.2 250 14:21 08.10.2019
6340 Clouds 13 1018 62 10000 6.7 250 13:57 08.10.2019
6341 Clouds 13 1017 58 10000 7.7 230 13:39 08.10.2019
6342 Clouds 13 1017 58 10000 7.7 230 13:20 08.10.2019
6343 Clouds 14 1017 62 10000 7.2 240 12:59 08.10.2019
6344 Clouds 14 1017 71 10000 7.2 210 12:38 08.10.2019
6345 Clouds 14 1017 76 10000 7.7 210 12:19 08.10.2019
6346 Drizzle 14 1016 76 10000 8.2 200 11:43 08.10.2019
6347 Drizzle 14 1016 76 10000 8.2 200 11:24 08.10.2019
6348 Rain 14 1015 71 10000 9.8 210 10:59 08.10.2019
6349 Rain 15 1014 72 10000 9.3 200 10:39 08.10.2019
6350 Rain 15 1014 77 10000 10.8 190 10:20 08.10.2019
6351 Rain 15 1014 77 10000 10.8 190 10:20 08.10.2019
6352 Clouds 16 1014 77 10000 10.8 190 09:58 08.10.2019
6353 Clouds 16 1013 77 10000 8.7 200 09:39 08.10.2019
6354 Rain 16 1013 77 10000 6.2 210 09:20 08.10.2019
6355 Rain 17 1012 82 10000 7.7 210 08:43 08.10.2019
6356 Rain 17 1012 82 10000 7.7 210 08:25 08.10.2019
6357 Rain 17 1011 82 10000 11.8 190 07:46 08.10.2019
6358 Rain 18 1011 82 10000 11.8 190 07:23 08.10.2019
6359 Rain 18 1010 82 10000 11.3 190 06:56 08.10.2019
6360 Rain 19 1010 82 10000 12.9 180 06:34 08.10.2019
6361 Rain 21 1009 77 10000 12.3 180 05:57 08.10.2019
6362 Rain 21 1009 77 10000 12.3 180 05:57 08.10.2019
6363 Rain 21 1009 77 10000 10.8 170 05:38 08.10.2019
6364 Rain 21 1009 77 10000 10.8 170 05:38 08.10.2019
6365 Clouds 22 1009 28 10000 7.7 270 04:42 08.10.2019
6366 Rain 23 1009 40 10000 10.3 200 03:30 08.10.2019
6367 Clouds 22 1010 43 10000 6.7 260 02:40 08.10.2019
6368 Clouds 21 1011 56 10000 4.6 260 01:49 08.10.2019
6369 Clouds 20 1011 56 10000 4.6 260 01:31 08.10.2019
6370 Clouds 19 1011 68 10000 3.6 250 00:55 08.10.2019
6371 Clouds 18 1011 77 10000 4.1 240 00:22 08.10.2019
6372 Clouds 17 1010 88 10000 3.1 260 23:43 07.10.2019
6373 Clouds 16 1011 100 10000 1.5 10 23:21 07.10.2019
6374 Clouds 16 1010 93 10000 2.6 270 22:58 07.10.2019
6375 Clouds 16 1010 93 10000 2.6 270 22:58 07.10.2019
6376 Rain 16 1010 88 10000 2.6 300 22:40 07.10.2019
6377 Rain 15 1010 88 10000 1.5 310 22:21 07.10.2019
6378 Rain 15 1010 88 10000 1.5 310 22:21 07.10.2019
6379 Clouds 15 1010 100 4500 1.76 281.527 21:58 07.10.2019
6380 Clouds 15 1010 93 9000 1.76 281.527 21:40 07.10.2019
6381 Clouds 15 1009 100 10000 1.17 288.482 21:20 07.10.2019
6382 Clouds 15 1009 100 10000 1.07 269.085 20:58 07.10.2019
6383 Clouds 15 1009 88 10000 1.5 240 20:39 07.10.2019
6384 Clouds 15 1009 88 10000 1.5 240 20:39 07.10.2019
6385 Clouds 15 1009 88 10000 1.5 240 20:21 07.10.2019
6386 Clouds 16 1009 93 10000 1.07 269.085 19:59 07.10.2019
6387 Clear 16 1010 93 10000 2.1 250 19:41 07.10.2019
6388 Clear 16 1010 93 10000 2.1 250 19:41 07.10.2019
6389 Clouds 16 1010 100 3700 1.5 260 19:20 07.10.2019
6390 Clouds 16 1010 88 10000 1.5 210 18:59 07.10.2019
6391 Clouds 17 1010 88 10000 1.07 269.085 18:39 07.10.2019
6392 Clouds 17 1010 88 10000 0.33 339.444 18:19 07.10.2019
6393 Clouds 17 1010 88 10000 0.33 339.444 17:54 07.10.2019
6394 Clouds 17 1011 82 10000 0.33 339.444 17:36 07.10.2019
6395 Clouds 18 1011 82 10000 0.33 339.444 17:18 07.10.2019
6396 Clouds 18 1011 82 10000 0.5 150 16:43 07.10.2019
6397 Clouds 18 1011 82 10000 0.5 150 16:25 07.10.2019
6398 Clouds 18 1011 77 10000 3.1 90 15:46 07.10.2019
6399 Clouds 18 1011 77 10000 3.1 90 15:26 07.10.2019
6400 Clouds 18 1012 77 10000 3.1 90 14:58 07.10.2019
6401 Clouds 18 1012 77 10000 3.1 90 14:40 07.10.2019
6402 Clouds 18 1012 77 10000 3.1 90 14:22 07.10.2019
6403 Clouds 18 1012 77 10000 3.1 120 13:44 07.10.2019
6404 Clouds 18 1012 77 10000 3.1 120 13:21 07.10.2019
6405 Clouds 19 1012 77 10000 3.1 120 12:57 07.10.2019
6406 Clouds 19 1013 77 10000 2.6 140 12:39 07.10.2019
6407 Clouds 19 1013 77 10000 2.6 140 12:20 07.10.2019
6408 Clouds 19 1012 77 10000 2.6 120 12:20 07.10.2019
6409 Clouds 19 1012 77 10000 2.6 120 11:59 07.10.2019
6410 Clouds 19 1012 77 10000 3.1 130 11:39 07.10.2019
6411 Clouds 19 1012 77 10000 3.1 130 11:20 07.10.2019
6412 Clouds 19 1011 72 10000 4.1 110 10:43 07.10.2019
6413 Clouds 19 1011 72 10000 4.1 110 10:23 07.10.2019
6414 Clouds 19 1011 77 10000 4.1 110 09:58 07.10.2019
6415 Clouds 19 1010 72 10000 4.6 130 09:38 07.10.2019
6416 Clouds 20 1010 72 10000 4.6 130 09:20 07.10.2019
6417 Clouds 20 1010 77 10000 5.7 130 08:44 07.10.2019
6418 Clouds 20 1010 72 10000 5.1 130 08:21 07.10.2019
6419 Clouds 21 1010 72 10000 5.1 130 07:55 07.10.2019
6420 Clouds 21 1010 72 10000 5.7 130 07:36 07.10.2019
6421 Clouds 21 1010 72 10000 5.7 130 07:18 07.10.2019
6422 Clouds 22 1010 68 10000 6.2 140 06:43 07.10.2019
6423 Clouds 23 1010 73 10000 6.2 130 06:20 07.10.2019
6424 Clouds 23 1011 68 10000 6.2 130 05:27 07.10.2019
6425 Clouds 24 1011 68 10000 6.7 150 04:54 07.10.2019
6426 Clouds 24 1011 64 10000 6.7 150 03:51 07.10.2019
6427 Clouds 24 1011 68 10000 7.2 150 03:32 07.10.2019
6428 Clouds 23 1012 77 10000 5.7 170 02:53 07.10.2019
6429 Clouds 23 1012 77 10000 8.7 180 02:19 07.10.2019
6430 Clouds 22 1012 77 10000 2.6 140 01:24 07.10.2019
6431 Clear 21 1012 77 10000 9.8 190 00:55 07.10.2019
6432 Clear 20 1011 77 10000 8.7 190 00:36 07.10.2019
6433 Clear 20 1011 77 10000 8.7 190 00:18 07.10.2019
6434 Clear 19 1011 82 10000 8.2 190 23:40 06.10.2019
6435 Clear 18 1011 82 10000 8.2 190 23:21 06.10.2019
6436 Clear 17 1011 82 10000 9.3 190 22:58 06.10.2019
6437 Clear 17 1010 82 10000 8.7 190 22:39 06.10.2019
6438 Clear 17 1010 82 10000 8.7 190 22:21 06.10.2019
6439 Clear 16 1010 82 10000 6.7 190 21:56 06.10.2019
6440 Clear 16 1009 82 10000 5.7 190 21:37 06.10.2019
6441 Clear 16 1009 88 10000 6.2 190 21:19 06.10.2019
6442 Clear 17 1009 88 10000 6.2 190 20:57 06.10.2019
6443 Clear 17 1009 88 10000 5.7 190 20:38 06.10.2019
6444 Clear 17 1008 93 10000 5.7 190 20:20 06.10.2019
6445 Clear 17 1008 93 10000 5.7 190 19:57 06.10.2019
6446 Clear 17 1008 82 10000 5.1 170 19:37 06.10.2019
6447 Clear 17 1008 82 10000 5.1 170 19:19 06.10.2019
6448 Clear 18 1008 88 10000 5.1 180 18:56 06.10.2019
6449 Clear 18 1008 88 10000 5.1 180 18:38 06.10.2019
6450 Clear 17 1008 88 10000 5.1 180 18:19 06.10.2019
6451 Clear 17 1008 88 10000 5.1 180 18:19 06.10.2019
6452 Clear 17 1008 88 10000 4.1 180 17:43 06.10.2019
6453 Clear 17 1008 88 10000 4.1 180 17:20 06.10.2019
6454 Clouds 17 1009 100 10000 2.1 330 16:58 06.10.2019
6455 Clouds 18 1009 93 4600 2.3 258.817 16:40 06.10.2019
6456 Clear 18 1008 88 10000 3.1 20 16:22 06.10.2019
6457 Clear 18 1009 88 10000 2.3 258.817 15:45 06.10.2019
6458 Clear 18 1009 88 10000 1.22 276.112 15:22 06.10.2019
6459 Clear 18 1009 88 10000 2.6 30 14:58 06.10.2019
6460 Clear 18 1009 88 10000 3.1 60 14:40 06.10.2019
6461 Clear 18 1009 88 10000 3.1 60 14:22 06.10.2019
6462 Clouds 19 1009 77 10000 3.6 40 13:55 06.10.2019
6463 Clouds 19 1009 82 10000 3.1 210 13:37 06.10.2019
6464 Clouds 19 1009 82 10000 3.1 210 13:19 06.10.2019
6465 Clear 19 1009 82 10000 7.2 20 12:55 06.10.2019
6466 Clear 20 1009 82 10000 7.2 20 12:37 06.10.2019
6467 Clear 20 1009 82 10000 7.2 20 12:19 06.10.2019
6468 Clear 20 1009 82 10000 7.7 30 11:43 06.10.2019
6469 Clear 20 1009 82 10000 7.7 30 11:24 06.10.2019
6470 Clear 20 1009 82 10000 7.7 30 11:24 06.10.2019
6471 Clear 20 1009 82 10000 7.7 30 10:58 06.10.2019
6472 Clear 21 1009 77 10000 8.7 40 10:39 06.10.2019
6473 Clear 21 1009 77 10000 9.3 40 10:21 06.10.2019
6474 Clear 22 1009 73 10000 9.3 40 09:42 06.10.2019
6475 Clear 22 1009 73 10000 9.3 40 09:42 06.10.2019
6476 Clear 24 1009 73 10000 9.3 40 09:21 06.10.2019
6477 Clear 24 1009 73 10000 9.3 40 09:21 06.10.2019
6478 Clear 25 1009 73 10000 9.8 40 08:59 06.10.2019
6479 Clear 25 1009 68 10000 9.8 40 08:39 06.10.2019
6480 Clear 25 1009 68 10000 9.8 30 08:19 06.10.2019
6481 Clear 25 1010 64 10000 8.7 40 07:42 06.10.2019
6482 Clear 24 1011 68 10000 9.3 30 07:18 06.10.2019
6483 Rain 23 1012 68 10000 7.7 30 06:19 06.10.2019
6484 Clear 23 1012 64 10000 9.3 30 05:27 06.10.2019
6485 Clouds 21 1015 60 10000 8.2 20 03:23 06.10.2019
6486 Clouds 20 1017 64 10000 8.2 30 02:40 06.10.2019
6487 Clouds 20 1017 64 10000 8.2 30 02:40 06.10.2019
6488 Clouds 20 1017 64 10000 8.2 30 02:19 06.10.2019
6489 Clouds 18 1017 68 10000 6.2 20 01:38 06.10.2019
6490 Clouds 18 1017 68 10000 6.2 20 01:20 06.10.2019
6491 Clouds 17 1018 68 10000 5.1 10 00:45 06.10.2019
6492 Clouds 17 1018 68 10000 5.1 10 00:24 06.10.2019
6493 Clouds 16 1019 72 10000 3.6 330 23:44 05.10.2019
6494 Clouds 15 1018 93 10000 3.1 70 23:22 05.10.2019
6495 Clouds 15 1018 82 10000 5.1 350 22:58 05.10.2019
6496 Clouds 15 1018 82 10000 4.6 340 22:39 05.10.2019
6497 Clouds 15 1018 82 10000 4.6 340 22:20 05.10.2019
6498 Clouds 15 1018 82 10000 4.1 360 22:20 05.10.2019
6499 Clouds 15 1018 82 10000 4.1 360 21:56 05.10.2019
6500 Clouds 14 1018 100 10000 2.1 350 21:37 05.10.2019
6501 Clouds 15 1018 82 10000 4.6 350 21:18 05.10.2019
6502 Clouds 15 1018 82 10000 4.6 350 20:55 05.10.2019
6503 Clouds 15 1018 82 10000 4.6 350 20:36 05.10.2019
6504 Clouds 15 1018 82 10000 4.6 350 20:18 05.10.2019
6505 Clouds 15 1020 100 10000 1.5 30 19:37 05.10.2019
6506 Clouds 15 1020 100 10000 1.5 30 19:19 05.10.2019
6507 -273 0 0 0 0 0 18:55 05.10.2019
6508 Clouds 15 1020 82 10000 4.1 350 18:37 05.10.2019
6509 Clouds 15 1020 82 10000 4.1 350 18:19 05.10.2019
6510 Clouds 15 1021 82 10000 4.1 330 17:43 05.10.2019
6511 Clouds 15 1020 82 10000 4.1 350 17:23 05.10.2019
6512 Clouds 16 1020 82 10000 4.1 350 16:57 05.10.2019
6513 Clouds 16 1021 93 10000 2.3 16.384 16:39 05.10.2019
6514 Clouds 16 1021 93 10000 2.3 16.384 16:20 05.10.2019
6515 Clouds 16 1021 93 10000 2.3 16.384 16:20 05.10.2019
6516 Clouds 16 1021 93 10000 2.3 16.384 15:56 05.10.2019
6517 Clouds 16 1022 93 10000 2.3 16.384 15:38 05.10.2019
6518 Clouds 16 1021 93 10000 1.61 18.875 15:19 05.10.2019
6519 Clouds 16 1022 93 10000 1.61 18.875 14:43 05.10.2019
6520 Clouds 16 1022 93 10000 1.61 18.875 14:24 05.10.2019
6521 Clouds 16 1022 93 10000 1.61 18.875 13:58 05.10.2019
6522 Clouds 16 1022 93 10000 2.1 290 13:40 05.10.2019
6523 Clouds 16 1022 68 10000 3.1 30 13:19 05.10.2019
6524 Clouds 16 1023 72 10000 3.1 50 12:43 05.10.2019
6525 Clouds 16 1022 72 10000 3.6 50 12:19 05.10.2019
6526 Clouds 16 1022 72 10000 3.6 50 11:44 05.10.2019
6527 Clouds 16 1022 72 10000 2.6 50 11:23 05.10.2019
6528 Clouds 17 1022 72 10000 3.6 80 10:59 05.10.2019
6529 Clouds 17 1022 72 10000 3.6 90 10:40 05.10.2019
6530 Clouds 17 1022 72 10000 3.6 90 10:21 05.10.2019
6531 Clouds 17 1022 72 10000 4.1 120 09:56 05.10.2019
6532 Clouds 17 1022 72 10000 4.1 60 09:37 05.10.2019
6533 Clouds 17 1022 72 10000 4.1 60 09:19 05.10.2019
6534 Clouds 18 1022 77 10000 4.6 170 08:39 05.10.2019
6535 Clouds 18 1022 77 10000 4.6 170 08:19 05.10.2019
6536 Clouds 18 1022 72 10000 5.1 180 07:52 05.10.2019
6537 Rain 18 1022 77 10000 5.7 180 07:31 05.10.2019
6538 Clouds 18 1022 77 10000 5.7 170 06:57 05.10.2019
6539 Clouds 18 1022 77 10000 5.1 180 06:24 05.10.2019
6540 Clouds 18 1023 72 10000 6.2 180 05:40 05.10.2019
6541 Clouds 17 1023 82 10000 6.7 180 03:39 05.10.2019
6542 Clouds 17 1023 82 10000 6.7 180 03:39 05.10.2019
6543 Rain 16 1023 87 10000 5.7 190 03:21 05.10.2019
6544 Rain 15 1024 93 7000 6.2 170 01:30 05.10.2019
6545 Rain 15 1024 93 10000 6.2 170 00:58 05.10.2019
6546 Rain 15 1024 100 10000 5.1 170 00:40 05.10.2019
6547 Rain 15 1024 100 10000 5.1 170 00:22 05.10.2019
6548 Rain 15 1023 93 9000 6.7 160 23:43 04.10.2019
6549 Rain 15 1023 93 9000 6.7 160 23:43 04.10.2019
6550 Rain 15 1023 93 9000 6.7 160 23:24 04.10.2019
6551 Rain 16 1023 93 4000 5.7 180 22:58 04.10.2019
6552 Rain 16 1022 93 10000 2.6 150 22:39 04.10.2019
6553 Rain 15 1022 93 3000 5.1 210 22:19 04.10.2019
6554 Rain 16 1022 93 3000 5.1 210 21:56 04.10.2019
6555 Rain 16 1021 93 10000 3.1 150 21:38 04.10.2019
6556 Rain 16 1021 93 10000 3.1 190 21:19 04.10.2019
6557 Rain 16 1021 93 10000 3.1 190 20:54 04.10.2019
6558 Rain 16 1021 93 10000 2.6 150 20:36 04.10.2019
6559 Rain 16 1022 87 10000 4.6 190 20:18 04.10.2019
6560 Rain 16 1022 88 10000 5.1 210 19:41 04.10.2019
6561 Rain 16 1022 88 10000 5.1 210 19:23 04.10.2019
6562 Rain 16 1021 82 10000 3.1 170 18:56 04.10.2019
6563 Rain 16 1021 87 10000 2.1 250 18:37 04.10.2019
6564 Rain 16 1021 82 10000 2.6 200 18:19 04.10.2019
6565 Rain 16 1021 77 10000 2.6 130 17:42 04.10.2019
6566 Rain 17 1021 77 10000 2.6 130 17:22 04.10.2019
6567 Clouds 17 1021 77 10000 3.1 120 16:59 04.10.2019
6568 Clouds 17 1022 77 10000 4.1 150 16:41 04.10.2019
6569 Clouds 17 1022 77 10000 4.1 150 16:19 04.10.2019
6570 Clouds 17 1022 77 10000 4.1 150 16:19 04.10.2019
6571 Clouds 17 1022 77 10000 4.1 150 15:58 04.10.2019
6572 Clouds 17 1022 72 10000 4.1 150 15:39 04.10.2019
6573 Clouds 17 1022 72 10000 4.6 150 15:20 04.10.2019
6574 Clouds 17 1022 72 10000 4.6 150 14:58 04.10.2019
6575 Clouds 17 1021 72 10000 5.1 130 14:39 04.10.2019
6576 Clouds 17 1021 72 10000 5.1 130 14:21 04.10.2019
6577 Clouds 18 1021 72 10000 5.1 130 13:46 04.10.2019
6578 Clouds 18 1021 72 10000 5.7 120 13:24 04.10.2019
6579 Clouds 18 1022 72 10000 6.2 150 12:59 04.10.2019
6580 Clouds 18 1021 72 10000 7.2 140 12:40 04.10.2019
6581 Clouds 18 1021 72 10000 7.2 140 12:22 04.10.2019
6582 Clouds 18 1020 77 10000 7.2 150 11:43 04.10.2019
6583 Clouds 18 1020 77 10000 7.2 150 11:42 04.10.2019
6584 Clouds 18 1020 77 10000 7.2 150 11:22 04.10.2019
6585 Clouds 18 1020 72 10000 7.2 150 10:56 04.10.2019
6586 Clouds 18 1019 72 10000 8.7 150 10:37 04.10.2019
6587 Clouds 18 1018 72 10000 8.7 150 10:19 04.10.2019
6588 Clouds 19 1018 77 10000 9.3 150 09:43 04.10.2019
6589 Rain 19 1018 72 10000 10.3 150 09:25 04.10.2019
6590 Rain 20 1017 72 10000 9.8 150 08:46 04.10.2019
6591 Rain 21 1017 72 10000 9.8 150 08:27 04.10.2019
6592 Clouds 21 1017 77 10000 10.3 160 07:56 04.10.2019
6593 Clouds 22 1017 73 10000 10.3 160 07:37 04.10.2019
6594 Clouds 22 1017 77 10000 10.3 170 07:18 04.10.2019
6595 Clouds 24 1016 82 10000 11.3 170 06:40 04.10.2019
6596 Clouds 26 1016 82 10000 11.3 170 06:21 04.10.2019
6597 Clouds 33 1014 17 10000 7.7 240 05:22 04.10.2019
6598 Clouds 33 1015 17 10000 7.2 270 04:53 04.10.2019
6599 Clear 33 1016 15 10000 6.7 310 03:32 04.10.2019
6600 Clear 31 1017 18 10000 6.7 320 02:45 04.10.2019
6601 Clear 30 1017 22 10000 5.7 310 01:54 04.10.2019
6602 Clear 28 1017 23 10000 5.1 320 01:27 04.10.2019
6603 Clear 25 1018 33 10000 3.1 310 00:44 04.10.2019
6604 Clear 21 1018 42 10000 2.1 300 23:41 03.10.2019
6605 Clear 19 1018 42 10000 2.1 300 23:22 03.10.2019
6606 Clear 19 1018 42 10000 2.1 300 23:22 03.10.2019
6607 Clear 18 1018 48 10000 3.6 320 22:58 03.10.2019
6608 Clear 18 1018 48 10000 3.6 320 22:40 03.10.2019
6609 Clear 17 1018 48 10000 3.6 320 22:21 03.10.2019
6610 Clear 17 1017 52 10000 3.6 330 21:59 03.10.2019
6611 Clear 17 1017 55 10000 3.6 320 21:40 03.10.2019
6612 Clear 16 1017 52 10000 2.6 320 21:21 03.10.2019
6613 Clear 16 1017 52 10000 2.6 320 20:58 03.10.2019
6614 Clear 16 1017 52 10000 3.6 300 20:40 03.10.2019
6615 Clear 16 1017 52 10000 3.6 310 20:22 03.10.2019
6616 Clear 16 1017 52 10000 3.6 310 19:59 03.10.2019
6617 Clear 16 1017 52 10000 3.6 310 19:59 03.10.2019
6618 Clear 16 1017 55 10000 3.1 300 19:40 03.10.2019
6619 Clear 17 1017 55 10000 3.1 300 19:20 03.10.2019
6620 Clear 17 1017 45 10000 3.6 310 18:57 03.10.2019
6621 Clear 17 1017 45 10000 3.6 310 18:57 03.10.2019
6622 Clear 17 1017 40 10000 3.1 320 18:38 03.10.2019
6623 Clear 17 1017 40 10000 3.1 320 18:38 03.10.2019
6624 Clear 17 1018 40 10000 3.1 330 18:19 03.10.2019
6625 Clear 18 1018 40 10000 3.6 340 17:43 03.10.2019
6626 Clear 18 1018 40 10000 3.6 340 17:23 03.10.2019
6627 Clear 17 1018 37 10000 3.1 330 16:59 03.10.2019
6628 Clear 17 1019 42 10000 2.6 350 16:40 03.10.2019
6629 Clear 17 1019 42 10000 2.6 350 16:22 03.10.2019
6630 -273 0 0 0 0 0 15:55 03.10.2019
6631 Clear 20 1019 55 10000 2.31 278.806 15:37 03.10.2019
6632 Clear 19 1019 35 10000 1.5 30 15:18 03.10.2019
6633 Clear 20 1019 43 10000 1.5 50 14:39 03.10.2019
6634 Clear 19 1019 43 10000 1.5 50 14:20 03.10.2019
6635 Clear 20 1020 72 10000 1.84 333.268 13:56 03.10.2019
6636 Clear 20 1020 72 10000 1.84 333.268 13:56 03.10.2019
6637 Clear 21 1020 68 10000 1 200 13:38 03.10.2019
6638 Clear 21 1020 68 10000 1 200 13:38 03.10.2019
6639 Clear 21 1020 49 10000 1.86 328.092 13:19 03.10.2019
6640 Clear 22 1020 49 10000 1.86 328.092 12:54 03.10.2019
6641 Clear 22 1019 31 10000 2.6 10 12:36 03.10.2019
6642 Clear 22 1019 31 10000 2.6 10 12:18 03.10.2019
6643 Clear 23 1019 36 10000 5.1 30 11:40 03.10.2019
6644 Clear 23 1019 36 10000 5.1 30 11:22 03.10.2019
6645 Clear 23 1019 41 10000 6.2 30 10:58 03.10.2019
6646 Clear 24 1019 38 10000 6.7 30 10:39 03.10.2019
6647 Clear 25 1019 32 10000 7.7 30 10:18 03.10.2019
6648 Clear 25 1019 32 10000 7.7 30 09:57 03.10.2019
6649 Clear 25 1019 31 10000 8.2 30 09:38 03.10.2019
6650 Clear 27 1019 31 10000 8.2 30 09:19 03.10.2019
6651 Clear 27 1019 32 10000 7.7 40 08:43 03.10.2019
6652 Clear 28 1019 32 10000 7.7 40 08:25 03.10.2019
6653 Clear 28 1019 32 10000 9.3 50 07:56 03.10.2019
6654 Clear 29 1019 26 10000 7.7 50 07:37 03.10.2019
6655 Clear 29 1019 26 10000 7.7 50 07:37 03.10.2019
6656 Clear 29 1019 25 10000 8.7 50 07:19 03.10.2019
6657 Clear 29 1020 23 10000 8.2 40 06:45 03.10.2019
6658 Clear 30 1020 22 10000 5.7 110 06:18 03.10.2019
6659 Clear 30 1021 15 10000 4.1 60 05:38 03.10.2019
6660 Clear 30 1022 17 10000 3.1 350 04:50 03.10.2019
6661 Clear 30 1022 17 10000 3.1 350 04:25 03.10.2019
6662 Clear 28 1023 23 10000 2.1 280 03:21 03.10.2019
6663 Clear 26 1024 27 10000 2.6 310 02:33 03.10.2019
6664 Clear 24 1024 40 10000 3.1 280 01:51 03.10.2019
6665 Clear 24 1024 40 10000 3.1 280 01:32 03.10.2019
6666 Clear 20 1024 52 10000 3.